<
# Wetter Temperatur Luftdruck Luftfeuchtigkeit Sichtweite Windgeschwindigkeit Windrichtung Zeit
1 Rain 7 1011 93 10000 5.7 350 20:24 02.04.2020
2 Rain 7 1011 93 10000 5.7 350 19:57 02.04.2020
3 Rain 7 1011 93 10000 6.2 360 19:38 02.04.2020
4 Rain 7 1010 93 10000 7.2 10 19:19 02.04.2020
5 Rain 7 1011 93 10000 3.6 360 18:42 02.04.2020
6 Rain 7 1011 93 10000 4.1 350 18:21 02.04.2020
7 Rain 7 1010 93 10000 6.2 360 17:59 02.04.2020
8 Rain 7 1010 93 10000 6.2 360 17:59 02.04.2020
9 Rain 7 1010 93 10000 6.2 360 17:40 02.04.2020
10 Rain 7 1010 93 8000 6.2 360 17:22 02.04.2020
11 Rain 7 1010 93 7000 6.2 20 16:57 02.04.2020
12 Rain 7 1010 93 7000 6.2 20 16:39 02.04.2020
13 Rain 7 1009 93 3000 6.7 20 16:21 02.04.2020
14 Rain 7 1010 93 4000 5.7 40 15:56 02.04.2020
15 Rain 7 1010 93 4000 5.7 40 15:38 02.04.2020
16 Rain 8 1010 87 4000 4.1 40 15:18 02.04.2020
17 Rain 8 1010 87 4000 4.1 40 15:18 02.04.2020
18 Rain 8 1010 87 4000 6.2 30 14:55 02.04.2020
19 Rain 8 1010 87 4000 6.2 30 14:37 02.04.2020
20 Rain 8 1010 87 10000 6.7 40 14:18 02.04.2020
21 Clouds 8 1010 81 10000 7.7 40 13:40 02.04.2020
22 Clouds 9 1010 76 10000 6.7 40 13:21 02.04.2020
23 Clouds 9 1009 76 10000 8.7 40 12:59 02.04.2020
24 Clouds 9 1009 76 10000 8.7 40 12:41 02.04.2020
25 Clouds 9 1010 81 10000 7.2 40 12:19 02.04.2020
26 Clouds 9 1010 81 10000 7.2 40 12:19 02.04.2020
27 Clouds 9 1010 81 10000 7.2 40 12:19 02.04.2020
28 Clouds 9 1010 81 10000 7.2 40 12:19 02.04.2020
29 Clouds 9 1010 81 10000 7.2 40 12:19 02.04.2020
30 Clouds 9 1010 81 10000 6.7 40 11:57 02.04.2020
31 Clouds 9 1010 81 10000 6.7 40 11:38 02.04.2020
32 Clouds 8 1010 81 10000 7.7 40 11:19 02.04.2020
33 Clouds 8 1010 81 10000 7.7 40 11:19 02.04.2020
34 Clouds 8 1010 81 10000 7.7 40 11:19 02.04.2020
35 Clouds 8 1011 81 10000 8.2 50 10:55 02.04.2020
36 Clouds 8 1011 81 10000 8.2 50 10:37 02.04.2020
37 Clouds 8 1011 76 10000 8.2 40 10:19 02.04.2020
38 Clouds 8 1011 76 10000 7.7 40 09:55 02.04.2020
39 Clouds 8 1011 76 10000 7.7 40 09:37 02.04.2020
40 Clouds 8 1011 81 10000 7.2 40 09:18 02.04.2020
41 Clouds 8 1012 81 10000 9.3 40 08:45 02.04.2020
42 Clouds 8 1011 81 10000 7.7 50 08:26 02.04.2020
43 Clouds 8 1011 81 10000 8.2 40 07:45 02.04.2020
44 Clouds 8 1012 81 10000 8.2 50 07:20 02.04.2020
45 Clouds 8 1012 81 10000 7.7 50 06:58 02.04.2020
46 Clouds 8 1012 81 10000 6.2 50 06:21 02.04.2020
47 Clouds 8 1012 81 10000 6.7 60 05:45 02.04.2020
48 Clouds 8 1012 76 10000 6.2 60 04:35 02.04.2020
49 Clouds 8 1012 76 10000 6.2 60 04:35 02.04.2020
50 Clouds 8 1014 81 10000 6.2 50 01:52 02.04.2020
51 Clouds 8 1014 81 10000 5.1 60 00:50 02.04.2020
52 Clouds 8 1014 81 10000 5.1 60 00:50 02.04.2020
53 Clouds 8 1014 81 10000 5.1 60 00:28 02.04.2020
54 Clouds 8 1014 81 10000 4.1 60 23:57 01.04.2020
55 Clouds 8 1014 81 10000 4.1 60 23:37 01.04.2020
56 Clouds 8 1014 81 10000 4.1 60 23:37 01.04.2020
57 Clouds 8 1014 81 10000 5.7 60 23:18 01.04.2020
58 Clouds 8 1014 81 10000 5.7 60 23:18 01.04.2020
59 Clouds 8 1014 87 10000 7.2 40 22:41 01.04.2020
60 Clouds 8 1014 87 10000 5.7 50 22:22 01.04.2020
61 Clouds 8 1015 87 10000 5.7 50 21:57 01.04.2020
62 Clouds 8 1015 87 10000 5.7 50 21:38 01.04.2020
63 Clouds 8 1015 87 10000 4.6 40 21:18 01.04.2020
64 Clouds 8 1015 87 10000 5.1 30 20:55 01.04.2020
65 Clouds 8 1015 87 10000 5.1 30 20:37 01.04.2020
66 Clouds 7 1015 81 10000 5.7 30 20:18 01.04.2020
67 Clouds 7 1015 87 10000 5.1 30 19:43 01.04.2020
68 Clouds 7 1015 87 10000 7.2 30 19:22 01.04.2020
69 Clouds 7 1015 87 10000 6.7 40 18:56 01.04.2020
70 Clouds 7 1015 87 10000 6.7 40 18:56 01.04.2020
71 Clouds 7 1015 87 10000 6.7 40 18:38 01.04.2020
72 Clouds 7 1015 87 10000 6.7 40 18:38 01.04.2020
73 Clouds 7 1015 81 10000 8.2 30 18:20 01.04.2020
74 Clouds 8 1015 81 10000 7.2 30 17:55 01.04.2020
75 Clouds 7 1015 81 10000 7.2 30 17:36 01.04.2020
76 Clouds 7 1015 81 10000 7.2 40 17:18 01.04.2020
77 -273 0 0 0 0 0 16:42 01.04.2020
78 Clouds 8 1016 81 10000 6.2 40 16:24 01.04.2020
79 Clouds 8 1016 81 10000 6.2 40 15:58 01.04.2020
80 Clouds 8 1016 81 10000 7.2 40 15:40 01.04.2020
81 Clouds 8 1016 76 10000 7.2 40 15:21 01.04.2020
82 Clouds 8 1016 76 10000 7.2 30 14:57 01.04.2020
83 Clouds 8 1016 76 10000 7.2 30 14:57 01.04.2020
84 Clouds 8 1016 76 10000 7.2 30 14:38 01.04.2020
85 Clouds 8 1016 76 10000 6.2 50 14:19 01.04.2020
86 Clouds 8 1016 70 10000 7.2 40 13:58 01.04.2020
87 Clouds 8 1016 70 10000 7.2 40 13:37 01.04.2020
88 Clouds 8 1017 76 10000 7.2 20 13:19 01.04.2020
89 Clouds 9 1017 76 10000 8.2 20 12:54 01.04.2020
90 Clouds 9 1017 76 10000 8.2 20 12:36 01.04.2020
91 Clouds 9 1017 76 10000 7.7 10 12:18 01.04.2020
92 Clouds 8 1017 70 10000 8.2 30 11:42 01.04.2020
93 Clouds 8 1017 75 10000 8.7 20 11:23 01.04.2020
94 Clouds 8 1017 75 10000 7.7 20 10:58 01.04.2020
95 Clouds 8 1017 75 10000 7.7 20 10:37 01.04.2020
96 Clouds 8 1018 75 10000 6.7 20 10:18 01.04.2020
97 Clouds 8 1018 75 10000 6.7 20 09:57 01.04.2020
98 Clouds 8 1018 75 10000 6.7 30 09:38 01.04.2020
99 Clouds 7 1018 75 10000 5.7 30 09:18 01.04.2020
100 Clouds 7 1017 81 10000 7.2 20 08:40 01.04.2020
101 Clouds 7 1017 81 10000 6.2 20 08:18 01.04.2020
102 Clouds 7 1017 81 10000 7.2 20 07:43 01.04.2020
103 Clouds 7 1017 81 10000 5.7 20 07:21 01.04.2020
104 Clouds 7 1017 81 10000 5.1 20 06:48 01.04.2020
105 Clouds 7 1017 81 10000 5.7 20 06:24 01.04.2020
106 Clouds 7 1017 75 10000 5.1 20 05:56 01.04.2020
107 Clouds 7 1016 75 10000 6.2 20 04:30 01.04.2020
108 Clouds 7 1017 75 10000 5.7 20 03:28 01.04.2020
109 Clouds 6 1017 81 10000 6.7 20 02:49 01.04.2020
110 Clouds 6 1018 75 10000 6.2 20 01:57 01.04.2020
111 Clouds 6 1018 75 10000 5.7 30 01:38 01.04.2020
112 Clouds 6 1018 75 10000 5.7 30 01:18 01.04.2020
113 Clouds 6 1018 81 10000 7.7 20 00:45 01.04.2020
114 Clouds 6 1018 75 10000 6.2 40 00:19 01.04.2020
115 Clouds 6 1018 75 10000 6.7 40 23:42 31.03.2020
116 Clouds 7 1018 75 10000 6.7 30 23:23 31.03.2020
117 Clouds 7 1018 75 10000 7.7 30 22:57 31.03.2020
118 Clouds 7 1018 75 10000 8.2 20 22:36 31.03.2020
119 Clouds 6 1018 75 10000 8.2 20 22:18 31.03.2020
120 Clouds 7 1018 81 10000 7.2 30 21:55 31.03.2020
121 Clouds 7 1018 81 10000 7.2 30 21:55 31.03.2020
122 Clouds 7 1018 81 10000 7.2 30 21:55 31.03.2020
123 Clouds 7 1018 81 10000 8.2 20 21:37 31.03.2020
124 Clouds 7 1018 81 10000 8.2 20 21:19 31.03.2020
125 Clouds 7 1017 75 10000 7.2 30 20:54 31.03.2020
126 Clouds 7 1017 75 10000 7.2 30 20:36 31.03.2020
127 Clouds 7 1017 75 10000 7.2 30 20:36 31.03.2020
128 Clouds 7 1017 75 10000 7.2 30 20:18 31.03.2020
129 Clouds 7 1017 75 10000 6.7 40 19:41 31.03.2020
130 Clouds 7 1017 75 10000 7.2 30 19:22 31.03.2020
131 Clouds 7 1016 75 10000 7.7 20 18:55 31.03.2020
132 Clouds 7 1016 75 10000 7.7 20 18:37 31.03.2020
133 Clouds 7 1016 75 10000 7.7 40 18:18 31.03.2020
134 Clouds 8 1016 75 10000 8.7 30 17:54 31.03.2020
135 Clouds 8 1016 75 10000 8.2 20 17:36 31.03.2020
136 Clouds 8 1016 75 10000 8.2 20 17:18 31.03.2020
137 Clouds 8 1016 75 10000 8.7 20 16:38 31.03.2020
138 Clouds 8 1016 75 10000 9.8 20 16:19 31.03.2020
139 Clouds 8 1015 75 10000 11.3 10 15:57 31.03.2020
140 Clouds 8 1015 75 10000 11.3 10 15:38 31.03.2020
141 Clouds 8 1015 75 10000 11.3 10 15:38 31.03.2020
142 Clouds 8 1015 81 10000 11.3 20 15:38 31.03.2020
143 Clouds 8 1015 81 10000 11.3 20 15:19 31.03.2020
144 Clouds 9 1015 76 10000 10.3 10 14:56 31.03.2020
145 Clouds 9 1015 76 10000 10.3 10 14:38 31.03.2020
146 Clouds 9 1015 76 10000 9.8 10 14:20 31.03.2020
147 Clouds 9 1015 76 10000 12.3 360 13:42 31.03.2020
148 Clouds 9 1015 81 10000 13.4 360 13:19 31.03.2020
149 Clouds 9 1015 76 10000 12.3 10 12:55 31.03.2020
150 Clouds 9 1015 76 10000 12.3 10 12:37 31.03.2020
151 Clouds 10 1015 71 10000 11.8 360 12:18 31.03.2020
152 Clouds 10 1015 76 10000 12.9 360 11:39 31.03.2020
153 Clouds 10 1015 81 10000 12.3 360 11:20 31.03.2020
154 Clouds 10 1014 81 10000 13.4 360 10:58 31.03.2020
155 Clouds 10 1014 81 10000 13.4 360 10:39 31.03.2020
156 Clouds 11 1014 81 10000 11.3 350 10:21 31.03.2020
157 Clouds 10 1014 87 10000 11.3 360 09:56 31.03.2020
158 Clouds 10 1014 87 10000 11.3 360 09:37 31.03.2020
159 Clouds 10 1014 87 10000 11.3 360 09:37 31.03.2020
160 Clouds 10 1014 87 10000 11.3 360 09:37 31.03.2020
161 Clouds 10 1014 81 10000 10.3 350 09:19 31.03.2020
162 Clear 10 1014 81 10000 8.7 350 08:56 31.03.2020
163 Clear 10 1014 81 10000 8.7 350 08:56 31.03.2020
164 Clear 10 1014 81 10000 8.7 350 08:37 31.03.2020
165 Clear 10 1013 81 10000 7.7 340 08:18 31.03.2020
166 Clear 10 1013 81 10000 7.2 340 07:54 31.03.2020
167 Clear 10 1013 81 10000 7.2 340 07:36 31.03.2020
168 Clear 10 1013 81 10000 6.2 340 07:18 31.03.2020
169 Clear 9 1013 76 10000 7.7 330 06:42 31.03.2020
170 Clear 9 1012 76 10000 5.7 350 05:53 31.03.2020
171 Clear 9 1012 81 10000 4.6 350 05:26 31.03.2020
172 Clear 8 1012 87 10000 4.1 350 02:57 31.03.2020
173 Clear 9 1012 87 10000 3.6 340 01:47 31.03.2020
174 Clear 9 1012 87 10000 2.1 350 01:27 31.03.2020
175 Clear 10 1012 81 10000 1.5 360 00:43 31.03.2020
176 Clear 10 1012 81 10000 1.5 350 00:23 31.03.2020
177 Clear 10 1013 81 10000 0.5 0 23:41 30.03.2020
178 Clear 10 1013 81 10000 1.5 360 23:20 30.03.2020
179 Clear 10 1013 81 10000 1.5 360 23:20 30.03.2020
180 Clear 11 1013 81 10000 0.5 0 22:58 30.03.2020
181 Clear 11 1013 81 10000 0.5 0 22:38 30.03.2020
182 Clear 11 1012 76 10000 1 110 22:19 30.03.2020
183 Clear 11 1012 81 10000 2.6 330 21:57 30.03.2020
184 Clear 11 1012 81 10000 2.6 330 21:38 30.03.2020
185 Clear 12 1012 71 10000 1.5 60 21:20 30.03.2020
186 Clouds 12 1012 71 10000 1.5 60 21:20 30.03.2020
187 Clouds 12 1012 71 10000 2.1 100 20:58 30.03.2020
188 Clouds 12 1012 71 10000 2.1 100 20:39 30.03.2020
189 Clouds 12 1012 66 10000 1.5 90 20:20 30.03.2020
190 Clouds 13 1012 71 10000 1.5 90 19:56 30.03.2020
191 Clouds 13 1012 71 10000 1.5 90 19:37 30.03.2020
192 Clouds 13 1012 76 10000 1 0 19:19 30.03.2020
193 Clouds 14 1012 76 10000 2.1 110 18:42 30.03.2020
194 Clouds 14 1012 76 10000 2.1 110 18:42 30.03.2020
195 Clouds 15 1012 71 10000 3.1 140 18:24 30.03.2020
196 Clouds 15 1012 66 10000 2.6 150 17:58 30.03.2020
197 Clouds 15 1012 66 10000 2.6 150 17:39 30.03.2020
198 Clouds 15 1012 67 10000 1.5 180 17:19 30.03.2020
199 Clouds 15 1012 67 10000 1.5 180 16:57 30.03.2020
200 Clouds 16 1012 67 10000 2.1 200 16:39 30.03.2020
201 Clouds 16 1012 71 10000 2.6 200 16:20 30.03.2020
202 Clouds 16 1012 71 10000 2.6 200 16:20 30.03.2020
203 Clouds 16 1012 62 10000 2.6 210 15:55 30.03.2020
204 Clouds 16 1012 62 10000 2.6 210 15:37 30.03.2020
205 Clouds 16 1012 71 10000 3.6 230 15:19 30.03.2020
206 Clouds 15 1012 71 10000 3.6 230 14:55 30.03.2020
207 Clouds 15 1012 71 10000 3.6 230 14:37 30.03.2020
208 Clouds 16 1012 71 10000 3.6 240 14:18 30.03.2020
209 Clouds 15 1012 71 10000 4.6 230 13:54 30.03.2020
210 Clouds 15 1012 71 10000 4.6 230 13:36 30.03.2020
211 Clouds 15 1012 71 10000 4.1 220 13:18 30.03.2020
212 Clouds 15 1013 71 10000 4.6 220 12:41 30.03.2020
213 Clouds 15 1013 76 10000 5.1 200 12:20 30.03.2020
214 Clouds 15 1013 76 10000 4.6 200 11:57 30.03.2020
215 Clouds 14 1013 76 10000 4.6 200 11:39 30.03.2020
216 Clouds 14 1013 76 10000 5.1 200 11:21 30.03.2020
217 Clouds 14 1013 81 10000 4.6 210 10:41 30.03.2020
218 Clouds 13 1013 76 10000 5.7 210 10:22 30.03.2020
219 Clouds 13 1013 76 10000 5.7 210 09:58 30.03.2020
220 Clouds 13 1012 76 10000 5.1 220 09:39 30.03.2020
221 Clouds 11 1012 81 10000 5.1 210 09:19 30.03.2020
222 Clouds 12 1012 81 10000 5.1 210 08:42 30.03.2020
223 Clouds 11 1011 81 10000 4.6 210 08:23 30.03.2020
224 Clouds 10 1011 87 10000 5.1 210 07:53 30.03.2020
225 Clouds 10 1011 87 10000 5.1 210 07:34 30.03.2020
226 Clouds 10 1011 87 10000 4.6 220 06:57 30.03.2020
227 Clouds 10 1011 87 10000 4.6 220 06:33 30.03.2020
228 Clouds 10 1011 87 10000 2.6 220 05:55 30.03.2020
229 Clouds 10 1011 87 10000 6.2 220 05:33 30.03.2020
230 Clouds 10 1011 87 10000 5.1 230 04:24 30.03.2020
231 Clouds 10 1011 87 10000 6.2 220 03:44 30.03.2020
232 Clouds 10 1011 87 10000 6.2 210 02:42 30.03.2020
233 Clouds 10 1011 87 10000 5.7 210 01:44 30.03.2020
234 Clouds 10 1011 87 10000 6.2 200 00:50 30.03.2020
235 Clouds 10 1011 87 10000 6.2 210 00:23 30.03.2020
236 Clouds 10 1011 87 10000 5.7 210 23:42 29.03.2020
237 Clouds 9 1011 87 10000 5.1 210 23:24 29.03.2020
238 Clouds 9 1011 87 10000 5.1 210 22:58 29.03.2020
239 Clouds 9 1011 93 10000 6.2 200 22:38 29.03.2020
240 Clouds 10 1011 87 10000 5.1 210 22:19 29.03.2020
241 Clouds 9 1011 93 10000 4.6 210 21:57 29.03.2020
242 Clouds 9 1011 93 10000 4.6 210 21:36 29.03.2020
243 Clouds 9 1011 93 10000 4.6 210 21:36 29.03.2020
244 Clouds 9 1011 93 10000 5.1 200 21:18 29.03.2020
245 Clouds 10 1011 87 10000 4.1 210 20:55 29.03.2020
246 Clouds 10 1011 87 10000 4.1 210 20:36 29.03.2020
247 Clouds 10 1010 87 10000 4.6 210 20:18 29.03.2020
248 Clouds 10 1010 87 10000 4.1 190 19:42 29.03.2020
249 Clouds 10 1010 87 10000 4.1 190 19:42 29.03.2020
250 Clouds 10 1010 87 10000 5.7 200 19:24 29.03.2020
251 Clouds 10 1009 87 10000 4.6 220 18:58 29.03.2020
252 Clouds 10 1009 81 10000 3.1 260 18:40 29.03.2020
253 Clouds 10 1009 81 10000 3.1 260 18:20 29.03.2020
254 Clouds 10 1009 81 10000 3.1 260 18:20 29.03.2020
255 Clouds 10 1009 81 10000 5.1 270 17:58 29.03.2020
256 Clouds 10 1009 81 10000 5.1 270 17:40 29.03.2020
257 Clouds 10 1009 87 10000 4.6 250 17:22 29.03.2020
258 Clouds 11 1009 87 10000 4.6 250 16:58 29.03.2020
259 Clouds 11 1009 87 10000 6.2 250 16:39 29.03.2020
260 Clouds 10 1009 87 10000 5.7 240 16:20 29.03.2020
261 Clouds 10 1009 87 10000 5.7 240 15:56 29.03.2020
262 Clouds 10 1009 87 10000 5.7 240 15:37 29.03.2020
263 Rain 10 1009 87 10000 6.2 250 15:19 29.03.2020
264 Rain 10 1009 87 10000 6.2 240 14:55 29.03.2020
265 Rain 10 1009 87 10000 6.2 240 14:36 29.03.2020
266 Rain 10 1009 87 10000 6.2 240 14:18 29.03.2020
267 Rain 10 1009 87 10000 3.6 230 13:41 29.03.2020
268 Rain 10 1009 81 10000 4.1 240 13:22 29.03.2020
269 Rain 10 1009 81 10000 3.6 270 12:58 29.03.2020
270 Rain 10 1009 81 10000 3.6 270 12:39 29.03.2020
271 Rain 10 1009 81 10000 5.1 300 12:19 29.03.2020
272 Rain 10 1009 81 10000 4.1 280 11:58 29.03.2020
273 Rain 10 1009 81 10000 4.1 280 11:37 29.03.2020
274 Rain 9 1009 81 10000 4.1 270 11:19 29.03.2020
275 Rain 9 1009 87 10000 4.1 300 10:39 29.03.2020
276 Rain 10 1009 87 10000 3.6 270 10:20 29.03.2020
277 Rain 9 1009 93 10000 3.6 270 09:54 29.03.2020
278 Rain 10 1009 93 10000 3.6 270 09:36 29.03.2020
279 Rain 10 1009 87 8000 4.1 270 09:18 29.03.2020
280 Rain 9 1009 93 8000 3.6 270 08:41 29.03.2020
281 Rain 9 1008 93 8000 5.1 260 08:22 29.03.2020
282 Rain 9 1008 93 8000 5.1 260 07:45 29.03.2020
283 Rain 9 1008 93 10000 6.2 260 07:23 29.03.2020
284 Rain 9 1009 93 10000 5.1 260 05:59 29.03.2020
285 Rain 9 1009 93 10000 6.2 260 04:56 29.03.2020
286 Rain 9 1009 93 10000 7.2 240 03:41 29.03.2020
287 Rain 9 1009 93 10000 7.2 250 01:57 29.03.2020
288 Rain 9 1009 93 10000 7.2 250 01:39 29.03.2020
289 Rain 9 1009 93 10000 6.2 250 01:19 29.03.2020
290 Rain 9 1010 93 8000 5.7 240 00:40 29.03.2020
291 Rain 9 1010 93 8000 6.2 250 00:18 29.03.2020
292 Rain 9 1010 93 10000 6.2 240 23:40 28.03.2020
293 Rain 9 1010 93 10000 6.7 250 23:22 28.03.2020
294 Rain 9 1011 93 10000 5.7 230 22:43 28.03.2020
295 Rain 9 1011 87 10000 5.7 230 22:22 28.03.2020
296 Rain 8 1011 93 10000 5.7 240 21:57 28.03.2020
297 Rain 8 1011 93 10000 5.7 240 21:39 28.03.2020
298 Rain 8 1011 93 10000 5.1 240 21:19 28.03.2020
299 Rain 9 1011 93 10000 5.7 240 20:56 28.03.2020
300 Rain 9 1011 93 10000 6.2 240 20:37 28.03.2020
301 Rain 9 1011 93 10000 6.2 240 20:19 28.03.2020
302 Rain 9 1011 93 10000 6.2 240 19:55 28.03.2020
303 Rain 9 1011 87 10000 5.1 240 19:36 28.03.2020
304 Rain 9 1011 93 10000 5.1 230 19:18 28.03.2020
305 Rain 9 1011 93 10000 5.7 230 18:39 28.03.2020
306 Rain 9 1011 93 8000 5.1 230 18:20 28.03.2020
307 Rain 9 1011 93 8000 4.6 240 17:42 28.03.2020
308 Rain 9 1011 87 8000 4.6 240 17:22 28.03.2020
309 Rain 10 1011 93 10000 4.6 240 16:59 28.03.2020
310 Rain 9 1011 93 10000 4.6 240 16:39 28.03.2020
311 Rain 10 1011 87 10000 4.6 240 16:18 28.03.2020
312 Rain 10 1011 87 10000 5.1 240 15:40 28.03.2020
313 Clouds 10 1011 81 10000 5.1 230 15:21 28.03.2020
314 Clouds 10 1011 66 10000 3.1 250 14:59 28.03.2020
315 Clouds 10 1011 66 10000 3.1 250 14:40 28.03.2020
316 Clouds 11 1011 54 10000 3.6 300 14:21 28.03.2020
317 Clouds 11 1012 62 10000 3.6 300 13:43 28.03.2020
318 Clouds 11 1012 62 10000 2.6 330 13:23 28.03.2020
319 Clouds 10 1012 66 10000 3.1 350 12:41 28.03.2020
320 Clouds 10 1012 66 10000 2.1 10 12:23 28.03.2020
321 Clouds 10 1012 71 10000 2.6 350 11:55 28.03.2020
322 Clouds 10 1012 71 10000 2.6 350 11:37 28.03.2020
323 Clouds 10 1012 76 10000 3.1 350 11:18 28.03.2020
324 Clouds 10 1012 76 10000 3.1 350 10:39 28.03.2020
325 Clouds 9 1012 81 10000 3.6 360 10:20 28.03.2020
326 Clouds 9 1012 81 10000 4.1 360 09:43 28.03.2020
327 Clouds 9 1013 87 10000 3.1 360 09:24 28.03.2020
328 Clouds 9 1013 81 10000 3.6 360 08:58 28.03.2020
329 Clouds 9 1013 81 10000 3.6 360 08:40 28.03.2020
330 Clouds 9 1013 81 10000 3.1 360 08:21 28.03.2020
331 Clouds 8 1012 93 10000 3.6 10 07:44 28.03.2020
332 Clouds 8 1012 87 10000 3.6 350 07:26 28.03.2020
333 Clouds 8 1012 87 10000 3.1 340 06:36 28.03.2020
334 Clouds 8 1012 81 10000 2.6 350 05:54 28.03.2020
335 Clouds 8 1012 81 10000 2.1 360 05:21 28.03.2020
336 Clouds 8 1012 81 10000 3.6 340 04:42 28.03.2020
337 Clouds 8 1012 81 10000 4.1 350 03:54 28.03.2020
338 Clouds 8 1012 81 10000 3.6 350 02:25 28.03.2020
339 Clouds 8 1013 81 10000 4.1 350 01:41 28.03.2020
340 Clouds 8 1013 81 10000 3.6 360 01:18 28.03.2020
341 Clouds 8 1013 81 8000 4.1 20 00:37 28.03.2020
342 Clouds 9 1013 76 10000 4.1 20 23:59 27.03.2020
343 Clouds 9 1013 76 10000 4.1 20 23:41 27.03.2020
344 Clouds 8 1013 76 10000 4.1 20 23:41 27.03.2020
345 Clouds 9 1013 76 10000 4.1 30 23:21 27.03.2020
346 Clouds 8 1013 76 10000 4.6 20 22:56 27.03.2020
347 Clouds 8 1013 76 10000 4.6 20 22:38 27.03.2020
348 Clouds 9 1013 76 10000 3.6 40 22:19 27.03.2020
349 Clouds 9 1014 76 10000 3.6 30 21:45 27.03.2020
350 Clouds 9 1014 76 10000 4.6 20 21:25 27.03.2020
351 Clouds 9 1014 76 10000 4.6 20 20:59 27.03.2020
352 Clouds 9 1014 76 10000 4.1 30 20:41 27.03.2020
353 Clouds 9 1014 76 10000 5.7 20 20:21 27.03.2020
354 Clouds 9 1014 76 10000 5.7 20 19:58 27.03.2020
355 Clouds 9 1014 76 9000 4.6 20 19:40 27.03.2020
356 Clouds 9 1014 76 8000 4.6 20 19:21 27.03.2020
357 Clouds 9 1014 76 7000 4.6 30 18:45 27.03.2020
358 Clouds 10 1014 76 10000 4.1 30 18:25 27.03.2020
359 Clouds 10 1014 71 10000 6.2 30 17:59 27.03.2020
360 Clouds 10 1014 71 10000 6.2 30 17:40 27.03.2020
361 Clouds 10 1014 76 10000 5.7 30 17:20 27.03.2020
362 Clouds 10 1013 71 10000 6.7 20 16:44 27.03.2020
363 Clouds 10 1013 71 10000 6.7 30 16:26 27.03.2020
364 Clouds 10 1013 66 10000 6.2 30 15:57 27.03.2020
365 Clouds 12 1013 66 10000 6.2 20 15:39 27.03.2020
366 Clouds 12 1013 66 10000 6.2 20 15:21 27.03.2020
367 Clouds 12 1013 66 10000 5.7 30 14:45 27.03.2020
368 Clouds 13 1013 58 10000 6.2 30 14:24 27.03.2020
369 Clouds 13 1013 62 10000 6.7 10 13:56 27.03.2020
370 Clouds 13 1013 62 10000 6.7 10 13:37 27.03.2020
371 Clouds 13 1014 62 10000 5.1 30 13:18 27.03.2020
372 Clouds 12 1014 62 10000 6.2 20 12:45 27.03.2020
373 Clouds 12 1014 66 10000 6.2 20 12:20 27.03.2020
374 Clouds 12 1014 66 10000 5.1 20 11:59 27.03.2020
375 Clouds 12 1014 66 10000 5.1 20 11:41 27.03.2020
376 Clouds 12 1014 66 10000 5.1 20 11:41 27.03.2020
377 Clouds 12 1014 66 10000 5.7 20 11:22 27.03.2020
378 Clouds 12 1015 62 10000 5.7 20 10:54 27.03.2020
379 Clouds 12 1015 62 10000 5.7 20 10:54 27.03.2020
380 Clouds 12 1015 62 10000 5.7 20 10:36 27.03.2020
381 Clouds 11 1015 71 10000 5.7 20 10:18 27.03.2020
382 Clouds 11 1015 71 10000 4.1 30 09:55 27.03.2020
383 Clouds 11 1015 71 10000 4.1 30 09:36 27.03.2020
384 Clouds 10 1015 76 10000 5.1 40 09:18 27.03.2020
385 Clouds 9 1015 81 10000 5.7 40 08:54 27.03.2020
386 Clouds 9 1015 81 10000 5.7 40 08:36 27.03.2020
387 Clouds 9 1015 76 10000 6.2 50 08:18 27.03.2020
388 Clouds 9 1015 81 10000 4.1 40 07:43 27.03.2020
389 Clouds 9 1015 81 10000 4.6 40 07:21 27.03.2020
390 Clouds 9 1015 81 10000 4.6 40 06:45 27.03.2020
391 Clouds 9 1015 81 10000 5.1 30 06:26 27.03.2020
392 Clouds 9 1015 81 10000 4.6 30 03:42 27.03.2020
393 Clouds 9 1016 81 10000 4.1 30 02:25 27.03.2020
394 Clouds 9 1016 81 10000 6.2 40 01:21 27.03.2020
395 Clouds 9 1016 81 10000 4.6 40 00:45 27.03.2020
396 Clouds 9 1016 81 10000 5.7 40 00:23 27.03.2020
397 Clouds 9 1016 81 10000 6.2 40 23:42 26.03.2020
398 Clouds 9 1017 81 10000 5.7 40 23:19 26.03.2020
399 Clouds 9 1017 87 10000 7.2 40 22:58 26.03.2020
400 Clouds 9 1017 87 10000 7.2 40 22:58 26.03.2020
401 Clouds 9 1017 81 10000 7.2 50 22:37 26.03.2020
402 Clouds 9 1017 81 10000 7.2 50 22:18 26.03.2020
403 Clouds 9 1017 76 10000 7.7 40 21:40 26.03.2020
404 Clouds 9 1017 81 10000 7.2 40 21:22 26.03.2020
405 Clouds 9 1017 76 10000 8.2 50 20:59 26.03.2020
406 Clouds 9 1017 76 10000 8.2 50 20:40 26.03.2020
407 Clouds 9 1017 76 10000 7.2 40 20:22 26.03.2020
408 Clouds 9 1017 76 10000 7.7 30 19:58 26.03.2020
409 Clouds 9 1017 76 10000 7.7 30 19:40 26.03.2020
410 Clouds 9 1017 76 10000 9.3 50 19:22 26.03.2020
411 Clouds 9 1017 76 10000 8.2 40 18:58 26.03.2020
412 Clouds 9 1017 76 10000 8.2 40 18:40 26.03.2020
413 Clouds 9 1017 76 10000 8.7 30 18:22 26.03.2020
414 Clouds 9 1017 76 10000 7.2 40 17:45 26.03.2020
415 Clouds 9 1017 76 10000 7.2 40 17:20 26.03.2020
416 Clouds 10 1017 71 10000 8.2 40 16:57 26.03.2020
417 Clouds 10 1017 71 10000 8.2 40 16:38 26.03.2020
418 Clouds 10 1017 71 10000 7.7 40 16:20 26.03.2020
419 Clouds 10 1017 76 10000 8.2 40 15:56 26.03.2020
420 Clouds 10 1017 76 10000 8.2 40 15:38 26.03.2020
421 Clouds 10 1017 76 10000 8.7 50 15:19 26.03.2020
422 Clouds 10 1017 76 10000 9.3 50 14:43 26.03.2020
423 Clouds 9 1017 81 10000 9.8 40 14:24 26.03.2020
424 Clouds 9 1017 81 10000 8.2 40 13:56 26.03.2020
425 Clouds 9 1017 81 10000 8.2 40 13:56 26.03.2020
426 Clouds 10 1017 76 10000 8.7 40 13:38 26.03.2020
427 Clouds 10 1017 76 10000 8.7 40 13:19 26.03.2020
428 Clouds 10 1018 76 10000 7.7 30 12:39 26.03.2020
429 Clouds 9 1018 81 10000 8.2 40 12:20 26.03.2020
430 -273 0 0 0 0 0 12:20 26.03.2020
431 Clouds 10 1019 76 10000 7.7 40 11:46 26.03.2020
432 Clouds 9 1019 76 10000 9.3 40 11:24 26.03.2020
433 Clouds 10 1019 76 10000 7.7 40 10:59 26.03.2020
434 Clouds 10 1019 76 10000 7.7 40 10:41 26.03.2020
435 Clouds 9 1019 81 10000 9.3 40 10:20 26.03.2020
436 Clouds 9 1019 81 10000 9.3 40 09:45 26.03.2020
437 Clouds 9 1019 81 10000 8.2 40 09:21 26.03.2020
438 Clouds 9 1019 81 10000 8.2 50 08:57 26.03.2020
439 Clouds 9 1019 81 10000 8.2 50 08:38 26.03.2020
440 Clouds 9 1019 76 10000 5.7 40 08:19 26.03.2020
441 Clouds 8 1019 81 10000 7.7 50 07:45 26.03.2020
442 Clouds 8 1019 81 10000 6.7 50 07:23 26.03.2020
443 Clouds 8 1019 87 10000 6.2 50 06:57 26.03.2020
444 Clouds 8 1019 81 10000 8.2 50 06:32 26.03.2020
445 Clouds 8 1019 81 10000 6.7 50 05:29 26.03.2020
446 Clouds 8 1020 75 10000 6.2 50 03:45 26.03.2020
447 Clouds 8 1020 75 10000 6.2 40 02:56 26.03.2020
448 Clouds 8 1020 75 10000 8.2 40 01:51 26.03.2020
449 Clouds 8 1021 75 10000 8.7 40 00:56 26.03.2020
450 Clouds 8 1021 75 10000 7.7 50 00:22 26.03.2020
451 Clouds 8 1022 75 10000 8.7 50 23:41 25.03.2020
452 Clouds 8 1022 75 10000 8.7 50 23:22 25.03.2020
453 Clouds 8 1022 75 10000 7.2 50 22:42 25.03.2020
454 Clouds 8 1022 75 10000 9.3 40 22:22 25.03.2020
455 Clouds 8 1023 75 10000 9.3 50 21:57 25.03.2020
456 Clouds 8 1023 75 10000 9.3 50 21:38 25.03.2020
457 Clouds 8 1023 75 10000 7.7 60 21:20 25.03.2020
458 Clouds 8 1023 75 10000 8.7 40 20:56 25.03.2020
459 Clouds 8 1023 75 10000 8.2 50 20:37 25.03.2020
460 Clouds 8 1023 75 10000 8.2 50 20:18 25.03.2020
461 Clouds 8 1023 75 10000 7.7 50 19:43 25.03.2020
462 Clouds 8 1023 75 10000 8.2 50 19:23 25.03.2020
463 Clouds 7 1023 87 10000 6.7 40 18:58 25.03.2020
464 Clouds 7 1023 87 10000 6.7 40 18:40 25.03.2020
465 Clouds 8 1023 81 10000 7.2 40 18:21 25.03.2020
466 Clouds 8 1023 81 10000 7.2 50 17:56 25.03.2020
467 Clouds 8 1023 81 10000 6.7 40 17:37 25.03.2020
468 Clouds 8 1023 81 10000 6.7 40 17:19 25.03.2020
469 Clouds 8 1023 81 10000 6.7 50 16:44 25.03.2020
470 Clouds 8 1022 81 10000 7.7 40 16:24 25.03.2020
471 Clouds 8 1022 81 10000 7.7 40 15:59 25.03.2020
472 Clouds 8 1022 81 10000 7.2 40 15:41 25.03.2020
473 Clouds 8 1021 75 10000 9.3 50 15:20 25.03.2020
474 Clouds 8 1022 81 10000 7.2 40 14:42 25.03.2020
475 Clouds 8 1023 75 10000 7.7 40 14:22 25.03.2020
476 Clouds 9 1023 70 10000 7.7 40 13:59 25.03.2020
477 Clouds 9 1023 70 10000 7.7 40 13:41 25.03.2020
478 Clouds 9 1023 70 10000 6.7 40 13:22 25.03.2020
479 Clouds 9 1023 70 10000 7.2 30 12:38 25.03.2020
480 Clouds 9 1023 70 10000 7.2 30 12:19 25.03.2020
481 Clouds 8 1023 75 10000 7.7 30 11:55 25.03.2020
482 Clouds 8 1023 81 10000 5.7 40 11:36 25.03.2020
483 Clouds 8 1023 81 10000 5.7 40 11:18 25.03.2020
484 Clouds 8 1023 75 10000 7.7 40 10:56 25.03.2020
485 Clouds 8 1023 75 10000 7.7 40 10:37 25.03.2020
486 Clouds 8 1023 81 10000 6.7 40 10:18 25.03.2020
487 Clouds 8 1023 81 8000 7.2 30 09:42 25.03.2020
488 Clouds 8 1023 81 10000 5.7 40 09:23 25.03.2020
489 Clouds 8 1022 81 8000 7.2 40 08:56 25.03.2020
490 Clouds 8 1022 81 8000 7.2 40 08:38 25.03.2020
491 Clouds 8 1022 81 7000 7.2 40 08:19 25.03.2020
492 Clouds 8 1022 81 7000 6.2 50 07:41 25.03.2020
493 Clouds 8 1022 75 10000 5.1 50 07:22 25.03.2020
494 Clouds 7 1021 87 10000 5.7 40 06:48 25.03.2020
495 Clouds 7 1021 81 10000 6.2 40 06:28 25.03.2020
496 Rain 7 1021 81 10000 6.7 50 05:56 25.03.2020
497 Clouds 7 1021 87 10000 6.2 50 05:30 25.03.2020
498 Clouds 7 1021 87 10000 6.7 40 04:39 25.03.2020
499 Clouds 7 1020 87 10000 6.7 50 03:36 25.03.2020
500 Clouds 7 1020 87 10000 6.7 50 02:31 25.03.2020
501 Clouds 8 1020 75 10000 6.2 40 01:21 25.03.2020
502 Clouds 7 1020 87 10000 7.2 50 00:48 25.03.2020
503 Clouds 7 1020 87 10000 6.2 50 00:23 25.03.2020
504 Clouds 7 1020 87 10000 6.7 40 23:45 24.03.2020
505 Clouds 7 1020 87 10000 7.2 40 23:26 24.03.2020
506 Clouds 7 1020 87 10000 7.2 40 22:56 24.03.2020
507 Clouds 7 1020 87 10000 7.2 40 22:37 24.03.2020
508 Clouds 7 1020 87 10000 6.7 40 22:19 24.03.2020
509 Clouds 7 1020 87 10000 6.2 40 21:55 24.03.2020
510 Clouds 7 1020 87 10000 6.2 40 21:55 24.03.2020
511 Clouds 7 1020 87 10000 6.2 40 21:37 24.03.2020
512 Clouds 8 1020 81 10000 6.2 40 21:18 24.03.2020
513 Clouds 8 1020 81 10000 7.2 40 20:43 24.03.2020
514 Clouds 8 1020 75 10000 7.7 40 20:24 24.03.2020
515 Clouds 8 1020 75 10000 7.7 40 19:59 24.03.2020
516 Clouds 8 1020 75 10000 7.7 40 19:41 24.03.2020
517 Clouds 8 1020 75 10000 7.2 50 19:19 24.03.2020
518 Clouds 8 1019 81 10000 8.2 40 18:55 24.03.2020
519 Rain 8 1019 81 10000 7.7 40 18:36 24.03.2020
520 Rain 8 1019 81 10000 7.7 40 18:18 24.03.2020
521 Rain 8 1019 81 10000 7.7 40 17:42 24.03.2020
522 Clouds 8 1019 81 10000 7.2 30 17:23 24.03.2020
523 Clouds 8 1019 87 10000 6.7 40 16:58 24.03.2020
524 Clouds 8 1019 87 10000 6.7 40 16:40 24.03.2020
525 Clouds 8 1018 87 10000 7.2 40 16:22 24.03.2020
526 Clouds 8 1018 87 10000 7.2 40 15:58 24.03.2020
527 Clouds 8 1018 87 10000 7.2 40 15:38 24.03.2020
528 Clouds 8 1018 87 10000 7.7 40 15:20 24.03.2020
529 Clouds 8 1018 87 10000 7.7 30 14:43 24.03.2020
530 Clouds 8 1018 87 10000 7.7 40 14:20 24.03.2020
531 Clouds 8 1018 87 10000 7.7 40 13:44 24.03.2020
532 Clouds 8 1018 87 10000 7.2 50 13:24 24.03.2020
533 Clouds 8 1018 87 10000 7.7 40 12:58 24.03.2020
534 Clouds 8 1018 87 10000 7.7 40 12:38 24.03.2020
535 Clouds 8 1017 87 10000 8.2 40 12:38 24.03.2020
536 Clouds 8 1017 87 10000 8.2 40 12:20 24.03.2020
537 Clouds 8 1017 87 10000 7.2 40 11:40 24.03.2020
538 Clouds 8 1017 87 10000 7.2 50 11:20 24.03.2020
539 Clouds 8 1017 81 10000 6.7 50 10:54 24.03.2020
540 Clouds 8 1017 81 10000 6.7 50 10:36 24.03.2020
541 Clouds 8 1017 81 10000 5.7 50 10:18 24.03.2020
542 Clouds 9 1017 81 10000 6.2 50 09:42 24.03.2020
543 Clouds 8 1017 81 10000 6.7 50 09:24 24.03.2020
544 Clouds 8 1017 87 10000 6.7 50 08:40 24.03.2020
545 Clouds 8 1017 87 10000 6.2 50 08:21 24.03.2020
546 Clouds 8 1017 87 10000 6.2 50 08:21 24.03.2020
547 Clouds 8 1017 87 10000 5.7 50 07:51 24.03.2020
548 Clouds 8 1016 87 10000 6.2 50 07:25 24.03.2020
549 Clouds 8 1016 87 10000 6.2 50 07:25 24.03.2020
550 Clouds 8 1016 87 10000 5.7 50 06:59 24.03.2020
551 Clouds 8 1016 87 10000 6.2 40 06:33 24.03.2020
552 Rain 8 1017 93 4000 11.3 60 05:29 24.03.2020
553 Drizzle 8 1016 87 7000 7.2 50 04:41 24.03.2020
554 Clouds 8 1016 81 7000 7.2 50 03:19 24.03.2020
555 Clouds 9 1016 87 7000 6.2 50 01:50 24.03.2020
556 Drizzle 9 1016 87 7000 5.7 50 00:51 24.03.2020
557 Clouds 9 1016 93 7000 5.1 60 00:26 24.03.2020
558 Clouds 9 1016 87 7000 5.1 60 23:49 23.03.2020
559 Rain 9 1016 100 4000 9.3 60 23:27 23.03.2020
560 Clouds 9 1016 87 8000 4.6 50 22:58 23.03.2020
561 Clouds 9 1016 87 8000 4.6 50 22:39 23.03.2020
562 Clouds 9 1016 87 8000 4.6 40 22:21 23.03.2020
563 Clouds 9 1016 87 8000 5.1 30 21:44 23.03.2020
564 Clouds 9 1016 87 8000 5.7 40 21:21 23.03.2020
565 Clouds 9 1016 87 6000 5.7 40 20:58 23.03.2020
566 Clouds 9 1016 87 6000 5.7 40 20:40 23.03.2020
567 Clouds 9 1016 87 8000 4.6 40 20:22 23.03.2020
568 Clouds 9 1016 87 6000 5.7 30 19:54 23.03.2020
569 Clouds 9 1016 87 6000 5.7 30 19:36 23.03.2020
570 Clouds 9 1017 87 6000 4.6 30 19:18 23.03.2020
571 Clouds 9 1016 87 6000 6.2 20 18:42 23.03.2020
572 Clouds 9 1016 87 6000 6.2 20 18:23 23.03.2020
573 Clouds 9 1016 93 10000 7.2 20 17:56 23.03.2020
574 Clouds 9 1016 93 10000 7.2 20 17:56 23.03.2020
575 Rain 9 1017 100 4000 9.8 30 17:38 23.03.2020
576 Clouds 9 1016 87 10000 6.2 30 17:18 23.03.2020
577 Clouds 9 1016 87 10000 6.2 20 16:43 23.03.2020
578 Clouds 9 1016 87 10000 6.7 30 16:25 23.03.2020
579 Clouds 9 1016 87 10000 5.7 20 15:43 23.03.2020
580 Clouds 9 1016 87 8000 6.2 30 15:21 23.03.2020
581 Clouds 9 1016 87 8000 6.2 30 14:57 23.03.2020
582 Clouds 9 1016 87 8000 6.2 30 14:37 23.03.2020
583 Clouds 9 1016 87 10000 6.7 30 14:18 23.03.2020
584 Clouds 9 1016 81 10000 7.2 30 13:41 23.03.2020
585 Clouds 9 1016 87 10000 7.2 30 13:22 23.03.2020
586 Clouds 9 1016 81 10000 6.2 20 12:58 23.03.2020
587 Clouds 9 1016 81 10000 6.2 20 12:58 23.03.2020
588 Clouds 9 1016 81 10000 6.2 20 12:40 23.03.2020
589 Clouds 10 1016 71 10000 4.1 30 12:21 23.03.2020
590 Clouds 9 1016 76 10000 4.1 30 11:42 23.03.2020
591 Clouds 10 1017 76 10000 4.1 10 11:21 23.03.2020
592 Rain 9 1017 100 2400 8.2 60 10:58 23.03.2020
593 Clouds 10 1017 76 10000 4.1 30 10:40 23.03.2020
594 Clouds 9 1017 76 10000 4.6 50 10:21 23.03.2020
595 Clouds 9 1017 76 10000 5.1 70 09:57 23.03.2020
596 Clouds 10 1017 76 10000 5.1 70 09:39 23.03.2020
597 Clouds 9 1017 76 10000 4.1 60 09:18 23.03.2020
598 Clouds 9 1017 81 10000 4.6 30 08:38 23.03.2020
599 Clouds 9 1017 81 10000 5.1 20 08:19 23.03.2020
600 Clouds 9 1017 81 10000 4.6 20 07:50 23.03.2020
601 Clouds 8 1017 81 10000 4.6 20 07:32 23.03.2020
602 Rain 9 1018 93 3200 6.7 40 06:54 23.03.2020
603 Clouds 9 1017 81 10000 5.1 20 06:32 23.03.2020
604 Clouds 8 1017 87 10000 5.1 20 05:42 23.03.2020
605 Clouds 9 1017 87 10000 5.1 30 03:54 23.03.2020
606 Clouds 8 1017 93 10000 6.2 20 02:43 23.03.2020
607 Clouds 8 1018 87 10000 5.1 20 01:39 23.03.2020
608 Clouds 9 1018 81 10000 5.1 30 00:45 23.03.2020
609 Clouds 9 1017 81 10000 5.7 30 23:58 22.03.2020
610 Clouds 9 1017 81 10000 5.7 30 23:40 22.03.2020
611 Clouds 9 1018 81 10000 4.6 40 23:22 22.03.2020
612 Clouds 9 1018 81 10000 6.2 60 22:40 22.03.2020
613 Clouds 9 1018 81 10000 6.2 60 22:20 22.03.2020
614 Clouds 9 1018 81 10000 7.2 50 21:40 22.03.2020
615 Clouds 9 1018 81 10000 7.2 50 21:21 22.03.2020
616 Clouds 9 1018 81 10000 7.2 50 20:58 22.03.2020
617 Clouds 9 1018 81 10000 7.2 30 20:40 22.03.2020
618 Clouds 9 1018 76 10000 7.7 30 20:21 22.03.2020
619 Clouds 9 1018 76 10000 7.7 30 19:56 22.03.2020
620 Clouds 9 1017 81 10000 8.7 30 19:38 22.03.2020
621 Clouds 9 1017 81 10000 8.2 30 19:19 22.03.2020
622 Clouds 10 1017 81 10000 7.7 20 18:57 22.03.2020
623 Clouds 9 1017 81 10000 7.7 20 18:39 22.03.2020
624 Clouds 9 1017 81 10000 9.3 20 18:18 22.03.2020
625 Clouds 10 1017 76 10000 9.3 10 17:56 22.03.2020
626 Clouds 9 1017 76 10000 9.3 10 17:37 22.03.2020
627 Clouds 10 1016 76 10000 9.3 20 17:19 22.03.2020
628 Clouds 10 1016 76 10000 9.3 360 16:55 22.03.2020
629 Clouds 10 1016 76 10000 9.3 360 16:37 22.03.2020
630 Clouds 11 1015 71 10000 8.7 360 16:19 22.03.2020
631 Clouds 12 1015 71 10000 8.2 360 15:39 22.03.2020
632 Clouds 12 1015 62 10000 8.7 350 15:19 22.03.2020
633 Clouds 14 1015 51 10000 6.7 360 14:46 22.03.2020
634 Clouds 15 1015 48 10000 5.1 330 14:18 22.03.2020
635 Clouds 15 1015 55 10000 3.6 240 13:42 22.03.2020
636 Clouds 14 1015 48 10000 4.1 240 13:20 22.03.2020
637 Clouds 15 1015 51 10000 3.6 240 12:47 22.03.2020
638 Clouds 15 1015 48 10000 3.6 240 12:23 22.03.2020
639 Clouds 15 1015 48 10000 3.6 240 12:23 22.03.2020
640 Clouds 14 1015 76 10000 6.2 10 11:59 22.03.2020
641 Clouds 16 1015 54 10000 2.6 210 11:41 22.03.2020
642 Clouds 15 1015 58 10000 3.6 240 11:23 22.03.2020
643 Clouds 15 1015 54 10000 3.6 240 10:57 22.03.2020
644 Clouds 15 1015 54 10000 3.6 240 10:39 22.03.2020
645 Clouds 15 1016 66 10000 4.1 250 10:21 22.03.2020
646 Clouds 15 1015 62 10000 3.6 230 09:43 22.03.2020
647 Clouds 15 1015 66 10000 3.6 240 09:23 22.03.2020
648 Clouds 14 1015 71 10000 4.1 230 08:44 22.03.2020
649 Clouds 13 1015 66 10000 4.6 220 08:25 22.03.2020
650 Clouds 13 1015 66 10000 5.1 230 07:53 22.03.2020
651 Clouds 12 1015 66 10000 5.1 230 07:28 22.03.2020
652 Clouds 10 1015 76 10000 5.7 220 06:40 22.03.2020
653 Clouds 8 1014 93 10000 0.5 0 05:35 22.03.2020
654 Clouds 7 1014 93 10000 2.81 218 03:47 22.03.2020
655 Clear 7 1014 93 10000 2.22 232 01:35 22.03.2020
656 Clear 7 1014 93 10000 2.1 236 00:48 22.03.2020
657 Clear 8 1014 93 10000 2.1 236 00:29 22.03.2020
658 Clear 8 1015 93 10000 1 150 23:44 21.03.2020
659 Clear 8 1014 93 10000 1.5 160 23:21 21.03.2020
660 Clear 8 1015 81 10000 1 0 22:58 21.03.2020
661 Clear 8 1015 81 10000 1 0 22:37 21.03.2020
662 Clear 8 1015 75 10000 1.44 200 22:18 21.03.2020
663 Clear 8 1015 81 10000 0.5 230 21:56 21.03.2020
664 Clear 8 1015 81 10000 0.5 230 21:37 21.03.2020
665 Clear 9 1015 81 10000 0.5 190 21:18 21.03.2020
666 Clear 9 1015 81 10000 0.5 0 20:41 21.03.2020
667 Clear 9 1015 81 10000 0.5 0 20:20 21.03.2020
668 Clear 10 1015 87 10000 1.5 220 19:44 21.03.2020
669 Clear 10 1015 70 10000 1 210 19:25 21.03.2020
670 Clear 10 1015 61 10000 1.5 210 18:59 21.03.2020
671 Clear 11 1015 61 10000 1.5 210 18:39 21.03.2020
672 Clear 11 1015 46 10000 1.5 170 18:20 21.03.2020
673 Clear 11 1015 56 10000 1.5 170 17:57 21.03.2020
674 Clear 12 1015 50 10000 2.1 120 17:39 21.03.2020
675 Clear 12 1015 43 10000 1 0 17:20 21.03.2020
676 Clear 13 1016 43 10000 1.5 240 16:41 21.03.2020
677 Clear 13 1016 54 10000 2.1 220 16:22 21.03.2020
678 Clear 13 1016 54 10000 2.1 220 15:57 21.03.2020
679 Clear 13 1016 54 10000 2.1 220 15:39 21.03.2020
680 Clear 13 1016 58 10000 2.6 240 15:20 21.03.2020
681 Clear 13 1017 58 10000 3.1 240 14:55 21.03.2020
682 Clear 13 1017 58 10000 3.1 240 14:37 21.03.2020
683 Clouds 14 1017 58 10000 3.1 230 14:18 21.03.2020
684 Clouds 13 1017 58 10000 3.1 210 13:57 21.03.2020
685 Clouds 13 1017 58 10000 3.1 210 13:38 21.03.2020
686 Clouds 13 1018 62 10000 3.1 200 13:19 21.03.2020
687 Clouds 13 1018 62 10000 3.1 220 12:41 21.03.2020
688 Clouds 13 1018 58 10000 2.6 200 12:20 21.03.2020
689 Clouds 12 1018 38 10000 4.6 70 11:59 21.03.2020
690 Clouds 12 1019 62 10000 2.6 190 11:39 21.03.2020
691 Clouds 12 1019 66 10000 3.1 200 11:20 21.03.2020
692 Clouds 12 1020 62 10000 3.1 190 10:58 21.03.2020
693 Clouds 12 1020 62 10000 3.1 190 10:39 21.03.2020
694 Clouds 12 1020 62 10000 3.1 190 10:21 21.03.2020
695 Clouds 12 1020 62 10000 3.1 180 09:59 21.03.2020
696 Clouds 11 1020 62 10000 3.1 180 09:39 21.03.2020
697 Clouds 11 1020 66 10000 2.6 160 09:20 21.03.2020
698 Clouds 11 1020 66 10000 2.6 160 09:20 21.03.2020
699 Clouds 11 1020 61 10000 2.1 150 08:55 21.03.2020
700 Clear 10 1020 61 10000 2.1 150 08:37 21.03.2020
701 Clear 10 1020 66 10000 1.5 140 08:18 21.03.2020
702 Clear 8 1020 57 10000 1.5 120 07:37 21.03.2020
703 Clear 7 1020 61 10000 2.1 90 07:18 21.03.2020
704 Clear 5 1020 81 6000 1 0 06:42 21.03.2020
705 Clear 4 1020 93 10000 1 360 06:23 21.03.2020
706 Clear 3 1020 93 8000 2.1 350 05:40 21.03.2020
707 Clear 4 1020 86 8000 1 360 03:49 21.03.2020
708 Clear 4 1020 86 8000 2.1 350 02:37 21.03.2020
709 Clear 4 1020 86 10000 2.1 340 01:44 21.03.2020
710 Clear 5 1020 86 10000 2.1 340 01:23 21.03.2020
711 Clear 5 1021 86 10000 1 300 00:39 21.03.2020
712 Clear 6 1021 87 10000 0.18 52 00:21 21.03.2020
713 Clear 5 1021 81 10000 0.5 340 23:42 20.03.2020
714 Clear 6 1021 87 10000 0.5 320 23:22 20.03.2020
715 Clear 7 1021 75 10000 0.83 134 22:44 20.03.2020
716 Clear 7 1021 75 10000 1 290 22:25 20.03.2020
717 Clear 7 1021 70 10000 0.83 134 21:58 20.03.2020
718 Clear 7 1021 70 10000 0.83 134 21:40 20.03.2020
719 Clear 7 1021 81 10000 0.83 134 21:20 20.03.2020
720 Clear 8 1021 75 10000 1 260 20:58 20.03.2020
721 Clear 8 1021 75 10000 1 260 20:40 20.03.2020
722 Clouds 8 1021 66 10000 1 0 20:19 20.03.2020
723 Clouds 9 1021 70 10000 1.5 70 19:47 20.03.2020
724 Clouds 9 1021 75 10000 1.75 98 19:20 20.03.2020
725 Clouds 9 1021 75 10000 1 220 18:57 20.03.2020
726 Clouds 9 1021 75 10000 1 220 18:38 20.03.2020
727 Clouds 9 1021 75 10000 1 220 18:38 20.03.2020
728 Clouds 9 1021 75 10000 1 180 18:19 20.03.2020
729 Clouds 9 1021 70 10000 1.5 190 17:56 20.03.2020
730 Clouds 10 1021 53 10000 2.1 100 17:37 20.03.2020
731 Clouds 10 1021 70 10000 2.1 230 17:18 20.03.2020
732 Clouds 10 1021 70 10000 2.1 220 16:41 20.03.2020
733 Clouds 10 1021 70 10000 2.1 220 16:41 20.03.2020
734 Clouds 10 1021 66 10000 2.1 200 16:20 20.03.2020
735 Clouds 10 1021 66 10000 2.1 190 15:44 20.03.2020
736 Clouds 10 1021 66 10000 2.6 190 15:23 20.03.2020
737 Clouds 11 1021 66 10000 3.1 220 14:58 20.03.2020
738 Clouds 11 1021 66 10000 3.1 220 14:40 20.03.2020
739 Clear 11 1021 66 10000 3.6 200 14:20 20.03.2020
740 Clear 11 1021 62 10000 3.6 190 13:48 20.03.2020
741 Clear 10 1022 71 10000 4.1 190 13:22 20.03.2020
742 Clouds 10 1022 66 10000 5.1 170 12:58 20.03.2020
743 Clouds 10 1022 66 10000 5.1 170 12:38 20.03.2020
744 Clouds 10 1022 66 10000 4.1 200 12:19 20.03.2020
745 Clouds 10 1022 53 10000 2.6 100 11:39 20.03.2020
746 Clouds 10 1023 66 10000 4.6 190 11:20 20.03.2020
747 Clouds 9 1022 61 10000 4.1 130 10:55 20.03.2020
748 Clouds 9 1022 61 10000 4.1 130 10:37 20.03.2020
749 Clouds 10 1023 61 10000 2.6 80 10:18 20.03.2020
750 Clouds 10 1023 61 10000 3.1 90 09:45 20.03.2020
751 Clouds 9 1023 61 10000 3.1 60 09:21 20.03.2020
752 Clouds 8 1023 61 10000 3.1 20 08:57 20.03.2020
753 Clouds 8 1023 61 10000 3.1 20 08:38 20.03.2020
754 Clouds 8 1023 70 10000 0.5 0 08:18 20.03.2020
755 Clouds 7 1023 75 10000 1.96 56 07:39 20.03.2020
756 Clouds 7 1023 75 10000 1.96 56 07:21 20.03.2020
757 Clouds 6 1022 75 10000 1.96 56 06:42 20.03.2020
758 Clouds 6 1022 80 10000 0.5 0 06:18 20.03.2020
759 Clouds 6 1022 75 10000 2.1 40 04:38 20.03.2020
760 Clouds 6 1022 70 10000 2.1 60 02:50 20.03.2020
761 Clouds 6 1022 81 10000 1 0 01:50 20.03.2020
762 Clouds 6 1022 81 10000 1.5 30 00:45 20.03.2020
763 Clouds 6 1022 80 10000 2.6 350 00:23 20.03.2020
764 Clouds 6 1022 75 10000 3.1 320 23:42 19.03.2020
765 Clouds 6 1022 80 10000 3.1 330 23:23 19.03.2020
766 Clouds 5 1022 80 10000 2.6 340 22:41 19.03.2020
767 Clouds 6 1023 80 10000 2.6 350 22:23 19.03.2020
768 Clouds 6 1022 80 10000 3.1 350 21:58 19.03.2020
769 Clouds 6 1022 86 10000 3.6 340 21:38 19.03.2020
770 Clouds 6 1022 86 10000 3.6 340 21:19 19.03.2020
771 Clouds 6 1022 75 10000 3.6 350 20:44 19.03.2020
772 Clouds 7 1023 70 10000 2.6 10 20:25 19.03.2020
773 Clouds 7 1023 65 10000 3.1 20 19:59 19.03.2020
774 Clouds 7 1023 65 10000 3.1 20 19:39 19.03.2020
775 Clouds 8 1023 61 10000 3.1 40 19:21 19.03.2020
776 Clouds 8 1023 60 10000 3.6 20 18:58 19.03.2020
777 Clouds 8 1023 60 10000 3.6 20 18:40 19.03.2020
778 Clouds 8 1023 60 10000 4.1 30 18:22 19.03.2020
779 Clouds 9 1023 49 10000 5.1 20 17:54 19.03.2020
780 Clouds 9 1023 65 10000 4.1 50 17:36 19.03.2020
781 Clouds 9 1023 45 10000 7.2 10 17:18 19.03.2020
782 Clouds 9 1023 49 10000 7.2 360 16:41 19.03.2020
783 Clouds 10 1023 46 10000 8.2 10 16:21 19.03.2020
784 Clouds 10 1023 39 10000 7.7 10 15:42 19.03.2020
785 Clouds 10 1023 55 10000 7.7 10 15:23 19.03.2020
786 Clouds 10 1023 55 10000 7.7 10 15:23 19.03.2020
787 Clouds 10 1023 50 10000 7.7 350 14:43 19.03.2020
788 Clouds 10 1024 55 10000 8.7 10 14:23 19.03.2020
789 Clouds 10 1024 53 10000 8.7 360 13:57 19.03.2020
790 Clouds 10 1024 53 10000 8.7 360 13:57 19.03.2020
791 Clouds 10 1024 53 10000 8.7 360 13:37 19.03.2020
792 Clouds 10 1024 46 10000 10.3 10 13:18 19.03.2020
793 Clouds 9 1024 55 10000 10.3 360 12:41 19.03.2020
794 Clouds 10 1024 57 10000 10.3 360 12:22 19.03.2020
795 Clouds 10 1024 61 10000 9.8 360 11:57 19.03.2020
796 Clouds 10 1024 61 10000 9.8 360 11:57 19.03.2020
797 Clouds 9 1024 66 10000 9.3 360 11:38 19.03.2020
798 Clouds 9 1024 66 10000 9.3 360 11:20 19.03.2020
799 Clouds 9 1025 70 10000 7.2 10 10:41 19.03.2020
800 Rain 8 1025 81 10000 5.1 10 10:20 19.03.2020
801 Rain 8 1025 81 7000 9.3 350 09:57 19.03.2020
802 Rain 8 1025 81 7000 9.3 350 09:37 19.03.2020
803 Clouds 9 1024 57 10000 9.3 20 09:18 19.03.2020
804 Clouds 8 1024 66 10000 9.3 10 08:45 19.03.2020
805 Clouds 8 1024 61 10000 10.3 10 08:21 19.03.2020
806 Clouds 8 1024 65 10000 9.3 360 07:46 19.03.2020
807 Clouds 8 1024 65 10000 8.2 360 07:28 19.03.2020
808 Clouds 8 1024 65 10000 7.7 360 06:49 19.03.2020
809 Clouds 7 1024 70 10000 7.7 360 05:52 19.03.2020
810 Clouds 7 1024 65 10000 8.2 360 04:59 19.03.2020
811 Clouds 7 1024 65 10000 8.2 360 04:40 19.03.2020
812 Clouds 6 1024 70 10000 8.2 10 02:50 19.03.2020
813 Rain 6 1023 93 10000 0.5 0 01:27 19.03.2020
814 Clouds 6 1025 75 10000 7.2 360 00:35 19.03.2020
815 Clouds 6 1025 75 10000 6.7 360 23:57 18.03.2020
816 Clouds 5 1025 86 10000 4.6 350 23:31 18.03.2020
817 Clouds 6 1025 65 10000 11.3 20 22:58 18.03.2020
818 Rain 5 1025 80 10000 4.1 30 22:40 18.03.2020
819 Rain 5 1026 86 10000 5.7 10 22:21 18.03.2020
820 Rain 5 1026 80 10000 6.7 40 21:43 18.03.2020
821 Rain 6 1026 77 10000 8.7 20 21:22 18.03.2020
822 Clouds 6 1026 77 10000 6.7 10 20:59 18.03.2020
823 Clouds 6 1026 77 10000 6.7 10 20:40 18.03.2020
824 Clouds 6 1026 77 10000 6.7 10 20:40 18.03.2020
825 Clouds 6 1026 70 10000 6.7 10 20:20 18.03.2020
826 Clouds 6 1026 70 10000 6.7 10 19:58 18.03.2020
827 Clouds 6 1026 58 10000 6.2 20 19:39 18.03.2020
828 Clouds 6 1026 70 10000 5.1 30 19:20 18.03.2020
829 Clouds 5 1026 80 10000 3.1 70 18:42 18.03.2020
830 Rain 5 1026 58 10000 7.2 360 18:21 18.03.2020
831 Rain 5 1026 58 10000 7.2 360 18:21 18.03.2020
832 Clouds 6 1026 58 10000 10.3 360 17:59 18.03.2020
833 Clouds 6 1026 58 10000 10.3 360 17:41 18.03.2020
834 Clouds 6 1025 56 10000 9.3 10 17:22 18.03.2020
835 Rain 6 1026 55 10000 11.3 30 16:58 18.03.2020
836 Clouds 7 1026 55 10000 8.2 360 16:40 18.03.2020
837 Clouds 7 1026 55 10000 8.2 360 16:20 18.03.2020
838 Clouds 8 1026 49 10000 8.2 360 15:45 18.03.2020
839 Clouds 8 1026 42 10000 7.2 20 15:23 18.03.2020
840 Clouds 9 1026 45 10000 8.2 30 14:56 18.03.2020
841 Clouds 8 1026 42 10000 8.2 10 14:38 18.03.2020
842 Clouds 8 1026 42 10000 8.2 10 14:19 18.03.2020
843 Clouds 9 1026 45 10000 7.2 30 13:38 18.03.2020
844 Clouds 9 1026 45 10000 7.2 30 13:19 18.03.2020
845 Clouds 9 1027 49 10000 8.2 40 12:42 18.03.2020
846 Clouds 9 1026 45 10000 9.3 360 12:20 18.03.2020
847 Clouds 8 1027 52 10000 9.3 50 11:41 18.03.2020
848 Clouds 8 1026 45 10000 7.2 50 11:22 18.03.2020
849 Clouds 9 1026 49 10000 5.7 50 10:58 18.03.2020
850 Clouds 9 1026 49 10000 5.7 50 10:39 18.03.2020
851 Clouds 8 1026 52 10000 5.1 30 10:20 18.03.2020
852 Clouds 8 1026 52 10000 5.1 30 10:20 18.03.2020
853 Clouds 8 1026 49 10000 4.6 70 09:59 18.03.2020
854 Clouds 8 1026 49 10000 4.6 70 09:39 18.03.2020
855 Clouds 8 1027 49 10000 6.2 60 09:21 18.03.2020
856 Clouds 7 1027 52 10000 5.7 60 08:40 18.03.2020
857 Clouds 7 1027 56 10000 5.1 60 08:21 18.03.2020
858 Clouds 6 1027 56 10000 4.6 50 07:49 18.03.2020
859 Clouds 6 1027 56 10000 6.2 70 07:31 18.03.2020
860 Clouds 4 1027 65 10000 4.1 70 06:54 18.03.2020
861 Clouds 4 1027 65 10000 3.1 70 06:35 18.03.2020
862 Clear 3 1026 69 10000 3.1 50 05:36 18.03.2020
863 Clear 2 1026 64 10000 3.6 50 04:29 18.03.2020
864 Clear 3 1025 64 10000 3.1 40 03:21 18.03.2020
865 Clear 3 1026 64 10000 3.1 60 02:32 18.03.2020
866 Clear 3 1026 60 10000 3.6 50 01:31 18.03.2020
867 Clear 4 1026 60 10000 3.1 50 00:42 18.03.2020
868 Clear 3 1027 60 10000 3.6 60 00:21 18.03.2020
869 Clear 3 1027 64 10000 2.1 160 23:40 17.03.2020
870 Clear 3 1027 56 10000 4.1 60 23:19 17.03.2020
871 Clear 4 1027 60 10000 3.1 140 22:42 17.03.2020
872 Clear 4 1028 56 10000 4.1 50 22:24 17.03.2020
873 Clear 4 1028 56 10000 3.6 50 21:43 17.03.2020
874 Clear 4 1028 56 10000 3.6 60 21:23 17.03.2020
875 Clear 4 1027 56 10000 4.1 60 20:56 17.03.2020
876 Clear 4 1027 56 10000 4.1 60 20:37 17.03.2020
877 Clear 5 1028 52 10000 5.1 50 20:19 17.03.2020
878 Clear 5 1028 48 10000 4.6 60 19:41 17.03.2020
879 Clear 5 1028 52 10000 5.1 40 19:18 17.03.2020
880 Clear 5 1028 60 10000 3.6 90 18:57 17.03.2020
881 Clear 6 1028 56 10000 5.1 30 18:39 17.03.2020
882 Clear 6 1027 52 10000 5.7 30 18:21 17.03.2020
883 Clear 7 1027 48 10000 5.1 30 17:55 17.03.2020
884 Clear 7 1027 48 10000 5.1 30 17:36 17.03.2020
885 Clear 7 1027 45 10000 5.1 50 17:18 17.03.2020
886 Clear 7 1027 39 10000 5.1 30 16:41 17.03.2020
887 Clear 8 1028 34 10000 4.6 40 16:19 17.03.2020
888 Clear 9 1028 34 10000 4.1 40 15:44 17.03.2020
889 Clear 8 1028 31 10000 4.1 20 15:22 17.03.2020
890 Clear 9 1028 34 10000 4.1 10 14:44 17.03.2020
891 Clouds 9 1028 31 10000 4.1 60 14:24 17.03.2020
892 Clouds 8 1029 31 10000 2.6 20 13:57 17.03.2020
893 Clouds 9 1029 31 10000 2.6 20 13:39 17.03.2020
894 Clouds 8 1029 37 10000 2.6 20 13:21 17.03.2020
895 Clouds 8 1029 37 10000 2.6 20 13:21 17.03.2020
896 Clouds 8 1029 36 10000 4.1 30 12:43 17.03.2020
897 Clouds 8 1030 39 10000 5.1 80 12:24 17.03.2020
898 Clouds 8 1030 42 10000 3.1 0 11:48 17.03.2020
899 Clouds 8 1031 39 10000 5.1 30 11:29 17.03.2020
900 Clouds 7 1031 42 10000 4.6 30 10:58 17.03.2020
901 Clouds 7 1031 42 10000 4.6 30 10:40 17.03.2020
902 Clouds 7 1031 45 10000 4.6 30 10:22 17.03.2020
903 Clouds 7 1031 42 10000 6.2 50 09:59 17.03.2020
904 Clouds 7 1031 42 10000 6.2 50 09:40 17.03.2020
905 Clouds 7 1032 42 10000 5.7 20 09:19 17.03.2020
906 Clouds 7 1032 45 10000 4.1 50 08:48 17.03.2020
907 Clouds 6 1032 45 10000 5.1 60 08:23 17.03.2020
908 Clouds 6 1032 45 10000 5.1 50 07:56 17.03.2020
909 Clouds 6 1032 45 10000 5.1 50 07:38 17.03.2020
910 Clouds 6 1032 45 10000 4.6 70 07:19 17.03.2020
911 Clouds 5 1032 48 10000 4.1 70 06:38 17.03.2020
912 Clouds 5 1032 48 10000 3.1 40 05:58 17.03.2020
913 Clouds 5 1031 48 10000 5.1 50 03:58 17.03.2020
914 Clouds 6 1031 45 10000 5.7 40 02:54 17.03.2020
915 Clouds 6 1031 48 10000 6.2 20 01:49 17.03.2020
916 Clouds 6 1031 48 10000 5.7 20 01:25 17.03.2020
917 Clouds 6 1031 48 10000 5.1 20 00:46 17.03.2020
918 Clouds 6 1032 48 10000 5.1 30 23:48 16.03.2020
919 Clouds 6 1032 52 10000 6.7 40 23:30 16.03.2020
920 Clouds 6 1032 48 10000 6.7 20 22:41 16.03.2020
921 Clouds 6 1032 48 10000 6.7 30 22:23 16.03.2020
922 Clouds 6 1032 48 10000 6.7 30 21:58 16.03.2020
923 Clouds 5 1032 48 10000 6.2 30 21:40 16.03.2020
924 Clouds 6 1032 45 10000 6.2 40 21:21 16.03.2020
925 Clouds 6 1032 48 10000 6.7 30 20:56 16.03.2020
926 Clouds 6 1032 48 10000 6.7 30 20:37 16.03.2020
927 Clouds 6 1032 48 10000 6.7 20 20:19 16.03.2020
928 Clouds 6 1032 45 10000 6.7 30 19:41 16.03.2020
929 Clouds 6 1032 45 10000 7.2 40 19:20 16.03.2020
930 Clouds 6 1032 48 10000 6.2 40 18:43 16.03.2020
931 Clouds 6 1032 48 10000 7.7 40 18:21 16.03.2020
932 Clouds 6 1032 45 10000 6.7 30 17:56 16.03.2020
933 Clouds 6 1032 48 10000 10.8 40 17:56 16.03.2020
934 Clouds 6 1032 45 10000 6.7 30 17:37 16.03.2020
935 Clouds 6 1031 45 10000 8.2 20 17:18 16.03.2020
936 Clouds 6 1031 48 10000 9.3 40 16:44 16.03.2020
937 Clouds 6 1031 45 10000 9.8 40 16:24 16.03.2020
938 Clouds 7 1031 45 10000 9.8 30 15:45 16.03.2020
939 Clouds 7 1031 48 10000 10.3 20 15:27 16.03.2020
940 Clouds 7 1030 48 10000 9.3 20 14:49 16.03.2020
941 Clouds 7 1030 52 10000 9.3 30 14:28 16.03.2020
942 Clouds 7 1030 52 10000 10.8 20 13:58 16.03.2020
943 Clouds 7 1030 52 10000 10.8 20 13:40 16.03.2020
944 Clouds 7 1030 56 10000 10.8 20 13:21 16.03.2020
945 Clouds 7 1030 56 10000 9.3 40 12:44 16.03.2020
946 Clouds 8 1030 52 10000 9.3 30 12:23 16.03.2020
947 Clouds 8 1030 48 10000 9.3 30 11:46 16.03.2020
948 Clouds 8 1030 52 10000 9.8 30 11:27 16.03.2020
949 Clouds 7 1030 52 10000 9.8 30 11:27 16.03.2020
950 Clouds 7 1030 56 10000 8.2 30 10:56 16.03.2020
951 Clouds 7 1030 56 10000 8.2 30 10:37 16.03.2020
952 Clouds 7 1030 56 10000 9.8 20 10:18 16.03.2020
953 Clouds 7 1030 52 10000 10.3 30 09:42 16.03.2020
954 Clouds 6 1030 52 10000 9.8 30 09:21 16.03.2020
955 Clouds 7 1030 52 10000 9.3 30 08:49 16.03.2020
956 Clouds 6 1030 56 10000 8.7 40 08:25 16.03.2020
957 Clouds 6 1030 56 10000 8.2 30 07:45 16.03.2020
958 Clouds 6 1029 56 10000 9.3 40 07:21 16.03.2020
959 Clouds 6 1029 52 10000 10.3 40 06:51 16.03.2020
960 Clouds 6 1028 56 10000 8.7 30 06:23 16.03.2020
961 Clouds 6 1027 60 10000 7.7 30 04:54 16.03.2020
962 Clouds 6 1026 60 10000 9.8 30 02:40 16.03.2020
963 Clouds 6 1026 70 10000 9.3 30 00:49 16.03.2020
964 Clouds 6 1026 70 10000 9.8 20 00:30 16.03.2020
965 Clouds 6 1026 75 10000 9.3 20 23:42 15.03.2020
966 Rain 6 1026 81 10000 8.7 30 23:20 15.03.2020
967 Rain 6 1026 81 7000 9.8 30 22:42 15.03.2020
968 Rain 6 1025 87 7000 9.3 30 22:22 15.03.2020
969 Rain 6 1025 87 7000 8.2 40 21:55 15.03.2020
970 Rain 6 1025 87 7000 8.2 40 21:37 15.03.2020
971 Rain 6 1025 87 7000 8.2 40 21:18 15.03.2020
972 Rain 6 1025 87 10000 8.2 50 20:42 15.03.2020
973 Rain 6 1025 81 10000 8.2 50 20:20 15.03.2020
974 Rain 6 1025 81 10000 8.2 50 19:56 15.03.2020
975 Rain 6 1025 81 10000 8.7 30 19:38 15.03.2020
976 Rain 6 1024 81 10000 8.2 30 19:19 15.03.2020
977 Rain 6 1024 87 10000 9.3 30 18:55 15.03.2020
978 Rain 6 1024 87 10000 9.3 30 18:36 15.03.2020
979 Rain 6 1023 87 10000 9.3 30 18:18 15.03.2020
980 Rain 6 1023 81 8000 9.3 30 17:40 15.03.2020
981 Rain 7 1023 87 8000 9.3 30 17:21 15.03.2020
982 Rain 7 1022 81 8000 8.7 20 16:56 15.03.2020
983 Rain 7 1022 81 8000 8.7 20 16:38 15.03.2020
984 Rain 7 1023 87 6000 13.4 50 16:19 15.03.2020
985 Rain 7 1021 87 8000 8.2 30 15:43 15.03.2020
986 Rain 8 1020 87 8000 8.2 30 15:25 15.03.2020
987 Rain 8 1020 87 8000 8.7 30 14:55 15.03.2020
988 Rain 8 1020 87 8000 8.7 30 14:37 15.03.2020
989 Rain 8 1020 87 8000 7.7 20 14:18 15.03.2020
990 Rain 8 1020 87 8000 8.2 20 13:40 15.03.2020
991 Rain 8 1020 81 8000 6.7 20 13:21 15.03.2020
992 Rain 9 1020 81 10000 6.7 20 12:59 15.03.2020
993 Rain 9 1020 81 10000 6.7 20 12:39 15.03.2020
994 Rain 9 1019 76 10000 7.2 30 12:21 15.03.2020
995 Rain 8 1019 76 10000 9.3 20 11:43 15.03.2020
996 Rain 9 1020 76 10000 8.2 30 11:24 15.03.2020
997 Rain 9 1019 76 10000 9.3 30 10:57 15.03.2020
998 Rain 9 1019 76 10000 9.3 30 10:38 15.03.2020
999 Rain 9 1018 71 10000 11.3 40 10:20 15.03.2020
1000 Clouds 10 1019 66 10000 8.2 40 09:42 15.03.2020
1001 Clouds 9 1019 66 10000 8.2 30 09:22 15.03.2020
1002 Clouds 9 1019 66 10000 8.7 40 08:58 15.03.2020
1003 Clouds 9 1019 66 10000 8.7 40 08:39 15.03.2020
1004 Clouds 9 1018 66 10000 8.7 40 08:18 15.03.2020
1005 Clouds 10 1018 66 10000 8.2 40 07:44 15.03.2020
1006 Clouds 10 1017 76 10000 6.7 30 06:55 15.03.2020
1007 Clouds 10 1017 76 10000 6.7 30 06:35 15.03.2020
1008 Clouds 9 1017 76 10000 6.7 20 05:46 15.03.2020
1009 Clouds 10 1016 76 10000 6.7 30 04:49 15.03.2020
1010 Clouds 10 1016 76 10000 6.7 30 04:29 15.03.2020
1011 Clouds 10 1015 76 10000 7.7 40 03:55 15.03.2020
1012 Clouds 10 1015 76 10000 7.7 50 02:48 15.03.2020
1013 Clouds 9 1015 87 10000 7.2 40 01:50 15.03.2020
1014 Clouds 9 1015 87 10000 6.7 40 00:51 15.03.2020
1015 Clouds 9 1015 87 10000 6.7 40 00:51 15.03.2020
1016 Clouds 9 1016 81 10000 8.2 50 00:28 15.03.2020
1017 Clouds 9 1015 87 10000 7.2 20 23:58 14.03.2020
1018 Clouds 9 1015 87 10000 7.2 20 23:37 14.03.2020
1019 Clouds 9 1015 87 10000 6.7 20 23:18 14.03.2020
1020 Clouds 9 1015 87 10000 5.7 20 22:44 14.03.2020
1021 Clouds 9 1015 87 10000 6.7 20 22:26 14.03.2020
1022 Clouds 9 1015 87 10000 6.7 20 21:57 14.03.2020
1023 Clouds 9 1016 87 10000 6.2 20 21:37 14.03.2020
1024 Clouds 9 1016 87 10000 6.2 20 21:18 14.03.2020
1025 Clouds 9 1016 87 10000 6.2 20 20:59 14.03.2020
1026 Clouds 9 1016 81 10000 5.1 30 20:40 14.03.2020
1027 Clouds 9 1016 87 10000 4.6 30 20:19 14.03.2020
1028 Clouds 9 1016 87 10000 5.1 40 19:56 14.03.2020
1029 Clouds 9 1016 87 10000 5.1 40 19:38 14.03.2020
1030 Clouds 9 1016 87 10000 5.7 30 19:19 14.03.2020
1031 Clouds 10 1016 81 10000 5.7 30 18:37 14.03.2020
1032 Clouds 10 1016 81 10000 5.7 30 18:19 14.03.2020
1033 Clouds 10 1016 81 10000 5.7 30 18:19 14.03.2020
1034 Clouds 9 1016 87 10000 8.2 20 17:39 14.03.2020
1035 Clouds 10 1016 81 10000 7.2 40 17:21 14.03.2020
1036 Clouds 10 1016 81 10000 7.7 20 16:41 14.03.2020
1037 Clouds 10 1016 76 10000 7.2 30 16:23 14.03.2020
1038 Clouds 10 1016 76 10000 7.2 10 15:59 14.03.2020
1039 Clouds 10 1016 76 10000 7.7 10 15:27 14.03.2020
1040 Clouds 11 1016 71 10000 7.7 10 14:59 14.03.2020
1041 Clouds 11 1016 71 10000 7.7 10 14:37 14.03.2020
1042 Clouds 11 1016 71 10000 8.2 350 14:19 14.03.2020
1043 Clouds 11 1016 71 10000 7.7 350 13:54 14.03.2020
1044 Clouds 12 1016 71 10000 7.7 350 13:36 14.03.2020
1045 Clear 12 1016 71 10000 9.3 340 13:18 14.03.2020
1046 Clouds 12 1017 87 10000 7.2 30 12:42 14.03.2020
1047 Clouds 13 1016 67 10000 6.2 350 12:23 14.03.2020
1048 Clouds 12 1016 67 10000 6.2 350 11:43 14.03.2020
1049 Clouds 12 1016 67 10000 5.7 360 11:24 14.03.2020
1050 Clouds 12 1016 71 10000 6.2 360 10:47 14.03.2020
1051 Clouds 12 1016 71 10000 6.7 340 10:28 14.03.2020
1052 Clouds 11 1016 76 10000 6.7 350 09:59 14.03.2020
1053 Clear 12 1016 62 10000 6.7 350 09:40 14.03.2020
1054 Clear 12 1016 62 10000 6.7 350 09:20 14.03.2020
1055 Clear 11 1016 58 10000 4.1 360 08:46 14.03.2020
1056 Clear 11 1016 76 10000 2.6 190 08:26 14.03.2020
1057 Clear 11 1016 76 10000 0.5 0 07:40 14.03.2020
1058 Clear 10 1016 87 10000 0.61 220 07:21 14.03.2020
1059 Clear 9 1015 87 10000 0.61 220 06:45 14.03.2020
1060 Clear 9 1015 87 10000 0.61 220 06:45 14.03.2020
1061 Clear 8 1015 66 10000 2.1 270 06:26 14.03.2020
1062 Clear 6 1014 87 10000 0.53 165 04:55 14.03.2020
1063 Clear 6 1013 87 10000 1 340 03:34 14.03.2020
1064 Clear 7 1012 87 10000 0.53 165 02:48 14.03.2020
1065 Clear 7 1012 87 10000 1 0 01:46 14.03.2020
1066 Fog 8 1012 100 300 2.1 330 00:34 14.03.2020
1067 Fog 8 1012 100 3000 2.1 20 23:42 13.03.2020
1068 Clear 8 1012 81 10000 5.1 340 23:23 13.03.2020
1069 Clear 9 1012 76 10000 5.1 340 22:44 13.03.2020
1070 Clear 9 1011 75 10000 3.1 350 22:22 13.03.2020
1071 Clear 9 1011 70 10000 2.1 360 21:41 13.03.2020
1072 Clear 9 1011 66 10000 2.1 20 21:19 13.03.2020
1073 Clear 10 1011 62 10000 1.5 20 20:42 13.03.2020
1074 Mist 10 1011 87 4200 5.1 30 20:22 13.03.2020
1075 Clear 10 1011 54 10000 3.6 30 19:57 13.03.2020
1076 Clear 11 1011 54 10000 3.6 30 19:39 13.03.2020
1077 Clear 11 1011 54 10000 4.1 40 19:18 13.03.2020
1078 Clear 11 1011 58 10000 4.1 30 18:40 13.03.2020
1079 Clear 12 1010 54 10000 4.6 30 18:22 13.03.2020
1080 Clear 12 1011 71 10000 3.1 60 17:42 13.03.2020
1081 Clear 13 1010 47 10000 5.7 30 17:21 13.03.2020
1082 Clear 13 1011 44 10000 6.2 50 16:56 13.03.2020
1083 Clear 13 1011 44 10000 6.2 50 16:38 13.03.2020
1084 Clear 14 1011 44 10000 6.2 40 16:20 13.03.2020
1085 Clear 14 1011 44 10000 6.7 50 15:43 13.03.2020
1086 Clear 14 1011 42 10000 6.7 50 15:22 13.03.2020
1087 Clear 14 1011 42 10000 6.7 50 14:57 13.03.2020
1088 Clear 15 1011 45 10000 5.7 40 14:38 13.03.2020
1089 Clear 14 1011 48 10000 7.2 10 14:18 13.03.2020
1090 Clear 14 1012 45 10000 6.2 20 13:42 13.03.2020
1091 Clear 14 1012 45 10000 6.2 30 13:22 13.03.2020
1092 Clear 14 1012 48 10000 5.1 30 12:58 13.03.2020
1093 Clear 14 1012 48 10000 5.1 30 12:38 13.03.2020
1094 Clear 14 1013 55 10000 5.7 10 12:19 13.03.2020
1095 Clear 13 1013 55 10000 6.2 10 11:55 13.03.2020
1096 Clouds 13 1014 81 10000 4.6 40 11:36 13.03.2020
1097 Clouds 13 1014 81 10000 4.6 40 11:36 13.03.2020
1098 Clear 13 1013 55 10000 5.7 10 11:18 13.03.2020
1099 Clear 13 1013 58 10000 5.1 20 10:42 13.03.2020
1100 Clear 12 1014 62 10000 5.1 20 10:24 13.03.2020
1101 Clear 11 1014 62 10000 5.7 40 09:46 13.03.2020
1102 Clear 11 1014 66 10000 5.1 40 09:27 13.03.2020
1103 Clear 10 1015 76 10000 4.1 20 08:57 13.03.2020
1104 Clear 10 1015 76 10000 4.1 20 08:38 13.03.2020
1105 Clear 10 1015 76 10000 5.1 10 08:19 13.03.2020
1106 Clear 9 1015 81 10000 5.7 10 07:44 13.03.2020
1107 Clear 9 1015 81 10000 4.6 10 07:23 13.03.2020
1108 Clear 8 1015 87 10000 3.6 10 06:46 13.03.2020
1109 Fog 8 1014 93 2100 5.1 50 06:21 13.03.2020
1110 Fog 8 1015 100 700 4.6 10 05:44 13.03.2020
1111 Clear 8 1015 87 8000 4.1 360 04:39 13.03.2020
1112 -273 0 0 0 0 0 03:51 13.03.2020
1113 Clear 8 1016 87 10000 5.1 350 02:29 13.03.2020
1114 Clear 9 1016 87 10000 4.6 10 01:20 13.03.2020
1115 Clear 9 1017 87 10000 5.1 360 00:59 13.03.2020
1116 Clear 9 1017 87 10000 5.1 360 00:39 13.03.2020
1117 Clear 9 1017 81 10000 4.6 10 00:18 13.03.2020
1118 Clear 9 1017 81 10000 5.7 20 23:38 12.03.2020
1119 Clear 10 1017 71 10000 5.1 20 23:19 12.03.2020
1120 Clear 10 1017 71 10000 4.1 30 22:44 12.03.2020
1121 Clear 10 1018 71 10000 4.1 20 22:25 12.03.2020
1122 Fog 10 1018 93 2800 4.6 10 21:55 12.03.2020
1123 Clear 10 1018 71 10000 3.1 30 21:37 12.03.2020
1124 Clear 10 1018 76 10000 4.1 360 21:18 12.03.2020
1125 Clear 10 1018 71 10000 4.6 10 20:42 12.03.2020
1126 Clear 10 1018 66 10000 4.6 20 20:20 12.03.2020
1127 Clear 10 1018 81 10000 5.1 360 19:42 12.03.2020
1128 Clear 11 1018 66 10000 5.1 360 19:21 12.03.2020
1129 Clear 11 1018 58 10000 5.7 20 18:58 12.03.2020
1130 Clear 11 1018 58 10000 5.7 20 18:39 12.03.2020
1131 Clear 12 1018 54 10000 6.2 20 18:21 12.03.2020
1132 Clear 12 1018 47 10000 4.6 20 17:41 12.03.2020
1133 Clear 13 1018 47 10000 6.2 20 17:22 12.03.2020
1134 Clear 13 1018 44 10000 5.7 30 16:58 12.03.2020
1135 Clear 13 1018 44 10000 5.7 30 16:40 12.03.2020
1136 Clear 14 1018 48 10000 7.2 10 16:21 12.03.2020
1137 Clear 14 1018 51 10000 8.2 360 15:48 12.03.2020
1138 Clear 15 1018 48 10000 7.7 350 15:28 12.03.2020
1139 Clear 14 1018 51 10000 8.2 360 15:28 12.03.2020
1140 Clear 15 1019 45 10000 5.7 20 14:54 12.03.2020
1141 Clear 15 1019 45 10000 5.7 20 14:54 12.03.2020
1142 Clear 15 1019 45 10000 5.7 20 14:54 12.03.2020
1143 Clear 15 1019 45 10000 5.7 20 14:36 12.03.2020
1144 Clear 16 1019 45 10000 6.2 10 14:18 12.03.2020
1145 Clear 16 1019 42 10000 6.2 10 13:38 12.03.2020
1146 Clear 16 1020 59 10000 2.1 0 13:20 12.03.2020
1147 Clear 16 1020 59 10000 2.6 210 12:43 12.03.2020
1148 Clear 16 1020 63 10000 4.1 200 12:23 12.03.2020
1149 Clear 16 1021 54 10000 6.7 40 11:59 12.03.2020
1150 Clear 16 1021 48 10000 1.5 0 11:39 12.03.2020
1151 Clouds 16 1021 59 10000 2.1 210 11:21 12.03.2020
1152 Clear 16 1021 67 10000 1.5 180 10:59 12.03.2020
1153 Clear 15 1021 67 10000 1.5 180 10:41 12.03.2020
1154 Clear 15 1021 67 10000 2.1 170 10:22 12.03.2020
1155 Clear 15 1021 67 10000 2.1 170 10:22 12.03.2020
1156 Clouds 15 1021 67 10000 2.1 150 09:49 12.03.2020
1157 Clouds 15 1021 67 10000 2.1 150 09:29 12.03.2020
1158 Clear 14 1021 71 10000 1.5 90 08:55 12.03.2020
1159 Clear 14 1021 71 10000 1.5 90 08:37 12.03.2020
1160 Clouds 12 1021 76 10000 1.5 120 08:18 12.03.2020
1161 Clouds 11 1021 81 10000 2.1 100 07:46 12.03.2020
1162 Clouds 11 1021 81 10000 0.5 0 07:21 12.03.2020
1163 Clouds 8 1020 100 10000 1.64 43 05:59 12.03.2020
1164 Clouds 8 1020 100 10000 1.64 43 05:27 12.03.2020
1165 Clouds 8 1020 93 10000 0.26 171 02:47 12.03.2020
1166 Clear 9 1020 93 10000 1 0 01:39 12.03.2020
1167 Clear 9 1020 93 10000 1 360 01:20 12.03.2020
1168 Clear 9 1019 93 10000 0.87 240 00:41 12.03.2020
1169 Clear 10 1019 93 10000 0.87 240 23:56 11.03.2020
1170 Clear 10 1019 81 10000 1.5 30 23:27 11.03.2020
1171 Clear 10 1019 87 10000 0.5 0 22:55 11.03.2020
1172 Clear 11 1019 87 10000 1 250 22:37 11.03.2020
1173 Clear 11 1019 87 10000 1 250 22:18 11.03.2020
1174 Clear 11 1019 81 10000 1.5 260 21:54 11.03.2020
1175 Clear 11 1019 81 10000 1.5 260 21:36 11.03.2020
1176 Clear 11 1019 87 10000 1 240 21:18 11.03.2020
1177 Clear 11 1019 81 10000 1.5 220 20:55 11.03.2020
1178 Clear 11 1019 81 10000 1.5 220 20:36 11.03.2020
1179 Clear 11 1019 93 10000 2.1 170 20:18 11.03.2020
1180 Clear 12 1019 87 10000 1 0 19:41 11.03.2020
1181 Clear 12 1019 93 10000 1.5 160 19:22 11.03.2020
1182 Clear 12 1018 93 10000 1.5 170 18:56 11.03.2020
1183 Clear 12 1018 93 10000 1.5 170 18:36 11.03.2020
1184 Clear 13 1018 87 10000 2.1 200 18:18 11.03.2020
1185 Clear 13 1018 87 10000 2.6 210 17:40 11.03.2020
1186 Clear 14 1017 71 10000 2.1 240 17:21 11.03.2020
1187 Clear 15 1017 67 10000 2.1 210 16:55 11.03.2020
1188 Clear 15 1017 67 10000 2.1 210 16:37 11.03.2020
1189 Clear 15 1017 62 10000 2.6 230 16:19 11.03.2020
1190 Clear 16 1017 67 10000 3.1 210 15:42 11.03.2020
1191 Clear 16 1017 67 10000 3.1 210 15:22 11.03.2020
1192 Clear 16 1017 62 10000 3.6 230 14:44 11.03.2020
1193 Clear 16 1017 58 10000 3.6 240 14:23 11.03.2020
1194 Clear 17 1017 62 10000 3.6 240 13:58 11.03.2020
1195 Clear 17 1017 62 10000 3.6 240 13:39 11.03.2020
1196 Clouds 16 1018 67 10000 4.1 240 13:21 11.03.2020
1197 Clouds 16 1018 71 10000 3.6 240 12:41 11.03.2020
1198 Clouds 16 1018 71 10000 3.1 230 12:21 11.03.2020
1199 Clouds 15 1018 71 10000 3.6 220 11:57 11.03.2020
1200 Clouds 16 1018 71 10000 3.6 220 11:57 11.03.2020
1201 Clouds 15 1018 71 10000 3.6 220 11:38 11.03.2020
1202 Clouds 15 1019 71 10000 4.1 210 11:19 11.03.2020
1203 Clouds 15 1019 71 10000 3.6 210 10:43 11.03.2020
1204 Clouds 15 1019 71 10000 3.6 200 10:19 11.03.2020
1205 Clouds 15 1019 71 10000 3.6 170 09:43 11.03.2020
1206 Clouds 15 1019 67 10000 3.1 180 09:25 11.03.2020
1207 Clouds 14 1019 67 10000 3.1 180 08:58 11.03.2020
1208 Clouds 14 1019 67 10000 3.1 180 08:40 11.03.2020
1209 Clouds 13 1018 76 10000 2.6 150 08:19 11.03.2020
1210 Clouds 12 1018 87 10000 2.1 140 07:44 11.03.2020
1211 Clouds 11 1018 93 10000 2.1 130 07:19 11.03.2020
1212 Clouds 10 1018 100 10000 1.5 110 06:46 11.03.2020
1213 Clouds 9 1017 93 10000 0.5 0 05:41 11.03.2020
1214 Clouds 9 1017 93 8000 1.5 140 04:50 11.03.2020
1215 Mist 10 1016 93 4000 1 0 02:30 11.03.2020
1216 Mist 9 1016 100 4000 0.5 0 01:30 11.03.2020
1217 Mist 10 1016 93 3500 2.1 270 00:47 11.03.2020
1218 Mist 10 1016 93 3500 1 310 00:18 11.03.2020
1219 Clouds 10 1016 93 8000 4.1 200 23:40 10.03.2020
1220 Mist 10 1016 93 4000 1 0 23:21 10.03.2020
1221 Mist 11 1016 100 4000 1.5 220 22:40 10.03.2020
1222 Clouds 11 1016 100 10000 2.1 210 22:20 10.03.2020
1223 Clouds 11 1016 100 10000 1.5 210 21:57 10.03.2020
1224 Clouds 11 1016 100 10000 1.5 210 21:39 10.03.2020
1225 Clouds 11 1016 100 10000 1.5 210 21:39 10.03.2020
1226 Clouds 11 1016 100 10000 1.5 210 21:39 10.03.2020
1227 Clouds 11 1015 93 10000 2.1 260 21:20 10.03.2020
1228 Clouds 11 1015 93 8000 2.1 270 20:59 10.03.2020
1229 Clouds 11 1015 93 8000 2.1 270 20:41 10.03.2020
1230 Clouds 11 1015 93 6000 1.5 250 20:19 10.03.2020
1231 Clouds 11 1015 93 6000 3.6 210 19:57 10.03.2020
1232 Clouds 11 1015 93 6000 3.6 210 19:38 10.03.2020
1233 Clouds 11 1015 93 6000 3.6 210 19:38 10.03.2020
1234 Rain 11 1014 93 6000 2.6 210 19:20 10.03.2020
1235 Clouds 11 1014 93 8000 3.1 220 18:45 10.03.2020
1236 Clouds 11 1013 93 8000 2.6 220 18:26 10.03.2020
1237 Rain 11 1013 93 6000 5.1 230 17:58 10.03.2020
1238 Clouds 11 1013 93 7000 3.6 220 17:40 10.03.2020
1239 Clouds 11 1012 93 10000 3.1 220 17:21 10.03.2020
1240 Clouds 11 1012 93 7000 2.6 240 16:40 10.03.2020
1241 Clouds 11 1012 93 7000 2.6 250 16:20 10.03.2020
1242 Clouds 11 1011 93 7000 3.1 240 15:57 10.03.2020
1243 Clouds 11 1011 93 7000 3.1 240 15:39 10.03.2020
1244 Clouds 11 1011 93 10000 3.1 240 15:19 10.03.2020
1245 Clouds 11 1011 93 10000 3.1 240 14:54 10.03.2020
1246 Clouds 11 1011 93 10000 3.1 240 14:36 10.03.2020
1247 Clouds 11 1010 93 8000 3.6 240 14:18 10.03.2020
1248 Rain 11 1010 93 8000 3.6 240 13:42 10.03.2020
1249 Rain 11 1010 93 7000 4.1 220 13:24 10.03.2020
1250 Rain 11 1010 100 7000 4.1 220 12:42 10.03.2020
1251 Rain 11 1010 100 7000 4.1 220 12:21 10.03.2020
1252 Clouds 11 1009 100 7000 4.1 210 11:59 10.03.2020
1253 Clouds 11 1009 100 7000 4.1 210 11:41 10.03.2020
1254 Clouds 11 1009 87 10000 3.6 210 11:22 10.03.2020
1255 Clouds 11 1009 87 10000 2.6 210 10:43 10.03.2020
1256 Clouds 11 1008 81 10000 3.1 310 10:23 10.03.2020
1257 Clouds 11 1008 81 10000 4.6 320 09:59 10.03.2020
1258 Clouds 11 1008 81 10000 4.6 320 09:41 10.03.2020
1259 Clouds 11 1007 81 10000 4.6 320 09:19 10.03.2020
1260 Clouds 11 1007 81 10000 6.2 340 08:51 10.03.2020
1261 Clouds 11 1007 81 10000 6.2 340 08:32 10.03.2020
1262 Clouds 11 1006 81 10000 6.2 340 07:51 10.03.2020
1263 Clouds 11 1006 81 10000 6.2 340 07:51 10.03.2020
1264 Clouds 11 1006 81 10000 6.2 340 07:32 10.03.2020
1265 Rain 10 1005 87 10000 6.7 350 06:48 10.03.2020
1266 Clouds 10 1005 87 7000 5.1 340 06:30 10.03.2020
1267 Clouds 10 1005 87 7000 5.1 340 06:30 10.03.2020
1268 Clouds 10 1004 87 10000 8.7 330 05:42 10.03.2020
1269 Clouds 10 1004 87 10000 6.2 310 04:49 10.03.2020
1270 Clouds 10 1004 93 10000 5.7 330 04:20 10.03.2020
1271 Clouds 10 1002 87 10000 11.3 360 02:41 10.03.2020
1272 Clouds 10 1003 81 10000 7.7 10 01:30 10.03.2020
1273 Clouds 10 1002 87 10000 10.8 350 00:44 10.03.2020
1274 Mist 10 1003 93 4800 10.8 350 00:26 10.03.2020
1275 Clouds 10 1003 87 10000 8.2 360 23:41 09.03.2020
1276 Clouds 10 1003 93 10000 6.7 360 23:21 09.03.2020
1277 Clouds 10 1003 93 10000 6.7 360 22:43 09.03.2020
1278 Clouds 10 1004 93 10000 7.7 360 22:23 09.03.2020
1279 Mist 10 1005 100 3200 8.2 360 21:59 09.03.2020
1280 Clouds 9 1004 87 10000 8.2 360 21:40 09.03.2020
1281 Clouds 9 1004 87 10000 7.7 360 21:21 09.03.2020
1282 Clouds 9 1004 87 10000 6.7 350 20:56 09.03.2020
1283 Clouds 9 1004 87 10000 7.7 360 20:38 09.03.2020
1284 Clouds 9 1004 87 10000 7.7 360 20:20 09.03.2020
1285 Clouds 9 1005 87 10000 8.7 360 19:45 09.03.2020
1286 Clouds 9 1005 87 10000 8.7 360 19:45 09.03.2020
1287 Clouds 10 1005 87 10000 8.2 350 19:25 09.03.2020
1288 Clouds 10 1005 87 10000 8.2 350 19:25 09.03.2020
1289 Clouds 10 1005 76 10000 7.7 10 18:58 09.03.2020
1290 Clouds 10 1005 76 10000 7.7 10 18:58 09.03.2020
1291 Clouds 10 1005 76 10000 7.7 10 18:38 09.03.2020
1292 Clouds 10 1005 81 10000 8.2 350 18:20 09.03.2020
1293 Fog 10 1007 100 750 8.2 360 17:58 09.03.2020
1294 Clouds 12 1005 66 10000 8.7 350 17:38 09.03.2020
1295 Clouds 12 1005 66 10000 8.7 350 17:38 09.03.2020
1296 Clouds 12 1005 66 10000 8.7 350 17:20 09.03.2020
1297 Clouds 12 1005 54 10000 9.8 360 16:58 09.03.2020
1298 Clouds 13 1005 54 10000 9.8 360 16:40 09.03.2020
1299 Clouds 14 1005 51 10000 8.7 10 16:22 09.03.2020
1300 Clouds 14 1005 51 10000 8.7 10 15:58 09.03.2020
1301 Clouds 14 1005 51 10000 8.7 10 15:58 09.03.2020
1302 Clouds 14 1005 51 10000 8.7 10 15:38 09.03.2020
1303 Mist 15 1007 87 6000 7.7 360 15:20 09.03.2020
1304 Clouds 15 1006 42 10000 7.7 20 14:55 09.03.2020
1305 Clouds 15 1006 37 10000 7.2 30 14:37 09.03.2020
1306 Clouds 16 1006 37 10000 7.2 30 14:18 09.03.2020
1307 Clouds 16 1007 35 10000 6.7 30 13:55 09.03.2020
1308 Clouds 17 1007 33 10000 6.7 30 13:37 09.03.2020
1309 Clouds 18 1007 33 10000 6.7 30 13:18 09.03.2020
1310 Clouds 18 1007 33 10000 6.7 30 13:18 09.03.2020
1311 Clouds 18 1007 33 10000 6.7 30 13:18 09.03.2020
1312 Clouds 17 1008 33 10000 5.1 40 12:41 09.03.2020
1313 Clouds 17 1008 40 10000 5.7 360 12:22 09.03.2020
1314 Clouds 17 1009 40 10000 3.1 40 11:42 09.03.2020
1315 Clouds 17 1009 40 10000 3.1 40 11:22 09.03.2020
1316 Clouds 17 1010 37 10000 2.6 30 10:59 09.03.2020
1317 Clouds 17 1011 42 10000 2.1 10 10:40 09.03.2020
1318 Clouds 17 1011 42 10000 2.1 10 10:20 09.03.2020
1319 Clouds 17 1011 42 10000 3.1 20 09:59 09.03.2020
1320 Clouds 16 1011 52 10000 2.1 330 09:37 09.03.2020
1321 Clouds 16 1011 52 10000 2.1 330 09:19 09.03.2020
1322 Clouds 15 1012 51 10000 2.1 300 08:43 09.03.2020
1323 Clouds 15 1012 55 10000 1 0 08:25 09.03.2020
1324 Clouds 14 1012 59 10000 0.85 27 07:41 09.03.2020
1325 Clouds 13 1012 67 10000 0.5 0 07:21 09.03.2020
1326 Clouds 12 1013 71 10000 1.5 250 06:44 09.03.2020
1327 Clouds 12 1013 71 10000 1.5 250 06:25 09.03.2020
1328 Clouds 11 1013 71 10000 0.5 0 05:47 09.03.2020
1329 Clouds 11 1013 71 10000 1 0 05:22 09.03.2020
1330 Clouds 11 1013 76 10000 2.1 360 04:43 09.03.2020
1331 Clouds 11 1013 76 10000 2.1 360 04:22 09.03.2020
1332 Clouds 12 1013 71 10000 2.1 340 02:59 09.03.2020
1333 Clouds 13 1014 71 10000 2.6 350 01:41 09.03.2020
1334 Clouds 13 1015 62 10000 2.6 360 00:38 09.03.2020
1335 Clouds 13 1015 62 10000 2.6 360 00:20 09.03.2020
1336 Clouds 13 1015 66 10000 3.6 350 23:48 08.03.2020
1337 Clouds 14 1015 66 10000 1.5 20 23:22 08.03.2020
1338 Clouds 15 1015 54 10000 2.1 50 22:57 08.03.2020
1339 Clouds 14 1016 66 10000 1.5 20 22:38 08.03.2020
1340 Clouds 15 1016 66 10000 1.5 20 22:20 08.03.2020
1341 Clouds 15 1016 58 10000 1 0 21:54 08.03.2020
1342 Clouds 15 1016 58 10000 1 0 21:54 08.03.2020
1343 Clouds 15 1016 58 10000 1 0 21:36 08.03.2020
1344 Clouds 15 1016 58 10000 1 0 21:18 08.03.2020
1345 Clouds 15 1016 58 10000 1 0 21:18 08.03.2020
1346 Clouds 16 1016 48 10000 2.1 90 20:39 08.03.2020
1347 Clouds 16 1016 48 10000 2.1 90 20:21 08.03.2020
1348 Clouds 16 1017 55 10000 1.5 80 19:54 08.03.2020
1349 Clouds 16 1016 58 10000 2.1 350 19:36 08.03.2020
1350 Clouds 16 1016 58 10000 2.1 350 19:18 08.03.2020
1351 Clouds 17 1016 51 10000 2.6 30 18:40 08.03.2020
1352 Clouds 16 1016 51 10000 2.6 30 18:22 08.03.2020
1353 Clouds 18 1016 37 10000 2.1 260 17:56 08.03.2020
1354 Clouds 18 1016 37 10000 2.1 260 17:37 08.03.2020
1355 Clouds 18 1016 37 10000 2.1 260 17:18 08.03.2020
1356 Clouds 20 1016 37 10000 2.1 260 16:43 08.03.2020
1357 Clouds 20 1016 35 10000 2.1 260 16:25 08.03.2020
1358 Clouds 20 1016 35 10000 6.2 220 15:56 08.03.2020
1359 Clouds 20 1016 35 10000 6.2 220 15:37 08.03.2020
1360 Clouds 20 1017 37 10000 2.6 260 15:19 08.03.2020
1361 Clouds 21 1017 30 10000 7.2 210 14:40 08.03.2020
1362 Clouds 21 1017 37 10000 3.1 240 14:21 08.03.2020
1363 Clouds 21 1017 37 10000 3.1 240 14:21 08.03.2020
1364 Clouds 21 1017 37 10000 2.6 240 13:57 08.03.2020
1365 Clouds 21 1017 37 10000 2.6 240 13:38 08.03.2020
1366 Clouds 21 1017 37 10000 2.6 200 13:19 08.03.2020
1367 Clouds 21 1016 35 10000 3.1 230 12:39 08.03.2020
1368 Clouds 21 1017 33 10000 3.1 200 12:20 08.03.2020
1369 Clouds 21 1017 33 10000 3.1 200 11:54 08.03.2020
1370 Clouds 20 1017 31 10000 3.1 220 11:36 08.03.2020
1371 Clouds 19 1017 48 10000 5.7 210 11:18 08.03.2020
1372 Clouds 20 1017 40 10000 1 0 10:41 08.03.2020
1373 Clouds 20 1017 40 10000 1 0 10:22 08.03.2020
1374 Clouds 19 1017 33 10000 4.6 180 09:40 08.03.2020
1375 Clouds 20 1017 33 10000 4.6 180 09:22 08.03.2020
1376 Clouds 18 1017 48 10000 1.5 0 08:50 08.03.2020
1377 Clouds 17 1017 48 10000 1 0 08:27 08.03.2020
1378 Clouds 17 1016 48 10000 1.5 50 07:51 08.03.2020
1379 Clouds 17 1016 55 10000 4.6 190 07:29 08.03.2020
1380 Clouds 16 1016 48 10000 2.1 70 06:58 08.03.2020
1381 Clouds 15 1016 51 10000 2.1 80 06:37 08.03.2020
1382 Clouds 15 1016 54 10000 2.6 90 06:18 08.03.2020
1383 Clouds 13 1015 66 10000 4.6 170 05:18 08.03.2020
1384 Clouds 13 1015 81 10000 2.6 330 03:50 08.03.2020
1385 Clouds 13 1016 71 10000 0.5 0 02:28 08.03.2020
1386 Clouds 13 1015 62 10000 4.1 200 01:22 08.03.2020
1387 Clouds 13 1016 71 10000 1 0 00:43 08.03.2020
1388 Clouds 13 1015 71 10000 1 0 00:24 08.03.2020
1389 Clouds 13 1015 71 10000 1 0 23:43 07.03.2020
1390 Clouds 14 1015 66 10000 1 0 23:22 07.03.2020
1391 Clouds 14 1015 66 10000 1.5 340 22:40 07.03.2020
1392 Clouds 14 1015 66 10000 1.5 340 22:21 07.03.2020
1393 Clouds 14 1015 66 10000 1.5 20 21:48 07.03.2020
1394 Clouds 14 1015 58 10000 2.1 90 21:25 07.03.2020
1395 Clouds 14 1015 58 10000 1 0 20:42 07.03.2020
1396 Clouds 15 1015 58 10000 1 0 20:23 07.03.2020
1397 Clouds 14 1015 58 10000 1 0 20:23 07.03.2020
1398 Clouds 14 1014 62 10000 1 0 19:58 07.03.2020
1399 Clouds 15 1014 62 10000 1 0 19:40 07.03.2020
1400 Clouds 15 1014 62 10000 1 0 19:20 07.03.2020
1401 Clouds 16 1014 58 10000 2.6 80 18:41 07.03.2020
1402 Clouds 16 1014 62 10000 2.1 100 18:22 07.03.2020
1403 Clouds 17 1014 67 10000 2.1 100 17:54 07.03.2020
1404 Clouds 17 1014 62 10000 2.6 110 17:36 07.03.2020
1405 Clouds 18 1014 55 10000 2.1 180 17:18 07.03.2020
1406 Clouds 18 1014 55 10000 2.1 180 16:42 07.03.2020
1407 Clouds 19 1014 52 10000 2.1 230 16:23 07.03.2020
1408 Clouds 19 1014 48 10000 3.6 270 15:57 07.03.2020
1409 Clouds 19 1014 45 10000 3.6 270 15:39 07.03.2020
1410 Clouds 19 1014 45 10000 3.6 270 15:39 07.03.2020
1411 Clouds 19 1014 45 10000 3.6 270 15:21 07.03.2020
1412 Clouds 19 1014 45 10000 4.1 240 14:56 07.03.2020
1413 Clouds 19 1014 52 10000 3.6 240 14:37 07.03.2020
1414 Clouds 19 1014 52 10000 3.6 240 14:19 07.03.2020
1415 Clouds 19 1014 51 10000 4.1 240 13:40 07.03.2020
1416 Clouds 19 1014 51 10000 4.1 240 13:20 07.03.2020
1417 Clouds 19 1014 63 10000 4.6 200 12:43 07.03.2020
1418 Clouds 19 1014 63 10000 4.6 200 12:20 07.03.2020
1419 Clouds 18 1014 67 10000 4.6 200 11:58 07.03.2020
1420 Clouds 18 1014 67 10000 4.6 200 11:58 07.03.2020
1421 Clouds 18 1014 59 10000 4.6 180 11:39 07.03.2020
1422 Clouds 18 1014 59 10000 4.6 180 11:21 07.03.2020
1423 Clear 17 1014 62 10000 5.1 190 10:41 07.03.2020
1424 Clear 17 1014 62 10000 5.1 190 10:21 07.03.2020
1425 Clear 16 1014 67 10000 3.6 210 09:57 07.03.2020
1426 Clear 16 1014 62 10000 5.1 210 09:38 07.03.2020
1427 Clear 16 1014 62 10000 5.1 210 09:18 07.03.2020
1428 Clear 15 1014 62 10000 5.7 190 08:44 07.03.2020
1429 Clear 14 1014 62 10000 3.1 190 08:21 07.03.2020
1430 Clouds 13 1014 66 10000 4.6 200 07:51 07.03.2020
1431 Clouds 12 1013 66 10000 6.2 190 07:23 07.03.2020
1432 Clouds 10 1014 70 0 1.8 149 06:57 07.03.2020
1433 Clouds 11 1020 70 0 1.8 149 06:33 07.03.2020
1434 Clouds 11 1012 66 10000 5.7 200 05:53 07.03.2020
1435 Clouds 12 1012 66 10000 5.7 200 04:47 07.03.2020
1436 Clouds 11 1012 81 10000 5.7 180 02:57 07.03.2020
1437 Clouds 11 1012 81 10000 5.7 180 02:33 07.03.2020
1438 Clouds 10 1012 81 10000 5.1 180 01:26 07.03.2020
1439 Clouds 10 1012 81 10000 5.7 180 00:39 07.03.2020
1440 Clouds 10 1012 81 10000 5.7 180 00:20 07.03.2020
1441 Clouds 10 1012 87 10000 3.1 170 23:45 06.03.2020
1442 Clouds 10 1012 87 10000 3.1 170 23:26 06.03.2020
1443 Clouds 10 1012 87 10000 1.5 140 22:48 06.03.2020
1444 Clouds 10 1012 87 10000 1.5 140 22:22 06.03.2020
1445 Clouds 11 1012 87 10000 2.55 199 21:56 06.03.2020
1446 Clouds 11 1012 81 10000 1.5 110 21:38 06.03.2020
1447 Clouds 11 1012 81 10000 1.5 110 21:18 06.03.2020
1448 Clouds 11 1012 81 10000 1.5 110 21:18 06.03.2020
1449 Clouds 11 1012 81 10000 0.5 0 20:38 06.03.2020
1450 Clouds 11 1012 81 10000 0.5 0 20:20 06.03.2020
1451 Clouds 12 1012 81 10000 0.5 0 19:47 06.03.2020
1452 Clouds 12 1012 81 10000 0.5 0 19:28 06.03.2020
1453 Clouds 12 1011 76 10000 3.6 200 18:57 06.03.2020
1454 Clouds 12 1012 87 10000 0.5 310 18:38 06.03.2020
1455 Clouds 12 1011 81 10000 0.5 0 18:19 06.03.2020
1456 Clouds 13 1011 76 10000 1.5 120 17:42 06.03.2020
1457 Clouds 13 1011 76 10000 1.5 120 17:42 06.03.2020
1458 Clouds 13 1011 76 10000 1.5 90 17:23 06.03.2020
1459 Clear 14 1011 71 10000 2.1 100 16:59 06.03.2020
1460 Clear 14 1011 71 10000 2.1 100 16:40 06.03.2020
1461 Clear 14 1011 71 10000 2.1 100 16:20 06.03.2020
1462 Clear 14 1011 67 10000 2.1 150 15:45 06.03.2020
1463 Clear 14 1011 67 10000 2.1 170 15:24 06.03.2020
1464 Clear 14 1011 71 10000 2.1 0 14:47 06.03.2020
1465 Clouds 14 1011 71 10000 3.1 130 14:25 06.03.2020
1466 Clouds 14 1011 71 10000 3.1 140 13:59 06.03.2020
1467 Clouds 14 1011 71 10000 3.1 140 13:41 06.03.2020
1468 Clouds 14 1011 71 10000 3.6 150 13:21 06.03.2020
1469 Clouds 13 1012 71 10000 3.6 140 12:56 06.03.2020
1470 Clouds 13 1012 71 10000 3.6 140 12:37 06.03.2020
1471 Clouds 12 1012 71 10000 3.6 140 12:18 06.03.2020
1472 Clouds 12 1012 76 10000 3.6 120 11:56 06.03.2020
1473 Clouds 11 1012 76 10000 3.6 120 11:37 06.03.2020
1474 Clouds 11 1012 76 10000 3.6 120 11:19 06.03.2020
1475 Clouds 10 1012 81 10000 3.1 140 10:37 06.03.2020
1476 Clouds 10 1012 81 10000 3.1 140 10:19 06.03.2020
1477 Clouds 10 1012 81 10000 3.6 140 09:43 06.03.2020
1478 Clouds 10 1012 81 10000 3.1 150 09:24 06.03.2020
1479 Clouds 10 1012 81 10000 2.1 170 08:58 06.03.2020
1480 Clouds 10 1012 81 10000 2.1 170 08:58 06.03.2020
1481 Clouds 9 1012 87 10000 2.1 180 08:40 06.03.2020
1482 Clouds 9 1012 87 10000 2.1 180 08:22 06.03.2020
1483 Clouds 9 1011 87 10000 1.5 190 07:47 06.03.2020
1484 Clouds 9 1011 87 10000 2.1 190 07:26 06.03.2020
1485 Clouds 9 1010 87 10000 2.1 210 06:51 06.03.2020
1486 Rain 9 1010 93 10000 1.5 180 06:33 06.03.2020
1487 Rain 9 1010 93 10000 1.5 230 05:41 06.03.2020
1488 Rain 9 1009 93 10000 0.5 0 05:20 06.03.2020
1489 Rain 9 1009 87 7000 1 0 04:44 06.03.2020
1490 Clouds 10 1008 81 10000 5.1 330 01:56 06.03.2020
1491 Clouds 10 1008 81 10000 5.7 330 01:38 06.03.2020
1492 Clouds 10 1008 81 10000 5.7 330 01:18 06.03.2020
1493 Clouds 10 1007 87 10000 4.6 350 00:32 06.03.2020
1494 Clouds 10 1007 87 10000 5.1 350 23:47 05.03.2020
1495 Clouds 10 1007 87 10000 5.1 350 23:29 05.03.2020
1496 Clouds 10 1006 87 10000 6.2 360 22:57 05.03.2020
1497 Clouds 10 1007 87 10000 4.1 360 22:38 05.03.2020
1498 Clouds 10 1007 87 10000 4.1 360 22:19 05.03.2020
1499 Clouds 10 1006 87 10000 6.2 360 21:56 05.03.2020
1500 Rain 10 1007 93 8000 7.2 340 21:37 05.03.2020
1501 Rain 10 1007 93 8000 7.2 340 21:37 05.03.2020
1502 Rain 10 1007 93 8000 7.2 340 21:19 05.03.2020
1503 Clouds 10 1006 87 10000 3.1 10 20:55 05.03.2020
1504 Rain 10 1006 87 10000 6.7 10 20:36 05.03.2020
1505 Rain 10 1006 87 10000 6.7 10 20:18 05.03.2020
1506 Rain 10 1006 87 10000 4.1 360 19:55 05.03.2020
1507 Clouds 10 1006 87 10000 5.7 360 19:37 05.03.2020
1508 Clouds 11 1006 81 10000 5.1 350 19:18 05.03.2020
1509 Clouds 11 1006 87 10000 7.7 360 18:38 05.03.2020
1510 Clouds 11 1006 87 10000 7.7 360 18:19 05.03.2020
1511 Clouds 11 1006 76 10000 4.1 360 17:58 05.03.2020
1512 Clouds 11 1006 76 10000 4.6 340 17:40 05.03.2020
1513 Clouds 11 1006 76 10000 4.6 340 17:21 05.03.2020
1514 Rain 12 1006 87 10000 1.5 40 16:42 05.03.2020
1515 Rain 12 1006 87 10000 1.5 40 16:42 05.03.2020
1516 Rain 12 1006 87 10000 1.5 40 16:24 05.03.2020
1517 Rain 12 1006 81 10000 0.5 0 15:59 05.03.2020
1518 Rain 12 1006 81 10000 0.5 0 15:40 05.03.2020
1519 Rain 12 1006 87 6000 1 0 15:21 05.03.2020
1520 Clouds 13 1006 76 10000 4.1 200 14:54 05.03.2020
1521 Rain 15 1005 67 10000 3.6 220 14:36 05.03.2020
1522 Rain 15 1005 67 10000 3.6 220 14:18 05.03.2020
1523 Clouds 16 1006 55 10000 5.1 330 13:41 05.03.2020
1524 Clouds 16 1006 55 10000 5.1 330 13:21 05.03.2020
1525 Clouds 16 1006 55 10000 5.1 330 13:21 05.03.2020
1526 Clouds 15 1006 62 10000 3.1 300 12:56 05.03.2020
1527 Clouds 15 1007 67 10000 3.6 250 12:38 05.03.2020
1528 Clouds 15 1007 67 10000 3.6 250 12:18 05.03.2020
1529 Clouds 15 1008 67 10000 4.1 260 11:56 05.03.2020
1530 Clouds 15 1008 67 10000 2.6 230 11:37 05.03.2020
1531 Clouds 15 1008 67 10000 2.6 180 11:18 05.03.2020
1532 Clouds 15 1008 67 10000 2.6 230 11:18 05.03.2020
1533 Clouds 15 1008 67 10000 2.6 180 10:56 05.03.2020
1534 Rain 15 1007 67 10000 2.6 250 10:38 05.03.2020
1535 Rain 16 1007 67 10000 2.6 250 10:19 05.03.2020
1536 Clouds 15 1008 67 10000 2.1 230 09:44 05.03.2020
1537 Clouds 15 1008 67 10000 2.1 230 09:26 05.03.2020
1538 Clouds 14 1008 71 10000 1.5 250 08:44 05.03.2020
1539 Clouds 14 1008 81 10000 1 80 08:25 05.03.2020
1540 Clouds 13 1008 81 10000 2.1 110 07:46 05.03.2020
1541 Clouds 13 1008 81 10000 2.1 210 07:22 05.03.2020
1542 Clouds 12 1008 81 10000 1 0 06:48 05.03.2020
1543 Clouds 13 1007 81 10000 1.5 130 06:22 05.03.2020
1544 Clouds 13 1007 81 10000 1.5 300 05:39 05.03.2020
1545 Clouds 13 1007 81 10000 1 0 04:55 05.03.2020
1546 Clouds 12 1007 87 10000 1 0 04:22 05.03.2020
1547 Clouds 13 1007 81 10000 2.1 340 03:34 05.03.2020
1548 Clouds 12 1008 76 10000 1.5 220 01:55 05.03.2020
1549 Clouds 13 1008 71 10000 1.5 260 01:20 05.03.2020
1550 Clouds 13 1008 66 10000 2.6 290 00:26 05.03.2020
1551 Clouds 13 1008 66 10000 1 0 23:42 04.03.2020
1552 Clouds 13 1008 66 10000 1 0 23:23 04.03.2020
1553 Clouds 14 1008 66 10000 1.5 360 22:58 04.03.2020
1554 Clouds 14 1008 58 10000 3.6 30 22:39 04.03.2020
1555 Clouds 14 1008 58 10000 3.6 30 22:19 04.03.2020
1556 Clouds 14 1008 58 10000 4.1 20 21:57 04.03.2020
1557 Clouds 13 1009 71 10000 3.1 340 21:39 04.03.2020
1558 Clouds 13 1009 71 10000 3.1 340 21:20 04.03.2020
1559 Clouds 14 1009 58 10000 2.6 10 20:54 04.03.2020
1560 Clouds 13 1009 66 10000 4.1 350 20:36 04.03.2020
1561 Clouds 13 1009 66 10000 4.1 350 20:18 04.03.2020
1562 Clouds 13 1008 71 10000 2.1 350 19:42 04.03.2020
1563 Clouds 13 1008 71 10000 2.1 350 19:23 04.03.2020
1564 Clouds 14 1009 71 10000 2.1 350 18:55 04.03.2020
1565 Clouds 14 1008 71 10000 2.1 80 18:36 04.03.2020
1566 Clouds 15 1008 71 10000 2.1 80 18:18 04.03.2020
1567 Clouds 15 1008 67 10000 3.1 100 17:54 04.03.2020
1568 Clouds 16 1008 55 10000 1.5 80 17:36 04.03.2020
1569 Clouds 17 1008 55 10000 1.5 80 17:18 04.03.2020
1570 Clouds 17 1008 59 10000 2.6 80 16:42 04.03.2020
1571 Clouds 18 1008 51 10000 3.6 100 16:23 04.03.2020
1572 Clouds 18 1009 55 10000 2.6 130 15:57 04.03.2020
1573 Clouds 18 1009 55 10000 2.6 130 15:38 04.03.2020
1574 Clouds 18 1009 52 10000 2.1 130 15:19 04.03.2020
1575 Clouds 18 1009 52 10000 2.1 130 15:19 04.03.2020
1576 Clouds 19 1010 48 10000 1.5 260 14:41 04.03.2020
1577 Clouds 19 1010 48 10000 1.5 260 14:22 04.03.2020
1578 Clouds 18 1010 51 10000 2.6 270 13:59 04.03.2020
1579 Clouds 17 1011 63 10000 1 0 13:40 04.03.2020
1580 Clouds 17 1011 63 10000 1 0 13:21 04.03.2020
1581 Clouds 17 1011 67 10000 1 0 12:59 04.03.2020
1582 Clouds 17 1011 67 10000 1 0 12:41 04.03.2020
1583 Clouds 17 1011 67 10000 1.5 200 12:23 04.03.2020
1584 Clouds 17 1011 63 10000 3.1 250 11:55 04.03.2020
1585 Clouds 17 1012 63 10000 1 0 11:37 04.03.2020
1586 Clouds 17 1012 67 10000 1.5 150 11:19 04.03.2020
1587 Clouds 17 1012 67 10000 1.5 150 10:42 04.03.2020
1588 Clouds 17 1012 71 10000 2.1 220 10:23 04.03.2020
1589 Clouds 16 1012 76 10000 2.1 200 09:55 04.03.2020
1590 Clouds 16 1012 71 10000 1.5 180 09:37 04.03.2020
1591 Clouds 15 1012 71 10000 1.5 180 09:18 04.03.2020
1592 Clouds 15 1012 71 10000 2.1 210 08:41 04.03.2020
1593 Clouds 15 1012 71 10000 2.1 210 08:23 04.03.2020
1594 Clouds 14 1012 71 10000 1.5 220 07:47 04.03.2020
1595 Clouds 13 1012 76 10000 1.2 150 07:28 04.03.2020
1596 Clouds 12 1012 81 10000 1 0 06:51 04.03.2020
1597 Clouds 11 1012 87 10000 1.2 150 06:26 04.03.2020
1598 Clouds 11 1012 76 10000 0.5 0 05:57 04.03.2020
1599 Clouds 11 1012 76 10000 0.96 63 05:00 04.03.2020
1600 Clouds 11 1012 76 10000 0.96 63 04:59 04.03.2020
1601 Clouds 12 1012 76 10000 0.5 0 03:50 04.03.2020
1602 Clouds 12 1012 71 10000 0.5 0 03:31 04.03.2020
1603 Clouds 12 1012 71 10000 0.5 0 02:58 04.03.2020
1604 Clouds 12 1012 76 10000 1.08 79 02:25 04.03.2020
1605 Clouds 12 1013 81 10000 0.5 0 01:56 04.03.2020
1606 Clouds 11 1013 76 10000 1.5 330 01:31 04.03.2020
1607 Clouds 13 1013 71 10000 1 110 00:41 04.03.2020
1608 Clouds 13 1013 71 10000 1 110 00:21 04.03.2020
1609 Clouds 12 1014 76 10000 1 0 23:42 03.03.2020
1610 Clouds 12 1014 76 10000 1 0 23:22 03.03.2020
1611 Clouds 13 1014 66 10000 2.1 100 22:55 03.03.2020
1612 Clouds 14 1014 66 10000 1 0 22:37 03.03.2020
1613 Clouds 14 1014 66 10000 1 0 22:18 03.03.2020
1614 Clouds 15 1014 58 10000 1.5 100 21:41 03.03.2020
1615 Clouds 15 1014 58 10000 1.5 100 21:21 03.03.2020
1616 Clouds 15 1013 48 10000 2.1 0 20:58 03.03.2020
1617 Clouds 15 1013 48 10000 2.1 0 20:39 03.03.2020
1618 Clear 15 1013 51 10000 3.6 280 20:18 03.03.2020
1619 Clear 16 1013 51 10000 3.6 280 19:56 03.03.2020
1620 Clear 15 1013 51 10000 3.6 280 19:56 03.03.2020
1621 Clear 16 1013 51 10000 3.6 270 19:37 03.03.2020
1622 Clear 16 1013 51 10000 3.6 270 19:18 03.03.2020
1623 Clear 16 1013 55 10000 3.6 260 18:56 03.03.2020
1624 Clear 17 1013 55 10000 2.1 250 18:38 03.03.2020
1625 Clear 17 1013 55 10000 2.1 250 18:18 03.03.2020
1626 Clear 17 1013 55 10000 1.5 240 17:41 03.03.2020
1627 Clear 17 1013 55 10000 1.5 240 17:22 03.03.2020
1628 Clear 19 1013 48 10000 2.1 210 16:59 03.03.2020
1629 Clear 20 1013 45 10000 2.6 230 16:38 03.03.2020
1630 Clear 20 1013 45 10000 2.6 230 16:20 03.03.2020
1631 Clear 20 1014 42 10000 3.1 220 15:58 03.03.2020
1632 Clear 21 1014 37 10000 4.1 210 15:40 03.03.2020
1633 Clear 22 1014 37 10000 4.1 210 15:20 03.03.2020
1634 Clear 21 1014 40 10000 4.1 240 14:43 03.03.2020
1635 Clear 21 1014 40 10000 4.1 240 14:43 03.03.2020
1636 Clouds 21 1014 40 10000 4.1 240 14:20 03.03.2020
1637 Clouds 21 1015 40 10000 4.1 240 13:58 03.03.2020
1638 Clouds 21 1015 40 10000 4.1 240 13:40 03.03.2020
1639 Clouds 21 1015 45 10000 4.1 240 13:22 03.03.2020
1640 Clouds 20 1015 48 10000 4.1 230 12:48 03.03.2020
1641 Clouds 20 1015 48 10000 4.1 230 12:27 03.03.2020
1642 Clouds 19 1016 51 10000 5.1 210 11:59 03.03.2020
1643 Clouds 19 1016 59 10000 4.6 230 11:38 03.03.2020
1644 Clouds 19 1016 59 10000 4.6 230 11:19 03.03.2020
1645 Clouds 18 1016 58 10000 4.1 250 10:56 03.03.2020
1646 Clouds 18 1016 58 10000 4.1 250 10:56 03.03.2020
1647 Clouds 18 1016 58 10000 4.1 250 10:56 03.03.2020
1648 Clouds 18 1016 58 10000 6.2 210 10:38 03.03.2020
1649 Clouds 18 1016 58 10000 6.2 210 10:19 03.03.2020
1650 Clouds 18 1016 58 10000 6.2 210 10:19 03.03.2020
1651 Clouds 18 1016 58 10000 5.7 210 09:44 03.03.2020
1652 Clouds 17 1016 58 10000 4.1 220 09:23 03.03.2020
1653 Clouds 17 1016 58 10000 4.1 220 08:58 03.03.2020
1654 Clouds 16 1016 54 10000 5.7 210 08:39 03.03.2020
1655 Clear 16 1016 54 10000 5.7 210 08:20 03.03.2020
1656 Clear 15 1016 62 10000 5.1 220 07:44 03.03.2020
1657 Clear 14 1016 58 10000 6.2 210 07:20 03.03.2020
1658 Clear 12 1016 71 10000 2.6 220 06:49 03.03.2020
1659 Clear 12 1016 71 10000 2.6 220 06:49 03.03.2020
1660 Clear 12 1015 71 10000 4.1 210 06:23 03.03.2020
1661 Clear 11 1015 71 10000 4.1 220 05:47 03.03.2020
1662 Clear 11 1015 76 10000 3.6 210 05:19 03.03.2020
1663 Clear 11 1015 71 10000 3.6 230 04:25 03.03.2020
1664 Clear 12 1016 76 10000 5.7 200 01:40 03.03.2020
1665 Clear 12 1016 76 10000 5.7 200 00:49 03.03.2020
1666 Clear 12 1016 81 10000 3.6 200 00:27 03.03.2020
1667 Clear 12 1016 81 10000 1.5 210 23:57 02.03.2020
1668 Clear 12 1016 76 10000 1.5 200 23:38 02.03.2020
1669 Clear 12 1016 76 10000 1.5 200 23:20 02.03.2020
1670 Clear 12 1016 76 10000 2.1 0 22:55 02.03.2020
1671 Clear 12 1016 76 10000 2.1 200 22:37 02.03.2020
1672 Clear 12 1016 81 10000 2.1 170 22:18 02.03.2020
1673 Clear 12 1015 76 10000 2.1 180 21:42 02.03.2020
1674 Clear 12 1015 76 10000 2.1 180 21:23 02.03.2020
1675 Clear 12 1016 66 10000 2.1 220 20:58 02.03.2020
1676 Clear 12 1015 66 10000 2.6 240 20:39 02.03.2020
1677 Clouds 12 1015 66 10000 2.6 240 20:20 02.03.2020
1678 Clouds 12 1015 66 10000 3.6 240 19:56 02.03.2020
1679 Clouds 13 1015 62 10000 3.6 240 19:38 02.03.2020
1680 Clouds 13 1015 62 10000 3.6 240 19:20 02.03.2020
1681 Clouds 13 1015 66 10000 3.1 230 18:45 02.03.2020
1682 Clouds 14 1015 62 10000 2.6 240 18:20 02.03.2020
1683 Clouds 13 1014 58 10000 3.1 260 17:59 02.03.2020
1684 Clouds 13 1014 58 10000 3.1 260 17:59 02.03.2020
1685 Clouds 14 1014 54 10000 2.6 270 17:41 02.03.2020
1686 -273 0 0 0 0 0 17:41 02.03.2020
1687 Clouds 15 1014 54 10000 2.6 270 17:21 02.03.2020
1688 Clouds 15 1014 54 10000 2.6 270 17:21 02.03.2020
1689 Clouds 14 1014 54 10000 2.6 270 17:21 02.03.2020
1690 Clouds 15 1014 58 10000 3.6 260 16:56 02.03.2020
1691 Clouds 15 1014 54 10000 2.6 220 16:38 02.03.2020
1692 Clouds 15 1014 54 10000 2.6 220 16:20 02.03.2020
1693 Clouds 16 1014 54 10000 2.1 190 15:44 02.03.2020
1694 Clouds 16 1014 62 10000 3.1 210 15:20 02.03.2020
1695 Clouds 16 1015 62 10000 4.1 220 14:56 02.03.2020
1696 Clouds 16 1015 62 10000 4.6 240 14:36 02.03.2020
1697 Clear 15 1015 62 10000 4.6 240 14:18 02.03.2020
1698 Clear 15 1015 58 10000 5.7 240 13:40 02.03.2020
1699 Clear 15 1015 58 10000 4.6 230 13:19 02.03.2020
1700 Clear 15 1015 58 10000 4.1 230 12:54 02.03.2020
1701 Clear 15 1015 66 10000 4.6 210 12:36 02.03.2020
1702 Clear 15 1015 66 10000 4.6 210 12:18 02.03.2020
1703 Clear 15 1015 62 10000 5.7 200 11:38 02.03.2020
1704 Clouds 14 1015 58 10000 6.7 210 11:19 02.03.2020
1705 Clouds 14 1015 58 10000 6.7 210 10:55 02.03.2020
1706 Clouds 13 1015 62 10000 6.7 210 10:36 02.03.2020
1707 Clouds 14 1015 62 10000 6.7 210 10:18 02.03.2020
1708 Clouds 13 1015 62 10000 6.7 190 09:44 02.03.2020
1709 Clouds 13 1015 62 10000 6.2 190 09:25 02.03.2020
1710 Clouds 11 1016 76 10000 5.1 200 08:47 02.03.2020
1711 Clouds 10 1016 76 10000 5.7 200 08:22 02.03.2020
1712 Clouds 9 1016 81 10000 5.1 200 07:44 02.03.2020
1713 Clouds 9 1016 81 10000 4.6 190 07:20 02.03.2020
1714 Clouds 8 1016 81 10000 3.6 210 06:47 02.03.2020
1715 Clouds 7 1016 87 10000 4.1 190 05:55 02.03.2020
1716 Clouds 6 1016 93 10000 1 190 04:26 02.03.2020
1717 Clouds 6 1016 93 10000 1 90 03:23 02.03.2020
1718 Clouds 5 1016 93 10000 1.5 150 02:48 02.03.2020
1719 Clouds 5 1017 93 10000 1.74 142 01:52 02.03.2020
1720 Clouds 5 1017 93 10000 0.5 10 01:31 02.03.2020
1721 Clouds 6 1017 86 10000 0.5 340 00:24 02.03.2020
1722 Clouds 7 1018 81 10000 0.5 320 23:58 01.03.2020
1723 Clouds 6 1018 81 10000 1 0 23:40 01.03.2020
1724 Clear 6 1018 81 10000 1 0 23:20 01.03.2020
1725 Clear 7 1018 81 10000 1.5 110 22:43 01.03.2020
1726 Clear 6 1018 81 10000 0.5 90 22:20 01.03.2020
1727 Clear 6 1018 81 10000 0.5 0 21:56 01.03.2020
1728 Clear 7 1018 81 10000 0.5 0 21:38 01.03.2020
1729 Clear 7 1018 81 10000 1 110 21:19 01.03.2020
1730 Clear 8 1018 70 10000 1.5 100 20:44 01.03.2020
1731 Clear 7 1018 75 10000 1 0 20:25 01.03.2020
1732 Clear 7 1018 70 10000 0.5 0 19:56 01.03.2020
1733 Clear 8 1019 70 10000 1.5 100 19:37 01.03.2020
1734 Clear 8 1019 70 10000 1.5 100 19:19 01.03.2020
1735 Clear 8 1019 81 10000 2.1 120 18:41 01.03.2020
1736 Clear 9 1019 81 10000 1 0 18:20 01.03.2020
1737 Clear 9 1019 81 10000 1 190 17:58 01.03.2020
1738 Clear 9 1019 75 10000 2.1 200 17:40 01.03.2020
1739 Clear 9 1019 75 10000 2.1 200 17:21 01.03.2020
1740 Clear 10 1019 61 10000 0.5 0 16:57 01.03.2020
1741 Clear 11 1019 61 10000 0.5 0 16:39 01.03.2020
1742 Clear 11 1019 57 10000 1 0 16:18 01.03.2020
1743 Clear 11 1019 57 10000 1 0 16:18 01.03.2020
1744 Clear 11 1019 66 10000 2.6 200 15:57 01.03.2020
1745 Clear 11 1019 53 10000 2.1 210 15:39 01.03.2020
1746 Clear 12 1019 53 10000 2.1 210 15:20 01.03.2020
1747 Clear 12 1019 62 10000 2.6 200 14:57 01.03.2020
1748 Clear 12 1020 66 10000 2.6 230 14:38 01.03.2020
1749 Clouds 11 1020 66 10000 2.6 230 14:20 01.03.2020
1750 Clouds 11 1020 71 10000 3.1 230 13:56 01.03.2020
1751 Clouds 11 1020 71 10000 3.1 210 13:37 01.03.2020
1752 Clouds 11 1020 71 10000 3.1 210 13:19 01.03.2020
1753 Clouds 11 1020 71 10000 3.1 190 12:43 01.03.2020
1754 Clouds 11 1021 76 10000 3.1 210 12:21 01.03.2020
1755 Clouds 11 1021 76 10000 2.6 190 11:58 01.03.2020
1756 Clouds 10 1021 76 10000 2.6 190 11:39 01.03.2020
1757 Clouds 10 1022 71 10000 3.1 200 11:18 01.03.2020
1758 Clouds 10 1022 76 10000 3.1 180 10:55 01.03.2020
1759 Clouds 9 1022 76 10000 3.1 150 10:36 01.03.2020
1760 Clouds 9 1022 76 10000 3.1 150 10:18 01.03.2020
1761 Clouds 10 1022 81 10000 3.1 150 09:41 01.03.2020
1762 Clouds 9 1022 81 10000 2.6 120 09:22 01.03.2020
1763 Clouds 8 1021 81 10000 2.6 100 08:46 01.03.2020
1764 Clouds 8 1022 81 10000 2.1 100 08:26 01.03.2020
1765 Clear 6 1021 87 8000 2.1 100 07:45 01.03.2020
1766 Clear 5 1021 93 8000 1 0 07:27 01.03.2020
1767 Clear 4 1021 93 6000 2.1 360 06:58 01.03.2020
1768 Mist 3 1021 100 4000 1.5 340 06:40 01.03.2020
1769 Clear 3 1021 93 10000 3.1 340 04:40 01.03.2020
1770 Clear 3 1021 93 10000 2.1 340 02:58 01.03.2020
1771 Clear 4 1021 100 10000 1 340 02:18 01.03.2020
1772 Clear 4 1022 93 10000 1.5 320 01:36 01.03.2020
1773 Clear 5 1021 93 10000 1 350 00:48 01.03.2020
1774 Clear 5 1021 93 10000 1 350 00:25 01.03.2020
1775 Clear 6 1021 93 10000 2.6 330 23:54 29.02.2020
1776 Clear 6 1021 93 10000 2.6 350 23:35 29.02.2020
1777 Clear 6 1021 93 10000 3.1 330 22:46 29.02.2020
1778 Clear 7 1021 93 10000 2.6 330 22:26 29.02.2020
1779 Clear 7 1021 86 10000 1.5 330 21:57 29.02.2020
1780 Clear 7 1021 81 10000 3.1 350 21:38 29.02.2020
1781 Clear 7 1021 81 10000 3.1 350 21:19 29.02.2020
1782 Clouds 7 1021 87 10000 4.6 350 20:41 29.02.2020
1783 Clouds 7 1021 87 10000 4.6 350 20:20 29.02.2020
1784 Clouds 8 1020 87 10000 4.6 10 19:54 29.02.2020
1785 Clouds 8 1020 81 10000 4.6 20 19:36 29.02.2020
1786 Clouds 8 1020 81 10000 4.6 20 19:18 29.02.2020
1787 Rain 8 1019 81 10000 7.2 10 18:39 29.02.2020
1788 Rain 8 1019 81 10000 7.2 10 18:19 29.02.2020
1789 Clouds 8 1019 87 10000 7.7 20 17:55 29.02.2020
1790 Rain 8 1018 81 10000 5.7 10 17:37 29.02.2020
1791 Rain 8 1018 81 10000 5.7 10 17:19 29.02.2020
1792 Clouds 9 1017 70 10000 7.2 360 16:43 29.02.2020
1793 Clouds 9 1017 70 10000 9.3 360 16:19 29.02.2020
1794 Clouds 9 1017 70 10000 9.3 360 15:56 29.02.2020
1795 Clouds 9 1016 76 10000 8.2 10 15:36 29.02.2020
1796 Clouds 9 1016 76 10000 8.2 10 15:18 29.02.2020
1797 Clouds 9 1015 76 10000 8.7 10 14:39 29.02.2020
1798 Clouds 9 1015 76 10000 8.7 10 14:21 29.02.2020
1799 Clouds 9 1014 81 10000 10.3 360 13:45 29.02.2020
1800 Clouds 9 1014 81 10000 10.3 360 13:26 29.02.2020
1801 Clouds 9 1014 81 10000 9.3 360 12:56 29.02.2020
1802 Clouds 9 1014 76 10000 11.3 350 12:37 29.02.2020
1803 Clouds 9 1014 81 10000 9.3 360 12:19 29.02.2020
1804 Clouds 8 1014 81 10000 11.3 350 11:44 29.02.2020
1805 Clouds 8 1014 81 10000 11.3 350 11:26 29.02.2020
1806 Rain 8 1013 87 10000 10.3 350 10:51 29.02.2020
1807 Rain 8 1012 87 8000 10.8 360 10:30 29.02.2020
1808 Rain 8 1012 93 8000 10.8 360 09:52 29.02.2020
1809 Rain 8 1011 87 8000 10.8 350 09:28 29.02.2020
1810 Rain 8 1011 93 8000 9.8 360 08:58 29.02.2020
1811 Rain 8 1010 93 8000 9.3 360 08:39 29.02.2020
1812 Rain 8 1010 93 8000 9.3 360 08:20 29.02.2020
1813 Rain 8 1010 87 8000 8.7 360 07:47 29.02.2020
1814 Rain 8 1009 87 8000 8.7 350 07:22 29.02.2020
1815 Rain 7 1008 93 8000 10.8 350 06:54 29.02.2020
1816 Rain 7 1008 87 6000 11.3 350 06:28 29.02.2020
1817 Rain 7 1008 87 7000 10.8 350 05:49 29.02.2020
1818 Rain 7 1007 87 8000 10.8 350 05:30 29.02.2020
1819 Rain 7 1007 87 6000 8.2 350 03:53 29.02.2020
1820 Rain 8 1008 93 6000 3.1 330 03:23 29.02.2020
1821 Rain 8 1007 93 6000 5.7 340 02:51 29.02.2020
1822 Rain 9 1007 71 10000 2.1 90 01:49 29.02.2020
1823 Clouds 9 1008 76 10000 1 0 00:49 29.02.2020
1824 Clouds 9 1008 76 10000 1 0 00:27 29.02.2020
1825 Clouds 9 1008 71 10000 2.6 100 23:40 28.02.2020
1826 Clouds 10 1008 71 10000 2.6 80 23:22 28.02.2020
1827 Clouds 10 1009 76 10000 2.6 90 22:42 28.02.2020
1828 Clouds 10 1009 76 10000 2.6 90 22:22 28.02.2020
1829 Clouds 10 1009 76 10000 1.5 80 21:42 28.02.2020
1830 Clouds 10 1009 76 10000 1.5 80 21:22 28.02.2020
1831 Clouds 10 1009 76 10000 1.5 80 21:22 28.02.2020
1832 Clouds 9 1009 71 10000 3.6 130 20:57 28.02.2020
1833 Clouds 10 1009 76 10000 2.1 120 20:38 28.02.2020
1834 Clouds 10 1009 76 10000 2.1 120 20:20 28.02.2020
1835 Clouds 10 1010 76 10000 3.6 140 19:56 28.02.2020
1836 Clouds 10 1010 71 10000 2.6 120 19:38 28.02.2020
1837 Clouds 10 1010 71 10000 2.6 120 19:19 28.02.2020
1838 Clouds 10 1010 76 10000 2.6 160 18:46 28.02.2020
1839 Clouds 10 1010 76 10000 2.6 160 18:24 28.02.2020
1840 Clouds 10 1010 76 10000 2.6 190 17:56 28.02.2020
1841 Clouds 10 1010 71 10000 2.1 210 17:36 28.02.2020
1842 Clouds 10 1010 71 10000 2.1 210 17:36 28.02.2020
1843 Clouds 11 1010 71 10000 2.1 210 17:18 28.02.2020
1844 Clouds 11 1010 66 10000 3.1 260 16:38 28.02.2020
1845 Clouds 11 1010 66 10000 3.1 260 16:38 28.02.2020
1846 Clouds 11 1010 66 10000 3.1 260 16:19 28.02.2020
1847 Clouds 11 1010 66 10000 3.1 260 16:19 28.02.2020
1848 Clouds 12 1010 54 10000 3.6 270 15:56 28.02.2020
1849 Clouds 12 1011 62 10000 3.1 260 15:37 28.02.2020
1850 Clouds 12 1011 62 10000 3.1 260 15:18 28.02.2020
1851 Clouds 12 1011 62 10000 3.6 270 14:45 28.02.2020
1852 Clouds 12 1011 62 10000 3.1 250 14:19 28.02.2020
1853 Clouds 12 1011 62 10000 3.1 250 13:59 28.02.2020
1854 Clouds 11 1011 66 10000 2.6 210 13:40 28.02.2020
1855 Clouds 11 1011 66 10000 2.6 210 13:19 28.02.2020
1856 Clouds 11 1012 62 10000 2.1 150 12:45 28.02.2020
1857 Clouds 11 1012 62 10000 3.1 140 12:27 28.02.2020
1858 Clouds 11 1012 62 10000 3.1 140 12:27 28.02.2020
1859 Clouds 11 1013 71 10000 2.6 160 11:56 28.02.2020
1860 Clouds 10 1013 71 10000 3.1 140 11:37 28.02.2020
1861 Clouds 10 1013 71 10000 3.1 140 11:19 28.02.2020
1862 Clouds 10 1014 57 10000 4.1 100 10:43 28.02.2020
1863 Clouds 10 1014 57 10000 4.1 100 10:24 28.02.2020
1864 Clouds 10 1014 53 10000 4.1 100 09:49 28.02.2020
1865 Clouds 10 1014 53 10000 4.1 100 09:49 28.02.2020
1866 Clouds 10 1014 53 10000 4.1 100 09:49 28.02.2020
1867 Clouds 10 1014 53 10000 4.1 100 09:49 28.02.2020
1868 Clouds 10 1014 53 10000 4.1 100 09:49 28.02.2020
1869 Clouds 9 1015 57 10000 3.6 100 09:22 28.02.2020
1870 Clouds 9 1015 61 10000 3.6 100 08:59 28.02.2020
1871 Clouds 9 1015 61 10000 2.6 100 08:41 28.02.2020
1872 Clouds 9 1015 61 10000 2.6 100 08:41 28.02.2020
1873 Clouds 9 1015 61 10000 2.6 100 08:20 28.02.2020
1874 Clouds 9 1015 61 10000 2.1 80 07:45 28.02.2020
1875 Clouds 8 1014 75 10000 2.6 80 07:25 28.02.2020
1876 Clouds 8 1014 81 10000 1 170 06:48 28.02.2020
1877 Clouds 7 1013 81 10000 0.5 0 06:28 28.02.2020
1878 Clouds 7 1013 81 10000 0.5 0 04:50 28.02.2020
1879 Clouds 7 1013 81 10000 0.5 0 04:20 28.02.2020
1880 Clouds 8 1012 81 10000 1.5 10 02:47 28.02.2020
1881 Clouds 8 1011 93 10000 2.6 310 02:28 28.02.2020
1882 Rain 9 1011 87 10000 3.6 280 01:33 28.02.2020
1883 Rain 9 1010 81 10000 4.6 260 00:30 28.02.2020
1884 Clouds 8 1009 87 10000 5.7 190 23:42 27.02.2020
1885 Clouds 9 1009 87 10000 5.7 190 23:22 27.02.2020
1886 Clouds 9 1009 81 10000 3.1 170 22:55 27.02.2020
1887 Clouds 9 1009 87 10000 3.1 170 22:37 27.02.2020
1888 Rain 8 1008 87 9000 5.7 140 22:19 27.02.2020
1889 Rain 8 1009 93 9000 3.6 150 21:41 27.02.2020
1890 Rain 8 1008 87 9000 3.1 200 21:19 27.02.2020
1891 Rain 8 1008 87 9000 3.1 200 20:58 27.02.2020
1892 Rain 8 1008 87 9000 3.1 200 20:39 27.02.2020
1893 Rain 8 1008 87 10000 2.1 280 20:21 27.02.2020
1894 Rain 9 1008 87 10000 5.1 290 19:56 27.02.2020
1895 Thunderstorm 9 1006 87 4000 8.7 300 19:37 27.02.2020
1896 Thunderstorm 9 1006 87 4000 8.7 300 19:37 27.02.2020
1897 Thunderstorm 9 1006 87 4000 8.7 300 19:19 27.02.2020
1898 Thunderstorm 10 1007 87 4000 9.8 280 18:42 27.02.2020
1899 Thunderstorm 11 1004 76 10000 13.9 270 18:24 27.02.2020
1900 Thunderstorm 13 1005 71 4000 10.8 250 17:58 27.02.2020
1901 Thunderstorm 13 1004 76 4000 13.4 230 17:40 27.02.2020
1902 Thunderstorm 14 1004 76 4000 13.4 230 17:19 27.02.2020
1903 Thunderstorm 15 1003 67 10000 6.7 230 16:57 27.02.2020
1904 Clouds 15 1003 67 10000 6.7 220 16:38 27.02.2020
1905 Clouds 15 1003 67 10000 6.7 220 16:18 27.02.2020
1906 Clouds 16 1003 71 10000 7.2 240 15:56 27.02.2020
1907 Clouds 16 1003 62 10000 8.2 210 15:37 27.02.2020
1908 Clouds 17 1003 62 10000 8.2 210 15:18 27.02.2020
1909 Clouds 16 1004 62 10000 9.8 210 14:43 27.02.2020
1910 Clouds 17 1004 59 10000 9.8 210 14:24 27.02.2020
1911 Clouds 17 1004 55 10000 10.8 200 13:58 27.02.2020
1912 Clouds 17 1004 55 10000 10.8 200 13:40 27.02.2020
1913 Clouds 17 1004 59 10000 11.3 200 13:20 27.02.2020
1914 Clouds 18 1004 55 10000 11.8 210 12:46 27.02.2020
1915 Clouds 18 1005 59 10000 9.3 210 12:25 27.02.2020
1916 Clouds 18 1006 59 10000 6.7 230 11:58 27.02.2020
1917 Clouds 18 1006 59 10000 9.3 220 11:38 27.02.2020
1918 Clouds 18 1006 59 10000 9.3 220 11:20 27.02.2020
1919 Clouds 17 1006 58 10000 12.3 210 10:43 27.02.2020
1920 Clouds 17 1006 58 10000 12.3 210 10:22 27.02.2020
1921 Clouds 17 1006 58 10000 9.8 210 09:47 27.02.2020
1922 Clouds 17 1006 62 10000 10.8 210 09:29 27.02.2020
1923 Clouds 17 1006 58 10000 10.8 210 08:57 27.02.2020
1924 Clouds 17 1006 58 10000 10.8 210 08:38 27.02.2020
1925 Clouds 16 1007 62 10000 9.3 210 08:38 27.02.2020
1926 Clouds 16 1007 62 10000 9.3 210 08:18 27.02.2020
1927 Clouds 15 1007 62 10000 8.2 220 07:43 27.02.2020
1928 Clouds 15 1007 62 10000 9.8 210 07:24 27.02.2020
1929 Clouds 14 1005 62 10000 12.9 220 06:31 27.02.2020
1930 Clouds 14 1006 66 10000 8.7 210 05:27 27.02.2020
1931 Clouds 14 1006 67 10000 10.3 200 03:33 27.02.2020
1932 Clouds 15 1006 71 10000 5.7 210 02:19 27.02.2020
1933 Clouds 15 1008 71 10000 2.6 250 00:44 27.02.2020
1934 Clouds 15 1007 71 10000 3.6 250 00:22 27.02.2020
1935 Clouds 15 1007 62 10000 9.3 220 23:38 26.02.2020
1936 Clouds 15 1007 62 10000 9.3 220 23:18 26.02.2020
1937 Clouds 15 1007 62 10000 9.8 220 22:56 26.02.2020
1938 Clouds 15 1007 62 10000 8.7 230 22:38 26.02.2020
1939 Clouds 15 1007 62 10000 8.7 230 22:19 26.02.2020
1940 Clouds 16 1006 58 10000 10.8 230 21:40 26.02.2020
1941 Clouds 16 1006 58 10000 10.8 230 21:21 26.02.2020
1942 Clouds 16 1006 62 10000 8.2 240 20:57 26.02.2020
1943 Clouds 16 1006 62 10000 8.2 240 20:38 26.02.2020
1944 Clouds 16 1006 62 10000 8.2 240 20:38 26.02.2020
1945 Clouds 16 1006 62 10000 8.7 240 20:19 26.02.2020
1946 Clouds 16 1006 67 10000 8.2 240 19:57 26.02.2020
1947 Clouds 16 1006 67 10000 7.2 230 19:38 26.02.2020
1948 Clouds 16 1006 67 10000 7.2 230 19:19 26.02.2020
1949 Clouds 15 1006 71 10000 2.1 220 18:57 26.02.2020
1950 Clouds 16 1006 71 10000 2.6 250 18:38 26.02.2020
1951 Clouds 16 1006 71 10000 2.6 250 18:19 26.02.2020
1952 Clouds 16 1006 71 10000 2.1 210 17:41 26.02.2020
1953 Clouds 16 1006 66 10000 2.6 220 17:20 26.02.2020
1954 Clouds 16 1006 62 10000 2.1 240 16:57 26.02.2020
1955 Clouds 17 1006 54 10000 2.1 200 16:38 26.02.2020
1956 Clouds 17 1006 54 10000 2.1 200 16:20 26.02.2020
1957 Clouds 17 1006 58 10000 2.6 200 15:45 26.02.2020
1958 Clouds 18 1006 54 10000 2.6 250 15:27 26.02.2020
1959 Clouds 18 1006 51 10000 2.6 230 14:55 26.02.2020
1960 Clouds 18 1007 58 10000 4.1 240 14:37 26.02.2020
1961 Clear 18 1007 58 10000 4.1 240 14:18 26.02.2020
1962 Clear 18 1007 45 10000 5.1 210 13:41 26.02.2020
1963 Clear 18 1007 48 10000 4.1 200 13:19 26.02.2020
1964 Clear 18 1008 41 10000 4.1 200 12:39 26.02.2020
1965 Clear 18 1008 41 10000 4.1 200 12:19 26.02.2020
1966 Clear 18 1008 41 10000 5.1 200 11:56 26.02.2020
1967 Clear 17 1008 31 10000 10.8 220 11:37 26.02.2020
1968 Clear 17 1009 44 10000 4.1 200 11:19 26.02.2020
1969 Clear 17 1009 44 10000 3.6 210 10:41 26.02.2020
1970 Clear 16 1008 43 10000 11.8 210 10:22 26.02.2020
1971 Clear 16 1010 44 10000 5.1 210 09:56 26.02.2020
1972 Clear 15 1010 54 10000 4.6 210 09:38 26.02.2020
1973 Clear 14 1010 54 10000 4.6 210 09:18 26.02.2020
1974 Clear 13 1010 54 10000 3.6 210 08:38 26.02.2020
1975 Clouds 12 1010 54 10000 3.6 210 08:19 26.02.2020
1976 Clouds 12 1010 57 10000 4.1 210 07:50 26.02.2020
1977 Clouds 11 1011 62 10000 3.6 240 07:29 26.02.2020
1978 Clouds 10 1010 66 10000 2.6 250 06:54 26.02.2020
1979 Clouds 10 1010 66 10000 4.1 210 06:36 26.02.2020
1980 Clouds 10 1010 66 10000 4.1 210 06:18 26.02.2020
1981 Clouds 9 1010 66 10000 2.6 220 05:43 26.02.2020
1982 Clouds 9 1011 70 10000 2.1 240 04:49 26.02.2020
1983 Clouds 9 1012 76 10000 3.1 220 02:54 26.02.2020
1984 Clouds 9 1012 87 10000 3.1 170 01:50 26.02.2020
1985 Clouds 9 1013 81 10000 5.7 210 00:51 26.02.2020
1986 Clouds 9 1013 71 10000 6.2 220 00:27 26.02.2020
1987 Clouds 9 1013 76 10000 5.7 220 23:59 25.02.2020
1988 Clouds 9 1013 76 10000 5.7 220 23:38 25.02.2020
1989 Clouds 8 1013 87 10000 3.1 240 23:20 25.02.2020
1990 Clouds 8 1014 81 10000 2.1 230 22:43 25.02.2020
1991 Clouds 8 1014 75 10000 1.5 230 22:20 25.02.2020
1992 Clouds 8 1014 75 10000 1.5 230 21:58 25.02.2020
1993 Clouds 8 1015 70 10000 1.5 230 21:37 25.02.2020
1994 Clouds 8 1015 70 10000 1.5 230 21:18 25.02.2020
1995 Clouds 8 1015 70 10000 1.5 210 20:55 25.02.2020
1996 Clouds 8 1015 61 10000 1 220 20:36 25.02.2020
1997 Clear 8 1015 61 10000 1 220 20:18 25.02.2020
1998 Clear 8 1015 65 10000 1 170 19:42 25.02.2020
1999 Clear 8 1016 65 10000 1 140 19:22 25.02.2020
2000 Clear 8 1016 75 10000 1.5 170 18:58 25.02.2020
2001 Clear 9 1016 75 10000 2.6 160 18:38 25.02.2020
2002 Clear 9 1016 75 10000 2.6 160 18:19 25.02.2020
2003 Clear 10 1016 70 10000 2.1 160 17:54 25.02.2020
2004 Clear 10 1017 70 10000 2.1 200 17:36 25.02.2020
2005 Clear 10 1017 70 10000 2.1 200 17:18 25.02.2020
2006 Clear 12 1017 53 10000 2.1 200 16:42 25.02.2020
2007 Clear 12 1017 53 10000 2.1 200 16:22 25.02.2020
2008 Clear 13 1017 50 10000 3.1 220 15:59 25.02.2020
2009 Clear 13 1017 50 10000 3.1 220 15:41 25.02.2020
2010 Clear 13 1018 40 10000 3.1 240 15:20 25.02.2020
2011 Clear 13 1018 32 10000 3.1 240 14:58 25.02.2020
2012 Clear 13 1018 35 10000 3.1 260 14:38 25.02.2020
2013 Clear 14 1018 35 10000 3.1 260 14:18 25.02.2020
2014 Clear 14 1018 32 10000 2.1 200 13:56 25.02.2020
2015 Clear 14 1019 37 10000 1.5 0 13:38 25.02.2020
2016 Clear 13 1019 37 10000 1.5 0 13:19 25.02.2020
2017 Clear 13 1020 40 10000 4.1 150 12:42 25.02.2020
2018 Clear 13 1020 40 10000 4.1 150 12:23 25.02.2020
2019 Clear 13 1020 41 10000 3.1 120 11:58 25.02.2020
2020 Clear 12 1021 46 10000 3.6 120 11:39 25.02.2020
2021 Clear 12 1021 46 10000 3.6 120 11:19 25.02.2020
2022 Clear 12 1021 50 10000 3.6 110 10:59 25.02.2020
2023 Clear 12 1021 50 10000 3.6 110 10:40 25.02.2020
2024 Clear 12 1021 50 10000 3.1 100 10:21 25.02.2020
2025 Clear 10 1022 57 10000 3.6 100 09:42 25.02.2020
2026 Clear 10 1022 57 10000 3.6 100 09:22 25.02.2020
2027 Clear 10 1022 61 10000 3.1 100 08:54 25.02.2020
2028 Clear 9 1022 47 10000 3.6 100 08:36 25.02.2020
2029 Clear 8 1022 61 10000 3.1 80 08:18 25.02.2020
2030 Clear 7 1022 65 10000 2.6 50 07:39 25.02.2020
2031 Clear 6 1022 65 10000 2.6 50 07:19 25.02.2020
2032 Clear 5 1021 70 10000 2.6 50 06:37 25.02.2020
2033 Clear 5 1021 52 10000 2.1 110 05:29 25.02.2020
2034 Clear 6 1021 58 10000 3.1 40 03:30 25.02.2020
2035 Clouds 7 1021 61 10000 5.1 50 01:32 25.02.2020
2036 Clouds 8 1021 61 10000 5.7 50 00:48 25.02.2020
2037 Clouds 8 1021 61 10000 4.1 60 00:29 25.02.2020
2038 Clouds 8 1021 61 10000 4.6 70 23:43 24.02.2020
2039 Clouds 9 1021 57 10000 5.7 60 23:20 24.02.2020
2040 Clouds 9 1021 57 10000 4.1 50 22:42 24.02.2020
2041 Clouds 9 1021 57 10000 4.1 50 22:20 24.02.2020
2042 Clouds 9 1020 61 10000 4.1 50 21:57 24.02.2020
2043 Clouds 9 1020 61 10000 4.1 50 21:57 24.02.2020
2044 Clouds 9 1020 61 10000 4.1 40 21:39 24.02.2020
2045 Clouds 9 1020 61 10000 4.1 40 21:20 24.02.2020
2046 Clouds 9 1019 66 10000 4.6 40 20:58 24.02.2020
2047 Clouds 9 1019 66 10000 3.6 30 20:39 24.02.2020
2048 Clouds 10 1019 66 10000 3.6 30 20:19 24.02.2020
2049 Clouds 10 1019 66 10000 3.1 30 19:56 24.02.2020
2050 Clouds 10 1019 66 10000 3.1 30 19:38 24.02.2020
2051 Clouds 10 1018 66 10000 7.2 50 19:19 24.02.2020
2052 Clouds 11 1016 71 10000 4.1 320 18:43 24.02.2020
2053 Clouds 11 1016 71 10000 4.1 320 18:43 24.02.2020
2054 Clouds 11 1016 71 10000 4.1 320 18:24 24.02.2020
2055 Clouds 12 1015 76 10000 5.1 340 17:58 24.02.2020
2056 Clouds 12 1014 76 10000 4.1 270 17:39 24.02.2020
2057 Clouds 12 1014 76 10000 4.1 270 17:20 24.02.2020
2058 Clouds 12 1013 76 10000 6.7 250 16:58 24.02.2020
2059 Clouds 12 1013 76 10000 6.7 250 16:58 24.02.2020
2060 Clouds 12 1013 76 10000 6.2 240 16:38 24.02.2020
2061 Clouds 12 1013 76 10000 6.2 240 16:20 24.02.2020
2062 Clouds 13 1013 71 10000 6.2 230 15:57 24.02.2020
2063 Clouds 13 1013 66 10000 7.2 230 15:39 24.02.2020
2064 Clouds 13 1013 66 10000 7.2 230 15:20 24.02.2020
2065 Clouds 13 1013 58 10000 7.2 240 14:55 24.02.2020
2066 Clouds 12 1013 53 10000 5.1 230 14:36 24.02.2020
2067 Clouds 12 1013 53 10000 5.1 230 14:18 24.02.2020
2068 Clouds 11 1013 71 10000 6.2 230 13:41 24.02.2020
2069 Clouds 11 1013 71 10000 6.2 230 13:23 24.02.2020
2070 Clouds 12 1014 66 10000 6.2 250 12:59 24.02.2020
2071 Clouds 12 1014 66 10000 6.2 250 12:41 24.02.2020
2072 Clouds 12 1013 66 10000 7.2 240 12:23 24.02.2020
2073 Clouds 12 1013 71 10000 6.2 250 11:50 24.02.2020
2074 Clouds 12 1014 62 10000 6.7 240 11:31 24.02.2020
2075 Clouds 12 1014 62 10000 6.2 230 10:54 24.02.2020
2076 Clouds 12 1014 66 10000 6.2 230 10:36 24.02.2020
2077 Clouds 12 1014 66 10000 6.2 230 10:18 24.02.2020
2078 Clouds 11 1015 76 10000 6.2 230 09:40 24.02.2020
2079 Clouds 10 1015 71 10000 7.2 230 09:19 24.02.2020
2080 Clouds 10 1015 70 10000 6.7 220 08:48 24.02.2020
2081 Clouds 10 1015 76 10000 6.7 200 08:29 24.02.2020
2082 Clouds 9 1015 70 10000 7.7 200 07:54 24.02.2020
2083 Clouds 9 1015 70 10000 7.7 210 07:32 24.02.2020
2084 Clouds 8 1015 75 10000 7.7 200 06:50 24.02.2020
2085 Clouds 8 1015 70 10000 8.7 200 06:23 24.02.2020
2086 Clouds 8 1015 81 10000 7.2 190 05:42 24.02.2020
2087 Clouds 8 1015 81 10000 7.2 190 05:23 24.02.2020
2088 Clouds 7 1017 81 10000 6.2 200 02:57 24.02.2020
2089 Clouds 7 1018 61 10000 6.7 220 01:53 24.02.2020
2090 Clouds 7 1018 70 10000 6.7 230 01:28 24.02.2020
2091 Clouds 7 1019 65 10000 7.2 220 00:38 24.02.2020
2092 Clouds 7 1019 70 10000 6.2 220 00:19 24.02.2020
2093 Clouds 6 1020 70 10000 6.2 220 23:42 23.02.2020
2094 Clouds 6 1020 70 10000 5.7 220 23:23 23.02.2020
2095 Clouds 6 1020 70 10000 5.1 220 22:58 23.02.2020
2096 Clouds 6 1020 70 10000 5.1 220 22:40 23.02.2020
2097 Clouds 6 1020 70 10000 4.6 220 22:21 23.02.2020
2098 Clouds 6 1021 75 10000 2.6 240 21:46 23.02.2020
2099 Clouds 5 1021 75 10000 1.5 260 21:20 23.02.2020
2100 Clouds 5 1022 75 10000 2.6 280 20:57 23.02.2020
2101 Clouds 6 1022 70 10000 3.1 260 20:39 23.02.2020
2102 Clouds 6 1022 70 10000 3.1 260 20:21 23.02.2020
2103 Clouds 6 1022 70 10000 3.1 250 19:59 23.02.2020
2104 Clouds 6 1022 70 10000 3.1 250 19:40 23.02.2020
2105 Clouds 6 1022 59 10000 2.6 260 19:19 23.02.2020
2106 Clouds 6 1023 65 10000 3.6 250 18:59 23.02.2020
2107 Clouds 6 1022 70 10000 2.6 240 18:37 23.02.2020
2108 Clouds 7 1022 70 10000 2.6 240 18:19 23.02.2020
2109 Clouds 7 1023 65 10000 3.1 250 17:57 23.02.2020
2110 Clouds 7 1022 59 10000 3.6 250 17:39 23.02.2020
2111 Clouds 8 1022 53 10000 3.6 250 17:20 23.02.2020
2112 Clouds 8 1023 53 10000 3.6 240 16:46 23.02.2020
2113 Clouds 9 1023 53 10000 3.6 240 16:28 23.02.2020
2114 Clouds 9 1024 61 10000 4.1 240 15:59 23.02.2020
2115 Clouds 9 1023 53 10000 3.1 190 15:39 23.02.2020
2116 Clouds 9 1023 53 10000 3.1 190 15:21 23.02.2020
2117 Clouds 9 1024 57 10000 3.1 220 14:59 23.02.2020
2118 Clouds 9 1024 57 10000 3.1 220 14:40 23.02.2020
2119 Clouds 9 1024 57 10000 4.1 190 14:21 23.02.2020
2120 Clouds 9 1024 48 10000 3.6 170 13:57 23.02.2020
2121 Clouds 9 1024 48 10000 3.6 180 13:38 23.02.2020
2122 Clouds 9 1024 47 10000 3.6 180 13:20 23.02.2020
2123 Clouds 9 1024 47 10000 3.6 180 13:20 23.02.2020
2124 Clouds 9 1025 49 10000 3.6 180 12:42 23.02.2020
2125 Clouds 9 1025 49 10000 4.1 160 12:22 23.02.2020
2126 Clouds 8 1026 49 10000 3.6 140 11:57 23.02.2020
2127 Clouds 8 1026 45 10000 3.6 110 11:37 23.02.2020
2128 Clouds 8 1026 45 10000 3.6 110 11:18 23.02.2020
2129 Clouds 8 1027 42 10000 3.1 110 10:54 23.02.2020
2130 Clouds 8 1027 45 10000 2.1 100 10:36 23.02.2020
2131 Clouds 8 1027 45 10000 2.1 100 10:18 23.02.2020
2132 Clouds 8 1027 49 10000 4.1 50 09:40 23.02.2020
2133 Clouds 7 1027 49 10000 4.1 50 09:21 23.02.2020
2134 Clouds 7 1027 52 10000 4.1 50 08:56 23.02.2020
2135 Clouds 7 1027 56 10000 5.1 40 08:36 23.02.2020
2136 Clouds 7 1027 56 10000 5.1 40 08:18 23.02.2020
2137 Clouds 6 1027 60 10000 3.6 30 07:40 23.02.2020
2138 Clouds 5 1026 69 10000 2.6 10 06:39 23.02.2020
2139 Clouds 4 1026 74 10000 2.1 20 05:48 23.02.2020
2140 Clouds 4 1026 80 10000 2.1 10 04:42 23.02.2020
2141 Clouds 4 1027 69 10000 3.1 10 03:21 23.02.2020
2142 Clouds 5 1027 65 10000 4.1 10 02:26 23.02.2020
2143 Clouds 5 1027 69 10000 3.1 30 01:24 23.02.2020
2144 Clouds 6 1028 69 10000 3.6 10 00:47 23.02.2020
2145 Clouds 6 1028 69 10000 4.1 20 00:25 23.02.2020
2146 Clouds 6 1028 69 10000 5.1 20 23:45 22.02.2020
2147 Clouds 6 1028 69 10000 4.6 20 23:27 22.02.2020
2148 Clouds 6 1027 66 10000 4.6 30 22:57 22.02.2020
2149 Clouds 6 1028 66 10000 5.7 30 22:38 22.02.2020
2150 Clouds 6 1028 66 10000 5.7 30 22:18 22.02.2020
2151 Clouds 6 1028 70 10000 6.2 20 21:40 22.02.2020
2152 Clouds 6 1028 70 10000 6.2 20 21:22 22.02.2020
2153 Clouds 6 1028 70 10000 5.1 20 20:46 22.02.2020
2154 Clouds 6 1027 70 10000 4.6 20 20:24 22.02.2020
2155 Clouds 7 1027 65 10000 6.2 30 19:56 22.02.2020
2156 Clouds 7 1027 65 10000 5.7 20 19:37 22.02.2020
2157 Clouds 7 1027 65 10000 5.7 20 19:18 22.02.2020
2158 Rain 7 1027 75 10000 7.2 10 18:39 22.02.2020
2159 Rain 7 1027 75 10000 7.2 10 18:39 22.02.2020
2160 Rain 7 1027 75 10000 7.2 10 18:21 22.02.2020
2161 Clouds 7 1027 70 10000 7.7 20 17:57 22.02.2020
2162 Clouds 7 1027 75 10000 5.7 30 17:39 22.02.2020
2163 Clouds 8 1027 75 10000 5.7 30 17:21 22.02.2020
2164 Clouds 8 1026 61 10000 7.7 20 16:57 22.02.2020
2165 Clouds 8 1026 64 10000 7.7 20 16:38 22.02.2020
2166 Clouds 8 1026 64 10000 7.2 20 16:20 22.02.2020
2167 Clouds 8 1025 57 10000 6.2 20 15:43 22.02.2020
2168 Clouds 8 1025 57 10000 6.2 20 15:25 22.02.2020
2169 Clouds 8 1025 64 10000 6.7 40 14:44 22.02.2020
2170 Clouds 8 1025 62 10000 6.7 40 14:24 22.02.2020
2171 Clouds 8 1025 57 10000 6.2 50 13:58 22.02.2020
2172 Clouds 8 1025 57 10000 6.7 40 13:40 22.02.2020
2173 Clouds 8 1025 57 10000 6.7 40 13:18 22.02.2020
2174 Clouds 9 1025 61 10000 7.7 40 12:44 22.02.2020
2175 Clouds 8 1025 57 10000 7.7 20 12:24 22.02.2020
2176 Clouds 8 1025 61 10000 6.2 30 11:48 22.02.2020
2177 Clouds 8 1025 61 10000 7.2 40 11:29 22.02.2020
2178 Clouds 8 1025 65 10000 7.2 20 10:58 22.02.2020
2179 Clouds 8 1025 65 10000 6.7 20 10:40 22.02.2020
2180 Clouds 8 1025 65 10000 6.7 20 10:20 22.02.2020
2181 Clouds 8 1024 65 10000 6.7 40 09:57 22.02.2020
2182 Clouds 8 1024 65 10000 6.7 20 09:38 22.02.2020
2183 Clouds 8 1024 65 10000 6.7 20 09:20 22.02.2020
2184 Clouds 8 1024 70 10000 6.7 20 08:47 22.02.2020
2185 Clouds 8 1024 70 10000 6.7 10 08:27 22.02.2020
2186 Clouds 7 1023 70 10000 6.2 20 07:48 22.02.2020
2187 Clouds 7 1023 70 10000 5.7 30 07:19 22.02.2020
2188 Clouds 7 1023 70 10000 5.1 20 06:47 22.02.2020
2189 Clouds 7 1023 70 10000 5.1 20 06:28 22.02.2020
2190 Clouds 6 1022 75 10000 6.2 10 04:33 22.02.2020
2191 Clouds 6 1022 75 10000 5.1 360 03:21 22.02.2020
2192 Clouds 7 1021 75 10000 5.7 360 02:28 22.02.2020
2193 Clouds 6 1021 75 10000 4.6 10 01:43 22.02.2020
2194 Clouds 6 1021 75 10000 4.6 10 01:24 22.02.2020
2195 Clouds 6 1021 75 10000 4.1 10 00:43 22.02.2020
2196 Clouds 7 1022 75 10000 5.1 350 00:24 22.02.2020
2197 Clouds 7 1022 70 10000 3.1 360 23:45 21.02.2020
2198 Clouds 7 1022 70 10000 3.1 360 23:45 21.02.2020
2199 Clouds 7 1022 70 10000 4.1 360 23:21 21.02.2020
2200 Clouds 7 1022 65 10000 4.1 10 22:45 21.02.2020
2201 Clouds 7 1021 65 10000 4.1 20 22:27 21.02.2020
2202 Clouds 7 1021 65 10000 3.6 20 21:59 21.02.2020
2203 Clouds 7 1021 65 10000 3.6 20 21:40 21.02.2020
2204 Clouds 7 1021 65 10000 4.6 20 21:40 21.02.2020
2205 Clouds 7 1021 65 10000 4.6 20 21:22 21.02.2020
2206 Clouds 7 1021 65 10000 5.1 10 20:48 21.02.2020
2207 Clouds 7 1021 65 10000 5.1 10 20:48 21.02.2020
2208 Clouds 7 1021 65 10000 4.6 30 20:29 21.02.2020
2209 Clouds 7 1021 70 10000 6.2 20 19:42 21.02.2020
2210 Clouds 7 1021 70 10000 6.2 20 19:24 21.02.2020
2211 Clouds 7 1021 70 10000 6.7 20 18:56 21.02.2020
2212 Clouds 7 1021 70 10000 5.7 10 18:38 21.02.2020
2213 Clouds 7 1021 70 10000 5.7 10 18:19 21.02.2020
2214 Clouds 7 1019 81 10000 7.2 30 17:40 21.02.2020
2215 Clouds 7 1019 81 10000 7.2 30 17:21 21.02.2020
2216 Clouds 7 1019 81 10000 7.2 30 17:21 21.02.2020
2217 Clouds 7 1019 70 10000 7.2 10 16:57 21.02.2020
2218 Clouds 7 1019 70 10000 7.2 10 16:39 21.02.2020
2219 Rain 7 1019 75 10000 8.7 40 16:20 21.02.2020
2220 Clouds 8 1019 65 10000 8.2 10 15:46 21.02.2020
2221 Clouds 8 1019 65 10000 8.2 10 15:19 21.02.2020
2222 Clouds 8 1019 65 10000 8.2 10 15:19 21.02.2020
2223 Clouds 8 1019 65 10000 8.2 10 15:19 21.02.2020
2224 Clouds 8 1019 65 10000 8.2 20 14:59 21.02.2020
2225 Clouds 8 1018 65 10000 8.7 10 14:41 21.02.2020
2226 Clouds 8 1018 65 10000 8.7 10 14:19 21.02.2020
2227 Clouds 8 1018 70 10000 8.2 20 13:42 21.02.2020
2228 Clouds 8 1018 75 10000 7.7 10 13:24 21.02.2020
2229 Rain 8 1018 87 10000 7.2 10 12:54 21.02.2020
2230 Rain 8 1018 87 10000 7.2 10 12:36 21.02.2020
2231 Rain 8 1018 87 10000 7.2 10 12:18 21.02.2020
2232 Rain 8 1018 81 10000 7.2 20 11:40 21.02.2020
2233 Rain 8 1018 81 10000 7.2 20 11:21 21.02.2020
2234 Clouds 8 1018 87 10000 6.7 20 10:56 21.02.2020
2235 Rain 8 1017 93 4600 4.6 40 10:38 21.02.2020
2236 Rain 8 1017 93 4600 4.6 40 10:19 21.02.2020
2237 Rain 8 1018 81 10000 7.2 10 09:56 21.02.2020
2238 Clouds 8 1017 75 10000 8.2 10 09:37 21.02.2020
2239 Clouds 8 1017 75 10000 8.2 10 09:18 21.02.2020
2240 Clouds 8 1017 75 10000 8.2 10 08:41 21.02.2020
2241 Clouds 8 1017 75 10000 7.2 30 08:22 21.02.2020
2242 Clouds 7 1017 81 10000 8.7 10 07:58 21.02.2020
2243 Clouds 7 1017 81 10000 7.7 10 07:40 21.02.2020
2244 Clouds 7 1017 81 10000 7.7 10 07:40 21.02.2020
2245 Clouds 7 1017 81 10000 7.7 10 07:18 21.02.2020
2246 Rain 7 1016 81 10000 8.7 10 06:47 21.02.2020
2247 Rain 7 1016 81 10000 8.7 20 06:28 21.02.2020
2248 Rain 7 1016 87 10000 7.2 20 05:42 21.02.2020
2249 Rain 7 1015 87 10000 7.2 30 04:32 21.02.2020
2250 Rain 7 1015 87 10000 6.2 10 03:57 21.02.2020
2251 Rain 7 1015 87 8000 5.1 20 03:24 21.02.2020
2252 Rain 7 1014 87 4000 6.7 20 01:51 21.02.2020
2253 Rain 7 1014 87 4000 7.2 10 01:23 21.02.2020
2254 Rain 7 1014 87 4000 7.2 10 00:41 21.02.2020
2255 Rain 7 1014 87 4000 6.7 10 00:22 21.02.2020
2256 Rain 8 1014 87 6000 7.2 10 23:43 20.02.2020
2257 Rain 8 1014 87 6000 7.2 10 23:43 20.02.2020
2258 Rain 7 1014 87 6000 7.2 10 23:23 20.02.2020
2259 Rain 7 1014 87 6000 7.2 10 23:23 20.02.2020
2260 Rain 8 1014 87 6000 6.2 10 22:56 20.02.2020
2261 Rain 8 1014 87 7000 5.7 30 22:37 20.02.2020
2262 Rain 8 1014 87 7000 5.7 30 22:18 20.02.2020
2263 Rain 8 1014 87 7000 5.1 20 21:55 20.02.2020
2264 Rain 8 1014 93 7000 4.6 20 21:36 20.02.2020
2265 Rain 8 1014 93 7000 4.6 20 21:18 20.02.2020
2266 Rain 8 1014 87 7000 4.6 20 20:54 20.02.2020
2267 Rain 8 1014 87 7000 4.6 20 20:54 20.02.2020
2268 Drizzle 8 1014 87 8000 4.1 30 20:36 20.02.2020
2269 Drizzle 8 1014 87 8000 4.1 30 20:18 20.02.2020
2270 Drizzle 8 1014 87 8000 4.1 30 20:18 20.02.2020
2271 Drizzle 8 1014 87 8000 4.1 30 20:18 20.02.2020
2272 Drizzle 8 1014 87 8000 4.1 30 19:42 20.02.2020
2273 Clouds 8 1014 87 7000 4.1 30 19:24 20.02.2020
2274 Drizzle 8 1014 87 7000 5.1 30 18:59 20.02.2020
2275 Drizzle 8 1014 87 7000 5.1 30 18:38 20.02.2020
2276 Rain 8 1014 100 10000 7.7 40 18:19 20.02.2020
2277 Rain 8 1014 100 10000 7.7 40 18:19 20.02.2020
2278 Rain 8 1014 100 10000 7.7 40 17:41 20.02.2020
2279 Rain 8 1013 87 7000 5.1 30 17:22 20.02.2020
2280 Rain 8 1013 87 7000 6.2 30 16:58 20.02.2020
2281 Rain 8 1013 87 7000 5.1 20 16:39 20.02.2020
2282 Rain 8 1013 87 7000 5.1 20 16:20 20.02.2020
2283 Clouds 8 1013 87 7000 6.7 20 15:58 20.02.2020
2284 Clouds 8 1013 87 7000 7.2 20 15:39 20.02.2020
2285 Clouds 8 1013 87 7000 7.2 20 15:20 20.02.2020
2286 Rain 8 1012 87 3000 5.7 20 14:54 20.02.2020
2287 Rain 8 1013 87 7000 6.2 360 14:36 20.02.2020
2288 Rain 8 1013 87 7000 6.2 360 14:18 20.02.2020
2289 Rain 8 1013 87 7000 6.2 360 13:43 20.02.2020
2290 Rain 8 1013 87 7000 4.1 20 13:19 20.02.2020
2291 Rain 8 1013 81 10000 4.1 10 12:43 20.02.2020
2292 Rain 8 1013 87 6000 4.1 10 12:22 20.02.2020
2293 Rain 8 1014 87 6000 3.1 30 11:59 20.02.2020
2294 Rain 8 1014 87 7000 3.6 50 11:41 20.02.2020
2295 Rain 8 1014 87 7000 3.6 50 11:41 20.02.2020
2296 Rain 8 1014 87 7000 3.6 50 11:22 20.02.2020
2297 Rain 8 1014 87 6000 3.6 40 10:57 20.02.2020
2298 Rain 8 1014 87 6000 4.1 50 10:38 20.02.2020
2299 Rain 8 1014 87 6000 4.1 50 10:20 20.02.2020
2300 Rain 8 1014 87 6000 3.6 40 09:44 20.02.2020
2301 Clouds 8 1014 81 8000 3.6 50 09:24 20.02.2020
2302 Clouds 8 1014 81 8000 3.6 50 09:24 20.02.2020
2303 Clouds 8 1015 81 8000 3.1 0 08:57 20.02.2020
2304 Clouds 8 1015 81 8000 3.1 70 08:38 20.02.2020
2305 Clouds 8 1015 81 8000 3.1 70 08:19 20.02.2020
2306 Clouds 8 1015 81 10000 3.6 10 07:45 20.02.2020
2307 Clouds 8 1015 81 10000 3.6 10 07:21 20.02.2020
2308 Clouds 7 1014 81 10000 2.1 80 06:44 20.02.2020
2309 Clouds 7 1014 81 10000 2.1 80 06:25 20.02.2020
2310 Clouds 7 1014 87 10000 2.6 100 05:44 20.02.2020
2311 Clouds 7 1014 81 10000 2.6 70 04:50 20.02.2020
2312 Clouds 7 1015 81 10000 2.1 50 03:58 20.02.2020
2313 Clouds 8 1015 81 10000 1.5 30 03:20 20.02.2020
2314 Clouds 7 1016 87 10000 2.1 10 02:23 20.02.2020
2315 Clouds 7 1016 87 10000 3.1 10 00:58 20.02.2020
2316 Clouds 7 1016 87 10000 3.1 20 00:30 20.02.2020
2317 Clouds 7 1017 87 10000 3.1 20 23:49 19.02.2020
2318 Clouds 8 1017 87 10000 3.1 30 23:22 19.02.2020
2319 Clouds 8 1017 81 10000 3.1 30 22:46 19.02.2020
2320 Clouds 8 1017 81 10000 4.1 10 22:28 19.02.2020
2321 Clouds 8 1017 81 10000 3.6 360 21:59 19.02.2020
2322 Clouds 8 1017 81 10000 3.6 40 21:41 19.02.2020
2323 Clouds 8 1017 81 10000 3.6 40 21:19 19.02.2020
2324 Clouds 8 1017 75 10000 3.1 30 20:58 19.02.2020
2325 Clouds 8 1017 75 10000 3.1 30 20:39 19.02.2020
2326 Clouds 8 1017 87 10000 4.6 40 20:20 19.02.2020
2327 Clouds 8 1018 81 10000 4.1 10 19:58 19.02.2020
2328 Clouds 8 1018 81 10000 4.6 360 19:38 19.02.2020
2329 Clouds 8 1018 81 10000 4.6 360 19:38 19.02.2020
2330 Clouds 8 1018 81 10000 4.6 360 19:20 19.02.2020
2331 Clouds 8 1018 81 10000 4.6 10 18:58 19.02.2020
2332 Clouds 8 1018 81 10000 5.1 10 18:40 19.02.2020
2333 Clouds 8 1018 81 10000 5.1 10 18:21 19.02.2020
2334 Clouds 8 1018 81 10000 4.6 10 17:56 19.02.2020
2335 Rain 8 1017 87 8000 5.1 30 17:38 19.02.2020
2336 Rain 8 1017 87 8000 5.1 30 17:18 19.02.2020
2337 Clouds 8 1017 81 10000 4.1 360 16:42 19.02.2020
2338 Clouds 9 1018 81 10000 4.1 10 16:19 19.02.2020
2339 Clouds 9 1018 81 10000 3.1 360 15:56 19.02.2020
2340 Clouds 9 1018 76 10000 4.6 340 15:37 19.02.2020
2341 Clouds 9 1018 76 10000 4.6 340 15:19 19.02.2020
2342 Clouds 10 1017 71 7000 4.1 220 14:41 19.02.2020
2343 Clouds 10 1017 71 7000 4.1 220 14:22 19.02.2020
2344 Clouds 10 1018 71 10000 6.2 330 13:43 19.02.2020
2345 Clouds 10 1018 71 10000 6.2 330 13:23 19.02.2020
2346 Clouds 10 1019 71 10000 5.7 330 12:58 19.02.2020
2347 Clouds 10 1019 71 10000 5.7 320 12:37 19.02.2020
2348 Clouds 10 1019 71 10000 5.7 320 12:18 19.02.2020
2349 Clouds 10 1019 66 10000 5.1 300 11:54 19.02.2020
2350 Clouds 10 1019 66 10000 3.6 290 11:36 19.02.2020
2351 Clouds 10 1020 62 10000 3.1 290 11:18 19.02.2020
2352 Clouds 10 1020 62 10000 3.1 290 10:54 19.02.2020
2353 Clouds 10 1020 66 10000 3.1 290 10:36 19.02.2020
2354 Clouds 9 1020 66 10000 3.1 290 10:18 19.02.2020
2355 Clouds 9 1020 71 10000 1 0 09:41 19.02.2020
2356 Clouds 9 1020 71 10000 1 0 09:41 19.02.2020
2357 Clouds 9 1020 71 10000 1 0 09:20 19.02.2020
2358 Clouds 9 1020 76 10000 2.1 230 08:48 19.02.2020
2359 Clouds 8 1020 93 6000 2.6 250 08:24 19.02.2020
2360 Clouds 8 1020 93 6000 2.6 250 08:24 19.02.2020
2361 Mist 8 1020 93 4000 2.6 240 07:59 19.02.2020
2362 Mist 7 1020 100 2000 1.5 230 07:39 19.02.2020
2363 Mist 7 1020 100 2000 1.5 230 07:18 19.02.2020
2364 Mist 7 1020 93 2000 0.5 50 06:45 19.02.2020
2365 Mist 6 1020 100 3500 1.5 240 05:26 19.02.2020
2366 Mist 6 1020 93 3500 0.5 0 03:52 19.02.2020
2367 Mist 4 1020 93 4000 0.5 330 02:36 19.02.2020
2368 Clear 4 1020 86 6000 0.43 207 01:41 19.02.2020
2369 Clear 4 1020 86 6000 0.85 196 01:22 19.02.2020
2370 Clear 4 1020 86 6000 0.5 0 00:39 19.02.2020
2371 Clear 4 1020 86 6000 0.5 0 00:19 19.02.2020
2372 Clear 5 1020 86 7000 2.1 300 23:39 18.02.2020
2373 Clear 5 1020 86 7000 2.1 300 23:20 18.02.2020
2374 Clear 5 1020 93 7000 1 260 22:55 18.02.2020
2375 Clear 5 1020 93 7000 0.5 0 22:36 18.02.2020
2376 Clear 5 1020 93 7000 0.5 0 22:18 18.02.2020
2377 Clear 5 1020 87 10000 0.5 0 21:54 18.02.2020
2378 Clear 5 1020 87 10000 1.5 110 21:36 18.02.2020
2379 Clear 5 1020 87 10000 1.5 110 21:36 18.02.2020
2380 Clear 6 1020 87 10000 2.1 100 21:18 18.02.2020
2381 Clear 6 1020 87 10000 2.1 100 20:40 18.02.2020
2382 Clear 6 1020 93 10000 1 0 20:22 18.02.2020
2383 Clear 6 1020 87 10000 1 0 19:59 18.02.2020
2384 Clear 6 1020 87 10000 1 0 19:41 18.02.2020
2385 Clear 6 1020 93 10000 0.5 170 19:19 18.02.2020
2386 Fog 7 1020 93 3000 2.6 10 18:55 18.02.2020
2387 Clear 8 1019 87 10000 1.5 250 18:37 18.02.2020
2388 Clear 8 1019 87 10000 1.5 250 18:18 18.02.2020
2389 Clear 7 1019 81 10000 2.1 240 17:40 18.02.2020
2390 Clear 7 1019 87 10000 3.6 240 17:19 18.02.2020
2391 Fog 9 1019 87 6000 3.6 40 16:40 18.02.2020
2392 Fog 9 1019 87 6000 3.6 40 16:22 18.02.2020
2393 Clear 10 1019 76 10000 3.1 240 15:55 18.02.2020
2394 Clear 10 1019 71 10000 3.1 220 15:37 18.02.2020
2395 Clear 10 1019 71 10000 3.1 220 15:18 18.02.2020
2396 Clear 10 1019 66 10000 3.1 230 14:55 18.02.2020
2397 Clear 11 1019 62 10000 2.6 240 14:37 18.02.2020
2398 Clear 11 1019 62 10000 2.6 240 14:19 18.02.2020
2399 Clear 11 1020 71 10000 3.1 230 13:41 18.02.2020
2400 Clear 11 1020 71 10000 3.1 230 13:41 18.02.2020
2401 Clear 11 1020 71 10000 3.1 230 13:21 18.02.2020
2402 Clear 11 1020 71 10000 3.1 230 12:50 18.02.2020
2403 Clear 10 1020 71 10000 3.1 230 12:31 18.02.2020
2404 Clear 10 1020 62 10000 2.6 230 11:59 18.02.2020
2405 Clear 10 1020 62 10000 2.6 230 11:59 18.02.2020
2406 Clear 10 1021 71 10000 2.6 230 11:41 18.02.2020
2407 Clear 10 1021 71 10000 2.6 230 11:23 18.02.2020
2408 Clear 10 1021 71 10000 2.1 200 10:46 18.02.2020
2409 Clear 9 1021 71 10000 2.1 200 10:25 18.02.2020
2410 Clear 9 1021 66 10000 1 0 09:58 18.02.2020
2411 Clear 9 1021 66 10000 1 0 09:58 18.02.2020
2412 Clear 9 1021 66 10000 1 0 09:58 18.02.2020
2413 Clear 9 1021 66 10000 1 0 09:39 18.02.2020
2414 Clear 8 1022 70 10000 1.5 150 09:20 18.02.2020
2415 Clear 7 1022 70 10000 1 0 08:59 18.02.2020
2416 Clear 7 1022 75 10000 1 0 08:40 18.02.2020
2417 Clear 7 1022 75 10000 1 0 08:20 18.02.2020
2418 Clear 6 1022 81 10000 2.1 330 07:55 18.02.2020
2419 Clear 6 1022 81 10000 2.1 330 07:55 18.02.2020
2420 Clear 4 1022 93 10000 3.1 350 07:29 18.02.2020
2421 Clear 3 1022 93 10000 3.1 350 06:55 18.02.2020
2422 Clear 3 1022 71 10000 3.1 340 06:32 18.02.2020
2423 Clear 3 1022 86 10000 2.6 360 05:56 18.02.2020
2424 Clear 3 1022 86 10000 2.6 340 05:23 18.02.2020
2425 Clear 3 1022 93 10000 2.6 330 03:57 18.02.2020
2426 Clear 4 1022 93 10000 3.1 330 02:58 18.02.2020
2427 Clear 4 1023 93 10000 2.6 360 01:45 18.02.2020
2428 Clear 5 1024 70 10000 2.1 30 00:45 18.02.2020
2429 Clear 4 1024 73 10000 1 0 00:19 18.02.2020
2430 Clear 5 1024 70 10000 1 0 23:44 17.02.2020
2431 Clear 5 1024 75 10000 3.6 60 23:25 17.02.2020
2432 Clear 5 1024 75 10000 3.1 50 22:59 17.02.2020
2433 Clear 6 1025 75 10000 2.6 40 22:40 17.02.2020
2434 Clear 6 1025 75 10000 2.6 40 22:20 17.02.2020
2435 Clear 6 1025 75 10000 3.6 50 21:40 17.02.2020
2436 Clear 6 1025 75 10000 3.1 40 21:19 17.02.2020
2437 Clear 6 1025 75 10000 3.6 20 20:57 17.02.2020
2438 Clear 6 1025 75 10000 4.6 20 20:38 17.02.2020
2439 Clear 6 1025 75 10000 4.6 20 20:20 17.02.2020
2440 Clear 6 1025 75 10000 4.1 30 19:55 17.02.2020
2441 Clear 7 1026 75 10000 4.1 50 19:36 17.02.2020
2442 Clear 7 1026 75 10000 4.1 50 19:18 17.02.2020
2443 Clear 7 1026 75 10000 5.1 30 18:37 17.02.2020
2444 Clear 7 1026 75 10000 5.1 30 18:37 17.02.2020
2445 Clear 7 1026 75 10000 5.1 30 18:19 17.02.2020
2446 Clear 8 1026 70 10000 6.7 10 17:55 17.02.2020
2447 Clear 8 1026 70 10000 6.7 20 17:36 17.02.2020
2448 Clear 8 1026 70 10000 6.7 20 17:36 17.02.2020
2449 Clear 8 1026 70 10000 6.7 20 17:18 17.02.2020
2450 Clear 8 1026 66 10000 6.7 10 16:43 17.02.2020
2451 Clear 9 1025 61 10000 6.2 10 16:23 17.02.2020
2452 Clear 10 1025 57 10000 5.7 10 15:58 17.02.2020
2453 Clear 10 1026 47 10000 2.6 0 15:40 17.02.2020
2454 Clear 10 1026 47 10000 2.6 0 15:21 17.02.2020
2455 Clear 10 1026 58 10000 2.1 240 14:45 17.02.2020
2456 Clear 10 1026 43 10000 2.1 20 14:26 17.02.2020
2457 Clear 11 1026 43 10000 3.6 20 13:59 17.02.2020
2458 Clear 11 1026 43 10000 3.6 20 13:39 17.02.2020
2459 Clear 11 1027 50 10000 2.6 60 13:19 17.02.2020
2460 Clear 11 1027 50 10000 3.1 70 12:47 17.02.2020
2461 Clear 10 1027 46 10000 3.1 20 12:26 17.02.2020
2462 Clear 10 1028 50 10000 3.1 60 11:59 17.02.2020
2463 Clear 10 1028 50 10000 3.6 50 11:41 17.02.2020
2464 Clear 10 1028 50 10000 3.6 50 11:22 17.02.2020
2465 Clear 9 1029 57 10000 2.6 0 10:56 17.02.2020
2466 Clear 9 1029 53 10000 3.6 90 10:37 17.02.2020
2467 Clear 9 1029 53 10000 3.6 90 10:19 17.02.2020
2468 Clear 9 1030 61 10000 3.6 50 09:42 17.02.2020
2469 Clear 9 1030 61 10000 3.6 50 09:23 17.02.2020
2470 Clear 8 1030 65 10000 3.1 60 08:59 17.02.2020
2471 Clear 7 1030 70 10000 4.1 60 08:41 17.02.2020
2472 Clouds 7 1030 70 10000 4.1 60 08:21 17.02.2020
2473 Clouds 7 1030 70 10000 3.1 40 07:55 17.02.2020
2474 Clouds 6 1030 75 10000 2.6 40 07:26 17.02.2020
2475 Clouds 5 1030 86 10000 2.1 30 06:56 17.02.2020
2476 Clouds 5 1030 82 10000 3.1 350 06:36 17.02.2020
2477 Clouds 5 1031 86 10000 2.1 10 05:59 17.02.2020
2478 Clouds 5 1030 82 10000 2.6 350 05:38 17.02.2020
2479 Clouds 5 1030 80 10000 3.1 360 03:24 17.02.2020
2480 Clouds 6 1030 70 10000 3.6 30 01:59 17.02.2020
2481 Clouds 6 1031 70 10000 4.6 10 00:51 17.02.2020
2482 Clouds 6 1031 70 10000 3.1 30 00:23 17.02.2020
2483 Clear 6 1031 65 10000 4.1 30 23:54 16.02.2020
2484 Clouds 7 1031 65 10000 4.1 30 23:33 16.02.2020
2485 Clouds 7 1031 65 10000 3.6 30 22:58 16.02.2020
2486 Clouds 7 1031 70 10000 4.1 40 22:39 16.02.2020
2487 Clouds 7 1031 70 10000 4.1 40 22:21 16.02.2020
2488 Clouds 7 1031 70 10000 3.1 40 21:59 16.02.2020
2489 Clouds 7 1032 70 10000 4.1 40 21:41 16.02.2020
2490 Clouds 6 1032 70 10000 4.1 40 21:22 16.02.2020
2491 Clouds 7 1032 70 10000 4.6 30 20:58 16.02.2020
2492 Clouds 7 1032 70 10000 4.1 30 20:40 16.02.2020
2493 Clouds 7 1032 70 10000 4.1 30 20:22 16.02.2020
2494 Clouds 7 1032 75 10000 4.1 30 19:58 16.02.2020
2495 Clouds 7 1032 75 10000 4.1 30 19:39 16.02.2020
2496 Clouds 8 1032 75 10000 5.7 30 19:19 16.02.2020
2497 Clouds 8 1032 75 10000 6.2 40 18:45 16.02.2020
2498 Clouds 8 1031 65 10000 5.7 30 18:27 16.02.2020
2499 Clouds 8 1031 70 10000 5.7 30 17:59 16.02.2020
2500 Clouds 8 1031 65 10000 6.7 20 17:40 16.02.2020
2501 Clouds 8 1031 65 10000 6.7 20 17:20 16.02.2020
2502 Clouds 8 1031 65 10000 6.2 40 16:56 16.02.2020
2503 Clouds 8 1031 61 10000 6.7 30 16:38 16.02.2020
2504 Clouds 8 1031 61 10000 6.7 30 16:19 16.02.2020
2505 Clouds 9 1030 61 10000 7.2 10 15:42 16.02.2020
2506 Clouds 8 1030 61 10000 7.2 10 15:23 16.02.2020
2507 Clouds 8 1030 61 10000 7.2 10 15:23 16.02.2020
2508 Clouds 9 1030 61 10000 7.7 20 14:59 16.02.2020
2509 Clouds 9 1030 57 10000 7.2 10 14:38 16.02.2020
2510 Clouds 9 1030 57 10000 7.2 10 14:19 16.02.2020
2511 Clouds 9 1030 57 10000 7.7 20 13:45 16.02.2020
2512 Clouds 9 1030 57 10000 8.2 10 13:24 16.02.2020
2513 Clouds 9 1030 66 10000 7.2 20 12:54 16.02.2020
2514 Clouds 9 1030 57 10000 7.7 40 12:36 16.02.2020
2515 Clouds 10 1030 53 10000 6.7 30 12:18 16.02.2020
2516 Clouds 9 1031 57 10000 9.3 20 11:38 16.02.2020
2517 Clouds 9 1031 57 10000 9.3 20 11:18 16.02.2020
2518 Clouds 9 1031 61 10000 6.7 20 10:56 16.02.2020
2519 Clouds 9 1031 61 10000 8.7 10 10:38 16.02.2020
2520 Clouds 9 1031 61 10000 8.7 10 10:19 16.02.2020
2521 Clouds 8 1031 66 10000 7.2 30 09:55 16.02.2020
2522 Clouds 8 1030 61 10000 7.2 20 09:36 16.02.2020
2523 Clouds 9 1030 61 10000 7.2 20 09:18 16.02.2020
2524 Clouds 9 1030 61 10000 5.7 30 08:44 16.02.2020
2525 Clouds 8 1030 65 10000 7.2 20 08:21 16.02.2020
2526 Clouds 8 1030 70 10000 7.7 20 07:51 16.02.2020
2527 Clouds 8 1030 75 10000 8.2 10 07:33 16.02.2020
2528 Clouds 8 1029 75 10000 8.7 10 06:33 16.02.2020
2529 Clouds 8 1029 81 10000 7.2 10 04:43 16.02.2020
2530 Rain 8 1027 87 10000 8.2 20 03:29 16.02.2020
2531 Clouds 8 1027 76 10000 6.7 20 02:32 16.02.2020
2532 Clouds 8 1027 81 10000 6.7 10 01:43 16.02.2020
2533 Clouds 8 1027 81 10000 6.7 10 01:23 16.02.2020
2534 Clouds 8 1026 76 10000 7.7 10 00:53 16.02.2020
2535 Clouds 8 1027 76 10000 6.2 20 00:31 16.02.2020
2536 Clouds 8 1027 70 10000 7.2 10 23:54 15.02.2020
2537 Clouds 9 1026 76 10000 6.2 20 23:36 15.02.2020
2538 Clouds 9 1026 76 10000 6.2 20 23:18 15.02.2020
2539 Clouds 9 1026 70 10000 6.7 20 22:41 15.02.2020
2540 Clouds 9 1026 70 10000 6.7 20 22:22 15.02.2020
2541 Clouds 9 1026 70 10000 7.2 10 21:59 15.02.2020
2542 Clouds 9 1026 70 10000 6.2 10 21:40 15.02.2020
2543 Clouds 9 1026 70 10000 6.2 10 21:21 15.02.2020
2544 Clouds 9 1026 70 10000 7.7 10 20:40 15.02.2020
2545 Clouds 9 1026 76 10000 7.2 360 20:21 15.02.2020
2546 Clouds 9 1025 76 10000 7.2 360 19:44 15.02.2020
2547 Clouds 9 1025 76 10000 8.2 360 19:23 15.02.2020
2548 Clouds 9 1025 76 10000 7.7 360 18:55 15.02.2020
2549 Clouds 9 1025 76 10000 5.7 360 18:36 15.02.2020
2550 Clouds 9 1025 76 10000 5.7 360 18:18 15.02.2020
2551 Clouds 9 1024 76 10000 8.2 360 17:43 15.02.2020
2552 Clouds 9 1024 76 10000 8.2 360 17:22 15.02.2020
2553 Clouds 9 1023 76 10000 8.2 360 16:58 15.02.2020
2554 Clouds 9 1023 81 10000 8.7 360 16:39 15.02.2020
2555 Clouds 9 1023 81 10000 8.7 360 16:19 15.02.2020
2556 Clouds 9 1022 81 10000 7.2 360 15:42 15.02.2020
2557 Clouds 9 1022 76 10000 8.2 360 15:23 15.02.2020
2558 Clouds 9 1022 81 10000 9.3 360 14:45 15.02.2020
2559 Clouds 9 1022 81 10000 9.3 360 14:45 15.02.2020
2560 Clouds 9 1021 81 10000 8.7 360 14:23 15.02.2020
2561 Clouds 9 1021 81 10000 9.8 360 13:57 15.02.2020
2562 Clouds 9 1021 81 10000 9.3 360 13:39 15.02.2020
2563 Clouds 9 1021 81 10000 9.3 360 13:20 15.02.2020
2564 Clouds 9 1021 81 10000 9.8 10 12:43 15.02.2020
2565 Clouds 9 1021 81 10000 9.3 360 12:25 15.02.2020
2566 Clouds 9 1021 81 10000 9.3 360 12:25 15.02.2020
2567 Clouds 9 1021 76 10000 10.3 360 11:54 15.02.2020
2568 Clouds 9 1021 76 10000 8.7 360 11:36 15.02.2020
2569 Clouds 9 1021 76 10000 8.7 360 11:18 15.02.2020
2570 Clouds 9 1021 81 10000 8.7 360 10:39 15.02.2020
2571 Clouds 9 1021 81 10000 7.7 360 10:20 15.02.2020
2572 Rain 9 1021 81 10000 6.7 360 09:44 15.02.2020
2573 Rain 9 1021 81 10000 6.7 360 09:25 15.02.2020
2574 Rain 9 1020 81 10000 6.7 360 08:46 15.02.2020
2575 Rain 9 1020 81 10000 5.7 360 08:26 15.02.2020
2576 Clouds 9 1020 87 10000 2.1 330 07:59 15.02.2020
2577 Rain 9 1019 87 10000 2.1 50 07:39 15.02.2020
2578 Rain 9 1019 87 10000 2.1 50 07:21 15.02.2020
2579 Rain 9 1019 87 10000 2.6 90 06:38 15.02.2020
2580 Rain 9 1018 87 8000 3.1 100 05:56 15.02.2020
2581 Rain 9 1018 93 8000 1.5 90 04:49 15.02.2020
2582 Rain 9 1018 87 8000 2.1 120 04:24 15.02.2020
2583 Rain 9 1018 87 8000 2.1 120 04:24 15.02.2020
2584 Rain 9 1018 93 8000 3.1 80 02:58 15.02.2020
2585 Rain 9 1018 93 8000 3.6 90 02:26 15.02.2020
2586 Rain 9 1018 93 9000 3.6 80 01:50 15.02.2020
2587 Rain 10 1018 81 9000 3.6 90 01:31 15.02.2020
2588 Clouds 9 1018 76 10000 1 250 00:28 15.02.2020
2589 Clouds 10 1018 76 10000 0.5 0 23:47 14.02.2020
2590 Clouds 10 1018 71 10000 2.1 90 23:21 14.02.2020
2591 Clouds 10 1018 66 10000 2.1 50 22:56 14.02.2020
2592 Clouds 10 1018 66 10000 2.1 50 22:56 14.02.2020
2593 Rain 10 1018 66 10000 6.7 150 22:37 14.02.2020
2594 Rain 10 1018 66 10000 6.7 150 22:19 14.02.2020
2595 Rain 10 1018 57 10000 1.5 10 21:49 14.02.2020
2596 Rain 10 1018 57 10000 1.5 10 21:30 14.02.2020
2597 Rain 10 1018 61 10000 2.1 10 20:46 14.02.2020
2598 Clouds 10 1018 70 10000 2.6 350 20:20 14.02.2020
2599 Clouds 10 1018 70 10000 2.6 350 19:59 14.02.2020
2600 Clouds 10 1018 70 10000 2.6 350 19:40 14.02.2020
2601 Clouds 10 1018 61 10000 2.1 350 19:22 14.02.2020
2602 Clouds 10 1019 66 10000 2.1 340 18:56 14.02.2020
2603 Clouds 10 1019 70 10000 2.1 340 18:38 14.02.2020
2604 Clouds 10 1019 70 10000 2.1 340 18:19 14.02.2020
2605 Clouds 11 1019 61 10000 2.71 130 17:43 14.02.2020
2606 Clouds 11 1019 61 10000 0.86 127 17:21 14.02.2020
2607 Clouds 11 1019 61 10000 1 140 16:58 14.02.2020
2608 Clouds 11 1019 61 10000 1 140 16:58 14.02.2020
2609 Clouds 11 1019 66 10000 0.86 127 16:39 14.02.2020
2610 Clouds 11 1019 66 10000 0.86 127 16:21 14.02.2020
2611 Clouds 12 1019 62 10000 1.5 190 15:56 14.02.2020
2612 Clouds 12 1019 57 10000 1.5 220 15:37 14.02.2020
2613 Clouds 12 1019 57 10000 1.5 220 15:37 14.02.2020
2614 Clouds 12 1019 57 10000 1.5 220 15:37 14.02.2020
2615 Clouds 12 1019 57 10000 1.5 220 15:37 14.02.2020
2616 Clouds 12 1019 57 10000 1.5 220 15:37 14.02.2020
2617 Clouds 12 1019 57 10000 1.5 220 15:19 14.02.2020
2618 Clouds 12 1020 53 10000 2.6 190 14:58 14.02.2020
2619 Clouds 12 1020 62 10000 2.1 230 14:39 14.02.2020
2620 Clouds 12 1020 62 10000 2.1 230 14:21 14.02.2020
2621 Clouds 12 1020 62 10000 4.1 230 13:40 14.02.2020
2622 Clouds 12 1020 62 10000 4.1 230 13:21 14.02.2020
2623 Clouds 12 1021 62 10000 4.1 260 12:58 14.02.2020
2624 Clouds 12 1021 54 10000 3.1 240 12:40 14.02.2020
2625 Clouds 12 1021 54 10000 3.1 240 12:21 14.02.2020
2626 Clouds 11 1021 66 10000 2.6 300 11:59 14.02.2020
2627 Clouds 11 1021 66 10000 2.6 300 11:41 14.02.2020
2628 Clouds 11 1021 66 10000 3.1 260 11:20 14.02.2020
2629 Clouds 11 1022 53 10000 1.5 290 10:56 14.02.2020
2630 Clouds 11 1022 61 10000 2.1 280 10:37 14.02.2020
2631 Clouds 10 1022 61 10000 2.1 280 10:19 14.02.2020
2632 Clouds 9 1022 70 10000 2.6 250 09:42 14.02.2020
2633 Clouds 9 1022 61 10000 2.1 180 09:21 14.02.2020
2634 Clouds 8 1023 61 10000 4.1 100 08:44 14.02.2020
2635 Clouds 8 1023 61 10000 4.1 100 08:25 14.02.2020
2636 Clouds 7 1023 61 10000 5.1 100 07:57 14.02.2020
2637 Clouds 6 1023 65 10000 4.6 100 07:38 14.02.2020
2638 Clouds 5 1023 65 10000 4.6 100 07:19 14.02.2020
2639 Clouds 4 1024 70 10000 3.6 100 06:29 14.02.2020
2640 Clouds 3 1024 75 10000 2.1 90 05:47 14.02.2020
2641 Clear 3 1025 59 10000 1.5 60 04:46 14.02.2020
2642 Clear 3 1025 86 10000 2.1 20 03:29 14.02.2020
2643 Clear 3 1026 59 10000 0.5 0 02:30 14.02.2020
2644 Clear 4 1027 86 10000 0.5 0 01:27 14.02.2020
2645 Clear 4 1027 93 10000 0.5 0 00:43 14.02.2020
2646 Clear 4 1027 93 10000 1 0 00:43 14.02.2020
2647 Clear 4 1027 93 10000 1 0 00:23 14.02.2020
2648 Clear 5 1027 93 10000 1 0 23:45 13.02.2020
2649 Clear 5 1027 93 10000 1 0 23:21 13.02.2020
2650 Clear 5 1027 86 10000 1 0 22:44 13.02.2020
2651 Clear 5 1027 93 10000 1 0 22:20 13.02.2020
2652 Clear 5 1027 93 10000 1 0 22:20 13.02.2020
2653 Clear 6 1027 87 10000 1.5 80 21:59 13.02.2020
2654 Clear 6 1027 86 10000 1.5 110 21:40 13.02.2020
2655 Clear 6 1027 86 10000 1.5 110 21:22 13.02.2020
2656 Clear 6 1027 80 10000 1 0 20:56 13.02.2020
2657 Clear 6 1027 81 10000 1.5 0 20:38 13.02.2020
2658 Clear 6 1027 81 10000 1.5 0 20:20 13.02.2020
2659 Clear 6 1027 86 10000 0.5 0 19:55 13.02.2020
2660 Clear 6 1027 81 10000 1.5 260 19:36 13.02.2020
2661 Clear 6 1027 81 10000 1.5 260 19:36 13.02.2020
2662 Clear 6 1027 81 10000 1.5 260 19:18 13.02.2020
2663 Clear 8 1027 70 10000 1 240 18:42 13.02.2020
2664 Clear 8 1027 70 10000 1 240 18:23 13.02.2020
2665 Clear 8 1027 70 10000 1.5 250 17:59 13.02.2020
2666 Clear 8 1027 75 10000 1.5 240 17:40 13.02.2020
2667 Clear 8 1027 75 10000 1.5 240 17:40 13.02.2020
2668 Clear 8 1027 75 10000 1.5 240 17:20 13.02.2020
2669 Clear 9 1027 66 10000 2.6 230 16:58 13.02.2020
2670 Clear 10 1027 70 10000 3.1 240 16:37 13.02.2020
2671 Clear 10 1027 70 10000 3.1 240 16:19 13.02.2020
2672 Clear 10 1027 61 10000 3.1 240 15:56 13.02.2020
2673 Clear 10 1027 66 10000 4.1 230 15:37 13.02.2020
2674 Clear 10 1027 66 10000 4.1 230 15:19 13.02.2020
2675 Clear 10 1027 61 10000 4.6 220 14:55 13.02.2020
2676 Clouds 10 1027 57 10000 4.1 230 14:37 13.02.2020
2677 Clouds 10 1027 57 10000 4.1 230 14:19 13.02.2020
2678 Clouds 10 1026 57 10000 5.1 220 13:44 13.02.2020
2679 Clouds 10 1026 57 10000 5.1 220 13:44 13.02.2020
2680 Clouds 10 1026 57 10000 5.1 220 13:18 13.02.2020
2681 Clear 11 1026 57 10000 5.1 180 12:55 13.02.2020
2682 Clear 11 1026 57 10000 5.1 180 12:55 13.02.2020
2683 Clear 11 1026 49 10000 4.1 140 12:37 13.02.2020
2684 Clear 11 1026 49 10000 4.1 140 12:18 13.02.2020
2685 Clear 11 1027 27 10000 2.6 20 11:43 13.02.2020
2686 Clear 11 1027 32 10000 2.1 330 11:43 13.02.2020
2687 Clear 11 1027 32 10000 2.1 330 11:43 13.02.2020
2688 Clear 11 1027 32 10000 2.1 330 11:20 13.02.2020
2689 Clear 10 1027 37 10000 3.6 330 10:46 13.02.2020
2690 Clear 10 1027 37 10000 4.6 320 10:27 13.02.2020
2691 -273 0 0 0 0 0 09:55 13.02.2020
2692 Clear 10 1026 40 10000 3.1 350 09:36 13.02.2020
2693 Clear 10 1026 40 10000 3.1 350 09:18 13.02.2020
2694 Clear 9 1026 49 10000 2.1 240 08:37 13.02.2020
2695 Clouds 9 1026 57 10000 2.1 240 08:19 13.02.2020
2696 Clouds 7 1025 70 10000 0.5 0 07:39 13.02.2020
2697 Clouds 7 1025 70 10000 0.5 0 07:21 13.02.2020
2698 Clouds 7 1025 70 10000 1.5 200 06:44 13.02.2020
2699 Clouds 7 1024 65 10000 1 240 06:20 13.02.2020
2700 Clouds 7 1023 70 10000 1.5 280 05:33 13.02.2020
2701 Clouds 7 1023 70 10000 2.1 340 04:26 13.02.2020
2702 Clouds 7 1022 65 10000 3.6 350 03:52 13.02.2020
2703 Clouds 7 1022 70 10000 5.1 350 03:26 13.02.2020
2704 Clouds 7 1022 86 10000 3.1 350 02:52 13.02.2020
2705 Clouds 7 1021 87 10000 3.6 340 02:19 13.02.2020
2706 Clouds 7 1021 87 10000 4.1 340 01:35 13.02.2020
2707 Clouds 6 1021 87 10000 2.6 340 00:39 13.02.2020
2708 Clouds 6 1021 87 10000 3.1 330 00:21 13.02.2020
2709 Clouds 6 1020 93 10000 2.6 270 23:40 12.02.2020
2710 Clouds 6 1020 93 10000 2.6 270 23:40 12.02.2020
2711 Clear 6 1020 93 10000 2.6 270 23:21 12.02.2020
2712 Clear 6 1019 93 10000 1 0 22:45 12.02.2020
2713 Clear 6 1020 93 10000 2.1 260 22:26 12.02.2020
2714 Clear 6 1020 93 10000 0.5 0 21:58 12.02.2020
2715 Clear 7 1020 93 10000 1.5 260 21:40 12.02.2020
2716 Clear 7 1020 93 10000 1.5 260 21:19 12.02.2020
2717 Clear 7 1019 93 10000 1.5 250 20:57 12.02.2020
2718 Clear 7 1019 93 10000 2.6 180 20:39 12.02.2020
2719 Clouds 7 1019 93 10000 2.6 180 20:19 12.02.2020
2720 Clouds 7 1019 93 10000 1.5 150 19:55 12.02.2020
2721 Clouds 8 1019 87 10000 1 0 19:36 12.02.2020
2722 Clouds 8 1019 87 10000 1 0 19:36 12.02.2020
2723 Clouds 8 1019 87 10000 1 0 19:18 12.02.2020
2724 Clouds 8 1019 81 10000 2.6 220 18:45 12.02.2020
2725 Clouds 9 1019 76 10000 4.1 230 18:18 12.02.2020
2726 Clouds 9 1019 70 10000 3.1 230 17:43 12.02.2020
2727 Clouds 9 1018 70 10000 3.1 250 17:21 12.02.2020
2728 Clouds 9 1018 76 10000 2.1 240 16:59 12.02.2020
2729 Clouds 9 1018 76 10000 2.1 220 16:39 12.02.2020
2730 Clouds 9 1018 76 10000 2.1 220 16:19 12.02.2020
2731 Clouds 10 1018 76 10000 2.6 260 15:43 12.02.2020
2732 Clouds 10 1018 76 10000 2.6 220 15:23 12.02.2020
2733 Clouds 10 1018 71 10000 4.1 210 14:57 12.02.2020
2734 Clouds 10 1018 71 10000 4.1 210 14:39 12.02.2020
2735 Clouds 10 1018 71 10000 5.7 220 14:19 12.02.2020
2736 Clouds 10 1018 71 10000 5.7 220 13:56 12.02.2020
2737 Clouds 10 1018 71 10000 5.7 220 13:56 12.02.2020
2738 Clouds 10 1018 76 10000 4.1 220 13:37 12.02.2020
2739 Clouds 10 1018 76 10000 4.1 220 13:19 12.02.2020
2740 Clouds 10 1018 76 10000 5.1 220 12:56 12.02.2020
2741 Clouds 10 1018 66 10000 3.6 200 12:37 12.02.2020
2742 Clouds 11 1018 66 10000 3.6 200 12:18 12.02.2020
2743 Clouds 10 1018 76 10000 5.1 200 11:55 12.02.2020
2744 Clouds 10 1018 71 10000 6.2 190 11:37 12.02.2020
2745 Clouds 10 1018 71 10000 6.2 190 11:19 12.02.2020
2746 Clouds 10 1019 81 10000 6.2 200 10:54 12.02.2020
2747 Clouds 9 1019 81 10000 5.7 210 10:36 12.02.2020
2748 Clouds 9 1019 81 10000 5.7 210 10:18 12.02.2020
2749 Clouds 9 1019 81 10000 5.7 210 10:18 12.02.2020
2750 Clouds 9 1018 81 10000 2.6 220 09:40 12.02.2020
2751 Clouds 8 1018 81 10000 4.1 210 09:20 12.02.2020
2752 Clouds 8 1018 81 10000 4.1 210 08:57 12.02.2020
2753 Clouds 8 1018 81 10000 4.1 200 08:37 12.02.2020
2754 Clouds 8 1018 81 10000 4.1 200 08:19 12.02.2020
2755 Clouds 8 1018 81 10000 4.1 200 08:19 12.02.2020
2756 Clouds 7 1018 87 10000 5.1 180 07:43 12.02.2020
2757 Clouds 7 1018 87 10000 5.1 180 07:43 12.02.2020
2758 Clouds 7 1017 87 10000 5.7 170 07:23 12.02.2020
2759 Rain 7 1017 87 10000 6.2 160 06:53 12.02.2020
2760 Rain 7 1016 93 10000 5.7 170 06:20 12.02.2020
2761 Rain 7 1016 87 10000 4.1 170 05:36 12.02.2020
2762 Rain 7 1015 93 10000 4.1 160 04:57 12.02.2020
2763 Rain 7 1015 93 10000 4.1 180 04:39 12.02.2020
2764 Rain 8 1014 93 10000 2.1 140 03:32 12.02.2020
2765 Rain 8 1014 93 8000 1.5 0 02:58 12.02.2020
2766 Rain 8 1014 87 8000 3.6 350 02:28 12.02.2020
2767 Rain 8 1014 93 6000 3.1 60 01:49 12.02.2020
2768 Rain 8 1013 76 10000 4.6 360 00:45 12.02.2020
2769 Rain 8 1013 87 7000 4.1 360 00:25 12.02.2020
2770 Rain 9 1013 87 7000 5.7 340 23:55 11.02.2020
2771 Rain 8 1012 87 10000 6.2 360 23:37 11.02.2020
2772 Rain 8 1012 87 10000 6.2 360 23:18 11.02.2020
2773 Rain 10 1012 71 10000 11.8 340 22:55 11.02.2020
2774 Clouds 10 1012 76 10000 5.7 270 22:36 11.02.2020
2775 Clouds 11 1012 76 10000 5.7 270 22:18 11.02.2020
2776 Clouds 10 1011 81 10000 3.6 260 21:55 11.02.2020
2777 Clouds 12 1011 76 10000 5.1 240 21:36 11.02.2020
2778 Clouds 12 1011 76 10000 5.1 240 21:18 11.02.2020
2779 Clouds 13 1009 76 10000 6.2 220 20:39 11.02.2020
2780 Clouds 13 1009 76 10000 6.2 220 20:20 11.02.2020
2781 Clouds 13 1009 81 10000 4.1 230 19:59 11.02.2020
2782 Clouds 13 1010 81 10000 5.1 220 19:41 11.02.2020
2783 Clouds 13 1010 81 10000 5.1 220 19:23 11.02.2020
2784 Clouds 13 1010 81 10000 3.1 230 18:55 11.02.2020
2785 Clouds 12 1009 81 10000 4.1 230 18:37 11.02.2020
2786 Clouds 13 1009 81 10000 4.1 230 18:18 11.02.2020
2787 Clouds 13 1009 76 10000 5.1 220 17:54 11.02.2020
2788 Clouds 13 1009 81 10000 3.6 220 17:36 11.02.2020
2789 Clouds 13 1009 81 10000 3.6 220 17:18 11.02.2020
2790 Clouds 12 1009 81 10000 3.6 220 17:18 11.02.2020
2791 Clouds 13 1010 81 10000 3.1 280 16:55 11.02.2020
2792 Clouds 13 1010 76 10000 6.2 230 16:36 11.02.2020
2793 Clouds 13 1010 76 10000 6.2 230 16:18 11.02.2020
2794 Clouds 14 1010 71 10000 6.2 200 15:42 11.02.2020
2795 Clouds 14 1010 71 10000 6.2 200 15:23 11.02.2020
2796 Clouds 14 1010 66 10000 6.7 190 14:43 11.02.2020
2797 Clouds 14 1010 66 10000 6.7 190 14:19 11.02.2020
2798 Clouds 13 1011 66 10000 5.1 180 13:58 11.02.2020
2799 Clouds 13 1011 71 10000 5.7 190 13:39 11.02.2020
2800 Clouds 13 1011 71 10000 5.7 190 13:20 11.02.2020
2801 Clouds 13 1011 76 10000 6.7 200 12:57 11.02.2020
2802 Clouds 13 1012 71 10000 6.7 200 12:38 11.02.2020
2803 Clouds 13 1012 71 10000 6.7 200 12:19 11.02.2020
2804 Clouds 13 1012 71 10000 7.2 200 11:41 11.02.2020
2805 Clouds 12 1012 76 10000 7.2 210 11:20 11.02.2020
2806 Clouds 11 1012 81 10000 7.2 210 10:55 11.02.2020
2807 Clouds 11 1012 76 10000 7.7 200 10:36 11.02.2020
2808 Clouds 11 1012 76 10000 7.7 200 10:18 11.02.2020
2809 Clouds 11 1012 76 10000 7.7 200 10:18 11.02.2020
2810 Clouds 10 1012 76 10000 8.2 180 09:44 11.02.2020
2811 Clouds 9 1013 81 10000 5.7 200 09:23 11.02.2020
2812 Rain 9 1013 81 10000 6.7 200 08:59 11.02.2020
2813 Rain 9 1013 81 10000 7.2 220 08:41 11.02.2020
2814 Rain 9 1013 81 10000 7.2 220 08:41 11.02.2020
2815 Rain 9 1013 81 10000 7.2 220 08:23 11.02.2020
2816 Rain 9 1013 81 10000 6.2 220 07:48 11.02.2020
2817 Rain 9 1013 76 10000 5.1 230 07:25 11.02.2020
2818 Rain 9 1013 76 10000 4.1 210 06:43 11.02.2020
2819 Rain 9 1013 76 10000 4.1 210 06:22 11.02.2020
2820 Rain 9 1012 70 10000 1.5 0 05:47 11.02.2020
2821 Clouds 9 1012 70 10000 9.3 200 05:23 11.02.2020
2822 Clouds 8 1013 66 10000 7.2 220 04:37 11.02.2020
2823 Clouds 8 1013 70 10000 9.3 200 02:53 11.02.2020
2824 Clouds 8 1012 70 10000 11.8 190 02:27 11.02.2020
2825 Clouds 8 1013 70 10000 10.8 190 01:36 11.02.2020
2826 Clouds 8 1014 65 10000 10.3 190 00:40 11.02.2020
2827 Clouds 8 1015 70 10000 9.3 190 23:57 10.02.2020
2828 Clouds 8 1016 70 10000 9.3 190 23:38 10.02.2020
2829 Clouds 8 1016 70 10000 9.3 190 23:19 10.02.2020
2830 Clouds 7 1016 61 10000 10.3 190 22:40 10.02.2020
2831 Clouds 7 1016 65 10000 10.8 190 22:20 10.02.2020
2832 Clouds 7 1016 65 10000 10.8 190 21:45 10.02.2020
2833 Clouds 7 1017 61 10000 9.8 190 21:25 10.02.2020
2834 Clouds 7 1017 61 10000 8.7 180 20:58 10.02.2020
2835 Clouds 7 1017 61 10000 8.7 180 20:58 10.02.2020
2836 Clouds 7 1018 61 10000 8.2 180 20:39 10.02.2020
2837 Clouds 7 1018 61 10000 8.2 180 20:20 10.02.2020
2838 Clouds 7 1018 61 10000 8.7 180 19:58 10.02.2020
2839 Clouds 7 1019 61 10000 8.7 180 19:38 10.02.2020
2840 Clouds 7 1019 61 10000 8.7 180 19:19 10.02.2020
2841 Clouds 7 1019 65 10000 8.2 180 18:59 10.02.2020
2842 Clouds 7 1019 65 10000 7.2 180 18:40 10.02.2020
2843 Clouds 7 1019 65 10000 7.2 180 18:21 10.02.2020
2844 Clouds 7 1020 65 10000 7.2 180 17:57 10.02.2020
2845 Clouds 7 1020 61 10000 8.2 180 17:37 10.02.2020
2846 Clouds 7 1020 61 10000 8.2 180 17:37 10.02.2020
2847 Clouds 7 1020 61 10000 8.2 180 17:19 10.02.2020
2848 Clouds 8 1020 65 10000 8.2 180 16:58 10.02.2020
2849 Clouds 8 1021 61 10000 8.2 180 16:39 10.02.2020
2850 Clouds 8 1021 61 10000 8.2 180 16:39 10.02.2020
2851 Clouds 8 1021 61 10000 8.2 180 16:19 10.02.2020
2852 Clouds 8 1022 61 10000 6.7 190 15:56 10.02.2020
2853 Clouds 8 1023 61 10000 5.7 190 15:38 10.02.2020
2854 Clouds 8 1023 61 10000 5.7 190 15:20 10.02.2020
2855 Clouds 9 1023 55 10000 6.2 190 14:55 10.02.2020
2856 Clouds 8 1024 55 10000 6.2 190 14:36 10.02.2020
2857 Clouds 8 1024 51 10000 6.2 190 14:18 10.02.2020
2858 Clouds 8 1024 51 10000 6.2 190 14:18 10.02.2020
2859 Clouds 7 1024 51 10000 6.2 190 13:42 10.02.2020
2860 Clouds 7 1024 56 10000 6.7 190 13:23 10.02.2020
2861 Clouds 8 1025 60 10000 6.7 190 12:50 10.02.2020
2862 Clouds 7 1026 56 10000 6.7 190 12:26 10.02.2020
2863 Clear 7 1026 52 10000 7.2 190 11:56 10.02.2020
2864 Clear 7 1027 52 10000 7.2 190 11:38 10.02.2020
2865 Clear 7 1027 52 10000 7.2 190 11:38 10.02.2020
2866 Clear 7 1027 52 10000 7.2 190 11:19 10.02.2020
2867 Clear 6 1027 56 10000 7.2 190 10:46 10.02.2020
2868 Clear 6 1028 56 10000 7.7 190 10:27 10.02.2020
2869 Clear 6 1028 56 10000 6.7 180 09:47 10.02.2020
2870 Clear 6 1028 56 10000 6.7 180 09:47 10.02.2020
2871 Clear 5 1028 56 10000 6.7 190 09:26 10.02.2020
2872 Clear 5 1028 56 10000 6.7 190 09:26 10.02.2020
2873 Clear 5 1028 56 10000 6.7 190 09:26 10.02.2020
2874 Clear 5 1029 65 10000 6.2 180 08:57 10.02.2020
2875 Clear 4 1029 60 10000 6.2 180 08:37 10.02.2020
2876 Clear 4 1029 60 10000 6.2 180 08:18 10.02.2020
2877 Clear 3 1029 64 10000 5.7 180 07:49 10.02.2020
2878 Clear 2 1029 64 10000 6.2 180 07:27 10.02.2020
2879 Clear 2 1030 64 10000 5.7 190 06:20 10.02.2020
2880 Clear 1 1030 64 10000 4.6 190 04:28 10.02.2020
2881 Clear 1 1030 64 10000 4.1 190 03:34 10.02.2020
2882 Clear 1 1031 64 10000 4.6 190 02:54 10.02.2020
2883 Clear 1 1031 64 10000 3.6 200 01:55 10.02.2020
2884 Clear 1 1032 55 10000 3.6 220 00:49 10.02.2020
2885 Clear 1 1032 55 10000 3.6 210 00:31 10.02.2020
2886 Clear 1 1032 55 10000 3.6 210 00:31 10.02.2020
2887 Clear 1 1032 51 10000 3.1 220 23:56 09.02.2020
2888 Clear 1 1032 55 10000 3.6 210 23:38 09.02.2020
2889 Clear 1 1032 55 10000 3.6 210 23:19 09.02.2020
2890 Clear 2 1033 51 10000 3.6 220 22:40 09.02.2020
2891 Clear 2 1033 51 10000 3.6 220 22:21 09.02.2020
2892 Clear 1 1033 47 10000 2.6 220 21:43 09.02.2020
2893 Clear 1 1033 47 10000 2.6 220 21:24 09.02.2020
2894 Clear 2 1033 44 10000 3.6 230 20:48 09.02.2020
2895 Clear 1 1033 43 10000 3.1 220 20:28 09.02.2020
2896 Clear 2 1033 43 10000 2.6 220 19:58 09.02.2020
2897 Clear 2 1034 51 10000 2.6 220 19:39 09.02.2020
2898 Clear 2 1034 51 10000 2.6 220 19:21 09.02.2020
2899 Clear 2 1034 47 10000 2.1 220 18:56 09.02.2020
2900 Clear 2 1033 51 10000 2.1 210 18:38 09.02.2020
2901 Clear 2 1033 51 10000 2.1 210 18:20 09.02.2020
2902 Clear 2 1033 51 10000 2.1 220 17:42 09.02.2020
2903 Clear 3 1033 43 10000 2.6 230 17:22 09.02.2020
2904 Clear 3 1033 47 10000 2.6 230 16:44 09.02.2020
2905 Clear 4 1033 47 10000 3.6 240 16:25 09.02.2020
2906 Clear 4 1033 47 10000 3.6 240 16:25 09.02.2020
2907 Clear 4 1033 41 10000 4.1 240 15:59 09.02.2020
2908 Clear 5 1033 41 10000 4.1 240 15:41 09.02.2020
2909 Clear 4 1034 44 10000 4.1 240 15:22 09.02.2020
2910 Clear 5 1034 38 10000 5.1 230 14:57 09.02.2020
2911 Clear 5 1034 41 10000 4.6 230 14:39 09.02.2020
2912 Clear 5 1034 41 10000 4.6 230 14:39 09.02.2020
2913 Clear 4 1034 41 10000 4.6 230 14:21 09.02.2020
2914 Clear 4 1034 44 10000 4.6 220 13:44 09.02.2020
2915 Clear 5 1034 44 10000 5.1 230 13:26 09.02.2020
2916 Clear 5 1034 44 10000 5.1 210 12:57 09.02.2020
2917 Clear 4 1034 44 10000 4.1 230 12:38 09.02.2020
2918 Clear 4 1034 44 10000 4.1 230 12:19 09.02.2020
2919 Clear 4 1034 44 10000 4.1 230 12:19 09.02.2020
2920 Clear 4 1034 48 10000 3.6 230 11:41 09.02.2020
2921 Clear 4 1035 44 10000 3.6 240 11:22 09.02.2020
2922 Clear 3 1035 41 10000 2.1 230 10:59 09.02.2020
2923 Clear 3 1035 40 10000 2.6 270 10:41 09.02.2020
2924 Clear 3 1035 40 10000 2.6 270 10:21 09.02.2020
2925 Clear 2 1035 40 10000 2.1 280 09:46 09.02.2020
2926 Clear 2 1034 43 10000 2.1 270 09:27 09.02.2020
2927 Clear 1 1034 47 10000 3.1 310 08:45 09.02.2020
2928 Clear 1 1034 43 10000 3.1 300 08:27 09.02.2020
2929 Clouds 1 1034 47 10000 3.1 310 07:59 09.02.2020
2930 Clouds 0 1034 56 10000 4.6 320 07:39 09.02.2020
2931 Clouds 0 1033 58 10000 4.1 310 06:47 09.02.2020
2932 Clouds 0 1033 58 10000 4.6 300 06:26 09.02.2020
2933 Clouds -1 1033 63 10000 4.1 310 05:38 09.02.2020
2934 Clouds -1 1033 63 10000 4.1 310 05:18 09.02.2020
2935 Clouds 0 1032 66 10000 4.1 320 03:52 09.02.2020
2936 Clouds 0 1032 63 10000 4.1 320 02:44 09.02.2020
2937 Snow 0 1032 58 10000 4.6 290 02:25 09.02.2020
2938 Clouds 0 1032 62 10000 4.1 310 01:35 09.02.2020
2939 Clouds 0 1032 61 10000 4.1 310 00:42 09.02.2020
2940 Clouds 0 1032 61 10000 3.1 300 00:23 09.02.2020
2941 Clouds 0 1032 61 10000 3.6 310 23:42 08.02.2020
2942 Clouds 0 1032 59 10000 3.6 300 23:20 08.02.2020
2943 Clouds 1 1032 59 10000 3.6 300 22:42 08.02.2020
2944 Clouds 1 1032 59 10000 3.1 290 22:22 08.02.2020
2945 Clouds 1 1032 59 10000 3.1 290 22:22 08.02.2020
2946 Clouds 1 1032 59 10000 3.6 330 21:58 08.02.2020
2947 Clouds 2 1032 50 10000 2.6 10 21:40 08.02.2020
2948 Clouds 2 1032 50 10000 2.6 10 21:20 08.02.2020
2949 Clouds 2 1032 50 10000 3.6 350 20:56 08.02.2020
2950 Clouds 2 1032 50 10000 3.6 350 20:56 08.02.2020
2951 Clouds 2 1032 50 10000 3.6 350 20:38 08.02.2020
2952 Clouds 2 1032 50 10000 3.6 350 20:19 08.02.2020
2953 Clouds 2 1032 50 10000 3.6 360 19:54 08.02.2020
2954 Clouds 1 1032 50 10000 3.1 350 19:36 08.02.2020
2955 Clouds 1 1032 50 10000 3.1 350 19:18 08.02.2020
2956 Clouds 2 1032 50 10000 3.1 340 18:42 08.02.2020
2957 Clouds 2 1032 50 10000 3.1 340 18:42 08.02.2020
2958 Clouds 1 1032 50 10000 4.1 350 18:23 08.02.2020
2959 Clouds 1 1032 50 10000 7.2 340 17:43 08.02.2020
2960 Clouds 1 1032 50 10000 7.2 340 17:21 08.02.2020
2961 -273 0 0 0 0 0 17:21 08.02.2020
2962 Clouds 1 1031 50 10000 8.2 340 16:58 08.02.2020
2963 Clouds 1 1031 55 10000 7.7 350 16:39 08.02.2020
2964 Clouds 1 1031 55 10000 7.7 350 16:20 08.02.2020
2965 Snow 1 1030 61 2800 4.1 30 15:42 08.02.2020
2966 Snow 1 1031 69 10000 8.2 350 15:19 08.02.2020
2967 Snow 1 1030 61 7000 8.7 360 14:59 08.02.2020
2968 Snow 1 1029 69 1400 6.2 10 14:39 08.02.2020
2969 Snow 1 1029 69 1400 6.2 10 14:19 08.02.2020
2970 Snow 1 1030 74 3100 9.8 340 13:43 08.02.2020
2971 Snow 1 1030 69 4000 10.8 350 13:23 08.02.2020
2972 Snow 1 1030 64 10000 10.3 360 12:57 08.02.2020
2973 Clouds 1 1030 59 10000 10.8 360 12:37 08.02.2020
2974 Clouds 1 1030 59 10000 10.8 360 12:37 08.02.2020
2975 Clouds 1 1030 59 10000 10.8 360 12:19 08.02.2020
2976 Clouds 1 1030 59 10000 10.8 360 12:19 08.02.2020
2977 Clouds 2 1030 64 10000 9.8 340 11:41 08.02.2020
2978 Clouds 2 1030 64 10000 9.8 340 11:21 08.02.2020
2979 Snow 1 1029 75 6000 6.2 320 10:43 08.02.2020
2980 Clouds 1 1030 59 10000 7.7 350 10:25 08.02.2020
2981 Clouds 1 1030 50 10000 7.2 340 09:55 08.02.2020
2982 Snow 1 1030 75 10000 8.2 340 09:36 08.02.2020
2983 Snow 1 1030 75 10000 8.2 340 09:18 08.02.2020
2984 Clouds 1 1028 75 10000 10.3 340 08:40 08.02.2020
2985 Clouds 1 1028 66 10000 10.3 340 08:22 08.02.2020
2986 Snow 0 1028 86 7000 5.1 10 07:51 08.02.2020
2987 Snow 0 1028 80 7000 6.2 20 07:32 08.02.2020
2988 Snow 1 1027 70 7000 8.2 340 06:41 08.02.2020
2989 Snow 1 1027 70 7000 8.2 340 06:18 08.02.2020
2990 Snow 0 1026 70 10000 7.7 330 05:33 08.02.2020
2991 Clouds 1 1025 72 10000 8.2 340 04:53 08.02.2020
2992 Clouds 1 1025 72 10000 10.3 340 04:18 08.02.2020
2993 Clouds 1 1024 64 10000 6.7 340 03:20 08.02.2020
2994 Clouds 1 1023 74 10000 6.7 350 02:28 08.02.2020
2995 Snow 1 1022 78 2500 8.7 360 01:29 08.02.2020
2996 Snow 1 1022 78 2800 9.3 360 00:46 08.02.2020
2997 Snow 1 1021 78 3200 9.8 10 00:25 08.02.2020
2998 Snow 1 1021 78 3500 8.7 360 23:57 07.02.2020
2999 Snow 1 1021 78 1600 10.3 360 23:38 07.02.2020
3000 Snow 1 1021 86 1300 9.3 360 23:19 07.02.2020
3001 Snow 2 1020 94 6000 8.7 20 22:41 07.02.2020
3002 Snow 2 1020 94 6000 8.7 20 22:19 07.02.2020
3003 Snow 2 1020 94 6000 8.7 20 22:19 07.02.2020
3004 Snow 2 1020 94 1300 11.3 40 21:57 07.02.2020
3005 Snow 3 1019 80 8000 6.7 20 21:39 07.02.2020
3006 Clouds 4 1019 80 10000 5.1 360 21:19 07.02.2020
3007 Clouds 4 1019 86 10000 4.1 320 20:39 07.02.2020
3008 Clouds 4 1019 86 10000 4.1 320 20:19 07.02.2020
3009 Clouds 4 1018 93 10000 2.1 90 19:54 07.02.2020
3010 Rain 4 1018 86 10000 0.5 0 19:36 07.02.2020
3011 Rain 4 1018 86 10000 0.5 0 19:18 07.02.2020
3012 Rain 4 1019 86 8000 5.7 320 18:43 07.02.2020
3013 Clouds 4 1018 86 10000 4.1 310 18:24 07.02.2020
3014 Snow 4 1018 93 8000 4.1 310 17:45 07.02.2020
3015 Clouds 4 1017 86 8000 3.1 340 17:22 07.02.2020
3016 Rain 4 1018 86 6000 5.1 330 16:59 07.02.2020
3017 Rain 4 1018 86 8000 4.6 320 16:41 07.02.2020
3018 Rain 4 1018 86 8000 4.6 320 16:22 07.02.2020
3019 Snow 4 1018 86 10000 3.6 310 15:53 07.02.2020
3020 Snow 5 1018 90 10000 5.1 320 15:28 07.02.2020
3021 Rain 5 1017 65 10000 4.1 330 14:55 07.02.2020
3022 Clouds 5 1018 65 10000 7.2 320 14:37 07.02.2020
3023 Clouds 5 1018 65 10000 7.2 320 14:19 07.02.2020
3024 Clouds 5 1017 60 10000 5.7 330 13:56 07.02.2020
3025 Rain 5 1018 74 10000 7.7 340 13:37 07.02.2020
3026 Rain 5 1018 74 10000 7.7 340 13:18 07.02.2020
3027 Clouds 6 1018 56 10000 6.2 340 12:41 07.02.2020
3028 Clouds 6 1017 56 10000 5.7 340 12:22 07.02.2020
3029 Clouds 6 1018 52 10000 6.2 350 11:45 07.02.2020
3030 Clouds 6 1018 52 10000 6.2 350 11:22 07.02.2020
3031 Clouds 6 1018 56 10000 6.7 350 10:57 07.02.2020
3032 Clouds 5 1018 52 10000 5.7 360 10:38 07.02.2020
3033 Clouds 5 1018 52 10000 5.7 360 10:19 07.02.2020
3034 Clouds 5 1018 60 10000 6.7 340 09:40 07.02.2020
3035 Clouds 5 1018 60 10000 6.7 340 09:22 07.02.2020
3036 Clouds 5 1018 64 10000 6.2 340 08:44 07.02.2020
3037 Clouds 5 1018 64 10000 6.7 340 08:21 07.02.2020
3038 Clouds 5 1018 64 10000 6.7 340 08:21 07.02.2020
3039 Clouds 5 1018 64 10000 7.2 340 07:53 07.02.2020
3040 Clouds 4 1018 64 10000 6.2 340 07:32 07.02.2020
3041 Clouds 4 1017 69 10000 5.1 340 06:57 07.02.2020
3042 Clouds 4 1017 69 10000 4.6 350 06:38 07.02.2020
3043 Clouds 4 1017 69 10000 4.1 350 06:18 07.02.2020
3044 Clouds 4 1017 69 10000 5.1 340 05:37 07.02.2020
3045 Clouds 4 1017 64 10000 4.6 350 03:43 07.02.2020
3046 Clouds 4 1017 64 10000 6.2 360 01:57 07.02.2020
3047 Clouds 4 1017 69 10000 7.2 350 00:59 07.02.2020
3048 Clouds 4 1017 69 10000 7.7 350 00:27 07.02.2020
3049 Clouds 4 1017 69 10000 7.2 350 23:38 06.02.2020
3050 Clouds 4 1017 69 10000 7.2 350 23:19 06.02.2020
3051 Clouds 4 1017 69 10000 8.2 350 22:48 06.02.2020
3052 Clouds 3 1017 74 10000 8.2 350 22:27 06.02.2020
3053 Clouds 3 1017 80 10000 8.2 340 21:58 06.02.2020
3054 Clouds 3 1017 74 10000 8.2 340 21:36 06.02.2020
3055 Clouds 3 1017 74 10000 8.2 340 21:18 06.02.2020
3056 Clouds 3 1017 80 10000 9.3 340 20:55 06.02.2020
3057 Snow 3 1017 80 8000 9.3 340 20:36 06.02.2020
3058 Snow 3 1016 80 8000 8.2 340 20:18 06.02.2020
3059 Snow 3 1016 80 8000 8.2 340 19:56 06.02.2020
3060 Clouds 3 1016 80 10000 10.3 340 19:37 06.02.2020
3061 Clouds 3 1016 80 10000 10.3 340 19:19 06.02.2020
3062 Snow 3 1016 80 8000 9.3 340 18:42 06.02.2020
3063 Snow 3 1015 80 8000 8.2 350 18:24 06.02.2020
3064 Snow 3 1015 80 8000 9.8 350 17:58 06.02.2020
3065 Clouds 3 1015 91 8000 10.3 340 17:40 06.02.2020
3066 Clouds 3 1015 90 8000 10.3 340 17:20 06.02.2020
3067 Clouds 3 1014 90 10000 10.3 340 16:43 06.02.2020
3068 Clouds 3 1014 90 10000 10.3 340 16:25 06.02.2020
3069 Clouds 3 1013 90 10000 11.3 340 15:44 06.02.2020
3070 Clouds 4 1013 86 10000 10.8 340 15:24 06.02.2020
3071 Clouds 4 1012 86 10000 10.8 340 14:58 06.02.2020
3072 Clouds 4 1012 86 10000 10.8 340 14:58 06.02.2020
3073 Clouds 4 1013 90 10000 11.8 350 14:40 06.02.2020
3074 Clouds 4 1013 80 10000 11.8 350 14:22 06.02.2020
3075 Clouds 4 1011 80 10000 10.8 340 13:43 06.02.2020
3076 Clouds 4 1011 84 10000 11.8 350 13:25 06.02.2020
3077 Clouds 4 1011 80 10000 11.3 340 12:45 06.02.2020
3078 Clouds 4 1010 86 10000 11.3 340 12:20 06.02.2020
3079 Clouds 4 1010 86 10000 11.8 340 11:58 06.02.2020
3080 Clouds 4 1010 86 10000 11.8 340 11:40 06.02.2020
3081 Clouds 4 1010 93 8000 12.3 340 11:21 06.02.2020
3082 Clouds 4 1009 83 10000 13.4 340 10:57 06.02.2020
3083 Clouds 4 1009 86 10000 12.3 340 10:39 06.02.2020
3084 Clouds 4 1009 86 10000 12.3 340 10:21 06.02.2020
3085 Rain 4 1008 80 10000 8.7 10 09:57 06.02.2020
3086 Rain 4 1008 80 10000 8.7 10 09:57 06.02.2020
3087 Rain 4 1010 93 10000 11.3 340 09:37 06.02.2020
3088 Rain 4 1010 93 10000 11.3 340 09:19 06.02.2020
3089 Clouds 5 1008 80 10000 11.3 340 08:41 06.02.2020
3090 Clouds 5 1007 80 10000 11.8 330 08:22 06.02.2020
3091 Rain 4 1007 86 10000 11.3 340 07:51 06.02.2020
3092 Clouds 5 1006 86 10000 9.3 340 07:28 06.02.2020
3093 Clouds 5 1005 86 10000 9.3 340 06:37 06.02.2020
3094 Clouds 5 1005 86 10000 9.3 340 06:18 06.02.2020
3095 Clouds 6 1002 93 10000 9.3 330 04:54 06.02.2020
3096 Clouds 7 1001 93 10000 9.3 320 03:21 06.02.2020
3097 Clouds 7 1001 93 10000 9.3 320 03:21 06.02.2020
3098 Clouds 7 1001 93 10000 9.3 320 03:21 06.02.2020
3099 Clouds 8 1000 87 10000 2.6 250 02:44 06.02.2020
3100 Clouds 8 1000 87 10000 2.6 270 01:41 06.02.2020
3101 Clouds 9 999 81 10000 3.6 240 00:59 06.02.2020
3102 Clouds 9 998 87 10000 3.6 250 00:27 06.02.2020
3103 Clouds 9 997 87 10000 5.1 240 23:50 05.02.2020
3104 Clouds 10 997 87 10000 4.6 180 23:29 05.02.2020
3105 Clouds 10 996 87 10000 6.2 170 22:59 05.02.2020
3106 Rain 10 996 87 10000 6.7 170 22:40 05.02.2020
3107 Rain 10 996 87 10000 6.7 170 22:22 05.02.2020
3108 Clouds 10 995 87 10000 6.2 180 21:55 05.02.2020
3109 Clouds 10 995 87 10000 6.2 180 21:55 05.02.2020
3110 Rain 10 996 93 10000 6.2 180 21:36 05.02.2020
3111 Rain 10 996 93 10000 6.2 180 21:18 05.02.2020
3112 Rain 9 994 93 10000 5.1 180 20:39 05.02.2020
3113 Rain 9 994 93 10000 5.1 180 20:39 05.02.2020
3114 Rain 9 994 93 10000 5.1 180 20:39 05.02.2020
3115 Rain 9 994 93 10000 5.1 180 20:20 05.02.2020
3116 Rain 10 994 93 10000 1.5 0 19:58 05.02.2020
3117 Rain 9 994 87 4800 2.1 120 19:40 05.02.2020
3118 Rain 9 994 87 4800 2.1 120 19:19 05.02.2020
3119 Clouds 9 993 93 10000 3.1 130 18:56 05.02.2020
3120 Clouds 9 993 93 10000 1 0 18:38 05.02.2020
3121 Clouds 9 993 93 10000 1 0 18:18 05.02.2020
3122 Rain 9 992 93 4000 2.1 70 17:38 05.02.2020
3123 Rain 9 992 93 4000 2.1 70 17:38 05.02.2020
3124 Rain 9 992 93 4000 2.1 70 17:19 05.02.2020
3125 Rain 9 992 87 10000 9.3 290 16:57 05.02.2020
3126 Rain 10 992 93 4000 8.2 280 16:38 05.02.2020
3127 Rain 10 992 93 4000 8.2 280 16:19 05.02.2020
3128 Rain 9 990 93 6000 8.2 340 15:45 05.02.2020
3129 Rain 10 991 100 4000 6.2 10 15:20 05.02.2020
3130 Thunderstorm 11 989 93 7000 9.8 330 14:57 05.02.2020
3131 Thunderstorm 12 989 93 4000 9.3 350 14:38 05.02.2020
3132 Thunderstorm 12 989 93 4000 9.3 350 14:20 05.02.2020
3133 Rain 13 989 72 10000 2.6 0 13:43 05.02.2020
3134 Rain 14 989 72 10000 2.6 0 13:22 05.02.2020
3135 Clouds 13 990 63 10000 1.5 60 12:55 05.02.2020
3136 Clouds 13 991 63 10000 1 0 12:36 05.02.2020
3137 Clouds 13 991 63 10000 1 0 12:18 05.02.2020
3138 Clouds 13 992 76 10000 2.6 120 11:41 05.02.2020
3139 Clouds 14 992 76 10000 2.6 120 11:22 05.02.2020
3140 Clouds 15 993 72 10000 9.8 210 10:44 05.02.2020
3141 Clouds 14 993 72 10000 9.8 210 10:26 05.02.2020
3142 Clouds 14 994 82 10000 4.1 220 09:59 05.02.2020
3143 Rain 14 994 87 6000 7.2 230 09:39 05.02.2020
3144 Rain 14 994 87 6000 7.2 230 09:39 05.02.2020
3145 Rain 14 994 87 6000 7.2 230 09:21 05.02.2020
3146 Rain 14 994 82 6000 11.3 220 08:46 05.02.2020
3147 Clouds 14 993 76 10000 12.3 210 08:25 05.02.2020
3148 Clouds 14 994 76 10000 5.1 200 07:57 05.02.2020
3149 Clouds 14 994 76 10000 5.1 200 07:57 05.02.2020
3150 Rain 14 994 62 10000 6.7 230 07:37 05.02.2020
3151 Rain 14 994 81 10000 4.1 180 06:58 05.02.2020
3152 Rain 14 994 81 10000 4.1 180 06:39 05.02.2020
3153 Rain 14 994 81 10000 4.1 180 06:19 05.02.2020
3154 Clouds 15 995 71 10000 8.2 200 05:20 05.02.2020
3155 Clouds 15 995 67 10000 7.2 210 04:54 05.02.2020
3156 Clouds 15 996 67 10000 7.7 200 03:58 05.02.2020
3157 Clouds 14 997 67 10000 8.7 210 02:39 05.02.2020
3158 Clouds 14 997 67 10000 8.7 210 02:19 05.02.2020
3159 Clouds 14 998 71 10000 6.2 220 00:54 05.02.2020
3160 Clouds 14 998 76 10000 9.3 210 23:59 04.02.2020
3161 Clouds 14 999 76 10000 8.7 210 23:39 04.02.2020
3162 Clouds 14 999 76 10000 8.7 210 23:19 04.02.2020
3163 Clouds 14 999 76 10000 7.2 210 22:57 04.02.2020
3164 Clouds 14 999 76 10000 9.8 210 22:38 04.02.2020
3165 Clouds 14 999 76 10000 9.8 210 22:20 04.02.2020
3166 Clouds 14 1000 71 10000 8.7 210 21:54 04.02.2020
3167 Clouds 14 1000 76 10000 7.7 190 21:36 04.02.2020
3168 Clouds 13 1000 76 10000 7.7 190 21:18 04.02.2020
3169 Clouds 14 1001 76 10000 6.2 210 20:42 04.02.2020
3170 Clouds 14 1001 76 10000 6.2 210 20:21 04.02.2020
3171 Clouds 14 1002 71 10000 6.7 220 19:59 04.02.2020
3172 Clouds 14 1002 71 10000 6.7 220 19:40 04.02.2020
3173 Clouds 14 1002 71 10000 6.7 200 19:22 04.02.2020
3174 Clouds 14 1002 71 10000 7.7 210 18:56 04.02.2020
3175 Clouds 14 1003 71 10000 7.7 190 18:37 04.02.2020
3176 Clouds 14 1003 71 10000 7.7 190 18:18 04.02.2020
3177 Clouds 15 1003 67 10000 8.2 200 17:43 04.02.2020
3178 Clouds 15 1003 67 10000 8.2 200 17:21 04.02.2020
3179 Clouds 15 1004 71 10000 5.1 160 16:56 04.02.2020
3180 Clouds 14 1004 82 10000 3.6 130 16:37 04.02.2020
3181 Clouds 14 1004 82 10000 3.6 130 16:19 04.02.2020
3182 Clouds 14 1005 87 10000 4.1 120 15:56 04.02.2020
3183 Clouds 15 1006 87 10000 3.6 130 15:37 04.02.2020
3184 Clouds 14 1006 87 10000 3.6 130 15:18 04.02.2020
3185 Clouds 15 1007 82 10000 2.1 150 14:42 04.02.2020
3186 -273 0 0 0 0 0 14:23 04.02.2020
3187 Clouds 15 1008 77 10000 2.1 190 13:57 04.02.2020
3188 Clouds 15 1009 82 10000 2.1 200 13:39 04.02.2020
3189 Clouds 15 1009 82 10000 2.1 200 13:19 04.02.2020
3190 Clouds 14 1009 87 10000 2.6 180 12:44 04.02.2020
3191 Clouds 14 1010 82 10000 2.6 180 12:25 04.02.2020
3192 Clouds 15 1011 82 10000 2.6 150 11:58 04.02.2020
3193 Clouds 14 1011 82 10000 2.6 150 11:39 04.02.2020
3194 Clouds 14 1011 82 10000 2.6 150 11:20 04.02.2020
3195 Clouds 14 1012 82 10000 2.1 130 10:50 04.02.2020
3196 Clouds 13 1013 93 10000 2.6 90 10:30 04.02.2020
3197 Clouds 13 1013 93 10000 2.6 90 10:30 04.02.2020
3198 Clouds 13 1013 87 10000 2.1 120 09:58 04.02.2020
3199 Clouds 12 1013 87 10000 2.1 120 09:40 04.02.2020
3200 Clouds 12 1013 87 10000 1.5 110 09:21 04.02.2020
3201 Clouds 12 1013 87 10000 1.5 90 08:50 04.02.2020
3202 Clouds 11 1014 93 10000 1 100 08:28 04.02.2020
3203 Clouds 11 1013 93 10000 2.1 100 07:57 04.02.2020
3204 Clouds 11 1014 93 10000 0.5 0 07:37 04.02.2020
3205 Clouds 11 1014 93 10000 0.5 0 07:19 04.02.2020
3206 Clouds 11 1013 93 10000 0.5 0 06:42 04.02.2020
3207 Clouds 11 1013 87 10000 2.6 300 05:37 04.02.2020
3208 Clouds 11 1013 87 10000 2.6 270 04:55 04.02.2020
3209 Rain 12 1014 93 10000 2.1 250 03:49 04.02.2020
3210 Rain 12 1014 87 10000 2.6 270 03:31 04.02.2020
3211 Clouds 12 1013 87 10000 2.1 280 02:51 04.02.2020
3212 Clouds 12 1013 87 10000 3.1 220 02:28 04.02.2020
3213 Rain 13 1013 87 10000 4.1 240 01:48 04.02.2020
3214 Rain 13 1014 87 10000 4.1 240 01:21 04.02.2020
3215 Clouds 13 1013 87 10000 5.7 240 00:25 04.02.2020
3216 Clouds 13 1013 87 10000 5.7 240 00:25 04.02.2020
3217 Clouds 13 1013 87 10000 7.2 240 23:56 03.02.2020
3218 Clouds 13 1013 87 10000 6.2 250 23:38 03.02.2020
3219 Clouds 13 1013 87 10000 6.2 250 23:18 03.02.2020
3220 Clouds 13 1012 87 10000 6.2 240 22:39 03.02.2020
3221 Clouds 13 1012 87 10000 6.2 240 22:20 03.02.2020
3222 Rain 13 1013 87 10000 4.1 230 21:43 03.02.2020
3223 Rain 13 1013 87 10000 6.2 240 21:20 03.02.2020
3224 Rain 13 1013 87 10000 6.2 240 21:20 03.02.2020
3225 Rain 14 1013 76 10000 4.6 260 20:57 03.02.2020
3226 Rain 14 1013 76 10000 4.6 260 20:57 03.02.2020
3227 Rain 13 1013 81 10000 3.1 300 20:39 03.02.2020
3228 Rain 13 1013 81 10000 3.1 300 20:18 03.02.2020
3229 Rain 14 1013 82 10000 4.6 250 19:56 03.02.2020
3230 Clouds 14 1013 81 10000 4.1 250 19:37 03.02.2020
3231 Clouds 14 1013 81 10000 4.1 250 19:37 03.02.2020
3232 Clouds 14 1013 81 10000 4.1 250 19:18 03.02.2020
3233 Clouds 14 1013 76 10000 4.6 260 18:41 03.02.2020
3234 Clouds 14 1013 76 10000 4.6 260 18:22 03.02.2020
3235 Clouds 14 1012 76 10000 4.1 260 17:58 03.02.2020
3236 Clouds 14 1012 76 10000 4.1 260 17:39 03.02.2020
3237 Clouds 14 1012 76 10000 4.1 260 17:19 03.02.2020
3238 Clouds 14 1012 76 10000 4.1 270 16:40 03.02.2020
3239 Clouds 14 1012 76 10000 4.6 260 16:22 03.02.2020
3240 Clouds 14 1012 76 10000 3.6 260 15:59 03.02.2020
3241 Clouds 15 1012 76 10000 4.1 250 15:39 03.02.2020
3242 Clouds 15 1012 76 10000 4.1 250 15:20 03.02.2020
3243 Clouds 15 1012 76 10000 4.6 240 14:58 03.02.2020
3244 Clouds 15 1012 76 10000 4.6 240 14:58 03.02.2020
3245 Clouds 15 1012 76 10000 4.6 240 14:58 03.02.2020
3246 Clouds 15 1012 82 10000 6.2 240 14:39 03.02.2020
3247 Clouds 15 1012 82 10000 6.2 240 14:21 03.02.2020
3248 Clouds 15 1013 76 10000 5.1 210 13:43 03.02.2020
3249 Clouds 14 1013 76 10000 5.1 210 13:21 03.02.2020
3250 Clouds 14 1014 76 10000 4.1 230 12:59 03.02.2020
3251 Clouds 14 1014 76 10000 5.7 210 12:40 03.02.2020
3252 Clouds 14 1014 76 10000 5.7 210 12:21 03.02.2020
3253 Clouds 14 1014 76 10000 6.7 210 11:56 03.02.2020
3254 Clouds 14 1015 76 10000 6.7 220 11:37 03.02.2020
3255 Clouds 14 1015 76 10000 6.7 220 11:18 03.02.2020
3256 Clouds 14 1015 76 10000 6.2 210 10:41 03.02.2020
3257 Clouds 14 1015 81 10000 4.6 190 10:22 03.02.2020
3258 Clouds 14 1015 76 10000 5.7 210 09:48 03.02.2020
3259 Clouds 13 1015 81 10000 4.6 220 09:25 03.02.2020
3260 Clouds 13 1016 81 10000 6.2 210 08:57 03.02.2020
3261 Clouds 13 1016 81 10000 6.2 210 08:39 03.02.2020
3262 Clouds 13 1016 81 10000 6.2 210 08:21 03.02.2020
3263 Clouds 12 1016 87 10000 4.6 200 07:41 03.02.2020
3264 Clouds 12 1016 87 10000 4.6 200 07:21 03.02.2020
3265 Clouds 12 1016 87 10000 4.6 200 07:21 03.02.2020
3266 Clouds 11 1016 81 10000 4.6 220 06:51 03.02.2020
3267 Clouds 11 1016 87 10000 2.1 250 06:30 03.02.2020
3268 Clouds 11 1016 81 10000 5.7 220 05:37 03.02.2020
3269 Clouds 11 1016 81 10000 5.7 220 05:18 03.02.2020
3270 Clouds 11 1017 93 10000 1 0 03:51 03.02.2020
3271 Clouds 12 1018 87 10000 2.1 220 02:36 03.02.2020
3272 Clouds 12 1018 87 10000 2.1 230 01:42 03.02.2020
3273 Clouds 12 1019 81 10000 3.1 240 00:47 03.02.2020
3274 Clouds 12 1019 87 10000 2.6 230 00:25 03.02.2020
3275 Clouds 12 1019 87 10000 2.1 220 23:39 02.02.2020
3276 Clouds 12 1019 93 10000 2.1 260 23:21 02.02.2020
3277 Clouds 12 1019 87 10000 3.6 240 22:58 02.02.2020
3278 Clouds 12 1019 87 10000 3.1 280 22:38 02.02.2020
3279 Clouds 12 1019 87 10000 3.1 280 22:38 02.02.2020
3280 Clouds 12 1019 87 10000 3.1 280 22:19 02.02.2020
3281 Clouds 12 1019 87 10000 3.1 280 21:55 02.02.2020
3282 Clouds 12 1019 81 10000 2.1 0 21:37 02.02.2020
3283 Clouds 12 1019 81 10000 2.1 0 21:19 02.02.2020
3284 Clouds 12 1019 87 10000 2.1 240 20:55 02.02.2020
3285 Clouds 12 1019 87 10000 3.1 190 20:37 02.02.2020
3286 Clear 12 1019 87 10000 3.1 190 20:19 02.02.2020
3287 Clear 12 1019 81 10000 3.6 230 19:55 02.02.2020
3288 Clear 12 1019 81 10000 3.6 230 19:55 02.02.2020
3289 Clear 12 1019 76 10000 2.6 250 19:36 02.02.2020
3290 Clear 13 1018 76 10000 2.6 250 19:18 02.02.2020
3291 Clear 13 1018 76 10000 2.6 250 19:18 02.02.2020
3292 Clear 13 1018 76 10000 2.6 250 18:39 02.02.2020
3293 Clear 12 1018 71 10000 2.1 270 18:21 02.02.2020
3294 Clear 13 1018 71 10000 2.1 270 17:58 02.02.2020
3295 Clear 13 1018 66 10000 4.1 240 17:38 02.02.2020
3296 Clear 14 1018 66 10000 4.1 240 17:19 02.02.2020
3297 Clear 14 1017 66 10000 2.6 250 16:58 02.02.2020
3298 Clear 14 1017 71 10000 2.1 250 16:39 02.02.2020
3299 Clear 14 1017 71 10000 2.1 250 16:19 02.02.2020
3300 Clear 15 1017 71 10000 3.1 240 15:59 02.02.2020
3301 Clear 15 1017 62 10000 3.1 250 15:39 02.02.2020
3302 Clear 15 1017 62 10000 3.1 250 15:20 02.02.2020
3303 Clear 15 1017 62 10000 3.1 250 15:20 02.02.2020
3304 Clear 15 1017 67 10000 3.6 240 14:56 02.02.2020
3305 Clear 15 1017 62 10000 4.1 230 14:38 02.02.2020
3306 Clear 15 1017 62 10000 4.1 230 14:18 02.02.2020
3307 Clear 16 1017 62 10000 3.6 240 13:54 02.02.2020
3308 Clear 16 1018 62 10000 3.6 250 13:36 02.02.2020
3309 Clear 16 1018 62 10000 3.6 250 13:18 02.02.2020
3310 Clear 15 1018 66 10000 5.7 210 12:42 02.02.2020
3311 Clear 15 1018 66 10000 5.7 210 12:22 02.02.2020
3312 Clear 15 1018 66 10000 6.2 210 11:56 02.02.2020
3313 Clear 15 1018 51 10000 4.1 220 11:37 02.02.2020
3314 Clear 15 1018 51 10000 4.1 220 11:18 02.02.2020
3315 Clear 14 1019 66 10000 5.1 210 11:18 02.02.2020
3316 Clear 14 1019 66 10000 5.1 210 10:55 02.02.2020
3317 Clear 14 1019 66 10000 5.1 210 10:55 02.02.2020
3318 Clear 14 1019 71 10000 5.7 210 10:36 02.02.2020
3319 Clear 14 1019 71 10000 5.7 210 10:18 02.02.2020
3320 Clear 13 1019 66 10000 5.1 210 09:41 02.02.2020
3321 Clear 13 1019 71 10000 5.1 200 09:21 02.02.2020
3322 Clear 13 1019 71 10000 5.7 190 08:57 02.02.2020
3323 Clear 12 1019 76 10000 3.6 210 08:39 02.02.2020
3324 Clear 11 1019 76 10000 3.6 210 08:20 02.02.2020
3325 Clear 11 1019 76 10000 3.1 230 07:44 02.02.2020
3326 Clear 10 1019 81 10000 3.6 220 07:26 02.02.2020
3327 Clear 10 1018 81 10000 3.1 230 06:39 02.02.2020
3328 Clear 9 1018 87 10000 2.6 230 06:21 02.02.2020
3329 Clear 9 1018 87 10000 2.1 250 05:36 02.02.2020
3330 Clear 10 1018 87 10000 2.6 250 04:30 02.02.2020
3331 Clear 10 1018 81 10000 4.1 240 03:24 02.02.2020
3332 Clear 10 1019 81 10000 3.1 220 02:22 02.02.2020
3333 Clear 10 1019 87 10000 2.1 230 01:52 02.02.2020
3334 Clear 10 1019 87 10000 2.1 230 01:19 02.02.2020
3335 Clear 10 1019 87 10000 2.1 240 00:39 02.02.2020
3336 Clear 10 1019 81 10000 2.6 230 00:18 02.02.2020
3337 Clear 10 1019 87 10000 2.1 220 23:43 01.02.2020
3338 Clear 10 1019 87 10000 2.1 240 23:21 01.02.2020
3339 Clear 10 1019 87 10000 2.6 240 22:45 01.02.2020
3340 Clear 10 1019 87 10000 2.1 250 22:19 01.02.2020
3341 Clear 10 1019 87 10000 2.1 250 22:19 01.02.2020
3342 Clear 11 1019 81 10000 2.6 220 21:44 01.02.2020
3343 Clear 11 1019 81 10000 2.6 220 21:20 01.02.2020
3344 Clear 11 1019 81 10000 3.1 220 20:57 01.02.2020
3345 Clear 11 1019 81 10000 1.5 240 20:38 01.02.2020
3346 Clear 11 1019 81 10000 1.5 240 20:19 01.02.2020
3347 Clear 11 1019 81 10000 1.5 250 19:56 01.02.2020
3348 Clear 11 1019 81 10000 2.1 220 19:37 01.02.2020
3349 Clear 11 1019 81 10000 2.1 220 19:19 01.02.2020
3350 Clear 11 1018 76 10000 2.1 240 19:19 01.02.2020
3351 Clear 11 1018 76 10000 2.1 240 18:55 01.02.2020
3352 Clear 11 1018 81 10000 2.1 210 18:37 01.02.2020
3353 Clear 11 1018 81 10000 2.1 210 18:19 01.02.2020
3354 Clear 11 1018 87 10000 1 160 17:55 01.02.2020
3355 Clear 11 1018 87 10000 1 0 17:37 01.02.2020
3356 Clear 11 1018 87 10000 1 0 17:18 01.02.2020
3357 Clear 13 1018 76 10000 2.1 210 16:41 01.02.2020
3358 Clear 13 1018 71 10000 2.6 240 16:21 01.02.2020
3359 Clear 13 1018 71 10000 2.6 240 16:21 01.02.2020
3360 Clear 13 1018 76 10000 3.1 240 15:47 01.02.2020
3361 Clear 14 1018 71 10000 3.6 230 15:29 01.02.2020
3362 Clear 13 1018 71 10000 2.6 240 14:59 01.02.2020
3363 Clear 13 1017 76 10000 3.1 230 14:40 01.02.2020
3364 Clouds 14 1017 76 10000 3.1 230 14:20 01.02.2020
3365 Clouds 14 1017 71 10000 4.1 220 13:45 01.02.2020
3366 Clouds 14 1017 76 10000 4.1 220 13:22 01.02.2020
3367 Clouds 14 1017 76 10000 3.6 220 12:48 01.02.2020
3368 Clouds 14 1017 71 10000 5.1 220 12:30 01.02.2020
3369 Clouds 13 1017 76 10000 5.1 210 11:59 01.02.2020
3370 Clouds 13 1018 76 10000 3.6 200 11:39 01.02.2020
3371 Clouds 13 1018 76 10000 3.6 200 11:20 01.02.2020
3372 Clouds 13 1018 76 10000 3.6 200 11:20 01.02.2020
3373 Clouds 12 1018 76 10000 5.1 200 10:57 01.02.2020
3374 Clouds 12 1018 76 10000 5.1 200 10:38 01.02.2020
3375 Clouds 12 1018 76 10000 5.1 200 10:20 01.02.2020
3376 Clouds 12 1018 76 10000 5.1 210 09:58 01.02.2020
3377 Clouds 12 1017 76 10000 5.1 210 09:39 01.02.2020
3378 Clouds 12 1017 76 10000 5.1 210 09:20 01.02.2020
3379 Clouds 11 1017 81 10000 5.1 210 08:45 01.02.2020
3380 Rain 10 1017 76 10000 6.2 210 07:49 01.02.2020
3381 Clouds 10 1017 81 10000 5.7 210 07:27 01.02.2020
3382 Clouds 10 1016 87 10000 4.1 200 06:56 01.02.2020
3383 Clouds 10 1016 87 10000 5.7 210 06:32 01.02.2020
3384 Clouds 10 1016 81 10000 5.7 210 05:52 01.02.2020
3385 Rain 9 1015 81 10000 4.6 210 03:53 01.02.2020
3386 Rain 9 1015 81 10000 4.1 220 03:21 01.02.2020
3387 Clouds 9 1015 71 10000 3.1 220 02:45 01.02.2020
3388 Clouds 9 1014 71 10000 5.7 220 02:26 01.02.2020
3389 Rain 9 1014 66 10000 5.7 220 01:52 01.02.2020
3390 Rain 10 1014 66 10000 6.7 200 01:31 01.02.2020
3391 Drizzle 9 1014 70 10000 7.2 200 00:30 01.02.2020
3392 Clouds 9 1014 70 10000 7.2 210 23:43 31.01.2020
3393 Rain 9 1014 70 10000 8.7 220 23:20 31.01.2020
3394 Clouds 10 1014 76 10000 5.1 200 22:59 31.01.2020
3395 Clouds 10 1014 66 10000 7.7 220 22:40 31.01.2020
3396 Clouds 10 1014 66 10000 7.7 220 22:22 31.01.2020
3397 Rain 10 1013 70 10000 8.7 230 21:56 31.01.2020
3398 Clouds 10 1014 66 10000 8.2 220 21:38 31.01.2020
3399 Clouds 10 1014 66 10000 8.2 220 21:19 31.01.2020
3400 Clouds 9 1015 70 10000 5.7 210 20:56 31.01.2020
3401 Clouds 9 1014 70 10000 9.3 210 20:37 31.01.2020
3402 Clouds 9 1015 70 10000 5.7 220 20:19 31.01.2020
3403 Clouds 9 1016 70 10000 5.1 210 19:56 31.01.2020
3404 Clouds 9 1016 66 10000 6.7 210 19:37 31.01.2020
3405 Clouds 9 1016 66 10000 6.7 210 19:18 31.01.2020
3406 Clouds 9 1016 66 10000 6.7 200 18:41 31.01.2020
3407 Clouds 9 1016 66 10000 5.7 200 18:23 31.01.2020
3408 Clouds 9 1016 66 10000 5.7 190 17:54 31.01.2020
3409 Clouds 9 1016 66 10000 6.2 190 17:36 31.01.2020
3410 Clouds 9 1016 66 10000 6.2 190 17:36 31.01.2020
3411 Clouds 9 1016 66 10000 6.2 190 17:18 31.01.2020
3412 Clouds 9 1017 66 10000 5.7 200 16:54 31.01.2020
3413 Clouds 9 1017 66 10000 5.7 200 16:54 31.01.2020
3414 Clouds 9 1017 66 10000 5.1 200 16:36 31.01.2020
3415 Clouds 9 1017 66 10000 5.1 200 16:18 31.01.2020
3416 Clouds 9 1018 57 10000 6.2 210 15:41 31.01.2020
3417 Clouds 9 1018 57 10000 6.2 210 15:20 31.01.2020
3418 Clouds 9 1018 53 10000 6.2 210 14:55 31.01.2020
3419 Clouds 10 1018 53 10000 6.2 210 14:36 31.01.2020
3420 Clouds 10 1018 53 10000 6.2 210 14:36 31.01.2020
3421 Clear 10 1018 53 10000 6.2 210 14:18 31.01.2020
3422 Clouds 9 1018 52 10000 6.2 210 13:43 31.01.2020
3423 Clouds 9 1018 54 10000 6.2 210 13:24 31.01.2020
3424 Clouds 9 1019 61 10000 5.7 200 12:45 31.01.2020
3425 Clouds 9 1020 61 10000 7.2 230 12:24 31.01.2020
3426 Clouds 9 1020 57 10000 7.2 230 11:56 31.01.2020
3427 Clouds 9 1021 61 10000 6.7 230 11:38 31.01.2020
3428 Clouds 9 1021 61 10000 6.7 230 11:19 31.01.2020
3429 Clouds 9 1021 70 10000 6.7 190 10:55 31.01.2020
3430 Clouds 8 1021 70 10000 6.7 190 10:36 31.01.2020
3431 Clouds 8 1021 70 10000 6.7 190 10:18 31.01.2020
3432 Clear 8 1021 61 10000 5.1 230 09:42 31.01.2020
3433 Clear 7 1021 65 10000 3.1 230 09:21 31.01.2020
3434 Clear 7 1021 70 10000 2.6 210 08:56 31.01.2020
3435 Clear 6 1021 70 10000 1.5 210 08:38 31.01.2020
3436 Clear 5 1021 70 10000 1.5 210 08:19 31.01.2020
3437 Clear 4 1021 62 10000 1 250 07:46 31.01.2020
3438 Clear 3 1021 64 10000 3.1 250 07:19 31.01.2020
3439 Clear 3 1021 74 10000 3.1 250 06:31 31.01.2020
3440 Clear 4 1021 74 10000 3.1 250 05:54 31.01.2020
3441 Clear 4 1021 74 10000 3.1 250 05:54 31.01.2020
3442 Clear 4 1021 69 10000 2.1 270 05:19 31.01.2020
3443 Clear 4 1020 65 10000 2.1 280 03:52 31.01.2020
3444 Clouds 4 1020 69 10000 4.1 340 01:54 31.01.2020
3445 Clouds 4 1020 74 10000 4.1 330 01:29 31.01.2020
3446 Clouds 5 1020 74 10000 3.1 340 00:38 31.01.2020
3447 Clouds 5 1020 74 10000 3.1 340 00:20 31.01.2020
3448 Clouds 5 1020 69 10000 4.1 320 23:40 30.01.2020
3449 Clouds 6 1019 65 10000 4.1 320 23:40 30.01.2020
3450 Clouds 6 1019 65 10000 4.1 320 23:21 30.01.2020
3451 Clouds 6 1019 70 10000 3.1 300 22:38 30.01.2020
3452 Clouds 6 1019 70 10000 3.1 300 22:19 30.01.2020
3453 Rain 6 1018 81 10000 2.1 270 21:58 30.01.2020
3454 Clouds 6 1019 75 10000 3.1 290 21:39 30.01.2020
3455 Clouds 6 1019 75 10000 3.1 290 21:18 30.01.2020
3456 Clouds 7 1019 81 10000 1.5 280 20:55 30.01.2020
3457 Clouds 7 1019 81 10000 1.5 280 20:55 30.01.2020
3458 Clouds 7 1018 81 10000 1.5 290 20:37 30.01.2020
3459 Clouds 7 1018 81 10000 1.5 290 20:18 30.01.2020
3460 Clouds 7 1018 80 10000 2.1 320 19:42 30.01.2020
3461 Clouds 7 1018 80 10000 2.1 320 19:19 30.01.2020
3462 Clouds 8 1017 70 10000 2.6 350 18:43 30.01.2020
3463 Clouds 8 1017 70 10000 2.6 350 18:24 30.01.2020
3464 Clouds 8 1017 70 10000 5.1 360 17:59 30.01.2020
3465 Clouds 8 1016 65 10000 1.5 320 17:40 30.01.2020
3466 Clouds 8 1016 65 10000 1.5 320 17:19 30.01.2020
3467 Clouds 8 1016 70 10000 2.1 270 16:58 30.01.2020
3468 Clouds 8 1016 61 10000 3.1 280 16:39 30.01.2020
3469 Clouds 8 1016 61 10000 3.1 280 16:20 30.01.2020
3470 Clouds 8 1015 65 10000 2.6 320 15:44 30.01.2020
3471 Clouds 8 1015 70 10000 4.1 350 15:21 30.01.2020
3472 Clouds 8 1015 61 10000 5.1 330 14:54 30.01.2020
3473 Clouds 8 1015 66 10000 4.6 350 14:36 30.01.2020
3474 Clouds 8 1015 66 10000 4.6 350 14:18 30.01.2020
3475 Clouds 8 1014 75 10000 4.6 320 13:41 30.01.2020
3476 Clouds 8 1014 70 10000 5.1 340 13:22 30.01.2020
3477 Clouds 8 1014 75 10000 3.1 350 12:55 30.01.2020
3478 Clouds 8 1014 75 10000 3.1 350 12:36 30.01.2020
3479 Clouds 8 1014 75 10000 3.1 350 12:18 30.01.2020
3480 Clouds 7 1014 81 10000 6.7 340 11:40 30.01.2020
3481 Rain 7 1014 81 10000 7.7 330 11:22 30.01.2020
3482 Rain 7 1014 81 10000 9.3 330 10:58 30.01.2020
3483 Clouds 8 1014 87 10000 5.7 310 10:38 30.01.2020
3484 Clouds 8 1014 87 10000 5.7 310 10:19 30.01.2020
3485 Rain 8 1013 87 10000 3.1 250 09:44 30.01.2020
3486 Clouds 8 1014 81 10000 4.6 310 09:24 30.01.2020
3487 Clouds 7 1013 87 10000 1 310 08:42 30.01.2020
3488 Clouds 7 1013 87 10000 1 310 08:22 30.01.2020
3489 Clouds 7 1013 87 10000 1 0 07:57 30.01.2020
3490 Clouds 7 1013 87 10000 2.1 40 07:39 30.01.2020
3491 Clouds 7 1012 87 10000 1 0 06:57 30.01.2020
3492 Clouds 7 1012 87 10000 2.1 0 06:36 30.01.2020
3493 Clouds 7 1012 87 10000 2.1 60 05:59 30.01.2020
3494 Rain 7 1012 87 10000 2.6 40 05:28 30.01.2020
3495 Rain 7 1011 87 10000 3.1 80 04:49 30.01.2020
3496 Rain 7 1012 93 6000 1.5 310 03:47 30.01.2020
3497 Rain 8 1012 81 8000 3.1 50 02:55 30.01.2020
3498 Rain 8 1012 87 10000 5.1 100 01:23 30.01.2020
3499 Rain 9 1013 87 10000 4.1 130 00:30 30.01.2020
3500 Rain 9 1012 81 10000 6.7 210 23:56 29.01.2020
3501 Rain 9 1014 87 10000 0.5 0 23:38 29.01.2020
3502 Rain 9 1014 87 10000 0.5 0 23:20 29.01.2020
3503 Rain 9 1014 87 10000 1.5 170 22:55 29.01.2020
3504 Rain 10 1013 93 10000 1.5 180 22:37 29.01.2020
3505 Rain 10 1013 93 10000 1.5 180 22:18 29.01.2020
3506 Rain 9 1013 93 10000 4.1 220 21:54 29.01.2020
3507 Rain 10 1014 87 10000 4.6 280 21:36 29.01.2020
3508 Rain 10 1014 87 10000 4.6 280 21:18 29.01.2020
3509 Rain 10 1014 87 10000 4.6 280 21:18 29.01.2020
3510 Clouds 10 1013 87 10000 2.1 0 20:40 29.01.2020
3511 Clouds 9 1013 93 10000 3.6 160 20:21 29.01.2020
3512 Clouds 9 1013 93 10000 3.6 160 20:21 29.01.2020
3513 Clouds 10 1013 93 10000 2.6 190 19:58 29.01.2020
3514 Clouds 9 1013 93 10000 1 0 19:38 29.01.2020
3515 Clouds 10 1013 93 10000 1 0 19:20 29.01.2020
3516 Clouds 9 1012 93 10000 2.6 110 18:56 29.01.2020
3517 Clouds 10 1012 87 10000 2.6 110 18:37 29.01.2020
3518 Clouds 10 1012 87 10000 2.6 110 18:18 29.01.2020
3519 Rain 11 1012 87 10000 5.1 40 17:40 29.01.2020
3520 Rain 11 1012 87 10000 5.1 40 17:22 29.01.2020
3521 Rain 11 1011 87 10000 6.7 250 16:43 29.01.2020
3522 Rain 12 1011 81 10000 6.2 220 16:24 29.01.2020
3523 Rain 12 1011 76 10000 4.6 240 15:59 29.01.2020
3524 Rain 13 1010 81 10000 6.2 220 15:38 29.01.2020
3525 Rain 13 1010 81 10000 6.2 220 15:20 29.01.2020
3526 Rain 13 1010 81 10000 6.2 220 15:20 29.01.2020
3527 Clouds 14 1010 71 10000 6.2 220 14:45 29.01.2020
3528 Rain 14 1009 67 10000 8.2 210 14:22 29.01.2020
3529 Clouds 14 1010 71 10000 7.2 210 13:57 29.01.2020
3530 Clouds 14 1010 67 10000 6.2 200 13:39 29.01.2020
3531 Clouds 14 1010 71 10000 5.7 200 13:20 29.01.2020
3532 Clouds 14 1010 71 10000 5.7 200 12:56 29.01.2020
3533 Clouds 14 1010 76 10000 5.1 200 12:37 29.01.2020
3534 Clouds 14 1010 76 10000 5.1 200 12:19 29.01.2020
3535 Clouds 14 1011 76 10000 6.7 200 11:45 29.01.2020
3536 Clouds 13 1011 76 10000 6.7 200 11:22 29.01.2020
3537 Clouds 14 1011 66 10000 8.2 190 10:47 29.01.2020
3538 Clouds 14 1011 66 10000 8.2 190 10:28 29.01.2020
3539 Clouds 12 1011 71 10000 9.8 200 09:59 29.01.2020
3540 Clouds 12 1011 71 10000 9.8 200 09:40 29.01.2020
3541 Clouds 12 1011 71 10000 9.8 200 09:21 29.01.2020
3542 Clouds 12 1011 71 10000 9.3 190 08:56 29.01.2020
3543 Clouds 12 1011 71 10000 9.3 190 08:56 29.01.2020
3544 Clouds 11 1011 76 10000 7.2 180 08:38 29.01.2020
3545 Clouds 11 1011 76 10000 7.2 180 08:18 29.01.2020
3546 Clouds 10 1011 76 10000 6.2 190 07:43 29.01.2020
3547 Clouds 10 1011 76 10000 6.2 190 07:24 29.01.2020
3548 Clouds 10 1012 81 10000 7.2 180 06:39 29.01.2020
3549 Clouds 10 1012 81 10000 7.2 180 06:21 29.01.2020
3550 Clouds 10 1012 81 10000 7.2 180 05:59 29.01.2020
3551 Clouds 10 1012 81 10000 7.2 180 05:39 29.01.2020
3552 Clouds 9 1012 87 10000 6.7 180 05:21 29.01.2020
3553 Clouds 9 1012 87 10000 6.7 190 04:37 29.01.2020
3554 Clouds 9 1013 93 10000 5.1 210 02:43 29.01.2020
3555 Clear 9 1013 93 10000 5.1 200 01:49 29.01.2020
3556 Clear 9 1014 93 10000 3.1 200 00:42 29.01.2020
3557 Clear 8 1014 93 10000 3.1 200 00:23 29.01.2020
3558 Clear 8 1014 93 10000 2.6 150 23:45 28.01.2020
3559 Clouds 8 1014 93 7000 2.1 130 23:21 28.01.2020
3560 Clouds 8 1014 100 6000 2.1 170 22:58 28.01.2020
3561 Clouds 8 1014 100 6000 2.1 170 22:40 28.01.2020
3562 Mist 8 1015 93 4000 1 190 22:21 28.01.2020
3563 Mist 8 1015 100 4000 0.5 0 21:42 28.01.2020
3564 Mist 8 1015 93 4000 1 0 21:22 28.01.2020
3565 Mist 8 1015 100 4000 0.5 0 20:57 28.01.2020
3566 Mist 8 1015 100 4000 2 170 20:39 28.01.2020
3567 Mist 8 1015 100 4000 0.5 0 20:39 28.01.2020
3568 Mist 8 1015 100 4000 2.11 199 20:21 28.01.2020
3569 Clouds 8 1015 100 6000 2.11 199 19:39 28.01.2020
3570 Clouds 8 1015 93 7000 0.5 100 19:20 28.01.2020
3571 Clouds 8 1015 93 8000 1.5 180 18:58 28.01.2020
3572 Clouds 8 1015 100 8000 2.1 170 18:39 28.01.2020
3573 Clouds 8 1015 100 8000 2.1 170 18:21 28.01.2020
3574 Clouds 8 1014 93 8000 3.1 190 17:57 28.01.2020
3575 Clouds 9 1014 100 10000 3.6 170 17:37 28.01.2020
3576 Clouds 9 1014 100 10000 3.6 170 17:19 28.01.2020
3577 Clouds 9 1014 100 10000 3.6 170 17:19 28.01.2020
3578 Clouds 9 1014 100 10000 3.6 170 17:19 28.01.2020
3579 Clouds 10 1014 93 10000 2.1 190 16:46 28.01.2020
3580 Clouds 10 1014 93 10000 3.6 180 16:27 28.01.2020
3581 Clouds 10 1014 93 10000 3.1 190 15:59 28.01.2020
3582 Clouds 10 1014 93 10000 3.1 190 15:41 28.01.2020
3583 Clouds 10 1014 81 10000 3.1 200 15:18 28.01.2020
3584 Clouds 10 1014 81 10000 3.1 200 14:45 28.01.2020
3585 Clouds 11 1014 81 10000 3.6 210 14:20 28.01.2020
3586 Clouds 10 1014 87 10000 3.6 210 13:58 28.01.2020
3587 Clouds 10 1014 87 10000 3.6 210 13:39 28.01.2020
3588 Clouds 10 1014 87 10000 3.6 220 13:20 28.01.2020
3589 Clouds 10 1014 76 10000 2.6 200 12:42 28.01.2020
3590 Clouds 10 1014 81 10000 2.1 230 12:42 28.01.2020
3591 Clouds 10 1014 81 10000 2.1 230 12:22 28.01.2020
3592 Clouds 10 1015 76 10000 1.5 220 11:48 28.01.2020
3593 Clouds 9 1015 93 10000 2.1 280 11:23 28.01.2020
3594 Clouds 9 1015 87 10000 2.1 320 10:58 28.01.2020
3595 Clouds 9 1015 87 10000 3.6 360 10:39 28.01.2020
3596 Clouds 9 1015 87 10000 3.6 360 10:20 28.01.2020
3597 Clouds 9 1015 87 7000 3.6 350 09:43 28.01.2020
3598 Clouds 9 1015 87 7000 3.6 350 09:21 28.01.2020
3599 Clouds 9 1015 87 7000 3.6 350 08:57 28.01.2020
3600 Clouds 9 1014 93 7000 5.7 350 08:39 28.01.2020
3601 Clouds 9 1014 93 7000 5.7 350 08:18 28.01.2020
3602 Rain 9 1013 93 5000 9.3 350 07:37 28.01.2020
3603 Rain 9 1013 100 4000 6.7 210 06:50 28.01.2020
3604 Rain 10 1013 93 6000 6.7 200 06:26 28.01.2020
3605 Clouds 10 1013 87 10000 6.7 200 05:54 28.01.2020
3606 Clouds 10 1013 93 10000 5.1 200 05:26 28.01.2020
3607 Rain 10 1013 87 8000 4.6 220 03:59 28.01.2020
3608 Rain 10 1013 93 7000 6.2 190 02:58 28.01.2020
3609 Rain 10 1013 93 7000 5.1 170 02:25 28.01.2020
3610 Rain 11 1014 93 7000 3.1 170 01:57 28.01.2020
3611 Rain 10 1014 93 7000 2.1 160 01:23 28.01.2020
3612 Rain 10 1014 93 7000 1.5 170 00:45 28.01.2020
3613 Rain 11 1014 87 10000 2.6 170 00:24 28.01.2020
3614 Clouds 11 1014 87 10000 2.1 220 23:48 27.01.2020
3615 Rain 11 1014 58 10000 2.1 250 23:29 27.01.2020
3616 Rain 11 1015 87 10000 1.5 360 22:54 27.01.2020
3617 Rain 11 1015 87 10000 2.6 340 22:36 27.01.2020
3618 Rain 12 1015 76 10000 1 0 22:18 27.01.2020
3619 Clouds 12 1015 76 10000 2.6 80 21:40 27.01.2020
3620 Clouds 12 1015 76 10000 2.6 80 21:19 27.01.2020
3621 Clouds 12 1015 76 10000 1 0 20:59 27.01.2020
3622 Clouds 12 1015 76 10000 1 0 20:40 27.01.2020
3623 Clouds 12 1015 76 10000 2.1 110 20:21 27.01.2020
3624 Clouds 12 1015 76 10000 3.1 110 19:58 27.01.2020
3625 Rain 12 1016 76 10000 2.1 110 19:40 27.01.2020
3626 Rain 12 1016 76 10000 2.1 110 19:21 27.01.2020
3627 Clouds 13 1016 71 10000 2.6 90 18:55 27.01.2020
3628 Clouds 12 1016 71 10000 2.6 90 18:37 27.01.2020
3629 Clouds 13 1016 71 10000 2.6 90 18:19 27.01.2020
3630 Clouds 13 1016 71 10000 2.6 100 17:39 27.01.2020
3631 Clouds 13 1016 71 10000 2.1 100 17:19 27.01.2020
3632 Clouds 13 1016 71 10000 2.1 100 16:57 27.01.2020
3633 Clouds 13 1016 66 10000 2.1 110 16:39 27.01.2020
3634 Clouds 13 1016 66 10000 2.1 110 16:21 27.01.2020
3635 Clouds 14 1017 62 10000 2.1 100 15:54 27.01.2020
3636 Clouds 14 1017 62 10000 2.1 100 15:36 27.01.2020
3637 Clouds 14 1017 62 10000 2.1 100 15:18 27.01.2020
3638 Clouds 14 1017 66 10000 2.6 110 14:40 27.01.2020
3639 Clouds 14 1017 66 10000 2.6 110 14:21 27.01.2020
3640 Clouds 14 1018 58 10000 3.1 110 13:54 27.01.2020
3641 Clouds 14 1018 66 10000 2.6 100 13:36 27.01.2020
3642 Clouds 13 1018 66 10000 2.1 90 13:18 27.01.2020
3643 Rain 13 1019 76 10000 1.5 240 12:41 27.01.2020
3644 Rain 13 1019 76 10000 1.5 240 12:22 27.01.2020
3645 Rain 12 1020 76 10000 1.5 200 11:43 27.01.2020
3646 Rain 12 1020 76 10000 1.5 200 11:22 27.01.2020
3647 Rain 12 1020 81 10000 1 90 10:57 27.01.2020
3648 Clouds 12 1020 66 10000 6.2 200 10:39 27.01.2020
3649 Clouds 12 1020 66 10000 6.2 200 10:20 27.01.2020
3650 Clouds 12 1021 71 10000 1.5 90 09:40 27.01.2020
3651 Clouds 11 1021 71 10000 1.5 90 09:19 27.01.2020
3652 Clouds 11 1021 71 10000 1.5 110 08:56 27.01.2020
3653 Clouds 11 1021 76 10000 2.6 120 08:38 27.01.2020
3654 Clouds 11 1021 76 10000 2.6 120 08:18 27.01.2020
3655 Clouds 10 1021 76 10000 3.1 100 07:46 27.01.2020
3656 Clouds 10 1021 76 10000 3.1 100 07:26 27.01.2020
3657 Clouds 10 1021 71 10000 3.1 110 06:38 27.01.2020
3658 Clouds 10 1021 71 10000 1.5 90 05:45 27.01.2020
3659 Clouds 10 1022 76 10000 2.1 80 04:37 27.01.2020
3660 Clouds 9 1022 81 10000 1 0 03:35 27.01.2020
3661 Clouds 9 1023 81 10000 2.1 110 01:55 27.01.2020
3662 Clouds 9 1023 81 10000 2.1 120 01:27 27.01.2020
3663 Clouds 9 1023 76 10000 2.1 140 00:41 27.01.2020
3664 Clouds 9 1024 76 10000 2.6 140 00:21 27.01.2020
3665 Clouds 9 1024 66 10000 3.1 170 23:44 26.01.2020
3666 Clouds 10 1024 71 10000 3.6 180 23:26 26.01.2020
3667 Clouds 10 1024 81 10000 1 0 22:59 26.01.2020
3668 Clouds 10 1024 81 10000 1 80 22:38 26.01.2020
3669 Clouds 10 1024 81 10000 1 80 22:20 26.01.2020
3670 Clouds 10 1025 81 10000 1.5 150 21:58 26.01.2020
3671 Clouds 10 1025 76 10000 1.5 120 21:39 26.01.2020
3672 Clouds 10 1025 76 10000 1.5 120 21:21 26.01.2020
3673 Clouds 10 1025 76 10000 1.5 120 21:21 26.01.2020
3674 Clouds 10 1025 76 10000 1.5 170 20:58 26.01.2020
3675 Clouds 10 1025 76 10000 2.1 190 20:38 26.01.2020
3676 Clouds 10 1025 76 10000 1.5 170 20:38 26.01.2020
3677 Clouds 10 1025 76 10000 1.5 170 20:38 26.01.2020
3678 Clouds 10 1025 76 10000 2.1 190 20:19 26.01.2020
3679 Clouds 9 1025 81 10000 1.76 184 19:58 26.01.2020
3680 Clouds 9 1025 81 10000 1.76 184 19:38 26.01.2020
3681 Clouds 9 1025 81 10000 1.76 184 19:38 26.01.2020
3682 Clouds 10 1025 76 10000 0.5 0 19:20 26.01.2020
3683 Clouds 10 1025 76 10000 1.76 184 18:56 26.01.2020
3684 Clouds 11 1025 76 10000 1.5 190 18:38 26.01.2020
3685 Clouds 10 1025 76 10000 1.5 190 18:20 26.01.2020
3686 Clouds 11 1025 81 10000 2.1 180 17:55 26.01.2020
3687 Clouds 11 1025 76 10000 2.6 170 17:36 26.01.2020
3688 Clouds 11 1025 76 10000 2.6 170 17:18 26.01.2020
3689 Clouds 11 1025 81 10000 2.1 210 16:55 26.01.2020
3690 Clouds 11 1025 81 10000 2.1 210 16:55 26.01.2020
3691 Clouds 12 1025 76 10000 2.1 200 16:37 26.01.2020
3692 Clouds 12 1025 76 10000 2.1 200 16:18 26.01.2020
3693 Clouds 13 1031 75 0 2.74 238 15:43 26.01.2020
3694 Clouds 14 1031 73 0 2.74 238 15:21 26.01.2020
3695 Clouds 14 1032 72 0 2.74 238 14:56 26.01.2020
3696 Clouds 14 1032 71 0 2.74 238 14:38 26.01.2020
3697 Clouds 14 1031 71 0 4.56 242 14:18 26.01.2020
3698 Clouds 14 1031 70 0 3.45 230 13:39 26.01.2020
3699 Clouds 14 1031 70 0 3.45 230 13:18 26.01.2020
3700 Clouds 14 1032 69 0 3.45 230 12:54 26.01.2020
3701 Clouds 15 1032 70 0 3.45 230 12:36 26.01.2020
3702 Clouds 14 1032 70 0 3.45 230 12:18 26.01.2020
3703 Clouds 14 1032 71 0 3.45 230 11:56 26.01.2020
3704 Clouds 14 1032 71 0 3.45 230 11:36 26.01.2020
3705 Clouds 12 1026 76 10000 5.7 190 11:18 26.01.2020
3706 Clouds 12 1026 76 10000 5.7 190 10:39 26.01.2020
3707 Clouds 12 1026 76 10000 5.7 190 10:21 26.01.2020
3708 Clouds 12 1026 71 10000 5.7 210 09:59 26.01.2020
3709 Clouds 11 1026 76 10000 5.7 210 09:41 26.01.2020
3710 Clouds 11 1026 76 10000 5.7 210 09:22 26.01.2020
3711 Clouds 10 1026 76 10000 5.1 210 08:45 26.01.2020
3712 Clouds 9 1026 76 10000 5.1 210 08:24 26.01.2020
3713 Clouds 9 1026 76 10000 3.6 240 07:59 26.01.2020
3714 Clouds 9 1026 76 10000 3.6 230 07:41 26.01.2020
3715 Clouds 8 1026 76 10000 3.6 230 07:22 26.01.2020
3716 Clouds 8 1026 71 10000 4.1 230 06:32 26.01.2020
3717 Clouds 8 1025 81 10000 4.1 210 05:35 26.01.2020
3718 Clouds 8 1025 76 10000 4.6 210 04:52 26.01.2020
3719 Clouds 8 1025 71 10000 6.2 200 02:59 26.01.2020
3720 Clouds 8 1025 71 10000 6.2 200 02:59 26.01.2020
3721 Clouds 8 1025 70 10000 6.7 200 01:59 26.01.2020
3722 Clouds 8 1025 66 10000 7.7 190 01:38 26.01.2020
3723 Clouds 8 1025 66 10000 7.7 190 01:19 26.01.2020
3724 Clouds 8 1026 70 10000 6.2 190 00:39 26.01.2020
3725 Clouds 8 1026 81 10000 5.1 190 00:20 26.01.2020
3726 Clouds 8 1026 81 10000 5.1 190 00:20 26.01.2020
3727 Clouds 8 1026 81 10000 5.1 190 00:20 26.01.2020
3728 Clouds 8 1033 88 0 3.92 204 23:37 25.01.2020
3729 Clouds 7 1033 89 0 3.69 217 23:19 25.01.2020
3730 Clouds 8 1033 88 0 3.69 217 22:43 25.01.2020
3731 Clouds 7 1033 87 0 3.69 217 22:43 25.01.2020
3732 Clouds 7 1033 86 0 3.69 217 22:20 25.01.2020
3733 Clouds 7 1033 84 0 3.69 217 21:57 25.01.2020
3734 Clouds 8 1033 84 0 3.69 217 21:39 25.01.2020
3735 Clouds 8 1033 83 0 3.69 217 21:21 25.01.2020
3736 Clouds 8 1027 69 0 3.69 217 20:45 25.01.2020
3737 Clear 8 1033 83 0 3.22 237 20:26 25.01.2020
3738 Clear 8 1033 83 0 3.22 237 20:26 25.01.2020
3739 Clear 8 1026 64 0 3.22 237 19:57 25.01.2020
3740 Clear 8 1033 81 0 3.22 237 19:38 25.01.2020
3741 Clear 9 1033 81 0 3.22 237 19:19 25.01.2020
3742 Clear 9 1033 83 0 3.04 236 18:55 25.01.2020
3743 Clear 9 1033 82 0 3.22 237 18:37 25.01.2020
3744 Clear 9 1033 81 0 3.22 237 18:18 25.01.2020
3745 Clear 9 1033 81 0 3.22 237 18:18 25.01.2020
3746 Clear 9 1032 80 0 3.22 237 17:39 25.01.2020
3747 Clear 9 1032 79 0 4.85 248 17:19 25.01.2020
3748 Clear 9 1032 79 0 4.85 248 16:56 25.01.2020
3749 Clear 10 1032 78 0 4.85 248 16:37 25.01.2020
3750 Clear 10 1032 77 0 4.85 248 16:18 25.01.2020
3751 Clear 11 1032 75 0 4.85 248 15:42 25.01.2020
3752 Clear 11 1032 73 0 4.85 248 15:23 25.01.2020
3753 Clear 11 1032 71 0 4.85 248 14:47 25.01.2020
3754 Clear 12 1032 69 0 6.27 233 14:20 25.01.2020
3755 Clear 12 1032 67 0 6.27 233 13:57 25.01.2020
3756 Clear 12 1032 67 0 6.27 233 13:39 25.01.2020
3757 Clear 12 1032 66 0 6 232 13:20 25.01.2020
3758 Clear 11 1027 47 10000 6.2 200 12:43 25.01.2020
3759 Clear 11 1027 47 10000 6.2 200 12:21 25.01.2020
3760 Clear 10 1027 47 10000 6.7 200 11:45 25.01.2020
3761 Clear 10 1027 47 10000 6.7 200 11:21 25.01.2020
3762 Clear 10 1028 47 10000 6.7 210 10:57 25.01.2020
3763 Clear 10 1028 57 10000 6.7 200 10:39 25.01.2020
3764 Clear 9 1028 57 10000 6.7 200 10:20 25.01.2020
3765 Clear 9 1028 47 10000 8.2 200 09:41 25.01.2020
3766 Clear 8 1028 47 10000 7.7 200 09:22 25.01.2020
3767 Clear 7 1028 61 10000 8.2 200 08:44 25.01.2020
3768 Clear 6 1028 56 10000 7.7 200 08:21 25.01.2020
3769 Clear 6 1027 56 10000 7.7 200 07:43 25.01.2020
3770 Clear 5 1027 58 10000 6.7 200 06:51 25.01.2020
3771 Clear 5 1027 60 10000 6.7 200 06:27 25.01.2020
3772 Clear 5 1027 60 10000 7.2 200 05:45 25.01.2020
3773 Clear 5 1027 58 10000 7.2 190 04:26 25.01.2020
3774 Clear 5 1027 58 10000 6.7 200 03:50 25.01.2020
3775 Clear 4 1028 60 10000 7.7 200 02:54 25.01.2020
3776 Clear 4 1028 70 10000 6.7 200 01:59 25.01.2020
3777 Clear 4 1028 70 10000 7.2 200 01:37 25.01.2020
3778 Clear 4 1029 75 10000 5.7 200 00:43 25.01.2020
3779 Clear 4 1029 75 10000 5.7 200 00:24 25.01.2020
3780 Clear 4 1029 62 10000 4.6 200 23:57 24.01.2020
3781 Clear 4 1030 62 10000 4.1 190 23:38 24.01.2020
3782 Clear 4 1030 58 10000 4.1 190 23:20 24.01.2020
3783 Clear 4 1030 60 10000 3.6 200 22:42 24.01.2020
3784 Clear 4 1030 60 10000 3.6 200 22:24 24.01.2020
3785 Clear 4 1031 65 10000 3.1 210 21:43 24.01.2020
3786 Clear 3 1031 60 10000 2.6 190 21:20 24.01.2020
3787 Clear 3 1031 60 10000 2.6 190 21:20 24.01.2020
3788 Clear 4 1031 69 10000 0.5 0 20:56 24.01.2020
3789 Clear 4 1031 69 10000 2.28 187 20:38 24.01.2020
3790 Clear 4 1031 69 10000 1.39 183 20:19 24.01.2020
3791 Clear 4 1031 69 10000 0.5 130 19:56 24.01.2020
3792 Clear 4 1031 69 10000 1 270 19:38 24.01.2020
3793 Clear 4 1031 69 10000 1 270 19:20 24.01.2020
3794 Clear 5 1031 60 10000 1.5 290 18:43 24.01.2020
3795 Clear 5 1031 60 10000 1.5 290 18:43 24.01.2020
3796 Clear 5 1031 60 10000 1.5 290 18:23 24.01.2020
3797 Clear 6 1031 52 10000 2.1 290 17:46 24.01.2020
3798 Clear 6 1031 56 10000 2.1 270 17:23 24.01.2020
3799 Clear 6 1031 56 10000 2.6 260 16:58 24.01.2020
3800 Clear 7 1031 52 10000 3.1 240 16:39 24.01.2020
3801 Clear 7 1032 48 10000 3.6 240 16:20 24.01.2020
3802 Clear 8 1032 48 10000 3.6 240 15:43 24.01.2020
3803 Clear 8 1032 45 10000 3.1 210 15:22 24.01.2020
3804 Clear 8 1032 45 10000 3.1 210 15:22 24.01.2020
3805 Clear 8 1032 42 10000 3.1 170 14:56 24.01.2020
3806 Clouds 8 1032 49 10000 4.1 180 14:38 24.01.2020
3807 Clouds 8 1032 49 10000 4.1 180 14:19 24.01.2020
3808 Clouds 8 1032 45 10000 4.1 180 13:42 24.01.2020
3809 Clouds 8 1033 52 10000 4.6 170 13:22 24.01.2020
3810 Clouds 8 1033 52 10000 4.6 170 13:22 24.01.2020
3811 Clouds 8 1033 49 10000 4.1 140 12:44 24.01.2020
3812 Clouds 8 1033 49 10000 4.1 140 12:44 24.01.2020
3813 Clouds 7 1033 49 10000 4.1 140 12:21 24.01.2020
3814 Clouds 8 1034 49 10000 4.1 130 11:45 24.01.2020
3815 Clouds 8 1034 45 10000 1 0 11:19 24.01.2020
3816 Clouds 7 1034 52 10000 1 0 10:58 24.01.2020
3817 Clear 7 1034 52 10000 2.6 350 10:40 24.01.2020
3818 Clear 7 1034 52 10000 2.6 350 10:19 24.01.2020
3819 Clear 7 1034 52 10000 2.6 350 10:19 24.01.2020
3820 Clear 7 1034 65 10000 4.1 350 09:42 24.01.2020
3821 Clear 6 1034 65 10000 4.1 350 09:23 24.01.2020
3822 Clear 5 1034 51 10000 4.6 340 08:41 24.01.2020
3823 Clouds 5 1034 57 10000 4.6 340 08:21 24.01.2020
3824 Clouds 4 1034 57 10000 4.1 340 08:00 24.01.2020
3825 Clouds 4 1034 57 10000 4.1 340 07:41 24.01.2020
3826 Clouds 3 1034 80 10000 3.6 330 07:18 24.01.2020
3827 Clouds 3 1033 74 10000 4.6 340 06:42 24.01.2020
3828 Clouds 3 1033 69 10000 4.1 330 06:18 24.01.2020
3829 Clouds 4 1032 64 10000 2.6 330 05:20 24.01.2020
3830 Clouds 4 1032 69 10000 4.1 350 02:56 24.01.2020
3831 Clouds 5 1032 74 10000 3.6 350 02:38 24.01.2020
3832 Clouds 5 1032 74 10000 3.6 350 02:18 24.01.2020
3833 Clouds 5 1033 74 10000 3.6 340 01:37 24.01.2020
3834 Clouds 5 1033 69 10000 3.6 310 00:40 24.01.2020
3835 Rain 6 1032 62 10000 2.85 28 00:18 24.01.2020
3836 Clouds 6 1032 60 10000 2.1 300 23:41 23.01.2020
3837 Clouds 6 1033 56 10000 3.6 300 23:21 23.01.2020
3838 Clouds 6 1032 60 10000 3.1 310 22:58 23.01.2020
3839 Clouds 6 1032 52 10000 2.6 30 22:36 23.01.2020
3840 Clouds 6 1032 52 10000 2.6 30 22:18 23.01.2020
3841 Clouds 6 1032 52 10000 2.6 40 21:55 23.01.2020
3842 Clouds 7 1032 52 10000 3.6 40 21:37 23.01.2020
3843 Clouds 6 1032 56 10000 2.6 50 21:18 23.01.2020
3844 Clouds 6 1032 60 10000 3.1 20 20:41 23.01.2020
3845 Clouds 6 1032 60 10000 3.1 20 20:22 23.01.2020
3846 Clouds 6 1032 60 10000 3.1 10 19:57 23.01.2020
3847 Clouds 6 1032 60 10000 3.1 10 19:39 23.01.2020
3848 Clouds 6 1032 48 10000 4.1 20 19:20 23.01.2020
3849 Clouds 6 1031 45 10000 5.1 10 18:56 23.01.2020
3850 Clouds 6 1031 45 10000 6.2 10 18:37 23.01.2020
3851 Clouds 6 1031 45 10000 6.2 10 18:19 23.01.2020
3852 Clouds 6 1031 45 10000 6.7 10 17:44 23.01.2020
3853 Clouds 6 1031 45 10000 6.7 10 17:21 23.01.2020
3854 Clouds 6 1031 41 10000 7.2 20 16:58 23.01.2020
3855 Snow 6 1030 56 10000 5.7 10 16:38 23.01.2020
3856 Snow 6 1030 56 10000 5.7 10 16:19 23.01.2020
3857 Snow 7 1029 48 10000 6.2 360 15:57 23.01.2020
3858 Clouds 7 1030 45 10000 9.8 360 15:38 23.01.2020
3859 Clouds 7 1030 45 10000 9.8 360 15:19 23.01.2020
3860 Clouds 7 1029 48 10000 9.3 360 14:57 23.01.2020
3861 Clouds 7 1029 48 10000 10.3 360 14:39 23.01.2020
3862 Clouds 7 1029 48 10000 10.3 360 14:21 23.01.2020
3863 Rain 7 1027 60 10000 7.7 20 13:45 23.01.2020
3864 Rain 6 1027 60 10000 7.7 20 13:21 23.01.2020
3865 Clouds 7 1028 48 10000 12.3 350 12:56 23.01.2020
3866 Clouds 7 1028 52 10000 10.8 350 12:38 23.01.2020
3867 Clouds 7 1028 52 10000 10.8 350 12:20 23.01.2020
3868 Clouds 7 1028 52 10000 9.8 360 11:43 23.01.2020
3869 Clouds 7 1028 52 10000 9.8 360 11:24 23.01.2020
3870 Clouds 7 1028 52 10000 8.7 360 10:58 23.01.2020
3871 Clouds 7 1028 52 10000 8.7 360 10:40 23.01.2020
3872 Clouds 7 1028 52 10000 8.7 360 10:19 23.01.2020
3873 Clouds 7 1028 63 10000 7.7 350 09:41 23.01.2020
3874 Clouds 7 1027 63 10000 7.7 350 09:22 23.01.2020
3875 Clouds 7 1026 65 10000 8.2 360 08:56 23.01.2020
3876 Clouds 7 1026 65 10000 7.2 360 08:38 23.01.2020
3877 Clouds 7 1026 65 10000 7.2 360 08:19 23.01.2020
3878 Clouds 7 1024 70 10000 8.2 350 07:39 23.01.2020
3879 Clouds 7 1024 70 10000 8.2 350 07:18 23.01.2020
3880 Clouds 7 1023 70 10000 8.2 360 06:44 23.01.2020
3881 Clouds 7 1023 75 10000 5.1 340 06:18 23.01.2020
3882 Clouds 7 1021 81 10000 6.7 260 04:25 23.01.2020
3883 Clouds 7 1020 75 10000 7.2 240 03:36 23.01.2020
3884 Clouds 6 1021 70 10000 7.2 230 01:55 23.01.2020
3885 Clouds 6 1021 75 10000 8.2 240 00:44 23.01.2020
3886 Clouds 6 1021 75 10000 7.7 230 00:24 23.01.2020
3887 Clouds 6 1022 81 10000 6.7 230 23:46 22.01.2020
3888 Clouds 6 1022 75 10000 6.7 230 23:28 22.01.2020
3889 Clouds 6 1023 75 10000 6.7 230 22:43 22.01.2020
3890 Clouds 6 1023 75 10000 6.7 230 22:25 22.01.2020
3891 Clouds 6 1023 75 10000 7.2 220 21:59 22.01.2020
3892 Clouds 6 1023 75 10000 6.2 220 21:38 22.01.2020
3893 Clouds 6 1023 75 10000 6.2 220 21:19 22.01.2020
3894 Clouds 6 1024 75 10000 5.7 220 20:42 22.01.2020
3895 Clouds 6 1024 75 10000 5.7 220 20:42 22.01.2020
3896 Clouds 6 1024 75 10000 5.7 220 20:23 22.01.2020
3897 Clouds 6 1024 81 10000 5.1 220 19:59 22.01.2020
3898 Clouds 5 1024 81 10000 5.7 220 19:41 22.01.2020
3899 Clouds 5 1024 81 10000 5.7 220 19:21 22.01.2020
3900 Clouds 5 1025 81 10000 5.1 220 18:59 22.01.2020
3901 Clouds 5 1025 81 10000 5.1 220 18:40 22.01.2020
3902 Clouds 5 1025 81 10000 5.1 220 18:21 22.01.2020
3903 Clouds 5 1025 75 10000 5.1 220 17:57 22.01.2020
3904 Clouds 6 1026 70 10000 4.1 220 17:39 22.01.2020
3905 Clouds 6 1026 70 10000 4.1 220 17:20 22.01.2020
3906 Clouds 5 1026 75 10000 3.1 220 16:55 22.01.2020
3907 Clouds 5 1026 75 10000 3.1 220 16:55 22.01.2020
3908 Clouds 6 1027 70 10000 4.1 260 16:37 22.01.2020
3909 Clouds 6 1027 70 10000 4.1 260 16:18 22.01.2020
3910 Clouds 7 1027 70 10000 5.1 250 15:41 22.01.2020
3911 Clouds 7 1027 70 10000 5.1 250 15:23 22.01.2020
3912 Clouds 7 1027 70 10000 5.1 240 14:58 22.01.2020
3913 Clouds 8 1028 70 10000 5.1 250 14:37 22.01.2020
3914 Clear 7 1028 70 10000 5.1 250 14:19 22.01.2020
3915 Clear 8 1028 65 10000 4.6 240 13:56 22.01.2020
3916 Clear 8 1028 65 10000 4.6 240 13:56 22.01.2020
3917 Clear 8 1028 65 10000 4.6 240 13:56 22.01.2020
3918 Clear 8 1029 65 10000 4.6 230 13:37 22.01.2020
3919 Clear 8 1029 65 10000 4.6 230 13:19 22.01.2020
3920 Clear 7 1029 70 10000 4.1 230 12:56 22.01.2020
3921 Clear 7 1030 70 10000 4.6 230 12:38 22.01.2020
3922 Clear 7 1030 70 10000 4.6 230 12:18 22.01.2020
3923 Clear 7 1030 63 10000 4.6 220 11:56 22.01.2020
3924 Clear 7 1031 63 10000 4.1 230 11:38 22.01.2020
3925 Clear 6 1031 65 10000 4.1 230 11:19 22.01.2020
3926 Clear 6 1032 65 10000 4.1 230 10:44 22.01.2020
3927 Clear 6 1032 65 10000 3.6 240 10:21 22.01.2020
3928 Clear 5 1033 65 10000 2.1 240 09:45 22.01.2020
3929 Clear 5 1033 65 10000 2.1 240 09:26 22.01.2020
3930 Clear 4 1033 64 10000 1.5 360 08:59 22.01.2020
3931 Clear 3 1033 80 10000 1.5 340 08:40 22.01.2020
3932 Clear 3 1033 80 10000 1.5 340 08:21 22.01.2020
3933 Clear 2 1033 80 10000 2.1 360 07:59 22.01.2020
3934 Clear 1 1033 80 10000 2.1 360 07:40 22.01.2020
3935 Clear 0 1033 86 10000 2.6 330 07:21 22.01.2020
3936 Clear 0 1033 86 10000 3.1 350 06:31 22.01.2020
3937 Clear 0 1033 86 10000 2.6 360 05:42 22.01.2020
3938 Clear 0 1034 86 10000 3.6 340 04:23 22.01.2020
3939 Clear 1 1034 86 10000 3.1 340 03:26 22.01.2020
3940 Clear 1 1034 71 10000 3.1 340 02:32 22.01.2020
3941 Clouds 2 1035 80 10000 3.1 320 00:46 22.01.2020
3942 Clouds 2 1035 80 10000 2.6 320 00:27 22.01.2020
3943 Clouds 2 1036 80 10000 2.6 350 23:55 21.01.2020
3944 Clouds 2 1036 80 10000 3.1 360 23:36 21.01.2020
3945 Clouds 3 1036 86 10000 3.6 340 23:18 21.01.2020
3946 Clouds 3 1036 86 10000 3.6 340 22:39 21.01.2020
3947 Clouds 3 1036 80 10000 3.6 330 22:20 21.01.2020
3948 Clouds 3 1036 80 10000 3.6 330 22:20 21.01.2020
3949 Clouds 4 1037 74 10000 4.1 320 21:56 21.01.2020
3950 Clouds 4 1037 69 10000 2.6 320 21:38 21.01.2020
3951 Clouds 4 1037 69 10000 2.1 320 21:19 21.01.2020
3952 Clouds 4 1037 69 10000 2.1 320 20:56 21.01.2020
3953 Clouds 4 1037 69 10000 2.1 320 20:37 21.01.2020
3954 Clouds 4 1037 69 10000 2.1 320 20:18 21.01.2020
3955 Clouds 4 1037 64 10000 3.1 350 19:56 21.01.2020
3956 Clouds 4 1037 64 10000 3.6 350 19:37 21.01.2020
3957 Clouds 4 1037 64 10000 3.6 350 19:37 21.01.2020
3958 Clouds 5 1037 64 10000 3.6 350 19:19 21.01.2020
3959 Clouds 5 1038 64 10000 3.1 350 18:55 21.01.2020
3960 Clouds 5 1038 64 10000 5.1 350 18:36 21.01.2020
3961 Clouds 5 1038 64 10000 5.1 350 18:18 21.01.2020
3962 Clouds 5 1038 69 10000 3.6 350 17:43 21.01.2020
3963 Clouds 5 1038 69 10000 3.6 350 17:20 21.01.2020
3964 Clouds 5 1038 69 10000 3.1 330 16:58 21.01.2020
3965 Clouds 5 1038 64 10000 3.6 340 16:37 21.01.2020
3966 Clouds 5 1038 64 10000 3.6 340 16:18 21.01.2020
3967 Clouds 5 1038 69 10000 5.7 350 15:41 21.01.2020
3968 Clouds 5 1038 69 10000 5.7 350 15:21 21.01.2020
3969 Clouds 5 1038 60 10000 6.7 350 14:58 21.01.2020
3970 Clouds 5 1038 60 10000 6.2 340 14:37 21.01.2020
3971 Clouds 5 1038 60 10000 6.2 340 14:19 21.01.2020
3972 Clouds 5 1039 64 10000 6.2 340 13:39 21.01.2020
3973 Clouds 5 1039 64 10000 6.2 340 13:19 21.01.2020
3974 Clouds 4 1039 69 10000 5.1 330 12:43 21.01.2020
3975 Clouds 4 1039 69 10000 5.1 330 12:25 21.01.2020
3976 Clouds 4 1039 69 10000 4.6 330 11:57 21.01.2020
3977 Clouds 4 1039 69 10000 4.6 330 11:38 21.01.2020
3978 Clouds 4 1039 69 10000 4.6 330 11:20 21.01.2020
3979 Clouds 4 1040 64 10000 4.6 340 10:44 21.01.2020
3980 Clouds 4 1040 69 10000 6.2 340 10:24 21.01.2020
3981 Clouds 4 1040 69 10000 6.2 340 09:59 21.01.2020
3982 Clouds 4 1040 69 10000 6.2 340 09:41 21.01.2020
3983 Clouds 4 1040 69 10000 6.7 350 09:22 21.01.2020
3984 Clouds 4 1040 74 10000 5.7 330 08:48 21.01.2020
3985 Clouds 4 1040 74 10000 4.6 340 08:29 21.01.2020
3986 Rain 4 1039 87 10000 4.1 330 07:57 21.01.2020
3987 Clouds 4 1040 69 10000 6.2 340 07:38 21.01.2020
3988 Clouds 4 1040 69 10000 6.2 340 07:20 21.01.2020
3989 Clouds 4 1040 69 10000 6.7 340 06:45 21.01.2020
3990 Clouds 4 1040 69 10000 7.2 350 06:23 21.01.2020
3991 Clouds 4 1040 69 10000 8.2 350 05:41 21.01.2020
3992 Clouds 4 1040 64 10000 6.2 350 04:39 21.01.2020
3993 Clouds 4 1040 64 10000 6.2 350 02:55 21.01.2020
3994 Clouds 4 1040 64 10000 7.2 350 01:47 21.01.2020
3995 Clouds 4 1040 64 10000 6.2 20 00:54 21.01.2020
3996 Clouds 4 1040 69 10000 8.7 350 00:32 21.01.2020
3997 Clouds 4 1040 64 10000 8.2 350 23:57 20.01.2020
3998 Clouds 4 1040 69 10000 8.7 340 23:37 20.01.2020
3999 Clouds 4 1040 69 10000 8.7 340 23:18 20.01.2020
4000 Clouds 4 1041 69 10000 6.2 360 22:56 20.01.2020
4001 Clouds 4 1040 73 10000 6.2 350 22:37 20.01.2020
4002 Clouds 4 1040 73 10000 6.2 350 22:18 20.01.2020
4003 Clouds 4 1040 73 10000 9.8 340 21:57 20.01.2020
4004 Clouds 4 1040 74 10000 7.2 350 21:36 20.01.2020
4005 Clouds 4 1040 74 10000 7.2 350 21:18 20.01.2020
4006 Rain 4 1040 73 10000 10.3 10 20:55 20.01.2020
4007 Clouds 4 1039 64 10000 11.3 340 20:36 20.01.2020
4008 Clouds 4 1039 64 10000 11.3 340 20:18 20.01.2020
4009 Clouds 4 1040 64 10000 10.8 360 19:56 20.01.2020
4010 Clouds 4 1039 69 10000 10.3 350 19:37 20.01.2020
4011 Clouds 4 1039 69 10000 10.3 350 19:18 20.01.2020
4012 Clouds 4 1039 69 10000 9.3 360 18:42 20.01.2020
4013 Clouds 4 1038 69 10000 9.3 350 18:21 20.01.2020
4014 Clouds 5 1038 73 10000 9.8 350 17:39 20.01.2020
4015 Clouds 5 1038 76 10000 9.8 350 17:19 20.01.2020
4016 Clouds 5 1038 76 10000 11.3 350 16:55 20.01.2020
4017 Clouds 5 1037 76 10000 11.3 350 16:36 20.01.2020
4018 Clouds 5 1037 76 10000 11.3 350 16:18 20.01.2020
4019 Clouds 6 1037 75 10000 11.8 360 15:41 20.01.2020
4020 Clouds 6 1037 75 10000 11.8 360 15:22 20.01.2020
4021 Clouds 6 1037 80 10000 9.8 350 14:59 20.01.2020
4022 Rain 6 1037 86 8000 10.3 350 14:40 20.01.2020
4023 Rain 6 1037 86 8000 10.3 350 14:21 20.01.2020
4024 Rain 6 1037 93 8000 8.7 360 13:57 20.01.2020
4025 Clouds 5 1036 80 10000 13.9 360 13:38 20.01.2020
4026 Clouds 5 1036 80 10000 13.9 360 13:20 20.01.2020
4027 Rain 5 1036 86 10000 9.8 350 12:42 20.01.2020
4028 Rain 6 1035 81 10000 10.8 340 12:23 20.01.2020
4029 Rain 6 1035 75 10000 9.8 360 11:56 20.01.2020
4030 Clouds 6 1035 65 10000 9.3 360 11:37 20.01.2020
4031 Clouds 6 1035 70 10000 7.7 10 11:18 20.01.2020
4032 Clouds 6 1035 70 10000 7.7 10 10:46 20.01.2020
4033 Clouds 7 1035 70 10000 8.7 10 10:20 20.01.2020
4034 Rain 6 1034 81 8000 7.7 20 09:42 20.01.2020
4035 Rain 6 1034 81 8000 7.7 20 09:24 20.01.2020
4036 Rain 6 1033 75 9000 8.2 360 08:56 20.01.2020
4037 Rain 6 1032 81 10000 7.2 20 08:34 20.01.2020
4038 Rain 6 1033 81 10000 11.3 20 07:59 20.01.2020
4039 Rain 6 1032 81 10000 6.2 360 07:41 20.01.2020
4040 Rain 6 1032 81 10000 6.2 360 07:21 20.01.2020
4041 Rain 6 1032 86 10000 7.2 10 06:44 20.01.2020
4042 Rain 6 1031 86 10000 6.2 10 06:22 20.01.2020
4043 Rain 6 1029 81 10000 4.6 360 05:38 20.01.2020
4044 Rain 6 1029 81 10000 4.6 360 05:19 20.01.2020
4045 Clouds 6 1030 86 10000 5.1 320 04:23 20.01.2020
4046 Rain 5 1029 86 10000 3.1 310 01:59 20.01.2020
4047 Rain 6 1029 86 10000 2.6 340 01:40 20.01.2020
4048 Rain 6 1029 86 10000 2.6 340 01:18 20.01.2020
4049 Rain 6 1029 86 10000 2.6 310 00:42 20.01.2020
4050 Rain 5 1029 93 10000 2.1 360 00:20 20.01.2020
4051 Rain 5 1027 86 10000 4.1 360 23:38 19.01.2020
4052 Rain 5 1027 86 10000 4.1 360 23:19 19.01.2020
4053 Clouds 6 1028 86 10000 2.6 320 22:56 19.01.2020
4054 Clouds 6 1028 80 10000 2.1 360 22:37 19.01.2020
4055 Clouds 6 1028 80 10000 2.1 360 22:19 19.01.2020
4056 Rain 6 1027 93 10000 2.6 40 21:56 19.01.2020
4057 Clouds 6 1027 86 10000 4.1 350 21:38 19.01.2020
4058 Clouds 6 1027 86 10000 4.1 350 21:38 19.01.2020
4059 Clouds 6 1027 86 10000 4.1 350 21:19 19.01.2020
4060 Rain 6 1027 80 10000 6.2 350 20:56 19.01.2020
4061 Clouds 5 1027 86 10000 4.1 340 20:38 19.01.2020
4062 Clouds 5 1027 86 10000 4.1 340 20:38 19.01.2020
4063 Clouds 5 1027 86 10000 4.1 340 20:19 19.01.2020
4064 Clouds 5 1027 80 10000 4.1 350 19:55 19.01.2020
4065 Clouds 6 1026 75 10000 5.1 340 19:37 19.01.2020
4066 Clouds 6 1026 75 10000 5.1 340 19:37 19.01.2020
4067 Clouds 6 1026 75 10000 5.1 340 19:19 19.01.2020
4068 Clouds 6 1026 75 10000 5.1 340 19:19 19.01.2020
4069 Clouds 6 1026 75 10000 5.1 340 19:19 19.01.2020
4070 Clouds 6 1026 70 10000 4.1 340 18:55 19.01.2020
4071 Clouds 6 1026 75 10000 4.6 350 18:37 19.01.2020
4072 Clouds 6 1026 75 10000 4.6 350 18:37 19.01.2020
4073 Clouds 6 1025 70 10000 6.2 330 18:19 19.01.2020
4074 Clouds 6 1025 70 10000 6.2 330 17:57 19.01.2020
4075 Clouds 6 1025 70 10000 6.2 330 17:57 19.01.2020
4076 Clouds 6 1025 69 10000 4.1 350 17:38 19.01.2020
4077 Clouds 6 1025 72 10000 4.1 350 17:20 19.01.2020
4078 Clouds 6 1024 70 10000 5.1 350 16:57 19.01.2020
4079 Clouds 6 1024 65 10000 5.1 350 16:37 19.01.2020
4080 Clouds 6 1024 65 10000 5.1 350 16:19 19.01.2020
4081 Clouds 7 1024 72 10000 7.2 10 15:57 19.01.2020
4082 Clouds 7 1024 72 10000 6.2 20 15:37 19.01.2020
4083 Clouds 7 1024 72 10000 6.2 20 15:19 19.01.2020
4084 Clouds 7 1023 65 10000 6.2 10 14:56 19.01.2020
4085 Clouds 7 1023 70 10000 6.2 360 14:37 19.01.2020
4086 Clouds 6 1023 70 10000 6.2 360 14:18 19.01.2020
4087 Clouds 6 1023 70 10000 6.2 10 13:54 19.01.2020
4088 Clouds 7 1023 65 10000 6.2 20 13:36 19.01.2020
4089 Clouds 7 1023 65 10000 6.2 20 13:18 19.01.2020
4090 Clouds 7 1023 65 10000 5.1 30 12:42 19.01.2020
4091 Clouds 7 1023 70 10000 7.7 10 12:23 19.01.2020
4092 Rain 7 1022 80 10000 5.1 50 11:57 19.01.2020
4093 Clouds 7 1023 70 10000 5.7 50 11:39 19.01.2020
4094 Clouds 7 1023 70 10000 5.7 50 11:19 19.01.2020
4095 Clouds 7 1023 75 10000 4.1 90 10:55 19.01.2020
4096 Clouds 7 1023 57 10000 6.7 50 10:37 19.01.2020
4097 Clouds 7 1023 57 10000 6.7 50 10:18 19.01.2020
4098 Clouds 7 1023 57 10000 4.1 50 09:41 19.01.2020
4099 Clouds 7 1023 57 10000 4.1 50 09:23 19.01.2020
4100 Clouds 6 1023 75 10000 2.1 70 08:57 19.01.2020
4101 Clouds 6 1023 75 10000 5.7 30 08:38 19.01.2020
4102 Clouds 6 1023 75 10000 5.7 30 08:20 19.01.2020
4103 Clouds 6 1023 65 10000 5.1 40 07:40 19.01.2020
4104 Clouds 6 1023 65 10000 4.6 30 07:21 19.01.2020
4105 Clouds 6 1023 70 10000 5.1 40 06:44 19.01.2020
4106 Clouds 6 1022 75 10000 3.6 360 04:41 19.01.2020
4107 Clouds 6 1023 70 10000 4.6 10 02:37 19.01.2020
4108 Clouds 6 1023 70 10000 4.6 10 02:19 19.01.2020
4109 Clouds 6 1023 70 10000 3.6 30 01:24 19.01.2020
4110 Clouds 6 1023 70 10000 3.1 70 00:45 19.01.2020
4111 Clouds 6 1023 70 10000 4.1 30 00:27 19.01.2020
4112 Clouds 6 1023 70 10000 4.1 30 23:55 18.01.2020
4113 Rain 6 1023 75 10000 5.1 60 23:37 18.01.2020
4114 Rain 6 1023 75 10000 5.1 60 23:18 18.01.2020
4115 Rain 7 1024 75 10000 5.1 50 22:54 18.01.2020
4116 Clouds 7 1023 52 10000 5.7 50 22:36 18.01.2020
4117 Clouds 7 1023 52 10000 5.7 50 22:36 18.01.2020
4118 Clouds 7 1024 64 10000 5.7 40 22:18 18.01.2020
4119 Clouds 7 1024 64 10000 5.7 40 21:56 18.01.2020
4120 Clouds 8 1024 61 10000 6.7 50 21:36 18.01.2020
4121 Clouds 8 1024 61 10000 6.7 50 21:18 18.01.2020
4122 Clouds 8 1024 65 10000 6.2 40 20:41 18.01.2020
4123 Clouds 8 1024 65 10000 6.2 40 20:20 18.01.2020
4124 Clouds 8 1024 52 10000 6.2 60 19:55 18.01.2020
4125 Clouds 8 1024 66 10000 6.7 60 19:36 18.01.2020
4126 Clouds 8 1024 66 10000 6.7 60 19:18 18.01.2020
4127 Clouds 8 1024 66 10000 5.7 40 18:40 18.01.2020
4128 Clouds 8 1024 66 10000 6.2 40 18:21 18.01.2020
4129 Clouds 8 1024 61 10000 4.6 50 17:41 18.01.2020
4130 Clouds 8 1024 61 10000 4.6 50 17:21 18.01.2020
4131 Clouds 8 1024 61 10000 5.7 50 16:59 18.01.2020
4132 Clouds 8 1024 61 10000 5.7 50 16:41 18.01.2020
4133 Clouds 8 1025 65 10000 6.7 40 16:22 18.01.2020
4134 Clouds 8 1025 65 10000 6.7 40 16:22 18.01.2020
4135 Clouds 8 1024 75 10000 6.2 50 15:58 18.01.2020
4136 Clouds 8 1024 75 10000 7.2 40 15:40 18.01.2020
4137 Clouds 8 1024 75 10000 7.2 40 15:21 18.01.2020
4138 Clouds 8 1024 81 10000 6.2 30 14:44 18.01.2020
4139 Clouds 8 1024 81 10000 6.2 40 14:21 18.01.2020
4140 Rain 9 1025 81 10000 6.7 30 13:59 18.01.2020
4141 Clouds 9 1025 70 10000 7.7 60 13:41 18.01.2020
4142 Rain 9 1025 70 10000 7.7 20 13:20 18.01.2020
4143 Clouds 9 1025 66 10000 6.7 20 12:55 18.01.2020
4144 Clouds 9 1025 61 10000 6.7 40 12:36 18.01.2020
4145 Clouds 9 1025 61 10000 6.7 40 12:18 18.01.2020
4146 Clouds 9 1025 61 10000 7.7 30 11:43 18.01.2020
4147 Clouds 9 1026 61 10000 7.7 20 11:21 18.01.2020
4148 Clouds 9 1026 65 10000 9.3 20 10:45 18.01.2020
4149 Clouds 8 1026 65 10000 9.3 20 10:22 18.01.2020
4150 Clouds 8 1026 70 10000 9.8 30 09:59 18.01.2020
4151 Clouds 8 1026 70 10000 9.8 30 09:41 18.01.2020
4152 Clouds 8 1026 65 10000 8.2 20 09:19 18.01.2020
4153 Clouds 7 1026 70 10000 8.2 20 08:42 18.01.2020
4154 Clouds 7 1026 75 10000 8.7 360 08:20 18.01.2020
4155 Clouds 7 1026 70 10000 7.7 10 07:59 18.01.2020
4156 Clouds 7 1026 70 10000 7.7 10 07:40 18.01.2020
4157 Clouds 7 1027 70 10000 6.2 10 07:18 18.01.2020
4158 Clouds 7 1026 75 10000 6.2 10 06:44 18.01.2020
4159 Rain 7 1027 81 10000 6.2 30 05:52 18.01.2020
4160 Clouds 7 1026 75 10000 5.1 20 04:25 18.01.2020
4161 Clouds 7 1027 75 10000 6.7 10 02:49 18.01.2020
4162 Clouds 7 1027 81 10000 6.2 10 01:40 18.01.2020
4163 Clouds 7 1027 75 10000 6.7 10 00:39 18.01.2020
4164 Clouds 7 1027 81 10000 5.7 20 00:20 18.01.2020
4165 Clouds 7 1027 81 10000 6.7 20 23:58 17.01.2020
4166 Clouds 7 1027 81 10000 6.7 20 23:39 17.01.2020
4167 Rain 8 1027 81 10000 7.7 10 23:18 17.01.2020
4168 Rain 8 1027 75 10000 6.2 10 22:42 17.01.2020
4169 Rain 8 1027 75 10000 6.2 10 22:20 17.01.2020
4170 Rain 8 1027 75 10000 6.2 10 22:20 17.01.2020
4171 Clouds 7 1028 81 10000 5.7 360 21:56 17.01.2020
4172 Clouds 7 1028 81 10000 6.7 10 21:38 17.01.2020
4173 Clouds 7 1028 81 10000 6.7 10 21:19 17.01.2020
4174 Clouds 8 1028 81 10000 6.7 10 20:43 17.01.2020
4175 Clouds 8 1028 81 10000 6.2 20 20:21 17.01.2020
4176 Clouds 7 1028 81 10000 6.2 20 19:58 17.01.2020
4177 Clouds 8 1027 81 10000 7.2 10 19:39 17.01.2020
4178 Clouds 7 1027 81 10000 7.2 10 19:20 17.01.2020
4179 Clouds 8 1027 81 10000 7.2 20 18:58 17.01.2020
4180 Rain 8 1027 87 10000 7.2 10 18:40 17.01.2020
4181 Rain 7 1027 87 10000 7.2 10 18:21 17.01.2020
4182 Rain 7 1027 87 10000 8.2 20 17:40 17.01.2020
4183 Rain 7 1027 87 10000 8.2 20 17:22 17.01.2020
4184 Rain 7 1027 87 10000 7.2 20 16:57 17.01.2020
4185 Rain 8 1026 87 10000 8.2 20 16:39 17.01.2020
4186 Rain 8 1026 87 10000 7.7 30 16:19 17.01.2020
4187 Rain 8 1026 87 8000 8.2 20 15:45 17.01.2020
4188 Rain 8 1026 87 8000 8.2 20 15:26 17.01.2020
4189 Rain 8 1026 87 8000 7.2 10 14:46 17.01.2020
4190 Rain 8 1026 81 8000 8.2 20 14:27 17.01.2020
4191 Rain 8 1026 87 8000 7.7 20 13:58 17.01.2020
4192 Rain 8 1026 87 8000 7.7 20 13:58 17.01.2020
4193 Rain 8 1025 87 7000 7.2 10 13:38 17.01.2020
4194 Rain 8 1025 87 7000 7.2 10 13:19 17.01.2020
4195 Rain 9 1025 70 7000 8.7 20 12:44 17.01.2020
4196 Clouds 9 1025 57 10000 8.2 10 12:22 17.01.2020
4197 Clouds 9 1026 53 10000 8.2 30 11:40 17.01.2020
4198 Clouds 9 1026 53 10000 8.2 30 11:19 17.01.2020
4199 Clouds 9 1026 53 10000 8.2 20 10:44 17.01.2020
4200 Clouds 9 1026 57 10000 7.2 20 10:23 17.01.2020
4201 Clouds 9 1026 61 10000 8.2 30 09:58 17.01.2020
4202 Rain 8 1027 81 7000 10.3 20 09:40 17.01.2020
4203 Rain 8 1027 81 7000 10.3 20 09:20 17.01.2020
4204 Clouds 8 1026 70 10000 5.1 10 08:45 17.01.2020
4205 Clouds 8 1026 70 10000 7.7 30 08:25 17.01.2020
4206 Clouds 8 1026 61 10000 8.2 20 07:55 17.01.2020
4207 Clouds 8 1026 61 10000 8.2 10 07:32 17.01.2020
4208 Clouds 8 1026 61 10000 8.2 10 07:32 17.01.2020
4209 Clouds 7 1026 70 10000 4.6 30 06:59 17.01.2020
4210 Clouds 8 1026 61 10000 7.7 20 06:41 17.01.2020
4211 Clouds 8 1026 61 10000 7.2 20 05:57 17.01.2020
4212 Rain 9 1025 58 0 4.92 359 03:39 17.01.2020
4213 Rain 10 1025 58 0 3.58 352 02:55 17.01.2020
4214 Clouds 9 1026 58 0 2.68 24 01:48 17.01.2020
4215 Rain 9 1026 58 0 3.13 0 01:29 17.01.2020
4216 Rain 9 1026 59 0 3.58 0 00:55 17.01.2020
4217 Rain 9 1026 58 0 4.47 321 00:28 17.01.2020
4218 Clouds 8 1026 65 10000 8.2 30 23:46 16.01.2020
4219 Clouds 7 1026 65 10000 8.2 30 23:26 16.01.2020
4220 Clouds 7 1026 61 10000 7.7 50 22:58 16.01.2020
4221 Clouds 8 1026 61 10000 6.2 50 22:40 16.01.2020
4222 Clouds 8 1026 61 10000 6.2 50 22:21 16.01.2020
4223 Clouds 8 1026 61 10000 6.2 50 21:55 16.01.2020
4224 Clouds 8 1026 61 10000 6.7 30 21:37 16.01.2020
4225 Clouds 8 1026 61 10000 6.7 30 21:18 16.01.2020
4226 Clouds 8 1026 61 10000 6.7 30 21:18 16.01.2020
4227 Clouds 8 1026 61 10000 8.2 50 20:56 16.01.2020
4228 Clouds 8 1026 65 10000 7.2 40 20:36 16.01.2020
4229 Clouds 8 1026 65 10000 7.2 40 20:18 16.01.2020
4230 Clouds 8 1026 65 10000 7.2 40 19:41 16.01.2020
4231 Clouds 9 1026 57 10000 7.2 30 19:23 16.01.2020
4232 Clouds 9 1026 61 10000 7.2 30 18:58 16.01.2020
4233 Clouds 9 1025 75 10000 6.2 50 18:39 16.01.2020
4234 Clouds 9 1025 75 10000 6.2 50 18:21 16.01.2020
4235 Clouds 9 1026 66 10000 8.2 30 17:59 16.01.2020
4236 Clouds 9 1025 66 10000 7.7 30 17:41 16.01.2020
4237 Clouds 9 1025 66 10000 7.7 30 17:41 16.01.2020
4238 Clouds 9 1025 66 10000 7.7 30 17:21 16.01.2020
4239 Clouds 9 1025 66 10000 6.2 30 16:56 16.01.2020
4240 Clouds 9 1025 66 10000 7.2 30 16:36 16.01.2020
4241 Clouds 9 1025 66 10000 7.2 30 16:18 16.01.2020
4242 Clouds 9 1025 70 10000 6.7 30 15:42 16.01.2020
4243 Clouds 9 1025 70 10000 6.7 30 15:21 16.01.2020
4244 Clouds 10 1026 70 10000 8.2 20 14:45 16.01.2020
4245 Clouds 10 1026 70 10000 8.2 20 14:24 16.01.2020
4246 Clouds 10 1026 70 10000 7.2 30 13:57 16.01.2020
4247 Clouds 10 1026 66 10000 6.2 40 13:39 16.01.2020
4248 Clouds 10 1026 66 10000 6.2 40 13:21 16.01.2020
4249 Clouds 10 1026 66 10000 6.7 40 12:45 16.01.2020
4250 Clouds 10 1026 71 10000 5.1 40 12:27 16.01.2020
4251 Clouds 10 1026 66 10000 6.2 60 11:55 16.01.2020
4252 Clouds 10 1027 71 10000 6.7 40 11:37 16.01.2020
4253 Clouds 10 1027 71 10000 6.7 40 11:19 16.01.2020
4254 Clouds 10 1027 71 10000 7.2 40 10:39 16.01.2020
4255 Clouds 10 1027 71 10000 5.7 40 10:20 16.01.2020
4256 Clouds 10 1027 66 10000 6.7 30 09:56 16.01.2020
4257 Clouds 10 1028 61 10000 6.7 40 09:38 16.01.2020
4258 Clouds 10 1028 61 10000 6.7 40 09:19 16.01.2020
4259 Clouds 10 1028 61 10000 6.2 30 08:49 16.01.2020
4260 Clouds 9 1028 57 10000 7.2 40 08:29 16.01.2020
4261 Clouds 9 1028 66 10000 6.2 50 07:58 16.01.2020
4262 Clouds 9 1028 76 10000 5.1 40 07:38 16.01.2020
4263 Clouds 8 1028 76 10000 5.1 40 07:19 16.01.2020
4264 Clouds 9 1028 76 10000 4.1 20 06:42 16.01.2020
4265 Clouds 8 1028 70 10000 5.7 20 05:59 16.01.2020
4266 Clouds 8 1028 70 10000 5.7 30 05:40 16.01.2020
4267 Clouds 8 1028 66 10000 5.1 40 04:37 16.01.2020
4268 Clouds 8 1028 66 10000 5.1 40 04:37 16.01.2020
4269 Clouds 8 1028 65 10000 4.6 40 03:28 16.01.2020
4270 Clouds 8 1029 65 10000 5.1 40 02:42 16.01.2020
4271 Clouds 9 1029 61 10000 5.7 50 00:53 16.01.2020
4272 Clouds 9 1029 61 10000 5.1 40 00:24 16.01.2020
4273 Clouds 9 1029 61 10000 5.1 50 23:50 15.01.2020
4274 Clouds 9 1030 61 10000 5.7 60 23:23 15.01.2020
4275 Clouds 8 1030 61 10000 5.7 50 22:58 15.01.2020
4276 Clouds 8 1030 66 10000 5.7 60 22:40 15.01.2020
4277 Clouds 8 1030 66 10000 5.7 60 22:19 15.01.2020
4278 Clouds 8 1030 66 10000 5.7 60 22:19 15.01.2020
4279 Clouds 8 1030 66 10000 5.1 60 21:58 15.01.2020
4280 Clouds 9 1030 76 10000 4.6 40 21:38 15.01.2020
4281 Clouds 8 1030 76 10000 4.6 40 21:20 15.01.2020
4282 Clouds 8 1030 81 10000 4.6 30 20:58 15.01.2020
4283 Clouds 8 1030 75 10000 5.1 50 20:40 15.01.2020
4284 Clouds 8 1030 75 10000 5.1 50 20:20 15.01.2020
4285 Clouds 8 1030 81 10000 5.1 50 19:55 15.01.2020
4286 Clouds 8 1030 81 10000 4.1 50 19:37 15.01.2020
4287 Clouds 8 1030 81 10000 4.1 50 19:19 15.01.2020
4288 Clouds 8 1030 81 10000 3.1 30 18:57 15.01.2020
4289 Clouds 8 1030 81 10000 3.1 30 18:57 15.01.2020
4290 Clouds 8 1030 81 10000 4.1 30 18:38 15.01.2020
4291 Clouds 8 1030 81 10000 4.1 30 18:20 15.01.2020
4292 Clouds 8 1030 75 10000 4.1 30 17:58 15.01.2020
4293 Clouds 8 1030 75 10000 5.1 20 17:39 15.01.2020
4294 Clouds 8 1030 75 10000 5.1 20 17:20 15.01.2020
4295 Clouds 9 1029 66 10000 5.7 30 16:42 15.01.2020
4296 Clouds 9 1029 66 10000 5.7 30 16:23 15.01.2020
4297 Clouds 10 1029 61 10000 6.2 50 15:59 15.01.2020
4298 Clouds 10 1029 61 10000 6.2 50 15:41 15.01.2020
4299 Clouds 10 1029 61 10000 6.2 50 15:41 15.01.2020
4300 Clouds 10 1029 61 10000 5.1 30 15:20 15.01.2020
4301 Clouds 10 1029 66 10000 5.7 40 14:44 15.01.2020
4302 Clouds 10 1029 61 10000 6.2 20 14:21 15.01.2020
4303 Clouds 10 1029 61 10000 5.7 30 13:56 15.01.2020
4304 Clouds 10 1029 66 10000 5.7 30 13:38 15.01.2020
4305 Clouds 10 1029 66 10000 5.7 30 13:19 15.01.2020
4306 Clouds 10 1029 66 10000 6.2 20 12:41 15.01.2020
4307 Clouds 10 1029 71 10000 6.2 10 12:20 15.01.2020
4308 Clouds 10 1029 71 10000 4.6 30 11:59 15.01.2020
4309 Clouds 10 1030 66 10000 4.6 40 11:38 15.01.2020
4310 Clouds 10 1030 66 10000 4.6 40 11:38 15.01.2020
4311 Clouds 10 1030 66 10000 4.6 40 11:19 15.01.2020
4312 Clouds 10 1030 61 10000 5.1 40 10:46 15.01.2020
4313 Clouds 10 1030 62 10000 5.1 50 10:28 15.01.2020
4314 Clouds 9 1030 66 10000 4.1 60 09:55 15.01.2020
4315 Clear 8 1030 70 10000 3.6 70 09:37 15.01.2020
4316 Clear 8 1030 70 10000 3.6 70 09:19 15.01.2020
4317 Clear 8 1030 76 10000 3.1 50 08:41 15.01.2020
4318 Clear 7 1030 81 10000 3.6 50 08:23 15.01.2020
4319 Clouds 6 1030 87 8000 2.1 40 07:54 15.01.2020
4320 Clouds 6 1030 87 8000 2.6 30 07:32 15.01.2020
4321 Clear 6 1030 87 7000 2.1 40 06:48 15.01.2020
4322 Clear 6 1029 87 10000 2.1 30 06:23 15.01.2020
4323 Clouds 6 1029 81 10000 2.1 50 04:45 15.01.2020
4324 Clouds 6 1029 81 10000 2.6 50 02:39 15.01.2020
4325 Clouds 6 1029 81 10000 2.6 40 01:43 15.01.2020
4326 Clouds 6 1029 87 10000 2.1 60 01:20 15.01.2020
4327 Clouds 6 1029 81 10000 1.5 70 00:36 15.01.2020
4328 Clouds 6 1029 81 10000 1.5 70 00:18 15.01.2020
4329 Clouds 6 1029 81 10000 1.5 70 23:45 14.01.2020
4330 Clouds 7 1029 81 10000 2.1 70 23:24 14.01.2020
4331 Clouds 7 1028 87 10000 1 0 22:41 14.01.2020
4332 Clouds 7 1028 87 10000 1 0 22:20 14.01.2020
4333 Clouds 7 1028 81 10000 1 0 21:59 14.01.2020
4334 Clouds 7 1028 81 10000 2.1 40 21:41 14.01.2020
4335 Clouds 7 1028 81 10000 2.1 40 21:23 14.01.2020
4336 Clouds 7 1028 75 10000 2.1 50 21:00 14.01.2020
4337 Clouds 7 1028 75 10000 2.1 50 20:41 14.01.2020
4338 Clouds 8 1027 75 10000 2.1 60 20:21 14.01.2020
4339 Clouds 8 1027 75 10000 2.1 60 19:56 14.01.2020
4340 Clouds 8 1027 75 10000 2.1 80 19:38 14.01.2020
4341 Clouds 8 1027 75 10000 2.1 80 19:19 14.01.2020
4342 Clouds 8 1027 75 10000 1.5 80 18:56 14.01.2020
4343 Clouds 8 1027 75 10000 2.1 300 18:37 14.01.2020
4344 Clouds 8 1027 75 10000 2.1 300 18:19 14.01.2020
4345 Clouds 8 1027 81 10000 2.1 280 17:39 14.01.2020
4346 Clouds 8 1027 81 10000 2.1 280 17:19 14.01.2020
4347 Clouds 9 1026 75 10000 2.6 280 16:55 14.01.2020
4348 Clouds 9 1026 70 10000 3.1 290 16:37 14.01.2020
4349 Clouds 9 1026 70 10000 3.1 290 16:19 14.01.2020
4350 Clouds 9 1026 66 10000 1.5 240 15:43 14.01.2020
4351 Clouds 9 1026 66 10000 1.5 240 15:19 14.01.2020
4352 Clouds 9 1026 66 10000 2.1 230 14:57 14.01.2020
4353 Clouds 9 1026 66 10000 2.1 230 14:39 14.01.2020
4354 Clear 9 1026 70 10000 2.6 240 14:18 14.01.2020
4355 Clouds 10 1026 66 10000 2.1 210 13:42 14.01.2020
4356 Clouds 10 1026 66 10000 2.1 210 13:19 14.01.2020
4357 Clouds 10 1026 66 10000 1.5 170 12:43 14.01.2020
4358 Clouds 9 1026 70 10000 2.6 140 12:25 14.01.2020
4359 Clouds 10 1026 57 10000 2.6 110 11:59 14.01.2020
4360 Clear 9 1026 66 10000 2.6 110 11:40 14.01.2020
4361 Clear 9 1026 66 10000 2.6 110 11:40 14.01.2020
4362 Clear 9 1026 66 10000 2.6 110 11:22 14.01.2020
4363 Clear 9 1027 70 10000 1 0 10:56 14.01.2020
4364 Clear 9 1027 76 10000 0.5 0 10:37 14.01.2020
4365 Clear 8 1027 76 10000 0.5 0 10:19 14.01.2020
4366 Clear 7 1027 81 10000 1.27 94 09:43 14.01.2020
4367 Clear 7 1027 81 10000 1.27 94 09:43 14.01.2020
4368 Clear 7 1027 81 10000 1.27 94 09:24 14.01.2020
4369 Clear 6 1027 93 10000 1.5 330 08:59 14.01.2020
4370 Clear 5 1026 93 10000 2.6 340 08:40 14.01.2020
4371 Clear 5 1026 93 10000 2.6 340 08:21 14.01.2020
4372 Clouds 4 1026 93 10000 3.1 350 07:51 14.01.2020
4373 Mist 4 1026 93 5000 3.1 40 07:24 14.01.2020
4374 Clear 4 1026 93 10000 1.5 360 06:43 14.01.2020
4375 Clear 4 1026 84 10000 1.5 360 05:58 14.01.2020
4376 Clear 3 1025 100 10000 2.6 340 04:50 14.01.2020
4377 Clear 3 1025 84 10000 3.1 340 03:46 14.01.2020
4378 Clear 3 1026 93 10000 3.1 340 02:33 14.01.2020
4379 Clear 4 1025 86 10000 2.6 20 01:19 14.01.2020
4380 Clear 4 1025 93 10000 2.6 10 00:47 14.01.2020
4381 Clear 4 1025 93 10000 2.1 350 00:21 14.01.2020
4382 Clear 4 1026 86 10000 2.1 30 23:44 13.01.2020
4383 Clear 4 1026 86 10000 2.1 10 23:19 13.01.2020
4384 Clear 5 1026 81 10000 2.6 40 22:57 13.01.2020
4385 Clear 5 1026 86 10000 2.1 30 22:39 13.01.2020
4386 Clear 5 1026 86 10000 2.1 30 22:19 13.01.2020
4387 Clear 5 1026 75 10000 2.1 30 21:55 13.01.2020
4388 Clear 5 1026 81 10000 2.1 30 21:36 13.01.2020
4389 Clear 6 1026 81 10000 2.1 30 21:18 13.01.2020
4390 Clear 5 1026 81 10000 2.6 30 20:55 13.01.2020
4391 Clear 6 1026 86 10000 3.1 10 20:37 13.01.2020
4392 Clear 6 1026 86 10000 3.1 10 20:37 13.01.2020
4393 Clouds 6 1026 86 10000 3.1 10 20:19 13.01.2020
4394 Clouds 6 1026 86 10000 3.1 10 20:19 13.01.2020
4395 Clouds 7 1026 80 10000 2.6 10 19:41 13.01.2020
4396 Clouds 7 1026 80 10000 3.6 360 19:21 13.01.2020
4397 Clouds 7 1026 80 10000 3.6 360 18:58 13.01.2020
4398 Clouds 7 1027 80 10000 4.1 350 18:38 13.01.2020
4399 Clouds 7 1027 80 10000 4.1 350 18:19 13.01.2020
4400 Clouds 7 1026 80 10000 4.1 350 17:58 13.01.2020
4401 Clouds 7 1026 81 10000 4.1 350 17:39 13.01.2020
4402 Clouds 7 1026 81 10000 4.1 350 17:20 13.01.2020
4403 Clouds 9 1034 78 0 3.69 52 16:42 13.01.2020
4404 Clouds 9 1034 78 0 3.69 52 16:23 13.01.2020
4405 Clouds 9 1034 77 0 3.69 52 15:59 13.01.2020
4406 Clouds 9 1034 77 0 3.69 52 15:41 13.01.2020
4407 Clouds 9 1035 75 0 3.69 52 15:21 13.01.2020
4408 Clouds 10 1035 74 0 3.69 52 14:54 13.01.2020
4409 Clouds 10 1035 72 0 3.69 52 14:36 13.01.2020
4410 Clouds 10 1035 72 0 3.81 46 14:18 13.01.2020
4411 Clouds 10 1035 73 0 3.81 46 13:40 13.01.2020
4412 Clouds 10 1035 73 0 3.58 49 13:22 13.01.2020
4413 Clouds 10 1035 72 0 3.58 49 12:58 13.01.2020
4414 Clouds 9 1027 61 10000 4.1 20 12:40 13.01.2020
4415 Clouds 9 1027 61 10000 4.1 20 12:21 13.01.2020
4416 Clouds 9 1028 57 10000 3.1 50 11:40 13.01.2020
4417 Clouds 9 1028 57 10000 3.1 50 11:20 13.01.2020
4418 Clouds 9 1028 57 10000 3.1 50 11:20 13.01.2020
4419 Clouds 9 1028 57 10000 3.1 50 11:20 13.01.2020
4420 Clouds 8 1028 66 10000 4.6 10 10:58 13.01.2020
4421 Clouds 9 1028 66 10000 4.6 10 10:39 13.01.2020
4422 Clouds 9 1029 66 10000 4.6 30 10:20 13.01.2020
4423 Clouds 9 1029 66 10000 4.6 30 10:20 13.01.2020
4424 Clouds 8 1029 70 10000 5.1 10 09:59 13.01.2020
4425 Clouds 8 1029 70 10000 4.1 30 09:40 13.01.2020
4426 Clouds 8 1029 70 10000 4.1 30 09:21 13.01.2020
4427 Clouds 7 1029 75 10000 4.1 20 08:41 13.01.2020
4428 Clouds 7 1029 75 10000 4.1 20 08:20 13.01.2020
4429 Clouds 7 1029 75 10000 4.6 20 07:52 13.01.2020
4430 Clouds 7 1029 75 10000 4.6 20 07:33 13.01.2020
4431 Clouds 7 1029 75 10000 5.1 20 06:44 13.01.2020
4432 Clouds 7 1029 75 10000 5.1 20 06:22 13.01.2020
4433 Clouds 7 1029 75 10000 4.1 20 05:36 13.01.2020
4434 Clouds 7 1029 75 10000 4.1 30 03:57 13.01.2020
4435 Clouds 7 1029 75 10000 5.1 20 03:25 13.01.2020
4436 Clouds 7 1029 81 10000 4.6 10 02:47 13.01.2020
4437 Clouds 7 1029 81 10000 4.6 20 02:28 13.01.2020
4438 Clouds 7 1029 81 10000 3.6 20 01:22 13.01.2020
4439 Clouds 7 1029 81 10000 3.6 20 01:22 13.01.2020
4440 Clouds 7 1029 87 10000 3.6 30 00:41 13.01.2020
4441 Clouds 7 1029 87 10000 3.6 10 00:23 13.01.2020
4442 Clouds 7 1029 87 10000 4.1 10 23:54 12.01.2020
4443 Drizzle 7 1028 93 10000 4.6 20 23:36 12.01.2020
4444 Drizzle 7 1028 93 10000 4.6 20 23:18 12.01.2020
4445 Clouds 8 1029 81 10000 4.6 20 22:42 12.01.2020
4446 Clouds 8 1029 87 10000 4.1 340 22:23 12.01.2020
4447 Clouds 7 1029 86 10000 3.6 340 21:57 12.01.2020
4448 Clouds 7 1029 86 10000 3.1 350 21:38 12.01.2020
4449 Clouds 7 1029 86 10000 3.1 350 21:19 12.01.2020
4450 Clouds 8 1029 81 10000 3.1 10 20:56 12.01.2020
4451 Clouds 8 1029 81 10000 3.1 20 20:38 12.01.2020
4452 Clouds 8 1029 81 10000 3.1 20 20:20 12.01.2020
4453 Clouds 8 1029 75 10000 4.1 20 19:56 12.01.2020
4454 Clouds 8 1029 75 10000 6.2 10 19:37 12.01.2020
4455 Clouds 8 1029 75 10000 6.2 10 19:18 12.01.2020
4456 Clouds 8 1029 75 10000 5.1 20 18:57 12.01.2020
4457 Clouds 8 1029 75 10000 5.1 20 18:57 12.01.2020
4458 Clouds 8 1029 81 10000 4.6 20 18:39 12.01.2020
4459 Clouds 8 1029 81 10000 4.6 20 18:21 12.01.2020
4460 Clouds 9 1029 70 10000 4.1 30 17:54 12.01.2020
4461 Clouds 9 1028 81 10000 3.6 30 17:36 12.01.2020
4462 Clouds 9 1028 81 10000 3.6 30 17:18 12.01.2020
4463 Clouds 9 1028 76 10000 4.6 20 16:54 12.01.2020
4464 Clouds 9 1028 76 10000 5.7 20 16:36 12.01.2020
4465 Clouds 9 1028 76 10000 4.6 30 16:18 12.01.2020
4466 Clouds 9 1028 76 10000 4.6 40 15:40 12.01.2020
4467 Clouds 9 1028 76 10000 4.6 40 15:21 12.01.2020
4468 Clouds 9 1028 76 10000 5.7 20 14:44 12.01.2020
4469 Clouds 9 1028 76 10000 5.7 20 14:25 12.01.2020
4470 Clouds 10 1028 71 10000 5.1 30 13:58 12.01.2020
4471 Clouds 10 1028 76 10000 5.1 20 13:40 12.01.2020
4472 Clouds 10 1028 76 10000 5.1 20 13:22 12.01.2020
4473 Clouds 10 1028 76 10000 5.1 30 12:58 12.01.2020
4474 Clouds 10 1028 76 10000 5.1 20 12:38 12.01.2020
4475 Clouds 10 1028 76 10000 5.1 20 12:19 12.01.2020
4476 Clouds 10 1028 81 10000 5.1 20 11:43 12.01.2020
4477 Clouds 9 1028 76 10000 5.7 30 11:23 12.01.2020
4478 Clouds 10 1028 81 10000 5.7 20 10:59 12.01.2020
4479 Clouds 9 1028 87 10000 4.6 40 10:40 12.01.2020
4480 Clouds 9 1028 87 10000 4.6 40 10:21 12.01.2020
4481 Rain 9 1028 87 8000 4.1 20 09:44 12.01.2020
4482 Clouds 9 1028 87 10000 2.1 30 09:24 12.01.2020
4483 Clouds 9 1027 87 10000 3.1 30 08:57 12.01.2020
4484 Clouds 9 1027 87 7000 3.6 20 08:38 12.01.2020
4485 Clouds 9 1027 87 7000 3.6 20 08:19 12.01.2020
4486 Rain 8 1027 93 4000 2.1 50 07:38 12.01.2020
4487 Rain 8 1027 93 4000 2.1 50 07:19 12.01.2020
4488 Rain 8 1026 93 4000 2.6 10 06:41 12.01.2020
4489 Rain 8 1026 87 10000 2.6 350 05:58 12.01.2020
4490 Clouds 8 1026 87 10000 3.6 10 05:20 12.01.2020
4491 Clouds 8 1025 70 10000 3.6 360 03:44 12.01.2020
4492 Clouds 8 1025 70 10000 3.6 10 02:59 12.01.2020
4493 Clouds 8 1025 70 10000 3.1 30 02:30 12.01.2020
4494 Clouds 7 1025 70 10000 2.6 20 01:40 12.01.2020
4495 Clouds 7 1025 70 10000 2.1 10 01:21 12.01.2020
4496 Clouds 7 1024 75 10000 4.1 350 00:40 12.01.2020
4497 Clouds 7 1024 75 10000 4.1 350 00:18 12.01.2020
4498 Clouds 8 1024 61 10000 3.1 20 23:41 11.01.2020
4499 Clouds 7 1024 65 10000 2.6 330 23:19 11.01.2020
4500 Clouds 7 1024 65 10000 2.6 330 22:57 11.01.2020
4501 Clouds 7 1024 70 10000 3.1 350 22:39 11.01.2020
4502 Clouds 7 1024 70 10000 3.1 350 22:20 11.01.2020
4503 Clouds 7 1024 75 10000 3.1 350 21:54 11.01.2020
4504 Clouds 8 1024 75 10000 3.1 360 21:36 11.01.2020
4505 Clouds 7 1024 75 10000 3.1 360 21:18 11.01.2020
4506 Clouds 7 1024 81 10000 3.1 360 20:40 11.01.2020
4507 Clouds 7 1024 70 10000 1.5 300 20:22 11.01.2020
4508 Clouds 7 1023 70 10000 2.6 240 19:58 11.01.2020
4509 Clouds 7 1023 65 10000 1 0 19:38 11.01.2020
4510 Clouds 8 1023 65 10000 1 0 19:20 11.01.2020
4511 Clouds 7 1023 70 10000 1 80 18:57 11.01.2020
4512 Clouds 8 1023 75 10000 1.5 50 18:37 11.01.2020
4513 Clouds 8 1023 75 10000 1.5 50 18:19 11.01.2020
4514 Clouds 8 1023 75 10000 0.5 50 17:57 11.01.2020
4515 Clouds 8 1023 70 10000 1 0 17:39 11.01.2020
4516 Clouds 8 1023 70 10000 1 0 17:19 11.01.2020
4517 Clouds 9 1023 65 10000 0.54 174 16:44 11.01.2020
4518 Clouds 10 1023 57 10000 1.5 240 16:25 11.01.2020
4519 Clouds 10 1023 53 10000 3.1 250 15:57 11.01.2020
4520 Clouds 11 1023 53 10000 3.1 250 15:39 11.01.2020
4521 Clouds 11 1023 53 10000 3.1 250 15:20 11.01.2020
4522 Clouds 12 1023 53 10000 3.6 240 14:47 11.01.2020
4523 Clouds 11 1023 57 10000 4.1 250 14:25 11.01.2020
4524 Clear 12 1023 57 10000 4.6 230 13:58 11.01.2020
4525 Clear 11 1022 57 10000 4.6 230 13:38 11.01.2020
4526 Clear 11 1022 57 10000 4.6 230 13:20 11.01.2020
4527 Clear 11 1023 61 10000 4.6 240 12:56 11.01.2020
4528 Clear 12 1023 57 10000 4.6 230 12:37 11.01.2020
4529 Clear 12 1023 57 10000 4.6 230 12:19 11.01.2020
4530 Clear 11 1023 61 10000 4.1 230 11:45 11.01.2020
4531 Clear 11 1024 66 10000 4.6 230 11:24 11.01.2020
4532 Clear 11 1024 66 10000 3.1 230 10:50 11.01.2020
4533 Clear 10 1024 62 10000 3.1 210 10:30 11.01.2020
4534 Clear 9 1024 53 10000 1.5 190 09:44 11.01.2020
4535 Clear 9 1024 61 10000 1 80 09:21 11.01.2020
4536 Clear 9 1024 61 10000 1 80 09:21 11.01.2020
4537 Clear 9 1024 61 10000 1.5 210 08:59 11.01.2020
4538 Clear 8 1024 61 10000 1.5 210 08:40 11.01.2020
4539 Clear 8 1024 66 10000 2.6 220 08:19 11.01.2020
4540 Clear 6 1024 70 10000 3.1 210 07:43 11.01.2020
4541 Clear 5 1024 75 10000 3.6 210 07:24 11.01.2020
4542 Clear 5 1024 75 10000 3.1 220 06:43 11.01.2020
4543 Clear 5 1024 75 10000 3.1 240 05:30 11.01.2020
4544 Clear 5 1024 70 10000 3.1 220 04:42 11.01.2020
4545 Clear 5 1024 75 10000 3.6 220 04:24 11.01.2020
4546 Clear 5 1024 75 10000 3.6 220 02:48 11.01.2020
4547 Clear 5 1024 93 10000 2.1 240 01:47 11.01.2020
4548 Clear 5 1024 93 10000 1.5 250 01:27 11.01.2020
4549 Clear 5 1024 93 10000 1 270 00:52 11.01.2020
4550 Clear 4 1024 93 10000 1 0 00:25 11.01.2020
4551 Clear 4 1024 93 10000 0.94 152 23:58 10.01.2020
4552 Clear 4 1024 86 10000 0.94 152 23:39 10.01.2020
4553 Clear 4 1024 86 10000 0.94 152 23:39 10.01.2020
4554 Clear 5 1024 86 10000 0.58 117 23:20 10.01.2020
4555 Clear 5 1024 86 10000 0.58 117 22:41 10.01.2020
4556 Clear 5 1024 86 10000 0.58 117 22:22 10.01.2020
4557 Clear 4 1024 93 10000 0.5 0 21:59 10.01.2020
4558 Clear 4 1024 93 10000 0.5 0 21:41 10.01.2020
4559 Clear 5 1024 86 10000 1 290 21:20 10.01.2020
4560 Clear 5 1025 86 10000 1 0 20:58 10.01.2020
4561 Clear 5 1025 86 10000 1 0 20:40 10.01.2020
4562 Clear 5 1024 86 10000 1 290 20:40 10.01.2020
4563 Clear 5 1024 86 10000 1 290 20:22 10.01.2020
4564 Clouds 5 1024 86 10000 1 290 19:41 10.01.2020
4565 Clouds 6 1024 86 10000 1 320 19:21 10.01.2020
4566 Clouds 5 1024 80 10000 0.79 70 18:57 10.01.2020
4567 Clouds 6 1024 80 10000 0.79 70 18:39 10.01.2020
4568 Clouds 6 1024 80 10000 0.79 70 18:18 10.01.2020
4569 Clouds 6 1024 75 10000 0.5 320 17:56 10.01.2020
4570 Clouds 7 1024 70 10000 1.5 250 17:38 10.01.2020
4571 Clouds 7 1024 70 10000 1.5 250 17:19 10.01.2020
4572 Clouds 7 1024 70 10000 1.5 250 17:19 10.01.2020
4573 Clouds 8 1024 65 10000 1.5 210 16:43 10.01.2020
4574 Clouds 8 1024 65 10000 1.5 210 16:22 10.01.2020
4575 Clouds 8 1024 65 10000 2.1 250 15:58 10.01.2020
4576 Clouds 9 1024 61 10000 2.1 230 15:39 10.01.2020
4577 Clouds 9 1024 61 10000 2.1 230 15:20 10.01.2020
4578 Clouds 10 1024 57 10000 2.1 0 14:59 10.01.2020
4579 Clouds 10 1024 58 10000 2.1 0 14:40 10.01.2020
4580 Clouds 10 1024 56 10000 2.1 0 14:19 10.01.2020
4581 Clouds 10 1024 53 10000 2.1 210 13:57 10.01.2020
4582 Clear 10 1024 57 10000 2.6 180 13:38 10.01.2020
4583 Clear 10 1024 57 10000 2.6 180 13:19 10.01.2020
4584 Clear 9 1024 57 10000 3.1 0 12:56 10.01.2020
4585 Clouds 10 1024 61 10000 2.6 130 12:38 10.01.2020
4586 Clouds 10 1024 61 10000 2.6 130 12:18 10.01.2020
4587 Clear 9 1025 66 10000 2.6 150 11:42 10.01.2020
4588 Clear 9 1025 66 10000 2.6 150 11:22 10.01.2020
4589 Clear 8 1025 70 10000 2.1 130 10:59 10.01.2020
4590 Clear 8 1026 65 10000 2.1 140 10:38 10.01.2020
4591 Clear 8 1026 65 10000 2.1 140 10:20 10.01.2020
4592 Clear 8 1026 70 10000 2.1 100 09:48 10.01.2020
4593 Clear 6 1026 75 10000 1.5 80 09:27 10.01.2020
4594 Clear 6 1026 75 10000 2.1 70 08:59 10.01.2020
4595 Clear 5 1026 86 10000 2.1 40 08:39 10.01.2020
4596 Clear 4 1026 86 10000 2.1 40 08:20 10.01.2020
4597 Clear 3 1026 75 10000 2.1 360 07:44 10.01.2020
4598 Clear 2 1026 75 10000 2.1 360 07:22 10.01.2020
4599 Clear 2 1025 75 10000 2.1 360 06:45 10.01.2020
4600 Clear 2 1025 75 10000 4.1 350 06:25 10.01.2020
4601 Clear 2 1025 75 10000 3.1 350 05:44 10.01.2020
4602 Clear 2 1025 93 10000 3.6 360 03:34 10.01.2020
4603 Clear 2 1025 75 6000 2.6 50 02:57 10.01.2020
4604 Mist 2 1025 75 4000 2.6 60 02:36 10.01.2020
4605 Mist 2 1025 100 4000 2.1 70 01:38 10.01.2020
4606 Clouds 3 1026 86 10000 3.6 350 00:57 10.01.2020
4607 Clouds 3 1026 93 10000 4.1 340 00:38 10.01.2020
4608 Clouds 3 1026 86 10000 4.1 340 23:57 09.01.2020
4609 Clouds 4 1026 86 10000 3.6 350 23:38 09.01.2020
4610 Clouds 4 1026 86 10000 3.6 350 23:38 09.01.2020
4611 Clouds 4 1026 86 10000 3.6 350 23:38 09.01.2020
4612 Clouds 4 1026 86 10000 3.6 350 23:38 09.01.2020
4613 Clouds 4 1026 86 10000 3.6 350 23:19 09.01.2020
4614 Clouds 4 1026 86 10000 3.1 340 22:57 09.01.2020
4615 Clouds 4 1026 86 10000 2.1 350 22:37 09.01.2020
4616 Clouds 4 1026 86 10000 2.1 350 22:18 09.01.2020
4617 Clouds 4 1026 86 10000 2.6 320 21:56 09.01.2020
4618 Clouds 4 1026 93 10000 1.5 310 21:37 09.01.2020
4619 Clouds 4 1026 93 10000 1.5 310 21:37 09.01.2020
4620 Clouds 4 1026 93 10000 1.5 310 21:37 09.01.2020
4621 Clouds 4 1026 93 10000 1.5 310 21:37 09.01.2020
4622 Clouds 4 1026 93 10000 1.5 310 21:37 09.01.2020
4623 Clouds 4 1026 93 10000 1.5 310 21:18 09.01.2020
4624 Clouds 5 1026 86 10000 3.1 340 20:56 09.01.2020
4625 Clouds 5 1026 75 10000 2.6 340 20:38 09.01.2020
4626 Clouds 4 1026 86 10000 2.1 360 20:19 09.01.2020
4627 Clouds 5 1026 75 10000 3.1 20 19:54 09.01.2020
4628 Clouds 5 1026 75 10000 2.6 20 19:36 09.01.2020
4629 Clouds 5 1026 75 10000 2.6 20 19:18 09.01.2020
4630 Clouds 5 1026 75 10000 3.1 10 18:54 09.01.2020
4631 Clouds 5 1026 75 10000 3.1 10 18:36 09.01.2020
4632 Clouds 5 1026 75 10000 3.1 30 18:18 09.01.2020
4633 Clouds 5 1026 75 10000 3.1 30 18:18 09.01.2020
4634 Clouds 6 1026 70 10000 4.6 20 17:40 09.01.2020
4635 Clouds 5 1027 75 10000 3.1 360 17:18 09.01.2020
4636 Clouds 5 1027 75 10000 3.1 360 17:18 09.01.2020
4637 Clouds 6 1026 75 10000 4.1 360 16:47 09.01.2020
4638 Clouds 6 1026 70 10000 2.6 360 16:22 09.01.2020
4639 Clouds 6 1026 70 10000 1.5 10 15:44 09.01.2020
4640 Clouds 6 1026 70 10000 7.2 360 15:25 09.01.2020
4641 Rain 7 1025 70 10000 5.1 40 14:59 09.01.2020
4642 Rain 7 1025 70 10000 5.1 40 14:41 09.01.2020
4643 Clouds 7 1026 70 10000 5.7 10 14:21 09.01.2020
4644 Clouds 7 1026 75 10000 6.2 360 13:57 09.01.2020
4645 Clouds 7 1026 75 10000 6.2 360 13:39 09.01.2020
4646 Clouds 7 1026 70 10000 6.7 360 13:20 09.01.2020
4647 Clouds 7 1026 70 10000 6.7 360 12:58 09.01.2020
4648 Clouds 7 1026 81 10000 4.6 10 12:38 09.01.2020
4649 Clouds 7 1026 81 10000 4.6 10 12:19 09.01.2020
4650 Clouds 6 1027 75 10000 5.1 10 11:43 09.01.2020
4651 Clouds 7 1027 75 10000 5.1 360 11:25 09.01.2020
4652 Clouds 7 1027 75 10000 5.1 360 10:59 09.01.2020
4653 Clouds 6 1027 75 10000 3.6 10 10:41 09.01.2020
4654 Clouds 6 1028 81 10000 3.1 20 10:22 09.01.2020
4655 Clouds 6 1028 75 10000 5.7 20 09:49 09.01.2020
4656 Rain 6 1028 86 10000 5.1 20 09:26 09.01.2020
4657 Rain 6 1028 86 10000 5.1 20 08:59 09.01.2020
4658 Rain 6 1028 80 10000 1.5 50 08:40 09.01.2020
4659 Rain 6 1027 80 10000 4.1 10 08:22 09.01.2020
4660 Rain 6 1027 80 10000 6.2 360 07:57 09.01.2020
4661 Rain 6 1027 80 10000 6.2 360 07:38 09.01.2020
4662 Clouds 6 1027 80 10000 7.2 350 07:19 09.01.2020
4663 Clouds 6 1027 75 10000 7.2 360 06:38 09.01.2020
4664 Clouds 6 1027 75 10000 6.7 360 06:18 09.01.2020
4665 Clouds 6 1027 75 10000 5.1 10 05:40 09.01.2020
4666 Clouds 6 1027 80 10000 5.1 360 04:42 09.01.2020
4667 Clouds 6 1027 80 10000 4.1 60 03:28 09.01.2020
4668 Clouds 5 1027 80 10000 2.6 60 02:47 09.01.2020
4669 Clouds 6 1027 80 10000 5.1 350 01:56 09.01.2020
4670 Clouds 5 1027 80 10000 5.1 350 01:34 09.01.2020
4671 Clouds 5 1027 72 10000 4.6 10 00:40 09.01.2020
4672 Clouds 5 1028 80 10000 4.1 10 00:19 09.01.2020
4673 Rain 5 1026 72 10000 4.1 40 23:41 08.01.2020
4674 Clouds 5 1027 75 10000 10.3 10 23:23 08.01.2020
4675 Rain 5 1027 80 10000 6.7 350 22:58 08.01.2020
4676 Rain 5 1027 80 10000 6.7 350 22:38 08.01.2020
4677 Rain 5 1027 86 10000 7.7 360 22:20 08.01.2020
4678 Rain 5 1027 86 10000 7.7 350 21:56 08.01.2020
4679 Rain 5 1028 80 10000 6.7 350 21:37 08.01.2020
4680 Rain 5 1028 80 10000 6.7 350 21:18 08.01.2020
4681 Rain 5 1028 80 10000 5.7 360 20:56 08.01.2020
4682 Rain 5 1028 80 10000 5.7 360 20:37 08.01.2020
4683 Clouds 5 1028 86 10000 5.1 340 20:19 08.01.2020
4684 Rain 5 1027 86 10000 7.7 350 19:39 08.01.2020
4685 Rain 4 1027 86 10000 8.7 350 19:20 08.01.2020
4686 Rain 5 1027 86 10000 8.7 350 18:59 08.01.2020
4687 Rain 5 1028 80 10000 7.2 360 18:40 08.01.2020
4688 Rain 5 1027 86 10000 6.2 30 18:19 08.01.2020
4689 Rain 5 1027 86 10000 6.2 30 18:19 08.01.2020
4690 Rain 5 1027 86 10000 6.2 30 17:59 08.01.2020
4691 Rain 5 1027 86 10000 8.2 350 17:40 08.01.2020
4692 Rain 5 1027 80 10000 5.1 20 17:22 08.01.2020
4693 Clouds 5 1027 86 10000 7.7 350 16:57 08.01.2020
4694 Clouds 5 1027 86 10000 7.7 350 16:38 08.01.2020
4695 Clouds 5 1027 80 10000 7.2 360 16:19 08.01.2020
4696 Rain 5 1027 93 6000 10.8 20 15:55 08.01.2020
4697 Clouds 6 1027 80 10000 7.2 350 15:37 08.01.2020
4698 Clouds 6 1026 80 10000 8.7 360 15:18 08.01.2020
4699 Clouds 6 1026 80 10000 7.7 350 14:40 08.01.2020
4700 Clouds 6 1026 80 10000 8.2 360 14:21 08.01.2020
4701 Clouds 6 1026 75 10000 10.8 350 13:42 08.01.2020
4702 Rain 6 1026 86 6000 11.8 20 13:24 08.01.2020
4703 Clouds 6 1025 80 10000 10.8 350 12:59 08.01.2020
4704 Clouds 6 1025 80 10000 10.8 350 12:40 08.01.2020
4705 Clouds 6 1025 80 10000 10.3 350 12:18 08.01.2020
4706 Rain 6 1026 80 10000 9.8 350 11:48 08.01.2020
4707 Rain 6 1026 80 10000 8.7 350 11:20 08.01.2020
4708 Rain 6 1026 80 10000 8.7 350 10:59 08.01.2020
4709 Rain 6 1026 80 10000 10.3 360 10:41 08.01.2020
4710 Clouds 6 1026 80 10000 9.8 360 10:21 08.01.2020
4711 Clouds 6 1026 80 10000 9.3 350 09:57 08.01.2020
4712 Clouds 6 1026 80 10000 9.3 350 09:36 08.01.2020
4713 Clouds 6 1026 80 10000 13.9 10 09:18 08.01.2020
4714 Rain 6 1025 80 8000 8.7 350 08:41 08.01.2020
4715 Rain 6 1025 80 6000 8.2 10 08:22 08.01.2020
4716 Rain 6 1025 80 6000 8.2 10 07:59 08.01.2020
4717 Rain 5 1024 93 6000 10.3 350 07:40 08.01.2020
4718 Rain 5 1024 86 6000 10.8 360 07:19 08.01.2020
4719 Rain 6 1024 86 6000 8.7 360 06:42 08.01.2020
4720 Rain 6 1023 86 6000 9.3 360 05:56 08.01.2020
4721 Rain 5 1023 93 6000 9.3 360 05:26 08.01.2020
4722 Rain 6 1023 86 6000 8.7 360 04:37 08.01.2020
4723 Rain 6 1023 80 10000 8.2 350 02:46 08.01.2020
4724 Rain 6 1023 80 10000 8.2 350 02:28 08.01.2020
4725 Rain 6 1021 93 10000 8.2 30 01:57 08.01.2020
4726 Rain 6 1021 93 10000 8.2 30 01:32 08.01.2020
4727 Rain 6 1022 80 6000 9.3 360 00:51 08.01.2020
4728 Rain 6 1022 80 6000 10.3 360 00:23 08.01.2020
4729 Rain 6 1021 80 6000 10.8 360 23:46 07.01.2020
4730 Rain 6 1021 80 6000 11.3 360 23:21 07.01.2020
4731 Rain 6 1022 80 6000 10.3 360 22:56 07.01.2020
4732 Rain 6 1022 80 6000 10.3 360 22:37 07.01.2020
4733 Rain 6 1021 80 6000 10.3 360 22:18 07.01.2020
4734 Rain 6 1021 80 6000 10.3 360 21:42 07.01.2020
4735 Rain 6 1021 80 6000 11.8 360 21:22 07.01.2020
4736 Rain 6 1021 80 6000 11.8 360 20:58 07.01.2020
4737 Rain 6 1021 80 6000 11.8 360 20:39 07.01.2020
4738 Rain 6 1021 80 6000 12.3 360 20:21 07.01.2020
4739 Rain 6 1021 86 6000 11.8 360 19:57 07.01.2020
4740 Rain 6 1021 86 6000 11.8 360 19:37 07.01.2020
4741 Rain 6 1020 80 6000 12.3 360 19:19 07.01.2020
4742 Rain 5 1020 86 6000 12.9 360 18:56 07.01.2020
4743 Rain 5 1020 86 6000 12.9 360 18:56 07.01.2020
4744 Rain 5 1020 86 6000 12.9 360 18:37 07.01.2020
4745 Rain 6 1020 86 6000 12.3 360 18:18 07.01.2020
4746 Rain 6 1020 80 6000 13.4 360 17:42 07.01.2020
4747 Rain 6 1019 86 6000 13.9 360 17:23 07.01.2020
4748 Rain 6 1019 86 6000 13.9 360 17:23 07.01.2020
4749 Rain 6 1019 86 6000 13.9 360 16:58 07.01.2020
4750 Rain 6 1019 86 6000 13.9 360 16:39 07.01.2020
4751 Rain 6 1018 86 3200 12.3 360 16:20 07.01.2020
4752 Rain 6 1018 86 3200 15.4 360 15:59 07.01.2020
4753 Rain 6 1018 86 3200 15.4 360 15:41 07.01.2020
4754 Rain 6 1018 86 4000 13.9 360 15:23 07.01.2020
4755 Rain 6 1017 86 10000 15.4 360 14:57 07.01.2020
4756 Rain 6 1017 86 10000 15.4 360 14:37 07.01.2020
4757 Rain 6 1016 87 3100 13.4 20 14:19 07.01.2020
4758 Rain 6 1016 87 3100 13.4 20 14:19 07.01.2020
4759 Rain 6 1017 86 6000 13.9 360 13:40 07.01.2020
4760 Rain 6 1017 86 6000 14.4 360 13:20 07.01.2020
4761 Rain 6 1017 93 6000 12.9 360 12:54 07.01.2020
4762 Rain 6 1017 93 6000 12.9 360 12:36 07.01.2020
4763 Rain 6 1017 86 6000 12.3 360 12:18 07.01.2020
4764 Rain 6 1017 93 6000 12.9 360 11:41 07.01.2020
4765 Rain 6 1017 86 6000 14.9 360 11:21 07.01.2020
4766 Rain 6 1017 86 6000 13.4 360 10:43 07.01.2020
4767 Rain 6 1017 86 6000 13.4 360 10:43 07.01.2020
4768 Rain 6 1017 93 6000 14.4 360 10:24 07.01.2020
4769 Rain 6 1017 93 6000 14.4 360 09:59 07.01.2020
4770 Rain 6 1017 86 4000 14.4 360 09:38 07.01.2020
4771 Rain 6 1016 87 4000 15.4 360 09:20 07.01.2020
4772 Rain 7 1016 87 4000 12.9 10 08:47 07.01.2020
4773 Rain 7 1016 87 6000 14.4 10 08:27 07.01.2020
4774 Rain 7 1016 87 6000 12.3 10 07:55 07.01.2020
4775 Rain 7 1016 87 6000 12.3 10 07:34 07.01.2020
4776 Rain 7 1015 87 6000 12.3 10 06:54 07.01.2020
4777 Rain 7 1015 87 6000 12.3 10 06:35 07.01.2020
4778 Rain 7 1015 87 6000 13.4 10 05:58 07.01.2020
4779 Rain 7 1015 87 6000 13.4 20 05:38 07.01.2020
4780 Rain 7 1014 87 6000 13.4 10 03:44 07.01.2020
4781 Rain 7 1014 87 6000 11.8 10 02:38 07.01.2020
4782 Rain 7 1014 87 6000 13.4 10 01:59 07.01.2020
4783 Rain 7 1014 87 6000 12.3 10 01:35 07.01.2020
4784 Rain 7 1014 87 6000 10.3 10 00:51 07.01.2020
4785 Rain 7 1014 87 10000 12.3 10 00:20 07.01.2020
4786 Rain 7 1014 81 6000 12.9 10 23:56 06.01.2020
4787 Rain 7 1014 81 6000 12.9 10 23:37 06.01.2020
4788 Rain 7 1014 87 6000 13.4 20 23:18 06.01.2020
4789 Rain 7 1014 81 10000 12.3 20 22:43 06.01.2020
4790 Rain 7 1014 75 10000 14.4 20 22:24 06.01.2020
4791 Rain 7 1014 75 10000 14.4 20 21:58 06.01.2020
4792 Rain 8 1013 81 8000 14.9 20 21:39 06.01.2020
4793 Rain 8 1013 81 8000 13.4 20 21:20 06.01.2020
4794 Rain 8 1013 81 8000 13.4 20 21:20 06.01.2020
4795 Rain 8 1013 81 8000 13.4 20 21:20 06.01.2020
4796 Clouds 8 1013 81 10000 14.4 20 20:57 06.01.2020
4797 Clouds 8 1013 81 10000 14.4 20 20:38 06.01.2020
4798 Rain 8 1013 81 8000 13.9 20 20:20 06.01.2020
4799 Rain 8 1013 81 8000 13.9 20 20:20 06.01.2020
4800 Rain 7 1013 81 8000 14.9 20 19:56 06.01.2020
4801 Rain 7 1013 81 8000 14.9 20 19:38 06.01.2020
4802 Rain 7 1013 81 8000 13.4 20 19:20 06.01.2020
4803 Rain 7 1013 81 6000 14.4 10 18:48 06.01.2020
4804 Rain 7 1013 87 10000 14.4 20 18:22 06.01.2020
4805 Rain 7 1014 81 6000 13.4 20 17:58 06.01.2020
4806 Rain 7 1014 81 6000 13.4 20 17:38 06.01.2020
4807 Rain 7 1014 87 6000 21.1 30 17:18 06.01.2020
4808 Rain 7 1014 87 6000 21.1 30 17:18 06.01.2020
4809 Rain 7 1013 81 6000 14.4 20 16:44 06.01.2020
4810 Rain 7 1013 81 6000 13.4 20 16:25 06.01.2020
4811 Rain 7 1013 81 6000 13.4 20 16:25 06.01.2020
4812 Rain 7 1012 81 6000 13.4 10 15:59 06.01.2020
4813 Rain 7 1012 81 6000 13.4 10 15:39 06.01.2020
4814 Rain 7 1012 87 6000 13.9 20 15:19 06.01.2020
4815 Rain 7 1012 87 6000 13.9 20 14:57 06.01.2020
4816 Rain 8 1012 87 6000 13.9 20 14:39 06.01.2020
4817 Rain 8 1012 87 6000 12.9 20 14:19 06.01.2020
4818 Rain 8 1012 87 6000 12.3 20 13:54 06.01.2020
4819 Rain 8 1012 87 6000 11.3 20 13:36 06.01.2020
4820 Rain 8 1012 87 6000 11.3 20 13:18 06.01.2020
4821 Rain 8 1012 87 6000 12.3 20 12:41 06.01.2020
4822 Rain 8 1012 81 6000 10.3 30 12:20 06.01.2020
4823 Rain 8 1012 87 4000 11.3 30 11:57 06.01.2020
4824 Rain 8 1012 87 4000 11.3 30 11:38 06.01.2020
4825 Rain 8 1012 87 4000 11.3 30 11:38 06.01.2020
4826 Rain 8 1012 87 4000 9.8 20 11:20 06.01.2020
4827 Rain 8 1013 87 4000 10.3 30 10:43 06.01.2020
4828 Rain 8 1013 87 4000 10.3 30 10:43 06.01.2020
4829 Rain 8 1013 87 4000 11.3 20 10:25 06.01.2020
4830 Rain 8 1014 81 4000 10.3 30 09:57 06.01.2020
4831 Rain 8 1014 81 4000 10.3 30 09:37 06.01.2020
4832 Rain 8 1014 87 4000 11.3 20 09:19 06.01.2020
4833 Rain 8 1014 87 10000 10.3 30 08:42 06.01.2020
4834 Rain 7 1014 87 4000 11.8 20 08:23 06.01.2020
4835 Rain 7 1014 87 4000 12.3 20 07:48 06.01.2020
4836 Rain 7 1014 87 4000 11.8 20 07:21 06.01.2020
4837 Rain 7 1014 87 4000 10.3 20 06:44 06.01.2020
4838 Rain 7 1013 93 4000 11.3 20 05:52 06.01.2020
4839 Rain 7 1013 93 4000 11.3 20 05:33 06.01.2020
4840 Rain 7 1013 87 4000 10.3 10 04:26 06.01.2020
4841 Rain 7 1014 87 4000 10.8 20 03:53 06.01.2020
4842 Rain 7 1014 87 4000 10.8 20 02:40 06.01.2020
4843 Rain 7 1015 93 4000 8.7 30 02:20 06.01.2020
4844 Rain 7 1014 93 4000 9.3 20 01:41 06.01.2020
4845 Rain 7 1015 87 4000 8.7 20 01:20 06.01.2020
4846 Rain 7 1015 87 4000 7.7 40 00:40 06.01.2020
4847 Rain 7 1015 93 4000 8.2 20 00:19 06.01.2020
4848 Rain 7 1015 93 4000 7.2 20 23:41 05.01.2020
4849 Rain 7 1015 93 7000 8.2 20 23:21 05.01.2020
4850 Rain 7 1015 87 6000 6.7 20 22:55 05.01.2020
4851 Rain 7 1015 87 6000 6.7 20 22:37 05.01.2020
4852 Rain 7 1015 87 7000 5.7 20 22:18 05.01.2020
4853 Rain 7 1015 87 7000 5.7 20 21:41 05.01.2020
4854 Rain 7 1015 87 7000 5.1 20 21:21 05.01.2020
4855 Rain 7 1015 87 7000 5.1 20 20:58 05.01.2020
4856 Rain 6 1015 87 7000 6.7 20 20:39 05.01.2020
4857 Rain 7 1015 87 3500 9.8 20 20:20 05.01.2020
4858 Rain 7 1015 87 7000 5.7 20 19:59 05.01.2020
4859 Rain 7 1015 87 7000 5.7 20 19:40 05.01.2020
4860 Rain 6 1015 81 7000 6.7 20 19:21 05.01.2020
4861 Rain 7 1015 81 7000 5.7 30 18:56 05.01.2020
4862 Rain 7 1015 81 7000 5.7 30 18:38 05.01.2020
4863 Rain 7 1015 81 7000 5.1 30 18:19 05.01.2020
4864 Rain 7 1015 81 7000 6.7 20 17:59 05.01.2020
4865 Rain 7 1015 81 7000 6.7 20 17:39 05.01.2020
4866 Rain 7 1015 81 7000 6.7 20 17:39 05.01.2020
4867 Rain 7 1015 81 10000 7.2 10 17:20 05.01.2020
4868 Rain 7 1014 81 10000 6.7 360 16:57 05.01.2020
4869 Rain 7 1014 81 10000 6.7 360 16:39 05.01.2020
4870 Rain 7 1014 81 10000 6.7 360 16:39 05.01.2020
4871 Clouds 7 1014 75 10000 8.2 360 16:20 05.01.2020
4872 Clouds 7 1014 70 10000 8.2 360 15:40 05.01.2020
4873 Clouds 7 1014 75 10000 9.3 360 15:21 05.01.2020
4874 Clouds 8 1013 75 10000 9.8 360 14:57 05.01.2020
4875 Clouds 8 1013 75 10000 9.8 360 14:38 05.01.2020
4876 Clouds 8 1013 70 10000 9.3 360 14:20 05.01.2020
4877 Rain 8 1012 70 10000 6.2 30 13:57 05.01.2020
4878 Rain 8 1012 70 10000 6.2 30 13:38 05.01.2020
4879 Rain 8 1012 70 10000 6.2 30 13:38 05.01.2020
4880 Rain 9 1013 75 10000 8.2 350 13:19 05.01.2020
4881 Rain 9 1013 75 10000 8.2 350 12:56 05.01.2020
4882 Rain 9 1013 75 10000 8.2 350 12:56 05.01.2020
4883 Clouds 9 1013 70 10000 4.6 340 12:37 05.01.2020
4884 Clouds 9 1013 70 10000 2.6 340 12:19 05.01.2020
4885 Clouds 9 1013 61 10000 0.5 0 11:44 05.01.2020
4886 Clouds 9 1014 61 10000 0.5 240 11:20 05.01.2020
4887 Clouds 9 1014 61 10000 0.5 240 11:00 05.01.2020
4888 Clouds 9 1014 57 10000 0.5 170 10:40 05.01.2020
4889 Clouds 9 1015 61 10000 1.5 200 10:20 05.01.2020
4890 Clouds 8 1015 61 10000 2.6 210 09:42 05.01.2020
4891 Clouds 8 1015 66 10000 2.6 240 09:22 05.01.2020
4892 Clouds 7 1015 70 10000 1.5 240 08:54 05.01.2020
4893 Clouds 7 1015 70 10000 1.5 240 08:35 05.01.2020
4894 Clouds 6 1015 81 10000 1 310 07:59 05.01.2020
4895 Clouds 6 1014 75 10000 1 200 07:39 05.01.2020
4896 Clouds 6 1014 70 10000 2.1 220 07:20 05.01.2020
4897 Clouds 6 1014 70 10000 2.1 230 06:47 05.01.2020
4898 Clouds 6 1014 66 10000 3.6 220 05:39 05.01.2020
4899 Clouds 7 1014 66 10000 4.1 210 04:55 05.01.2020
4900 Clouds 6 1014 70 10000 3.6 200 04:18 05.01.2020
4901 Clouds 6 1014 70 10000 3.6 200 04:18 05.01.2020
4902 Clouds 5 1014 70 10000 4.1 190 03:26 05.01.2020
4903 Clouds 5 1014 66 10000 4.6 190 02:32 05.01.2020
4904 Clouds 6 1015 70 10000 4.1 200 01:49 05.01.2020
4905 Clouds 6 1015 70 10000 4.1 200 01:20 05.01.2020
4906 Clouds 5 1015 70 10000 3.6 200 00:57 05.01.2020
4907 Clouds 5 1015 70 10000 4.1 200 00:57 05.01.2020
4908 Clouds 5 1015 70 10000 3.6 200 00:39 05.01.2020
4909 Clouds 5 1015 70 10000 3.6 200 00:19 05.01.2020
4910 Clouds 5 1016 70 10000 4.1 200 23:41 04.01.2020
4911 Clouds 5 1016 70 10000 4.1 200 23:41 04.01.2020
4912 Clear 5 1016 75 10000 4.6 210 23:20 04.01.2020
4913 Clear 5 1016 70 10000 4.6 200 22:55 04.01.2020
4914 Clear 6 1016 70 10000 4.6 200 22:37 04.01.2020
4915 Clear 6 1016 70 10000 3.6 200 22:19 04.01.2020
4916 Clear 6 1016 70 10000 3.1 220 21:55 04.01.2020
4917 Clear 6 1016 75 10000 2.6 210 21:36 04.01.2020
4918 Clear 6 1016 75 10000 2.6 210 21:18 04.01.2020
4919 Clear 6 1016 75 10000 2.1 260 20:41 04.01.2020
4920 Clouds 6 1016 70 10000 2.6 230 20:22 04.01.2020
4921 Clouds 7 1016 65 10000 2.1 240 19:57 04.01.2020
4922 Clouds 7 1016 65 10000 2.1 240 19:39 04.01.2020
4923 Clouds 7 1017 70 10000 3.1 240 19:20 04.01.2020
4924 Clouds 7 1017 65 10000 3.1 240 18:56 04.01.2020
4925 Clouds 7 1017 65 10000 3.1 240 18:38 04.01.2020
4926 Clouds 7 1017 70 10000 3.1 230 18:19 04.01.2020
4927 Clouds 7 1017 65 10000 3.1 240 17:42 04.01.2020
4928 Clouds 7 1017 65 10000 3.1 240 17:42 04.01.2020
4929 Clouds 7 1017 65 10000 3.1 240 17:42 04.01.2020
4930 Clouds 7 1016 70 10000 2.1 250 17:24 04.01.2020
4931 Clouds 7 1016 70 10000 2.1 250 16:59 04.01.2020
4932 Clouds 8 1017 70 10000 2.6 260 16:40 04.01.2020
4933 Clouds 8 1016 65 10000 3.6 250 16:22 04.01.2020
4934 Clouds 9 1016 61 10000 5.1 240 15:56 04.01.2020
4935 Clouds 9 1016 61 10000 5.1 240 15:38 04.01.2020
4936 Clouds 9 1016 61 10000 5.1 230 15:19 04.01.2020
4937 Clouds 10 1016 61 10000 5.1 240 14:54 04.01.2020
4938 Clouds 10 1016 61 10000 5.1 240 14:36 04.01.2020
4939 Clouds 10 1016 61 10000 5.7 240 14:18 04.01.2020
4940 Clouds 10 1016 61 10000 5.1 240 13:39 04.01.2020
4941 Clouds 10 1016 57 10000 5.1 240 13:20 04.01.2020
4942 Clouds 10 1017 65 10000 4.6 240 12:59 04.01.2020
4943 Clouds 10 1017 65 10000 4.6 240 12:40 04.01.2020
4944 Clouds 10 1017 65 10000 4.6 240 12:40 04.01.2020
4945 Clouds 10 1017 61 10000 5.1 240 12:19 04.01.2020
4946 Clouds 10 1017 45 10000 5.1 240 11:57 04.01.2020
4947 Clouds 10 1017 45 10000 5.1 240 11:38 04.01.2020
4948 Clouds 10 1018 50 10000 4.6 240 11:18 04.01.2020
4949 Clouds 9 1018 50 10000 4.6 260 10:41 04.01.2020
4950 Clouds 8 1018 52 10000 5.7 240 10:22 04.01.2020
4951 Clouds 8 1018 45 10000 4.1 250 09:50 04.01.2020
4952 Clouds 7 1018 52 10000 4.6 240 09:26 04.01.2020
4953 Clouds 7 1018 52 10000 4.6 240 08:57 04.01.2020
4954 Clouds 7 1018 50 10000 3.6 250 08:37 04.01.2020
4955 Clouds 7 1018 45 10000 2.6 270 08:19 04.01.2020
4956 Clouds 7 1018 48 10000 3.6 260 07:42 04.01.2020
4957 Clouds 6 1018 52 10000 4.1 260 06:49 04.01.2020
4958 Clouds 6 1018 64 10000 3.1 260 05:59 04.01.2020
4959 Clouds 6 1018 67 10000 3.1 260 05:18 04.01.2020
4960 Clouds 7 1018 67 10000 3.1 260 04:32 04.01.2020
4961 Clouds 6 1018 65 10000 2.6 250 03:39 04.01.2020
4962 Clouds 6 1018 70 10000 2.1 240 03:18 04.01.2020
4963 Clouds 5 1019 66 10000 2.6 280 02:20 04.01.2020
4964 Clouds 5 1019 60 10000 2.6 270 01:53 04.01.2020
4965 Clouds 5 1019 60 10000 2.6 270 01:30 04.01.2020
4966 Clouds 5 1020 75 10000 1 280 00:30 04.01.2020
4967 Clouds 6 1020 75 10000 1 280 23:59 03.01.2020
4968 Clouds 6 1020 80 10000 2.1 310 23:38 03.01.2020
4969 Clouds 6 1020 80 10000 1.5 310 23:20 03.01.2020
4970 Clouds 6 1021 80 10000 2.6 310 22:41 03.01.2020
4971 Clouds 6 1021 80 10000 2.6 320 22:20 03.01.2020
4972 Clouds 5 1021 86 10000 2.6 350 21:58 03.01.2020
4973 Clouds 5 1021 86 10000 2.6 350 21:38 03.01.2020
4974 Clouds 5 1021 80 10000 3.1 340 21:19 03.01.2020
4975 Clouds 6 1021 80 10000 3.1 340 20:57 03.01.2020
4976 Clouds 6 1021 80 10000 3.6 340 20:39 03.01.2020
4977 Clouds 6 1021 75 10000 3.1 340 20:18 03.01.2020
4978 Clouds 6 1022 75 10000 3.1 330 19:55 03.01.2020
4979 Clouds 6 1022 75 10000 3.1 330 19:37 03.01.2020
4980 Clouds 6 1022 75 10000 3.6 340 19:18 03.01.2020
4981 Clouds 6 1022 75 10000 2.6 360 18:41 03.01.2020
4982 Clouds 7 1022 70 10000 4.1 10 18:23 03.01.2020
4983 Clouds 7 1022 70 10000 4.1 10 17:55 03.01.2020
4984 Clouds 7 1022 70 10000 4.6 360 17:36 03.01.2020
4985 Clouds 7 1022 70 10000 4.1 10 17:36 03.01.2020
4986 Clouds 7 1022 70 10000 4.6 360 17:18 03.01.2020
4987 Clouds 7 1022 70 10000 4.6 350 16:42 03.01.2020
4988 Clouds 7 1022 70 10000 5.1 350 16:22 03.01.2020
4989 Clouds 7 1022 65 10000 4.6 350 15:43 03.01.2020
4990 Clouds 8 1023 65 10000 4.6 350 15:19 03.01.2020
4991 Clouds 8 1023 61 10000 5.1 10 14:57 03.01.2020
4992 Clouds 8 1023 61 10000 5.1 10 14:37 03.01.2020
4993 Clouds 8 1023 61 10000 4.6 20 14:19 03.01.2020
4994 Clouds 8 1023 70 10000 6.2 350 13:43 03.01.2020
4995 Clouds 8 1023 70 10000 6.2 350 13:23 03.01.2020
4996 Clouds 8 1023 70 10000 6.2 350 12:57 03.01.2020
4997 Clouds 8 1023 70 10000 6.2 360 12:38 03.01.2020
4998 Clouds 8 1024 70 10000 5.1 20 12:20 03.01.2020
4999 Clouds 8 1024 70 10000 4.6 20 11:44 03.01.2020
5000 Clouds 8 1024 70 10000 4.1 20 11:19 03.01.2020
5001 Clouds 8 1025 75 10000 4.6 30 10:44 03.01.2020
5002 Clouds 7 1025 75 10000 4.6 40 10:25 03.01.2020
5003 Clouds 7 1025 75 10000 4.6 40 09:57 03.01.2020
5004 Clouds 7 1026 75 10000 4.1 20 09:39 03.01.2020
5005 Clouds 7 1026 81 10000 3.6 20 09:21 03.01.2020
5006 Clouds 7 1026 75 10000 3.6 20 08:56 03.01.2020
5007 Clouds 7 1026 75 10000 3.6 20 08:36 03.01.2020
5008 Clouds 6 1026 75 10000 4.1 40 08:18 03.01.2020
5009 Clouds 6 1026 81 10000 3.1 50 07:39 03.01.2020
5010 Clouds 6 1026 75 10000 3.1 20 07:18 03.01.2020
5011 Clouds 6 1026 75 10000 3.1 20 06:43 03.01.2020
5012 Clouds 6 1026 75 10000 3.1 30 06:24 03.01.2020
5013 Clouds 6 1026 81 10000 2.1 40 05:28 03.01.2020
5014 Clouds 6 1026 93 10000 1 10 03:55 03.01.2020
5015 Clouds 6 1026 81 10000 2.1 20 02:55 03.01.2020
5016 Clouds 6 1027 81 10000 2.6 10 01:57 03.01.2020
5017 Clouds 6 1027 75 10000 2.6 70 01:38 03.01.2020
5018 Clouds 6 1027 75 10000 4.1 30 00:46 03.01.2020
5019 Clouds 6 1027 75 10000 3.6 30 00:26 03.01.2020
5020 Rain 6 1027 81 10000 4.1 30 23:55 02.01.2020
5021 Rain 6 1027 81 10000 4.1 30 23:37 02.01.2020
5022 Rain 6 1027 86 10000 3.6 10 23:18 02.01.2020
5023 Rain 6 1028 86 10000 3.6 20 22:44 02.01.2020
5024 Rain 7 1028 81 10000 3.1 30 22:20 02.01.2020
5025 Rain 7 1028 81 10000 3.1 30 21:57 02.01.2020
5026 Rain 7 1028 81 10000 5.7 20 21:57 02.01.2020
5027 Rain 7 1028 81 10000 5.7 20 21:38 02.01.2020
5028 Rain 7 1028 81 10000 5.7 20 21:38 02.01.2020
5029 Rain 7 1028 81 10000 5.1 30 21:20 02.01.2020
5030 Rain 7 1028 81 10000 4.1 30 20:57 02.01.2020
5031 Rain 7 1028 81 10000 4.1 30 20:38 02.01.2020
5032 Rain 7 1028 81 10000 4.6 20 20:20 02.01.2020
5033 Clouds 7 1028 81 10000 6.2 20 19:55 02.01.2020
5034 Clouds 7 1027 81 10000 6.7 20 19:36 02.01.2020
5035 Clouds 7 1027 81 10000 6.7 20 19:18 02.01.2020
5036 Rain 7 1027 81 10000 7.2 20 18:54 02.01.2020
5037 Rain 7 1027 81 10000 7.2 20 18:36 02.01.2020
5038 Rain 7 1027 81 10000 6.7 30 18:18 02.01.2020
5039 Rain 7 1027 81 10000 6.7 20 17:55 02.01.2020
5040 Rain 7 1027 81 10000 6.7 20 17:36 02.01.2020
5041 Rain 7 1027 87 10000 8.2 10 17:18 02.01.2020
5042 Rain 7 1027 87 10000 7.2 10 16:42 02.01.2020
5043 Rain 7 1027 87 10000 5.1 20 16:21 02.01.2020
5044 Rain 7 1027 87 10000 6.2 10 15:58 02.01.2020
5045 Rain 7 1027 81 10000 11.8 30 15:40 02.01.2020
5046 Rain 7 1027 87 10000 6.2 10 15:40 02.01.2020
5047 Rain 7 1027 87 10000 6.2 20 15:22 02.01.2020
5048 Rain 7 1027 75 10000 11.3 30 14:57 02.01.2020
5049 Rain 8 1026 87 10000 8.2 10 14:37 02.01.2020
5050 Rain 8 1026 87 10000 8.2 10 14:18 02.01.2020
5051 Rain 7 1026 87 7000 6.7 10 13:51 02.01.2020
5052 Rain 8 1026 87 7000 6.7 10 13:32 02.01.2020
5053 Rain 8 1026 81 7000 7.2 20 12:47 02.01.2020
5054 Rain 8 1026 81 7000 7.2 20 12:28 02.01.2020
5055 Rain 7 1027 87 7000 5.1 20 11:59 02.01.2020
5056 Rain 7 1027 87 7000 5.1 20 11:41 02.01.2020
5057 Rain 7 1027 81 6000 7.2 40 11:20 02.01.2020
5058 Rain 7 1027 87 6000 7.2 10 10:45 02.01.2020
5059 Rain 6 1027 86 9000 8.2 10 10:26 02.01.2020
5060 Rain 6 1028 86 10000 7.7 360 09:55 02.01.2020
5061 Rain 6 1028 86 10000 7.7 360 09:34 02.01.2020
5062 Clouds 6 1027 75 10000 7.2 10 08:50 02.01.2020
5063 Clouds 6 1027 75 10000 8.2 10 08:28 02.01.2020
5064 Rain 6 1027 80 10000 8.2 10 07:57 02.01.2020
5065 Clouds 6 1027 76 10000 9.3 360 07:31 02.01.2020
5066 Clouds 6 1026 76 10000 8.7 10 06:57 02.01.2020
5067 Clouds 6 1026 76 10000 8.7 10 06:57 02.01.2020
5068 Clouds 6 1026 76 10000 8.7 10 06:57 02.01.2020
5069 Clouds 6 1026 76 10000 8.7 10 06:39 02.01.2020
5070 Rain 6 1026 75 10000 7.7 10 05:37 02.01.2020
5071 Rain 6 1026 86 10000 6.7 30 04:34 02.01.2020
5072 Clouds 6 1026 80 10000 6.7 10 03:19 02.01.2020
5073 Clouds 5 1026 86 10000 6.2 360 02:20 02.01.2020
5074 Snow 5 1026 86 10000 7.2 340 01:47 02.01.2020
5075 Rain 6 1026 75 10000 6.2 360 01:19 02.01.2020
5076 Rain 6 1026 75 10000 7.7 360 00:36 02.01.2020
5077 Rain 6 1026 80 7000 7.2 10 00:18 02.01.2020
5078 Clouds 6 1026 65 10000 5.1 360 23:40 01.01.2020
5079 Clouds 6 1026 60 10000 6.2 350 23:20 01.01.2020
5080 Clouds 6 1026 65 10000 5.1 350 22:38 01.01.2020
5081 Clouds 6 1026 65 10000 5.1 350 22:38 01.01.2020
5082 Rain 6 1026 66 10000 7.2 340 22:20 01.01.2020
5083 Rain 6 1026 66 10000 7.2 340 22:20 01.01.2020
5084 Rain 7 1026 66 10000 7.2 340 22:20 01.01.2020
5085 Rain 7 1026 66 10000 6.2 350 21:56 01.01.2020
5086 Rain 7 1026 66 10000 6.2 350 21:38 01.01.2020
5087 Rain 7 1026 66 10000 6.2 350 21:38 01.01.2020
5088 Rain 6 1026 75 10000 8.2 350 21:19 01.01.2020
5089 Clouds 7 1026 56 10000 7.7 360 20:56 01.01.2020
5090 Clouds 7 1026 56 10000 7.7 360 20:56 01.01.2020
5091 Clouds 7 1026 56 10000 7.7 360 20:38 01.01.2020
5092 Rain 7 1026 56 10000 7.7 360 20:38 01.01.2020
5093 Rain 6 1026 60 10000 9.3 360 20:19 01.01.2020
5094 Rain 7 1026 66 10000 8.2 360 19:55 01.01.2020
5095 Rain 7 1026 66 10000 8.2 360 19:55 01.01.2020
5096 Rain 7 1026 66 10000 8.2 360 19:55 01.01.2020
5097 Rain 7 1026 66 10000 9.3 350 19:37 01.01.2020
5098 Rain 7 1026 66 10000 9.3 350 19:37 01.01.2020
5099 Rain 7 1026 66 10000 9.3 350 19:19 01.01.2020
5100 Rain 7 1026 56 10000 6.7 360 18:55 01.01.2020
5101 Rain 7 1026 56 10000 6.7 360 18:36 01.01.2020
5102 Clouds 7 1026 66 10000 7.2 350 18:18 01.01.2020
5103 Clouds 7 1025 66 10000 7.2 350 17:56 01.01.2020
5104 Clouds 7 1025 66 10000 7.2 350 17:38 01.01.2020
5105 Clouds 7 1025 63 10000 6.2 360 17:18 01.01.2020
5106 Clouds 8 1025 63 10000 6.7 360 16:41 01.01.2020
5107 Clouds 8 1024 63 10000 8.2 360 16:22 01.01.2020
5108 Clouds 8 1024 63 10000 8.2 360 15:58 01.01.2020
5109 Clouds 8 1024 63 10000 8.7 360 15:40 01.01.2020
5110 Clouds 8 1024 61 10000 7.2 40 15:21 01.01.2020
5111 Clouds 8 1024 61 10000 8.7 360 14:59 01.01.2020
5112 Clouds 8 1024 61 10000 8.7 360 14:40 01.01.2020
5113 Clouds 8 1024 65 10000 8.2 360 14:21 01.01.2020
5114 Clouds 9 1024 61 10000 9.3 360 13:56 01.01.2020
5115 Clouds 9 1024 61 10000 9.3 360 13:37 01.01.2020
5116 Clouds 9 1024 61 10000 9.3 360 13:37 01.01.2020
5117 Clouds 9 1024 61 10000 9.3 360 13:37 01.01.2020
5118 Clouds 9 1024 61 10000 9.3 360 13:37 01.01.2020
5119 Clouds 9 1023 61 10000 8.2 360 13:18 01.01.2020
5120 Clouds 8 1023 61 10000 8.2 360 12:56 01.01.2020
5121 Clouds 8 1023 65 10000 9.3 360 12:56 01.01.2020
5122 Clouds 9 1023 65 10000 9.3 360 12:38 01.01.2020
5123 Clouds 8 1023 61 10000 8.2 10 12:18 01.01.2020
5124 Clouds 8 1023 66 10000 6.2 10 11:43 01.01.2020
5125 Clouds 8 1023 70 10000 5.1 360 11:23 01.01.2020
5126 Clouds 8 1023 70 10000 5.1 360 10:59 01.01.2020
5127 Clouds 8 1024 81 10000 2.6 330 10:41 01.01.2020
5128 Clouds 7 1024 93 10000 1 0 10:20 01.01.2020
5129 Rain 7 1024 93 10000 1 0 09:57 01.01.2020
5130 Rain 7 1024 93 10000 1 0 09:37 01.01.2020
5131 Clouds 7 1024 70 10000 9.8 20 09:18 01.01.2020
5132 Rain 7 1023 93 10000 2.1 350 08:55 01.01.2020
5133 Rain 7 1023 93 10000 2.1 350 08:36 01.01.2020
5134 Rain 7 1023 93 10000 0.5 0 08:18 01.01.2020
5135 Rain 7 1022 86 10000 3.1 330 07:51 01.01.2020
5136 Rain 7 1022 86 10000 3.1 330 07:32 01.01.2020
5137 Clouds 7 1022 85 10000 2.6 340 06:44 01.01.2020
5138 Clouds 6 1022 65 10000 2.6 310 06:20 01.01.2020
5139 Clouds 6 1021 65 10000 2.6 340 05:21 01.01.2020
5140 Clouds 5 1021 65 10000 3.6 320 03:43 01.01.2020
5141 Clouds 5 1022 65 10000 4.6 310 03:22 01.01.2020
5142 Clouds 5 1022 65 10000 4.6 310 02:56 01.01.2020
5143 Clouds 5 1022 75 10000 3.6 310 02:33 01.01.2020
5144 Clouds 5 1021 80 10000 1.5 280 01:55 01.01.2020
5145 Clouds 5 1021 80 10000 1.5 280 01:36 01.01.2020
5146 Clouds 5 1021 80 10000 1.5 300 01:18 01.01.2020
5147 Clouds 5 1021 80 10000 2.1 320 00:44 01.01.2020
5148 Clouds 5 1021 75 10000 2.6 300 00:24 01.01.2020
5149 Clouds 5 1022 81 10000 3.6 250 23:41 31.12.2019
5150 Clouds 5 1022 75 10000 4.1 230 23:21 31.12.2019
5151 Clouds 4 1022 86 10000 1.5 280 22:57 31.12.2019
5152 Clouds 4 1022 86 10000 1.5 280 22:38 31.12.2019
5153 Clouds 5 1022 76 10000 2.1 290 22:19 31.12.2019
5154 Clouds 5 1022 76 10000 2.1 290 21:57 31.12.2019
5155 Clear 5 1023 75 10000 2.1 250 21:37 31.12.2019
5156 Clouds 5 1023 76 10000 1.5 270 21:19 31.12.2019
5157 Clouds 5 1023 76 10000 1.5 270 21:19 31.12.2019
5158 Clouds 5 1023 75 10000 1 140 20:54 31.12.2019
5159 Clouds 5 1023 75 10000 1 140 20:36 31.12.2019
5160 Clouds 5 1023 75 10000 1.5 140 20:18 31.12.2019
5161 Clouds 5 1024 80 10000 2.1 350 19:41 31.12.2019
5162 Clouds 5 1024 75 10000 2.6 340 19:22 31.12.2019
5163 Clouds 6 1024 75 10000 3.1 340 18:59 31.12.2019
5164 Clouds 5 1024 75 10000 3.1 340 18:40 31.12.2019
5165 Clouds 6 1024 75 10000 3.6 320 18:20 31.12.2019
5166 Clouds 6 1024 75 10000 3.6 330 17:56 31.12.2019
5167 Clouds 6 1024 75 10000 3.6 330 17:38 31.12.2019
5168 Clouds 6 1024 80 10000 4.6 340 17:19 31.12.2019
5169 Clouds 6 1024 80 10000 4.6 340 16:57 31.12.2019
5170 Clouds 6 1024 75 10000 4.1 340 16:38 31.12.2019
5171 Clouds 6 1024 75 10000 6.2 350 16:19 31.12.2019
5172 Clouds 6 1024 75 10000 6.7 360 15:56 31.12.2019
5173 Clouds 7 1024 81 10000 6.7 360 15:38 31.12.2019
5174 Clouds 6 1024 81 10000 6.7 360 15:20 31.12.2019
5175 Clouds 6 1024 81 10000 7.2 360 14:58 31.12.2019
5176 Clouds 7 1024 81 10000 7.2 360 14:38 31.12.2019
5177 Clouds 7 1024 81 10000 6.7 360 14:19 31.12.2019
5178 Clouds 7 1024 81 10000 6.2 350 13:57 31.12.2019
5179 Clouds 7 1024 81 10000 6.2 350 13:39 31.12.2019
5180 Clouds 7 1024 81 10000 5.7 360 13:21 31.12.2019
5181 Clouds 7 1024 81 10000 5.7 360 13:21 31.12.2019
5182 Clouds 7 1024 81 10000 5.7 360 12:58 31.12.2019
5183 Clouds 7 1024 81 10000 6.2 350 12:39 31.12.2019
5184 Clouds 7 1024 81 10000 8.2 360 12:20 31.12.2019
5185 Clouds 7 1025 81 10000 7.2 360 11:56 31.12.2019
5186 Clouds 7 1025 81 10000 7.2 360 11:38 31.12.2019
5187 Clouds 7 1025 87 10000 7.7 360 11:20 31.12.2019
5188 Clouds 7 1025 87 10000 7.2 350 10:57 31.12.2019
5189 Clouds 7 1025 87 10000 7.2 350 10:38 31.12.2019
5190 Clouds 7 1025 87 10000 7.2 350 10:38 31.12.2019
5191 Clouds 7 1026 87 10000 8.2 360 10:20 31.12.2019
5192 Clouds 7 1026 87 10000 8.2 360 09:58 31.12.2019
5193 Clouds 7 1026 87 10000 8.2 360 09:39 31.12.2019
5194 Rain 7 1026 86 10000 8.7 10 09:20 31.12.2019
5195 Rain 7 1025 93 7000 9.8 360 08:57 31.12.2019
5196 Rain 7 1025 93 7000 9.8 360 08:37 31.12.2019
5197 Rain 7 1025 93 7000 9.8 360 08:37 31.12.2019
5198 Rain 7 1025 87 6000 10.3 360 08:18 31.12.2019
5199 Rain 7 1025 87 7000 10.3 360 07:41 31.12.2019
5200 Clouds 7 1025 87 10000 11.8 360 07:19 31.12.2019
5201 Clouds 7 1025 87 10000 11.3 360 06:49 31.12.2019
5202 Clouds 7 1024 87 10000 10.3 360 05:55 31.12.2019
5203 Rain 7 1023 81 10000 13.4 360 04:27 31.12.2019
5204 Rain 7 1023 81 10000 13.4 360 03:27 31.12.2019
5205 Rain 7 1023 87 10000 12.3 10 02:49 31.12.2019
5206 Rain 8 1023 81 10000 12.9 360 01:55 31.12.2019
5207 Rain 8 1023 81 10000 12.9 360 01:34 31.12.2019
5208 Rain 8 1022 87 10000 11.3 10 00:58 31.12.2019
5209 Rain 8 1022 87 10000 11.3 10 00:39 31.12.2019
5210 Rain 8 1022 87 10000 11.3 10 00:21 31.12.2019
5211 Rain 8 1022 87 8000 11.8 10 23:56 30.12.2019
5212 Rain 8 1022 87 8000 11.8 10 23:37 30.12.2019
5213 Rain 8 1022 87 8000 11.3 10 23:19 30.12.2019
5214 Rain 8 1023 87 8000 10.3 10 22:56 30.12.2019
5215 Rain 8 1023 87 8000 10.3 10 22:56 30.12.2019
5216 Rain 8 1023 87 8000 10.3 10 22:37 30.12.2019
5217 Rain 8 1022 87 8000 12.3 10 22:18 30.12.2019
5218 Rain 8 1022 87 10000 12.3 10 21:55 30.12.2019
5219 Rain 8 1022 87 10000 12.3 10 21:37 30.12.2019
5220 Rain 8 1022 75 10000 12.3 20 21:18 30.12.2019
5221 Rain 8 1022 75 10000 10.8 10 20:55 30.12.2019
5222 Rain 8 1022 75 10000 10.8 10 20:55 30.12.2019
5223 Rain 8 1022 75 10000 10.8 10 20:37 30.12.2019
5224 Rain 8 1022 75 10000 11.3 20 20:18 30.12.2019
5225 Rain 8 1022 75 10000 10.8 10 19:55 30.12.2019
5226 Rain 8 1022 75 10000 10.8 10 19:36 30.12.2019
5227 Rain 8 1022 75 10000 11.8 20 19:18 30.12.2019
5228 Rain 8 1022 75 10000 12.3 10 18:42 30.12.2019
5229 Rain 8 1021 70 10000 13.4 20 18:21 30.12.2019
5230 Rain 8 1021 70 10000 13.4 20 17:59 30.12.2019
5231 Rain 8 1021 70 10000 13.4 20 17:59 30.12.2019
5232 Rain 8 1021 70 10000 13.9 30 17:41 30.12.2019
5233 Clouds 8 1021 75 10000 14.4 20 17:20 30.12.2019
5234 Clouds 9 1020 70 10000 12.9 20 17:00 30.12.2019
5235 Clouds 9 1020 70 10000 12.9 20 16:41 30.12.2019
5236 Clouds 9 1020 66 10000 13.9 20 16:20 30.12.2019
5237 Rain 9 1020 70 7000 13.9 20 15:57 30.12.2019
5238 Rain 9 1020 70 7000 13.9 20 15:39 30.12.2019
5239 Rain 9 1020 75 7000 12.3 20 15:19 30.12.2019
5240 Rain 9 1020 70 10000 12.9 20 14:55 30.12.2019
5241 Rain 9 1020 70 10000 12.9 20 14:37 30.12.2019
5242 Rain 9 1020 70 10000 12.3 20 14:18 30.12.2019
5243 Rain 9 1019 70 10000 13.4 30 13:42 30.12.2019
5244 Rain 9 1019 76 10000 12.9 20 13:24 30.12.2019
5245 Rain 9 1019 76 10000 12.9 20 12:58 30.12.2019
5246 Rain 9 1019 70 10000 13.4 30 12:40 30.12.2019
5247 Clouds 9 1019 66 10000 11.8 20 12:19 30.12.2019
5248 Clouds 9 1019 66 10000 11.8 20 11:56 30.12.2019
5249 Clouds 10 1019 66 10000 11.8 20 11:38 30.12.2019
5250 Clouds 10 1020 66 10000 12.9 20 11:18 30.12.2019
5251 Clouds 10 1020 61 10000 11.8 30 10:43 30.12.2019
5252 Clouds 9 1020 66 10000 12.9 30 10:20 30.12.2019
5253 Clouds 9 1020 66 10000 10.8 30 09:55 30.12.2019
5254 Clouds 9 1020 66 10000 10.8 30 09:37 30.12.2019
5255 Clouds 9 1020 70 10000 11.8 40 09:18 30.12.2019
5256 Clouds 9 1020 66 10000 8.2 40 08:46 30.12.2019
5257 Clouds 9 1020 66 10000 9.3 40 08:23 30.12.2019
5258 Rain 9 1020 70 10000 8.7 50 07:53 30.12.2019
5259 Rain 9 1020 70 10000 8.7 50 07:32 30.12.2019
5260 Rain 8 1020 87 10000 5.7 50 06:39 30.12.2019
5261 Rain 7 1020 93 10000 7.2 20 04:45 30.12.2019
5262 Rain 7 1021 93 10000 5.7 80 03:52 30.12.2019
5263 Rain 7 1021 65 10000 6.7 30 02:47 30.12.2019
5264 Rain 7 1021 65 10000 6.7 30 02:29 30.12.2019
5265 Rain 7 1021 81 10000 3.1 50 01:43 30.12.2019
5266 Rain 7 1021 87 10000 3.1 80 01:19 30.12.2019
5267 Rain 7 1021 75 10000 5.1 20 00:42 30.12.2019
5268 Rain 7 1021 81 10000 4.6 20 23:58 29.12.2019
5269 Rain 7 1022 87 10000 2.6 20 23:38 29.12.2019
5270 Rain 7 1022 87 10000 2.6 20 23:38 29.12.2019
5271 Rain 6 1023 75 10000 11.3 40 23:19 29.12.2019
5272 Rain 6 1022 86 6000 4.1 10 22:41 29.12.2019
5273 Rain 6 1022 86 6000 4.1 10 22:41 29.12.2019
5274 Rain 6 1023 93 6000 4.1 20 22:22 29.12.2019
5275 Rain 6 1022 86 6000 4.6 360 21:56 29.12.2019
5276 Rain 6 1022 86 6000 4.6 360 21:38 29.12.2019
5277 Rain 6 1022 86 6000 6.2 20 21:20 29.12.2019
5278 Rain 6 1022 86 6000 7.2 360 20:56 29.12.2019
5279 Rain 6 1022 86 6000 7.2 360 20:38 29.12.2019
5280 Rain 6 1022 80 10000 8.2 360 20:20 29.12.2019
5281 Rain 6 1022 80 10000 8.2 360 19:58 29.12.2019
5282 Rain 6 1022 80 8000 8.7 360 19:39 29.12.2019
5283 Rain 6 1022 86 7000 8.2 360 19:20 29.12.2019
5284 Rain 6 1022 86 6000 7.2 10 18:55 29.12.2019
5285 Rain 6 1022 86 6000 7.2 10 18:37 29.12.2019
5286 Rain 6 1023 93 6000 6.7 30 18:19 29.12.2019
5287 Rain 6 1023 93 6000 6.7 30 18:19 29.12.2019
5288 Rain 6 1022 86 10000 4.1 350 17:56 29.12.2019
5289 Rain 6 1022 86 10000 4.1 350 17:38 29.12.2019
5290 Rain 6 1022 86 10000 4.1 350 17:38 29.12.2019
5291 Rain 6 1022 86 10000 6.2 360 17:19 29.12.2019
5292 Clouds 6 1022 86 10000 5.1 360 16:56 29.12.2019
5293 Clouds 6 1022 86 10000 5.1 360 16:36 29.12.2019
5294 Clouds 6 1022 86 10000 5.7 350 16:18 29.12.2019
5295 Rain 6 1022 86 4000 11.3 20 15:56 29.12.2019
5296 Rain 7 1022 75 10000 7.2 10 15:38 29.12.2019
5297 Clouds 6 1022 75 10000 6.2 360 15:19 29.12.2019
5298 Clouds 6 1021 75 10000 7.2 360 14:55 29.12.2019
5299 Clouds 6 1021 75 10000 7.2 360 14:37 29.12.2019
5300 Rain 6 1021 80 10000 7.7 360 14:18 29.12.2019
5301 Rain 6 1021 75 10000 7.2 360 13:55 29.12.2019
5302 Rain 6 1021 75 10000 7.2 360 13:37 29.12.2019
5303 Clouds 7 1021 75 10000 7.7 360 13:18 29.12.2019
5304 Clouds 6 1021 70 10000 7.7 360 12:42 29.12.2019
5305 Clouds 6 1021 86 10000 7.2 350 12:24 29.12.2019
5306 Rain 6 1021 86 7000 8.2 350 11:56 29.12.2019
5307 Rain 6 1021 86 7000 8.2 350 11:37 29.12.2019
5308 Rain 7 1021 80 7000 9.3 360 11:19 29.12.2019
5309 Rain 6 1021 80 4000 8.2 20 10:42 29.12.2019
5310 Clouds 7 1022 75 10000 3.6 20 10:22 29.12.2019
5311 Clouds 7 1022 75 10000 7.2 10 09:56 29.12.2019
5312 Clouds 6 1022 75 10000 7.2 10 09:38 29.12.2019
5313 Rain 6 1022 70 10000 5.1 10 09:19 29.12.2019
5314 Rain 6 1021 75 10000 6.7 10 08:46 29.12.2019
5315 Clouds 6 1021 81 10000 8.2 360 08:24 29.12.2019
5316 Clouds 6 1021 74 10000 7.7 10 07:54 29.12.2019
5317 Clouds 6 1021 74 10000 7.7 10 07:28 29.12.2019
5318 Clouds 5 1020 74 10000 6.7 360 06:53 29.12.2019
5319 Clouds 6 1020 74 10000 7.7 360 06:24 29.12.2019
5320 Clouds 6 1020 70 10000 7.2 360 05:51 29.12.2019
5321 Rain 6 1020 80 10000 4.1 20 04:36 29.12.2019
5322 Rain 6 1020 80 10000 7.2 10 03:43 29.12.2019
5323 Rain 6 1020 80 10000 8.2 10 03:19 29.12.2019
5324 Rain 6 1020 80 10000 7.7 360 02:20 29.12.2019
5325 Rain 6 1020 80 10000 7.7 360 02:20 29.12.2019
5326 Rain 6 1020 86 10000 3.6 350 01:31 29.12.2019
5327 Rain 6 1020 86 10000 3.6 350 01:31 29.12.2019
5328 Rain 6 1019 80 10000 4.6 20 00:55 29.12.2019
5329 Rain 6 1019 80 10000 4.6 20 00:36 29.12.2019
5330 Rain 6 1019 75 10000 9.3 60 00:18 29.12.2019
5331 Rain 6 1019 75 10000 6.2 20 23:41 28.12.2019
5332 Rain 6 1019 80 10000 6.7 30 23:18 28.12.2019
5333 Rain 6 1019 75 10000 4.1 10 22:39 28.12.2019
5334 Rain 6 1019 80 10000 4.6 340 22:20 28.12.2019
5335 Rain 6 1019 80 10000 4.6 340 21:58 28.12.2019
5336 Rain 6 1019 80 10000 6.2 360 21:39 28.12.2019
5337 Rain 6 1019 80 10000 3.6 40 21:20 28.12.2019
5338 Clouds 6 1019 80 8000 4.6 30 20:56 28.12.2019
5339 Clouds 6 1019 80 8000 4.6 30 20:37 28.12.2019
5340 Rain 6 1019 86 8000 6.2 30 20:18 28.12.2019
5341 Rain 6 1019 86 8000 5.1 30 19:55 28.12.2019
5342 Rain 6 1019 86 8000 5.1 30 19:36 28.12.2019
5343 Rain 6 1019 80 8000 6.7 20 19:18 28.12.2019
5344 Rain 6 1018 93 9000 5.1 20 18:55 28.12.2019
5345 Rain 6 1018 93 9000 5.1 20 18:37 28.12.2019
5346 Rain 5 1018 86 7000 6.2 20 18:18 28.12.2019
5347 Rain 6 1018 86 7000 6.2 10 17:42 28.12.2019
5348 Rain 6 1018 86 8000 7.2 360 17:21 28.12.2019
5349 Rain 6 1018 86 10000 5.1 360 16:55 28.12.2019
5350 Rain 6 1018 86 10000 5.1 360 16:37 28.12.2019
5351 Rain 6 1018 80 10000 5.1 10 16:19 28.12.2019
5352 Rain 6 1018 80 10000 5.1 10 15:43 28.12.2019
5353 Thunderstorm 6 1018 93 4000 5.7 350 15:21 28.12.2019
5354 Rain 6 1017 86 10000 5.7 350 14:48 28.12.2019
5355 Rain 6 1017 86 10000 5.7 20 14:26 28.12.2019
5356 Rain 6 1017 86 10000 6.2 80 13:58 28.12.2019
5357 Rain 6 1017 93 10000 5.7 360 13:40 28.12.2019
5358 Rain 6 1017 93 10000 5.1 340 13:20 28.12.2019
5359 Rain 6 1017 93 3600 2.6 200 12:57 28.12.2019
5360 Rain 6 1017 86 10000 5.7 330 12:39 28.12.2019
5361 Rain 6 1017 86 10000 2.6 340 12:20 28.12.2019
5362 Clouds 6 1017 75 10000 4.1 20 11:40 28.12.2019
5363 Clouds 6 1017 75 10000 3.1 40 11:21 28.12.2019
5364 Rain 6 1017 86 4200 3.1 160 11:21 28.12.2019
5365 Rain 7 1017 93 10000 3.6 270 10:56 28.12.2019
5366 Clouds 7 1017 70 10000 4.1 50 10:37 28.12.2019
5367 Clouds 6 1017 86 10000 3.1 300 10:18 28.12.2019
5368 Clouds 6 1018 81 10000 3.1 20 09:46 28.12.2019
5369 Clouds 6 1018 75 10000 5.1 20 09:24 28.12.2019
5370 Clouds 6 1018 75 10000 5.1 20 08:58 28.12.2019
5371 Clouds 6 1018 81 10000 3.1 20 08:40 28.12.2019
5372 Rain 5 1018 86 10000 1.5 20 08:22 28.12.2019
5373 Rain 5 1018 86 10000 2.1 70 07:43 28.12.2019
5374 Rain 5 1018 86 10000 3.1 30 07:21 28.12.2019
5375 Rain 5 1017 86 10000 5.7 10 05:45 28.12.2019
5376 Clouds 5 1017 93 10000 2.6 60 03:48 28.12.2019
5377 Clouds 6 1018 70 10000 4.6 320 02:50 28.12.2019
5378 Clouds 6 1018 75 10000 3.6 320 02:20 28.12.2019
5379 Clouds 6 1017 75 10000 4.1 350 01:54 28.12.2019
5380 Clouds 7 1018 75 10000 4.6 350 01:22 28.12.2019
5381 Clouds 7 1018 75 10000 4.6 350 00:45 28.12.2019
5382 Clouds 7 1018 76 10000 5.7 330 00:27 28.12.2019
5383 Clouds 7 1018 76 10000 5.7 330 23:57 27.12.2019
5384 Clouds 6 1017 75 10000 2.6 320 23:37 27.12.2019
5385 Rain 7 1018 81 10000 6.2 350 23:18 27.12.2019
5386 Clouds 7 1018 70 10000 2.6 340 22:55 27.12.2019
5387 Clouds 7 1018 70 10000 2.6 340 22:37 27.12.2019
5388 Clouds 6 1018 70 10000 2.6 330 22:19 27.12.2019
5389 Clouds 6 1018 75 10000 2.1 330 21:41 27.12.2019
5390 Clouds 7 1018 70 10000 2.6 350 21:23 27.12.2019
5391 Clouds 7 1018 70 10000 2.6 340 20:44 27.12.2019
5392 Clouds 7 1018 75 10000 2.1 100 20:26 27.12.2019
5393 Clouds 7 1018 75 10000 2.1 100 19:58 27.12.2019
5394 Clouds 7 1018 75 10000 2.1 100 19:58 27.12.2019
5395 Clouds 7 1018 65 10000 1.5 320 19:40 27.12.2019
5396 Clouds 7 1018 65 10000 2.1 320 19:19 27.12.2019
5397 Clouds 7 1018 70 10000 2.1 350 18:55 27.12.2019
5398 Clouds 7 1018 70 10000 2.1 350 18:36 27.12.2019
5399 Clouds 7 1018 65 10000 2.6 350 18:18 27.12.2019
5400 Clouds 7 1018 65 10000 2.6 340 17:55 27.12.2019
5401 Thunderstorm 8 1017 81 10000 2.6 40 17:36 27.12.2019
5402 Thunderstorm 8 1017 81 10000 2.6 40 17:18 27.12.2019
5403 Rain 8 1018 65 10000 2.1 330 16:41 27.12.2019
5404 Rain 8 1018 66 10000 3.1 290 16:22 27.12.2019
5405 Clouds 9 1018 61 10000 3.6 250 15:57 27.12.2019
5406 Clouds 9 1018 61 10000 3.6 250 15:37 27.12.2019
5407 Clouds 9 1018 61 10000 3.6 250 15:37 27.12.2019
5408 Clouds 9 1018 61 10000 3.6 230 15:18 27.12.2019
5409 Clouds 9 1018 61 10000 3.6 240 14:55 27.12.2019
5410 Clouds 9 1018 61 10000 3.6 240 14:37 27.12.2019
5411 Clouds 9 1018 61 10000 3.6 240 14:19 27.12.2019
5412 Clouds 9 1017 57 10000 3.1 230 13:44 27.12.2019
5413 Clouds 9 1017 53 10000 1.5 0 13:22 27.12.2019
5414 Clouds 9 1018 61 10000 1.5 30 12:48 27.12.2019
5415 Clouds 9 1018 61 10000 1.5 30 12:29 27.12.2019
5416 Clouds 8 1018 66 10000 3.1 330 11:59 27.12.2019
5417 Clouds 8 1018 66 10000 3.6 320 11:41 27.12.2019
5418 Clouds 8 1018 66 10000 3.6 310 11:20 27.12.2019
5419 Clouds 8 1018 66 10000 3.6 310 11:20 27.12.2019
5420 Clouds 8 1018 66 10000 3.6 310 11:20 27.12.2019
5421 Clouds 8 1018 66 10000 3.1 300 10:46 27.12.2019
5422 Clouds 8 1018 70 10000 3.1 330 10:24 27.12.2019
5423 Clouds 7 1019 70 10000 3.1 330 09:55 27.12.2019
5424 Clouds 7 1019 70 10000 3.1 330 09:37 27.12.2019
5425 Clouds 7 1018 70 10000 3.1 350 09:19 27.12.2019
5426 Clouds 7 1018 70 10000 3.1 350 09:19 27.12.2019
5427 Clouds 7 1018 81 10000 2.6 90 08:43 27.12.2019
5428 Clouds 7 1019 70 10000 4.6 350 08:25 27.12.2019
5429 Clouds 7 1019 75 10000 4.1 10 07:38 27.12.2019
5430 Clouds 8 1019 65 10000 4.6 350 07:19 27.12.2019
5431 Clouds 8 1018 65 10000 5.1 320 06:25 27.12.2019
5432 Clouds 8 1017 70 10000 4.1 330 04:40 27.12.2019
5433 Clouds 8 1017 81 10000 4.1 330 02:29 27.12.2019
5434 Clouds 8 1017 81 10000 4.1 320 01:45 27.12.2019
5435 Clouds 8 1016 81 10000 3.1 330 01:23 27.12.2019
5436 Clouds 9 1016 87 10000 1.5 330 00:47 27.12.2019
5437 Clouds 9 1016 81 10000 3.1 340 00:27 27.12.2019
5438 Clouds 8 1016 75 10000 3.1 350 23:56 26.12.2019
5439 Clouds 8 1016 75 10000 3.1 350 23:38 26.12.2019
5440 Clouds 8 1016 81 10000 3.1 310 23:19 26.12.2019
5441 Clouds 9 1016 81 10000 1 290 22:40 26.12.2019
5442 Clouds 8 1016 86 10000 1.5 10 22:18 26.12.2019
5443 Clouds 9 1016 81 10000 2.6 20 21:40 26.12.2019
5444 Rain 8 1016 81 10000 5.7 350 21:21 26.12.2019
5445 Rain 9 1016 75 10000 5.7 340 20:58 26.12.2019
5446 Rain 9 1016 75 10000 5.7 340 20:39 26.12.2019
5447 Rain 9 1016 75 10000 5.7 340 20:39 26.12.2019
5448 Rain 9 1016 75 10000 4.1 330 20:21 26.12.2019
5449 Rain 9 1016 75 10000 5.1 350 19:56 26.12.2019
5450 Rain 9 1016 75 10000 5.1 350 19:38 26.12.2019
5451 Clouds 9 1015 66 10000 6.2 340 19:19 26.12.2019
5452 Clouds 9 1015 66 10000 6.2 350 18:57 26.12.2019
5453 Clouds 9 1015 66 10000 6.2 350 18:36 26.12.2019
5454 Clouds 9 1015 61 10000 5.7 360 18:18 26.12.2019
5455 Clouds 9 1014 66 10000 6.7 350 17:42 26.12.2019
5456 Clouds 9 1014 66 10000 5.7 350 17:22 26.12.2019
5457 Clouds 9 1014 66 10000 6.2 350 16:50 26.12.2019
5458 Clouds 9 1013 66 10000 8.2 360 16:28 26.12.2019
5459 Clouds 9 1013 66 10000 8.2 360 15:58 26.12.2019
5460 Clouds 9 1013 66 10000 8.2 360 15:40 26.12.2019
5461 Clouds 9 1013 66 10000 7.2 350 15:19 26.12.2019
5462 Clouds 9 1013 70 10000 6.2 350 14:42 26.12.2019
5463 Clouds 9 1012 70 10000 8.7 360 14:23 26.12.2019
5464 Clouds 10 1012 70 10000 8.2 350 13:57 26.12.2019
5465 Clouds 10 1012 70 10000 8.2 350 13:39 26.12.2019
5466 Clouds 10 1012 70 10000 8.2 350 13:39 26.12.2019
5467 Clouds 10 1012 76 10000 9.3 340 13:18 26.12.2019
5468 Rain 10 1011 81 10000 5.7 350 12:45 26.12.2019
5469 Rain 9 1012 93 10000 4.6 350 12:26 26.12.2019
5470 Rain 10 1012 93 10000 4.6 350 11:59 26.12.2019
5471 Rain 10 1012 81 10000 7.7 350 11:40 26.12.2019
5472 Rain 10 1012 76 10000 5.7 350 11:22 26.12.2019
5473 Rain 10 1012 87 10000 5.1 360 10:50 26.12.2019
5474 Rain 10 1012 76 10000 6.7 360 10:27 26.12.2019
5475 Rain 10 1012 76 10000 6.7 360 09:59 26.12.2019
5476 Clouds 9 1012 76 10000 6.7 340 09:41 26.12.2019
5477 Clouds 10 1012 76 10000 5.7 350 09:22 26.12.2019
5478 Clouds 9 1011 76 10000 6.2 360 08:39 26.12.2019
5479 Clouds 9 1011 76 10000 6.2 350 08:21 26.12.2019
5480 Clouds 9 1011 76 10000 5.1 350 07:44 26.12.2019
5481 Clouds 9 1011 76 10000 5.1 350 07:24 26.12.2019
5482 Clouds 9 1010 87 10000 5.7 350 06:38 26.12.2019
5483 Clouds 9 1010 87 10000 5.7 350 06:20 26.12.2019
5484 Clouds 9 1009 81 10000 6.7 350 05:42 26.12.2019
5485 Clouds 9 1009 87 10000 6.2 350 04:33 26.12.2019
5486 Rain 9 1009 87 10000 6.7 360 03:31 26.12.2019
5487 Clouds 9 1009 87 10000 5.7 350 02:46 26.12.2019
5488 Rain 9 1009 87 10000 6.2 350 02:27 26.12.2019
5489 Rain 9 1009 87 10000 5.7 350 01:44 26.12.2019
5490 Rain 9 1009 87 10000 6.7 350 01:25 26.12.2019
5491 Rain 9 1009 93 10000 4.1 340 00:44 26.12.2019
5492 Rain 9 1009 93 10000 4.6 350 00:23 26.12.2019
5493 Rain 9 1009 93 10000 4.6 350 00:23 26.12.2019
5494 Rain 9 1009 93 10000 4.1 330 23:57 25.12.2019
5495 Rain 9 1009 93 10000 4.1 330 23:37 25.12.2019
5496 Rain 9 1008 87 10000 4.6 340 23:19 25.12.2019
5497 Rain 9 1009 93 10000 4.1 350 22:56 25.12.2019
5498 Rain 9 1009 93 10000 4.1 350 22:37 25.12.2019
5499 Clouds 9 1009 76 10000 4.6 350 22:18 25.12.2019
5500 Clouds 10 1008 81 10000 4.1 350 21:55 25.12.2019
5501 Clouds 9 1008 81 10000 4.1 350 21:37 25.12.2019
5502 Clouds 9 1008 81 10000 4.1 350 21:18 25.12.2019
5503 Clouds 10 1008 81 10000 4.1 350 20:40 25.12.2019
5504 Clouds 10 1008 81 10000 4.1 10 20:21 25.12.2019
5505 Clouds 10 1008 76 10000 5.1 10 19:59 25.12.2019
5506 Clouds 10 1008 76 10000 5.1 10 19:40 25.12.2019
5507 Clouds 10 1008 81 10000 4.1 360 19:21 25.12.2019
5508 Clouds 10 1008 76 10000 5.1 360 18:40 25.12.2019
5509 Clouds 10 1008 76 10000 5.1 10 18:20 25.12.2019
5510 Clouds 10 1008 76 10000 5.1 10 17:57 25.12.2019
5511 Clouds 10 1008 76 10000 4.1 10 17:39 25.12.2019
5512 Clouds 10 1007 81 10000 5.1 360 17:18 25.12.2019
5513 Clouds 10 1007 81 10000 5.1 10 16:39 25.12.2019
5514 Clouds 10 1007 81 8000 6.2 350 16:20 25.12.2019
5515 Clouds 10 1007 81 8000 6.2 350 15:59 25.12.2019
5516 Clouds 10 1007 81 8000 6.2 350 15:40 25.12.2019
5517 Clouds 9 1007 81 9000 6.2 340 15:21 25.12.2019
5518 Clouds 9 1007 81 9000 6.7 340 14:59 25.12.2019
5519 Clouds 9 1007 81 9000 6.7 340 14:40 25.12.2019
5520 Rain 10 1007 87 8000 5.7 350 14:22 25.12.2019
5521 Rain 10 1007 87 10000 5.7 350 13:57 25.12.2019
5522 Rain 10 1007 87 10000 5.7 350 13:39 25.12.2019
5523 Rain 10 1007 76 10000 6.2 350 13:19 25.12.2019
5524 Rain 10 1007 87 10000 5.7 350 12:43 25.12.2019
5525 Rain 10 1007 76 10000 5.1 350 12:21 25.12.2019
5526 Rain 10 1007 76 10000 5.1 350 12:21 25.12.2019
5527 Clouds 10 1007 71 10000 5.7 340 11:57 25.12.2019
5528 Clouds 10 1007 71 10000 5.7 340 11:39 25.12.2019
5529 Clouds 10 1007 76 10000 4.1 340 11:20 25.12.2019
5530 Clouds 10 1007 71 10000 4.6 330 10:39 25.12.2019
5531 Clouds 10 1007 71 10000 5.1 340 10:21 25.12.2019
5532 Clouds 10 1007 71 10000 5.1 340 09:51 25.12.2019
5533 Clouds 10 1007 71 10000 5.1 340 09:33 25.12.2019
5534 Clouds 10 1007 71 10000 4.6 340 08:51 25.12.2019
5535 Clouds 10 1007 71 10000 4.6 340 08:31 25.12.2019
5536 Clouds 10 1007 70 10000 4.1 330 07:59 25.12.2019
5537 Clouds 10 1007 70 10000 4.1 330 07:59 25.12.2019
5538 Clouds 10 1007 70 10000 3.6 330 07:37 25.12.2019
5539 Clouds 10 1007 76 10000 2.1 310 07:19 25.12.2019
5540 Clouds 10 1006 76 10000 4.1 330 06:23 25.12.2019
5541 Clouds 10 1006 76 10000 5.1 340 05:43 25.12.2019
5542 Clouds 10 1006 76 10000 5.1 330 04:39 25.12.2019
5543 Clouds 10 1006 76 10000 4.6 330 04:20 25.12.2019
5544 Clouds 9 1006 76 10000 4.6 320 03:43 25.12.2019
5545 Clouds 10 1006 76 10000 5.1 330 02:57 25.12.2019
5546 Clouds 10 1006 76 10000 5.1 330 02:28 25.12.2019
5547 Clouds 10 1006 76 10000 5.7 330 01:26 25.12.2019
5548 Clouds 10 1006 76 10000 5.1 320 00:56 25.12.2019
5549 Clouds 10 1006 76 10000 5.1 320 00:33 25.12.2019
5550 Clouds 10 1006 71 10000 4.1 320 23:59 24.12.2019
5551 Clouds 10 1006 71 10000 4.1 320 23:39 24.12.2019
5552 Clouds 10 1006 71 10000 4.1 320 23:39 24.12.2019
5553 Clouds 11 1006 71 10000 3.6 320 23:20 24.12.2019
5554 Clouds 11 1006 71 10000 3.6 320 23:20 24.12.2019
5555 Clouds 11 1006 66 10000 4.6 320 22:42 24.12.2019
5556 Clouds 11 1006 66 10000 3.6 310 22:23 24.12.2019
5557 Clouds 11 1006 71 10000 4.6 320 21:55 24.12.2019
5558 Clouds 11 1006 71 10000 4.6 320 21:37 24.12.2019
5559 Clouds 11 1005 66 10000 4.6 310 21:18 24.12.2019
5560 Clouds 11 1005 71 10000 3.6 320 20:41 24.12.2019
5561 Clouds 11 1005 71 10000 3.1 320 20:19 24.12.2019
5562 Clouds 11 1005 76 10000 3.1 330 19:46 24.12.2019
5563 Clouds 11 1004 71 10000 2.6 320 19:22 24.12.2019
5564 Clouds 11 1004 76 10000 2.6 320 18:58 24.12.2019
5565 Clouds 11 1004 76 10000 2.6 320 18:40 24.12.2019
5566 Clouds 11 1004 71 10000 3.6 340 18:18 24.12.2019
5567 Clouds 11 1004 71 10000 3.1 320 17:42 24.12.2019
5568 Clouds 11 1003 71 10000 3.6 330 17:21 24.12.2019
5569 Clouds 11 1003 71 10000 4.6 340 16:58 24.12.2019
5570 Clouds 11 1003 71 10000 4.6 340 16:58 24.12.2019
5571 Clouds 11 1003 71 10000 4.6 340 16:39 24.12.2019
5572 Clouds 11 1003 71 10000 4.6 330 16:20 24.12.2019
5573 Clouds 11 1002 71 10000 4.6 330 15:57 24.12.2019
5574 Clouds 11 1002 71 10000 4.6 330 15:36 24.12.2019
5575 Clouds 11 1002 71 10000 4.6 350 15:18 24.12.2019
5576 Clouds 11 1002 66 10000 5.7 340 14:57 24.12.2019
5577 Clouds 11 1002 66 10000 5.7 340 14:39 24.12.2019
5578 Clouds 11 1001 71 10000 6.2 350 14:21 24.12.2019
5579 Clouds 11 1001 71 10000 6.7 350 13:56 24.12.2019
5580 Clouds 11 1001 71 10000 6.7 350 13:37 24.12.2019
5581 Clouds 11 1001 71 10000 9.3 340 13:19 24.12.2019
5582 Clouds 11 1000 71 10000 9.3 350 12:55 24.12.2019
5583 Clouds 11 1000 71 10000 9.3 350 12:36 24.12.2019
5584 Rain 11 1000 76 10000 9.8 340 12:18 24.12.2019
5585 Rain 11 1000 76 10000 6.7 350 11:55 24.12.2019
5586 Rain 11 1000 76 10000 6.7 350 11:37 24.12.2019
5587 Rain 11 1000 76 10000 8.2 350 11:18 24.12.2019
5588 Rain 11 1000 81 10000 6.7 350 10:56 24.12.2019
5589 Rain 11 1000 81 10000 6.7 350 10:37 24.12.2019
5590 Rain 11 1000 81 10000 6.7 350 10:37 24.12.2019
5591 Rain 11 1000 87 10000 6.7 350 10:19 24.12.2019
5592 Rain 11 1000 87 10000 7.2 350 09:55 24.12.2019
5593 Rain 11 1000 87 10000 7.2 350 09:37 24.12.2019
5594 Clouds 11 999 87 10000 7.2 350 09:18 24.12.2019
5595 Rain 11 999 87 10000 8.2 350 08:44 24.12.2019
5596 Rain 11 999 87 10000 7.2 350 08:21 24.12.2019
5597 Clouds 11 998 87 10000 7.2 350 07:46 24.12.2019
5598 Clouds 11 998 87 10000 8.7 340 07:26 24.12.2019
5599 Clouds 11 998 87 10000 8.7 340 07:26 24.12.2019
5600 Clouds 11 998 87 10000 8.7 340 06:58 24.12.2019
5601 Clouds 11 998 87 10000 8.7 340 06:38 24.12.2019
5602 Clouds 11 997 87 10000 9.3 340 06:19 24.12.2019
5603 Clouds 11 997 87 10000 6.7 350 05:21 24.12.2019
5604 Clouds 11 997 87 10000 7.2 350 04:59 24.12.2019
5605 Clouds 11 996 87 10000 4.1 330 03:50 24.12.2019
5606 Clouds 11 996 87 10000 3.6 340 03:22 24.12.2019
5607 Clouds 12 996 81 10000 2.1 280 02:23 24.12.2019
5608 Clouds 11 996 81 10000 1 0 01:50 24.12.2019
5609 Clouds 12 996 81 10000 1 50 01:22 24.12.2019
5610 Clouds 12 996 81 10000 1.5 260 00:45 24.12.2019
5611 Clouds 12 996 76 10000 3.1 220 00:24 24.12.2019
5612 Clouds 12 996 87 10000 2.6 200 23:59 23.12.2019
5613 Clouds 12 996 76 10000 3.6 180 23:40 23.12.2019
5614 Clouds 12 996 76 10000 4.1 200 23:22 23.12.2019
5615 Clouds 12 996 81 10000 3.6 190 22:56 23.12.2019
5616 Clouds 12 996 81 10000 3.6 190 22:37 23.12.2019
5617 Clouds 12 996 76 10000 4.1 180 22:18 23.12.2019
5618 Rain 12 996 81 10000 6.2 180 21:55 23.12.2019
5619 Rain 12 996 81 10000 6.2 180 21:36 23.12.2019
5620 Rain 12 996 87 10000 5.1 180 21:18 23.12.2019
5621 Rain 12 996 87 10000 5.1 190 20:57 23.12.2019
5622 Rain 12 996 87 10000 5.1 190 20:39 23.12.2019
5623 Rain 12 995 81 10000 7.7 210 20:18 23.12.2019
5624 Rain 12 995 81 10000 9.8 190 19:55 23.12.2019
5625 Rain 12 995 81 10000 9.8 190 19:37 23.12.2019
5626 Clouds 13 996 81 10000 7.7 210 19:19 23.12.2019
5627 Clouds 13 995 76 10000 7.7 220 18:57 23.12.2019
5628 Clouds 13 996 76 10000 6.7 230 18:38 23.12.2019
5629 Clouds 13 996 76 10000 6.7 230 18:20 23.12.2019
5630 Clouds 13 996 71 10000 6.2 220 17:55 23.12.2019
5631 Clouds 13 996 71 10000 6.2 220 17:37 23.12.2019
5632 Rain 13 996 62 10000 4.6 220 17:19 23.12.2019
5633 Rain 13 996 76 8000 6.2 230 16:42 23.12.2019
5634 Rain 13 995 76 8000 5.7 250 16:19 23.12.2019
5635 Rain 13 996 76 8000 7.7 250 15:59 23.12.2019
5636 Rain 13 996 76 8000 7.7 250 15:38 23.12.2019
5637 Rain 14 995 71 8000 7.2 220 15:20 23.12.2019
5638 Rain 14 995 71 8000 7.2 220 14:59 23.12.2019
5639 Rain 15 995 67 8000 7.2 200 14:41 23.12.2019
5640 Clouds 15 995 67 10000 7.2 190 14:22 23.12.2019
5641 Clouds 15 995 62 10000 7.7 190 13:58 23.12.2019
5642 Clouds 15 995 62 10000 7.7 190 13:40 23.12.2019
5643 Clouds 16 995 67 10000 6.7 200 13:22 23.12.2019
5644 Clouds 15 995 62 10000 7.7 190 12:57 23.12.2019
5645 Clouds 15 995 62 10000 7.7 190 12:39 23.12.2019
5646 Clouds 16 995 59 10000 7.7 200 12:19 23.12.2019
5647 Clouds 15 995 67 10000 8.7 210 11:44 23.12.2019
5648 Clouds 15 996 62 10000 7.7 190 11:26 23.12.2019
5649 Rain 15 996 62 10000 9.3 200 10:59 23.12.2019
5650 Clouds 15 997 67 10000 7.7 190 10:40 23.12.2019
5651 Clouds 15 997 71 10000 8.2 200 10:21 23.12.2019
5652 Clouds 15 997 71 10000 8.2 200 09:59 23.12.2019
5653 Clouds 15 997 67 10000 9.5 197 09:40 23.12.2019
5654 Clouds 15 997 67 10000 9.5 197 09:21 23.12.2019
5655 Rain 15 997 71 10000 9.3 200 08:56 23.12.2019
5656 Rain 15 997 71 10000 9.3 200 08:38 23.12.2019
5657 Clouds 15 997 67 10000 9.19 182 08:20 23.12.2019
5658 Rain 15 997 71 10000 9.19 182 07:43 23.12.2019
5659 Clouds 15 997 71 10000 9.19 182 07:20 23.12.2019
5660 Rain 15 997 62 10000 11.8 180 06:53 23.12.2019
5661 Clouds 15 997 62 10000 13.4 190 06:25 23.12.2019
5662 Clouds 15 997 67 10000 11.3 190 05:50 23.12.2019
5663 Clouds 15 997 67 10000 11.3 190 05:27 23.12.2019
5664 Rain 15 997 67 10000 3.1 200 04:31 23.12.2019
5665 Rain 15 998 67 10000 4.1 200 03:18 23.12.2019
5666 Rain 16 998 59 10000 5.7 210 02:40 23.12.2019
5667 Rain 16 999 59 10000 5.7 180 02:18 23.12.2019
5668 Rain 16 999 59 10000 5.7 180 02:18 23.12.2019
5669 Clouds 16 999 59 10000 3.6 150 01:41 23.12.2019
5670 Rain 16 999 55 10000 7.2 170 01:19 23.12.2019
5671 Rain 16 999 63 10000 7.2 180 00:43 23.12.2019
5672 Rain 16 1000 67 10000 4.1 170 00:21 23.12.2019
5673 Clouds 16 1001 63 10000 6.2 170 23:39 22.12.2019
5674 Rain 16 1001 67 10000 7.7 180 23:21 22.12.2019
5675 Rain 16 1002 63 10000 8.2 180 22:58 22.12.2019
5676 Rain 16 1002 63 10000 8.2 180 22:39 22.12.2019
5677 Rain 17 1003 72 10000 10.3 200 22:19 22.12.2019
5678 Rain 17 1003 63 10000 13.4 200 21:57 22.12.2019
5679 Rain 17 1003 63 10000 13.4 200 21:39 22.12.2019
5680 Rain 17 1003 63 10000 5.7 200 21:21 22.12.2019
5681 Rain 17 1003 59 10000 4.1 230 20:57 22.12.2019
5682 Rain 17 1003 59 10000 4.1 230 20:38 22.12.2019
5683 Clouds 17 1003 63 10000 4.6 190 20:18 22.12.2019
5684 Clouds 17 1004 63 10000 3.6 200 19:55 22.12.2019
5685 Clouds 17 1004 63 10000 3.6 200 19:37 22.12.2019
5686 Clouds 17 1004 63 10000 4.1 200 19:18 22.12.2019
5687 Clouds 17 1004 63 10000 4.6 190 18:40 22.12.2019
5688 Clouds 17 1005 59 10000 6.7 200 18:22 22.12.2019
5689 Clouds 17 1005 59 10000 5.7 200 17:55 22.12.2019
5690 Clouds 17 1005 59 10000 5.7 200 17:37 22.12.2019
5691 Clouds 17 1005 59 10000 5.7 200 17:18 22.12.2019
5692 Clouds 17 1005 59 10000 6.7 200 16:56 22.12.2019
5693 Clouds 17 1005 59 10000 6.7 200 16:37 22.12.2019
5694 Clouds 17 1005 59 10000 7.7 200 16:19 22.12.2019
5695 Clouds 18 1006 63 10000 9.3 210 15:55 22.12.2019
5696 Clouds 18 1006 63 10000 9.3 210 15:36 22.12.2019
5697 Clouds 18 1006 63 10000 5.7 210 15:18 22.12.2019
5698 Clouds 18 1006 63 10000 6.2 210 14:54 22.12.2019
5699 Clouds 18 1006 63 10000 6.2 210 14:54 22.12.2019
5700 Clouds 18 1006 63 10000 6.2 210 14:36 22.12.2019
5701 Clouds 19 1007 59 10000 7.7 200 14:18 22.12.2019
5702 Clouds 19 1007 59 10000 7.7 200 14:18 22.12.2019
5703 Clouds 19 1007 59 10000 6.7 210 13:54 22.12.2019
5704 Clouds 18 1007 59 10000 6.7 210 13:36 22.12.2019
5705 Clouds 18 1007 59 10000 6.7 210 13:18 22.12.2019
5706 Clouds 18 1007 63 10000 7.2 210 12:54 22.12.2019
5707 Clouds 18 1007 63 10000 7.2 210 12:36 22.12.2019
5708 Clouds 19 1007 59 10000 8.2 220 12:18 22.12.2019
5709 Clouds 18 1008 63 10000 7.7 210 11:39 22.12.2019
5710 Clouds 18 1008 63 10000 7.2 210 11:20 22.12.2019
5711 Clouds 18 1008 63 10000 7.2 210 10:58 22.12.2019
5712 Clouds 18 1008 63 10000 7.2 210 10:40 22.12.2019
5713 Clouds 18 1008 63 10000 10.3 210 10:21 22.12.2019
5714 Clouds 17 1008 63 10000 10.3 210 09:58 22.12.2019
5715 Clouds 18 1009 63 10000 9.8 210 09:40 22.12.2019
5716 Clouds 17 1009 67 10000 9.8 210 09:21 22.12.2019
5717 Clouds 17 1009 72 10000 10.3 210 08:55 22.12.2019
5718 Clouds 17 1009 72 10000 10.3 210 08:37 22.12.2019
5719 Clouds 17 1010 67 10000 10.3 210 08:18 22.12.2019
5720 Clouds 17 1010 67 10000 9.8 200 07:36 22.12.2019
5721 Clouds 16 1010 72 10000 8.2 210 07:18 22.12.2019
5722 Clouds 16 1010 72 10000 8.2 220 06:40 22.12.2019
5723 Clouds 16 1010 72 10000 8.7 220 05:49 22.12.2019
5724 Clouds 17 1010 67 10000 9.3 210 05:21 22.12.2019
5725 Clouds 16 1009 67 10000 10.3 210 04:27 22.12.2019
5726 Clouds 16 1010 67 10000 9.3 200 03:28 22.12.2019
5727 Clouds 16 1010 67 10000 6.7 170 02:35 22.12.2019
5728 Clouds 16 1011 72 10000 7.2 190 01:37 22.12.2019
5729 Clouds 16 1011 67 10000 7.2 200 01:18 22.12.2019
5730 Clouds 16 1011 77 10000 7.7 200 00:45 22.12.2019
5731 Clouds 16 1011 67 10000 9.3 200 00:21 22.12.2019
5732 Clouds 16 1011 67 10000 10.3 200 23:42 21.12.2019
5733 Clouds 16 1011 72 10000 10.8 200 23:24 21.12.2019
5734 Clouds 16 1011 72 10000 8.7 210 22:59 21.12.2019
5735 Clouds 16 1011 72 10000 8.7 210 22:40 21.12.2019
5736 Clouds 16 1011 72 10000 9.8 210 22:19 21.12.2019
5737 Clouds 16 1012 72 10000 8.2 210 21:56 21.12.2019
5738 Clouds 16 1012 72 10000 8.2 210 21:37 21.12.2019
5739 Clouds 16 1012 77 10000 8.7 210 21:19 21.12.2019
5740 Clouds 16 1012 72 10000 8.7 210 20:58 21.12.2019
5741 Clouds 16 1012 72 10000 8.7 210 20:39 21.12.2019
5742 Clouds 16 1012 67 10000 9.3 210 20:21 21.12.2019
5743 Clouds 16 1012 67 10000 10.3 210 19:57 21.12.2019
5744 Clouds 16 1012 67 10000 10.3 210 19:39 21.12.2019
5745 Clouds 16 1012 67 10000 10.8 210 19:19 21.12.2019
5746 Clouds 16 1012 72 10000 8.7 200 18:44 21.12.2019
5747 Clouds 16 1012 67 10000 9.3 210 18:24 21.12.2019
5748 Clouds 16 1012 67 10000 9.8 210 17:57 21.12.2019
5749 Clouds 16 1012 67 10000 9.8 210 17:39 21.12.2019
5750 Clouds 16 1012 67 10000 8.7 200 17:21 21.12.2019
5751 Clouds 16 1012 67 10000 8.7 200 16:58 21.12.2019
5752 Clouds 16 1013 72 10000 8.2 200 16:39 21.12.2019
5753 Clouds 17 1013 72 10000 9.3 200 16:18 21.12.2019
5754 Clouds 16 1013 72 10000 7.7 200 15:56 21.12.2019
5755 Clouds 17 1014 67 10000 7.2 200 15:38 21.12.2019
5756 Clouds 17 1014 67 10000 7.2 200 15:19 21.12.2019
5757 Clouds 17 1014 67 10000 8.2 210 14:44 21.12.2019
5758 Clouds 17 1014 72 10000 7.7 200 14:25 21.12.2019
5759 Clouds 17 1014 72 10000 6.7 210 13:59 21.12.2019
5760 Clouds 17 1014 72 10000 6.7 210 13:40 21.12.2019
5761 Clouds 17 1014 72 10000 8.2 210 13:20 21.12.2019
5762 Clouds 17 1014 72 10000 8.7 200 12:58 21.12.2019
5763 Clouds 17 1014 72 10000 8.7 200 12:39 21.12.2019
5764 Clouds 17 1015 72 10000 7.2 210 12:21 21.12.2019
5765 Clouds 17 1015 72 10000 7.2 210 11:57 21.12.2019
5766 Clouds 17 1016 77 10000 6.2 200 11:39 21.12.2019
5767 Clouds 17 1016 72 10000 6.7 200 11:21 21.12.2019
5768 Clouds 17 1016 67 10000 7.2 190 10:42 21.12.2019
5769 Clouds 16 1017 72 10000 6.2 200 10:23 21.12.2019
5770 Clouds 16 1017 63 10000 6.2 200 09:59 21.12.2019
5771 Clouds 16 1017 63 10000 6.2 200 09:41 21.12.2019
5772 Clouds 16 1017 67 10000 6.2 200 09:20 21.12.2019
5773 Clouds 15 1017 71 10000 6.2 200 08:55 21.12.2019
5774 Clouds 14 1017 71 10000 6.2 200 08:36 21.12.2019
5775 Clouds 14 1017 71 10000 6.7 200 08:18 21.12.2019
5776 Clouds 14 1017 67 10000 8.2 190 07:41 21.12.2019
5777 Clouds 13 1017 67 10000 6.7 200 07:21 21.12.2019
5778 Clouds 13 1017 67 10000 7.2 190 06:42 21.12.2019
5779 Clouds 13 1017 67 10000 5.1 190 06:24 21.12.2019
5780 Clouds 13 1017 67 10000 6.2 190 05:45 21.12.2019
5781 Clouds 12 1017 71 10000 5.1 190 04:56 21.12.2019
5782 Clouds 12 1018 71 10000 6.7 190 03:56 21.12.2019
5783 Clouds 12 1018 76 10000 6.7 190 02:39 21.12.2019
5784 Clouds 12 1019 76 10000 5.1 200 01:53 21.12.2019
5785 Clouds 12 1018 76 10000 6.7 200 01:27 21.12.2019
5786 Clouds 12 1018 76 10000 7.2 200 00:50 21.12.2019
5787 Clouds 12 1018 76 10000 7.2 200 00:28 21.12.2019
5788 Clouds 13 1019 76 10000 7.2 180 23:55 20.12.2019
5789 Clouds 13 1019 76 10000 7.2 180 23:36 20.12.2019
5790 Clouds 13 1019 82 10000 6.7 180 23:18 20.12.2019
5791 Clouds 13 1020 82 10000 6.2 190 22:40 20.12.2019
5792 Clouds 13 1020 82 10000 5.1 190 22:20 20.12.2019
5793 Clouds 13 1020 82 10000 5.7 200 21:57 20.12.2019
5794 Clouds 13 1020 82 10000 5.7 200 21:39 20.12.2019
5795 Clouds 13 1020 82 10000 5.7 200 21:39 20.12.2019
5796 Clouds 13 1020 82 10000 5.7 190 21:18 20.12.2019
5797 Clouds 13 1020 82 10000 5.7 190 20:39 20.12.2019
5798 Clouds 13 1020 76 10000 6.2 190 20:19 20.12.2019
5799 Clouds 13 1020 76 10000 5.1 180 19:57 20.12.2019
5800 Clouds 13 1020 76 10000 5.1 180 19:39 20.12.2019
5801 Clouds 13 1021 76 10000 5.1 190 19:19 20.12.2019
5802 Clouds 13 1021 71 10000 5.7 180 18:42 20.12.2019
5803 Clouds 13 1021 71 10000 5.7 180 18:42 20.12.2019
5804 Clouds 13 1021 71 10000 5.1 150 18:23 20.12.2019
5805 Clouds 13 1021 71 10000 5.1 150 17:58 20.12.2019
5806 Clouds 13 1021 76 10000 4.6 150 17:40 20.12.2019
5807 Clouds 13 1021 76 10000 4.6 150 17:20 20.12.2019
5808 Clouds 13 1021 76 10000 4.6 180 16:59 20.12.2019
5809 Clouds 13 1021 76 10000 4.6 180 16:59 20.12.2019
5810 Clouds 13 1021 76 10000 4.6 180 16:38 20.12.2019
5811 Clouds 13 1021 76 10000 4.6 180 16:20 20.12.2019
5812 Clouds 13 1021 76 10000 4.6 180 16:20 20.12.2019
5813 Clouds 14 1021 76 10000 4.1 180 15:56 20.12.2019
5814 Clouds 14 1021 76 10000 3.6 180 15:38 20.12.2019
5815 Clouds 14 1021 76 10000 3.6 180 15:19 20.12.2019
5816 Clouds 15 1021 71 10000 4.1 200 14:43 20.12.2019
5817 Clouds 15 1022 71 10000 5.1 200 14:24 20.12.2019
5818 Clouds 15 1022 71 10000 5.1 200 13:57 20.12.2019
5819 Clouds 15 1022 71 10000 5.7 200 13:38 20.12.2019
5820 Clouds 15 1022 71 10000 5.7 200 13:19 20.12.2019
5821 Clouds 15 1022 71 10000 5.1 190 12:57 20.12.2019
5822 Clouds 15 1022 71 10000 5.1 190 12:37 20.12.2019
5823 Clouds 15 1022 71 10000 5.1 190 12:18 20.12.2019
5824 Clouds 15 1023 67 10000 5.7 190 11:57 20.12.2019
5825 Clouds 15 1023 67 10000 5.7 190 11:38 20.12.2019
5826 Clouds 15 1023 67 10000 5.7 190 11:38 20.12.2019
5827 Clouds 15 1023 67 10000 5.7 190 11:18 20.12.2019
5828 Clouds 15 1023 67 10000 5.7 190 11:18 20.12.2019
5829 Clouds 14 1024 67 10000 5.7 180 10:56 20.12.2019
5830 Clouds 14 1024 71 10000 3.6 170 10:37 20.12.2019
5831 Clouds 14 1024 71 10000 3.6 170 10:19 20.12.2019
5832 Clouds 13 1025 76 10000 3.6 100 09:43 20.12.2019
5833 Clouds 12 1025 76 10000 3.6 100 09:21 20.12.2019
5834 Clouds 11 1025 81 10000 2.6 120 08:55 20.12.2019
5835 Clouds 11 1025 81 10000 2.6 110 08:37 20.12.2019
5836 Clouds 10 1025 81 10000 2.6 110 08:19 20.12.2019
5837 Clouds 10 1025 81 10000 1.5 130 07:55 20.12.2019
5838 Clouds 9 1025 93 10000 1 0 07:36 20.12.2019
5839 Clouds 9 1025 87 8000 0.5 0 07:18 20.12.2019
5840 Clouds 9 1025 87 8000 0.5 0 06:43 20.12.2019
5841 Clouds 9 1025 93 10000 1.23 177 06:25 20.12.2019
5842 Clouds 9 1025 93 10000 1.23 177 05:47 20.12.2019
5843 Clouds 8 1025 93 8000 2.1 130 04:57 20.12.2019
5844 Clouds 8 1025 100 8000 1.12 155 03:49 20.12.2019
5845 Clouds 8 1026 93 8000 1.12 155 02:46 20.12.2019
5846 Clouds 8 1026 87 8000 0.5 0 01:59 20.12.2019
5847 Clouds 10 1026 93 8000 0.5 0 01:35 20.12.2019
5848 Clouds 9 1026 93 8000 0.5 0 00:54 20.12.2019
5849 Clouds 9 1026 87 8000 1 0 00:35 20.12.2019
5850 Clouds 10 1027 87 10000 2.1 110 23:58 19.12.2019
5851 Clouds 11 1027 76 10000 2.1 110 23:39 19.12.2019
5852 Clouds 10 1027 76 10000 2.1 110 23:19 19.12.2019
5853 Clouds 10 1027 76 10000 2.1 110 23:19 19.12.2019
5854 Clouds 10 1028 87 10000 0.5 0 22:39 19.12.2019
5855 Clouds 10 1028 87 10000 0.5 0 22:21 19.12.2019
5856 Clouds 10 1028 87 10000 1.5 80 21:56 19.12.2019
5857 Clouds 11 1028 87 10000 1.5 80 21:38 19.12.2019
5858 Clouds 11 1028 87 10000 1.5 80 21:19 19.12.2019
5859 Clouds 11 1028 93 10000 1.5 90 20:56 19.12.2019
5860 Clouds 11 1028 87 10000 1.5 90 20:37 19.12.2019
5861 Clouds 11 1028 87 10000 1.5 90 20:19 19.12.2019
5862 Clouds 11 1028 87 10000 1.5 90 19:58 19.12.2019
5863 Clouds 11 1028 87 10000 1.5 90 19:58 19.12.2019
5864 Clouds 11 1028 81 10000 1 0 19:39 19.12.2019
5865 Clouds 11 1028 87 10000 1.5 90 19:39 19.12.2019
5866 Clouds 11 1028 81 10000 1 0 19:19 19.12.2019
5867 Clouds 11 1028 76 10000 1.5 230 18:57 19.12.2019
5868 Clouds 11 1028 81 10000 0.5 0 18:39 19.12.2019
5869 Clouds 11 1028 81 10000 0.5 0 18:19 19.12.2019
5870 Clouds 12 1028 71 10000 2.1 220 17:55 19.12.2019
5871 Clouds 12 1028 76 10000 1 230 17:37 19.12.2019
5872 Clouds 12 1028 76 10000 1 230 17:37 19.12.2019
5873 Clouds 13 1028 71 10000 2.1 230 17:18 19.12.2019
5874 Clouds 13 1028 71 10000 2.1 230 16:55 19.12.2019
5875 Clouds 13 1028 71 10000 1 220 16:36 19.12.2019
5876 Clouds 13 1028 71 10000 1 220 16:18 19.12.2019
5877 Clouds 14 1028 67 10000 4.1 270 15:55 19.12.2019
5878 Clouds 14 1028 71 10000 3.1 260 15:36 19.12.2019
5879 Clouds 14 1028 71 10000 3.1 260 15:18 19.12.2019
5880 Clouds 15 1028 67 10000 2.1 230 14:42 19.12.2019
5881 Clouds 15 1028 71 10000 2.6 240 14:20 19.12.2019
5882 Clouds 16 1028 71 10000 3.1 240 13:58 19.12.2019
5883 Clouds 16 1029 67 10000 3.6 230 13:38 19.12.2019
5884 Clouds 16 1029 67 10000 3.6 230 13:19 19.12.2019
5885 Clouds 16 1029 67 10000 3.6 230 13:19 19.12.2019
5886 Clouds 16 1029 67 10000 3.6 230 12:57 19.12.2019
5887 Clouds 16 1029 67 10000 2.6 260 12:38 19.12.2019
5888 Clouds 16 1029 67 10000 2.6 260 12:19 19.12.2019
5889 Clouds 16 1029 67 10000 2.6 260 12:19 19.12.2019
5890 Clouds 16 1030 67 10000 3.6 240 12:19 19.12.2019
5891 Clouds 16 1030 67 10000 3.6 240 11:58 19.12.2019
5892 Clouds 16 1030 67 10000 3.1 240 11:39 19.12.2019
5893 Clouds 15 1030 67 10000 3.1 240 11:18 19.12.2019
5894 Clouds 15 1030 67 10000 3.1 240 11:18 19.12.2019
5895 Clouds 15 1030 67 10000 1.5 0 10:55 19.12.2019
5896 Clouds 15 1030 71 10000 3.1 230 10:37 19.12.2019
5897 Clouds 14 1030 71 10000 3.1 230 10:18 19.12.2019
5898 Clouds 14 1031 67 10000 3.6 230 09:40 19.12.2019
5899 Clouds 13 1031 67 10000 3.6 230 09:21 19.12.2019
5900 Clouds 13 1031 71 10000 3.6 230 08:58 19.12.2019
5901 Clouds 12 1030 71 10000 3.1 230 08:40 19.12.2019
5902 Clear 11 1030 71 10000 3.1 240 08:19 19.12.2019
5903 Clear 11 1030 71 10000 3.1 240 07:57 19.12.2019
5904 Clear 11 1030 76 10000 3.6 220 07:38 19.12.2019
5905 Clear 11 1030 76 10000 3.6 220 07:19 19.12.2019
5906 Clear 11 1030 76 10000 4.1 220 06:49 19.12.2019
5907 Clear 11 1030 76 10000 4.6 210 06:28 19.12.2019
5908 Clear 10 1029 76 10000 5.1 190 05:55 19.12.2019
5909 Clear 11 1029 76 10000 5.7 190 05:33 19.12.2019
5910 Clouds 11 1029 76 10000 6.2 190 04:51 19.12.2019
5911 Clouds 11 1029 87 10000 3.1 220 02:54 19.12.2019
5912 Clear 11 1029 87 10000 4.1 210 01:51 19.12.2019
5913 Clear 11 1029 81 10000 5.1 210 01:22 19.12.2019
5914 Clear 11 1028 81 10000 5.1 220 00:41 19.12.2019
5915 Clear 11 1028 81 10000 5.1 220 00:22 19.12.2019
5916 Clear 11 1028 71 10000 5.7 210 23:56 18.12.2019
5917 Clear 12 1028 71 10000 5.1 220 23:38 18.12.2019
5918 Clear 12 1028 71 10000 5.1 220 23:18 18.12.2019
5919 Clear 12 1028 71 10000 4.6 220 22:55 18.12.2019
5920 Clear 12 1028 76 10000 4.1 210 22:36 18.12.2019
5921 Clear 12 1028 76 10000 4.1 210 22:18 18.12.2019
5922 Clear 12 1028 76 10000 4.6 210 21:55 18.12.2019
5923 Clear 12 1028 76 10000 4.6 200 21:36 18.12.2019
5924 Clear 12 1028 76 10000 4.6 200 21:36 18.12.2019
5925 Clear 12 1028 76 10000 4.6 200 21:18 18.12.2019
5926 Clear 12 1028 76 10000 4.6 200 20:54 18.12.2019
5927 Clear 12 1029 76 10000 4.6 180 20:36 18.12.2019
5928 Clear 12 1029 76 10000 4.6 180 20:18 18.12.2019
5929 Clear 12 1028 87 10000 1 170 19:54 18.12.2019
5930 Clear 12 1028 87 10000 1 170 19:54 18.12.2019
5931 Clear 12 1028 67 10000 4.6 210 19:36 18.12.2019
5932 Clear 12 1028 67 10000 4.6 210 19:18 18.12.2019
5933 Clear 12 1028 76 10000 3.6 200 18:43 18.12.2019
5934 Clear 12 1028 76 10000 3.6 200 18:25 18.12.2019
5935 Clear 12 1028 76 10000 4.1 190 17:56 18.12.2019
5936 Clear 12 1027 82 10000 4.1 190 17:38 18.12.2019
5937 Clear 13 1027 82 10000 4.1 190 17:19 18.12.2019
5938 Clear 13 1027 82 10000 3.6 200 16:43 18.12.2019
5939 Clear 13 1027 82 10000 3.6 200 16:43 18.12.2019
5940 Clear 13 1027 82 10000 3.6 200 16:43 18.12.2019
5941 Clear 13 1027 82 10000 3.6 210 16:25 18.12.2019
5942 Clear 14 1027 71 10000 4.1 210 15:59 18.12.2019
5943 Clear 14 1027 71 10000 4.1 210 15:40 18.12.2019
5944 Clear 15 1027 71 10000 4.1 210 15:21 18.12.2019
5945 Clear 15 1027 71 10000 4.1 210 14:59 18.12.2019
5946 Clear 15 1027 71 10000 4.1 210 14:40 18.12.2019
5947 Clear 16 1027 71 10000 4.1 220 14:20 18.12.2019
5948 Clear 16 1027 67 10000 5.1 210 13:56 18.12.2019
5949 Clear 16 1027 67 10000 5.1 210 13:37 18.12.2019
5950 Clear 16 1027 67 10000 5.1 210 13:19 18.12.2019
5951 Clear 16 1027 67 10000 5.1 210 13:19 18.12.2019
5952 Clear 16 1027 71 10000 5.7 210 12:57 18.12.2019
5953 Clear 16 1027 71 10000 5.7 210 12:37 18.12.2019
5954 Clear 16 1027 71 10000 5.7 220 12:19 18.12.2019
5955 Clear 16 1027 67 10000 5.7 210 11:55 18.12.2019
5956 Clear 15 1028 67 10000 6.2 210 11:36 18.12.2019
5957 Clear 15 1028 67 10000 6.2 210 11:18 18.12.2019
5958 Clear 15 1028 67 10000 6.7 210 10:55 18.12.2019
5959 Clear 15 1028 67 10000 6.7 200 10:37 18.12.2019
5960 Clear 15 1028 67 10000 6.7 200 10:18 18.12.2019
5961 Clear 13 1028 76 10000 6.7 210 09:21 18.12.2019
5962 Clear 13 1028 76 10000 6.7 210 08:58 18.12.2019
5963 Clear 13 1028 71 10000 6.2 190 08:39 18.12.2019
5964 Clear 11 1028 71 10000 6.2 200 08:21 18.12.2019
5965 Clear 11 1027 76 10000 6.2 190 07:43 18.12.2019
5966 Clear 11 1027 76 10000 6.2 190 07:22 18.12.2019
5967 Clear 11 1027 81 10000 4.1 190 06:53 18.12.2019
5968 Clear 11 1027 76 10000 4.1 220 06:26 18.12.2019
5969 Clear 11 1026 71 10000 3.1 200 05:44 18.12.2019
5970 Clear 11 1026 76 10000 5.7 200 04:46 18.12.2019
5971 Clear 10 1027 76 10000 5.1 200 02:51 18.12.2019
5972 Clear 10 1027 76 10000 5.1 200 02:31 18.12.2019
5973 Clear 10 1027 76 10000 5.1 210 01:57 18.12.2019
5974 Clear 10 1027 76 10000 5.1 210 01:37 18.12.2019
5975 Clear 10 1027 76 10000 5.1 210 01:19 18.12.2019
5976 Clear 10 1026 81 10000 5.1 210 00:40 18.12.2019
5977 Clear 10 1026 81 10000 5.1 210 00:21 18.12.2019
5978 Clear 10 1026 81 10000 5.1 210 23:54 17.12.2019
5979 Clear 10 1026 81 10000 5.1 210 23:36 17.12.2019
5980 Clear 10 1026 71 10000 5.1 210 23:18 17.12.2019
5981 Clear 11 1027 71 10000 4.1 200 22:54 17.12.2019
5982 Clear 10 1027 71 10000 4.1 200 22:36 17.12.2019
5983 Clear 10 1027 76 10000 4.1 200 22:18 17.12.2019
5984 Clear 11 1027 76 10000 4.1 200 21:55 17.12.2019
5985 Clear 11 1027 76 10000 4.1 200 21:36 17.12.2019
5986 Clear 11 1026 71 10000 3.6 200 21:18 17.12.2019
5987 Clear 11 1026 71 10000 3.6 200 20:55 17.12.2019
5988 Clear 11 1026 71 10000 3.6 200 20:36 17.12.2019
5989 Clear 11 1026 71 10000 3.6 210 20:18 17.12.2019
5990 Clear 11 1026 71 10000 4.6 200 19:41 17.12.2019
5991 Clear 11 1026 71 10000 4.6 200 19:41 17.12.2019
5992 Clear 11 1026 76 10000 1.5 270 19:20 17.12.2019
5993 Clear 11 1026 76 10000 1.5 280 18:58 17.12.2019
5994 Clear 11 1026 76 10000 1.5 280 18:40 17.12.2019
5995 Clear 11 1026 71 10000 1.5 260 18:21 17.12.2019
5996 Clear 12 1026 76 10000 2.1 280 17:58 17.12.2019
5997 Clear 12 1026 76 10000 2.1 280 17:39 17.12.2019
5998 Clear 12 1026 76 10000 2.1 280 17:19 17.12.2019
5999 Clear 12 1026 81 10000 2.1 300 16:56 17.12.2019
6000 Clear 12 1026 81 10000 2.1 300 16:37 17.12.2019
6001 Clear 13 1025 71 10000 1.5 270 16:18 17.12.2019
6002 Clear 14 1025 76 10000 2.1 240 15:54 17.12.2019
6003 Clear 14 1025 76 10000 2.1 240 15:36 17.12.2019
6004 Clear 15 1025 67 10000 4.1 210 15:18 17.12.2019
6005 Clear 15 1025 67 10000 4.1 210 14:54 17.12.2019
6006 Clear 15 1025 67 10000 4.1 210 14:36 17.12.2019
6007 Clear 15 1025 67 10000 4.1 210 14:36 17.12.2019
6008 Clear 15 1025 62 10000 3.1 240 14:18 17.12.2019
6009 Clear 15 1025 58 10000 3.6 240 13:54 17.12.2019
6010 Clear 15 1025 62 10000 4.1 230 13:36 17.12.2019
6011 Clear 16 1025 62 10000 4.1 230 13:18 17.12.2019
6012 Clear 16 1026 62 10000 4.1 230 12:40 17.12.2019
6013 Clear 15 1026 62 10000 5.1 220 12:19 17.12.2019
6014 Clear 15 1026 62 10000 5.1 220 11:59 17.12.2019
6015 Clear 15 1026 62 10000 5.1 220 11:37 17.12.2019
6016 Clear 15 1026 62 10000 5.1 220 11:37 17.12.2019
6017 Clear 15 1026 62 10000 5.7 220 11:19 17.12.2019
6018 Clear 15 1027 62 10000 5.1 230 10:59 17.12.2019
6019 Clear 15 1027 62 10000 5.1 230 10:40 17.12.2019
6020 Clear 14 1027 67 10000 4.6 220 10:21 17.12.2019
6021 Clear 14 1027 67 10000 5.7 210 09:59 17.12.2019
6022 Clear 13 1027 67 10000 5.7 210 09:40 17.12.2019
6023 Clear 13 1027 71 10000 5.1 200 09:19 17.12.2019
6024 Clear 12 1026 71 10000 4.1 220 08:56 17.12.2019
6025 Clear 12 1026 71 10000 4.1 220 08:38 17.12.2019
6026 Clear 11 1026 76 10000 2.1 210 08:19 17.12.2019
6027 Clear 9 1026 100 10000 1 0 07:45 17.12.2019
6028 Clear 9 1026 87 10000 0.5 0 07:26 17.12.2019
6029 Clear 8 1026 93 10000 0.5 0 06:56 17.12.2019
6030 Clear 8 1025 87 8000 5.1 200 06:34 17.12.2019
6031 Clear 9 1026 87 10000 3.6 210 05:53 17.12.2019
6032 Clear 9 1026 87 10000 3.6 210 05:34 17.12.2019
6033 Clear 9 1025 70 10000 1 0 04:30 17.12.2019
6034 Clear 9 1025 81 10000 4.1 200 02:34 17.12.2019
6035 Clear 10 1025 76 10000 4.6 220 01:54 17.12.2019
6036 Clear 9 1025 70 10000 1.77 155 00:58 17.12.2019
6037 Clear 9 1025 70 10000 1.77 155 00:37 17.12.2019
6038 Clear 9 1025 93 10000 2.6 260 00:18 17.12.2019
6039 Clear 9 1026 100 10000 2.1 270 23:41 16.12.2019
6040 Clear 9 1026 93 10000 0.5 0 23:19 16.12.2019
6041 Clear 9 1026 93 10000 0.5 0 23:19 16.12.2019
6042 Clear 9 1026 100 10000 1.5 10 22:56 16.12.2019
6043 Clear 9 1026 100 10000 1.5 10 22:37 16.12.2019
6044 Clear 10 1026 93 10000 1 0 22:19 16.12.2019
6045 Clear 9 1026 100 10000 0.5 0 21:55 16.12.2019
6046 Clear 9 1026 100 10000 0.5 0 21:37 16.12.2019
6047 Clear 9 1026 100 10000 0.5 0 21:37 16.12.2019
6048 Clear 9 1026 100 10000 0.5 0 21:37 16.12.2019
6049 Clear 9 1026 100 10000 0.5 0 21:18 16.12.2019
6050 Clear 10 1026 93 10000 1 200 20:56 16.12.2019
6051 Clear 10 1026 93 10000 1 200 20:56 16.12.2019
6052 Clear 10 1026 93 10000 1 200 20:37 16.12.2019
6053 Clear 9 1026 93 10000 1 0 20:19 16.12.2019
6054 Clear 9 1026 93 10000 0.89 177 19:55 16.12.2019
6055 Clear 9 1026 93 10000 0.89 177 19:36 16.12.2019
6056 Clear 10 1026 93 10000 0.89 177 19:18 16.12.2019
6057 Clear 10 1026 93 10000 1.5 120 18:55 16.12.2019
6058 Clear 10 1026 93 10000 1.5 120 18:37 16.12.2019
6059 Clear 10 1026 93 10000 1 110 18:19 16.12.2019
6060 Clear 10 1026 87 10000 2.1 200 17:57 16.12.2019
6061 Clear 10 1026 87 10000 2.1 200 17:37 16.12.2019
6062 Clear 11 1026 93 10000 1 0 17:19 16.12.2019
6063 Clear 11 1026 87 10000 1 0 16:55 16.12.2019
6064 Clear 12 1026 87 10000 1 0 16:37 16.12.2019
6065 Clear 12 1026 81 10000 1.5 240 16:18 16.12.2019
6066 Clear 13 1026 81 10000 2.1 220 15:55 16.12.2019
6067 Clear 13 1026 81 10000 2.1 220 15:37 16.12.2019
6068 Clear 14 1026 76 10000 2.6 220 15:19 16.12.2019
6069 Clear 15 1026 71 10000 3.1 190 14:54 16.12.2019
6070 Clear 15 1026 71 10000 3.1 190 14:54 16.12.2019
6071 Clear 15 1026 71 10000 3.1 190 14:36 16.12.2019
6072 Clear 15 1026 71 10000 3.6 200 14:18 16.12.2019
6073 Clear 15 1026 71 10000 3.6 200 14:18 16.12.2019
6074 Clear 15 1026 71 10000 4.1 210 13:55 16.12.2019
6075 Clear 15 1026 71 10000 4.1 210 13:36 16.12.2019
6076 Clear 15 1026 71 10000 5.1 210 13:18 16.12.2019
6077 Clear 14 1026 71 10000 5.1 210 13:18 16.12.2019
6078 Clear 15 1026 67 10000 5.7 220 12:54 16.12.2019
6079 Clear 15 1026 67 10000 5.7 220 12:36 16.12.2019
6080 Clear 15 1026 71 10000 5.1 200 12:18 16.12.2019
6081 Clear 15 1026 71 10000 4.1 190 11:55 16.12.2019
6082 Clear 14 1026 71 10000 4.1 190 11:37 16.12.2019
6083 Clear 14 1027 71 10000 2.6 190 11:19 16.12.2019
6084 Clear 13 1027 76 10000 2.1 200 10:40 16.12.2019
6085 Clear 13 1027 76 10000 2.6 170 10:21 16.12.2019
6086 Clear 13 1027 76 10000 3.1 140 09:56 16.12.2019
6087 Clear 12 1027 76 10000 3.1 140 09:38 16.12.2019
6088 Clear 12 1027 82 10000 2.6 190 09:20 16.12.2019
6089 Clear 11 1027 82 10000 2.1 200 08:39 16.12.2019
6090 Clear 9 1027 87 10000 1.5 170 08:19 16.12.2019
6091 Clear 8 1027 100 10000 1 140 07:52 16.12.2019
6092 Clear 7 1027 93 10000 1 140 07:31 16.12.2019
6093 Clear 7 1027 100 10000 0.5 0 06:52 16.12.2019
6094 Clear 7 1026 87 10000 0.5 0 06:27 16.12.2019
6095 Fog 7 1026 100 1000 3.6 190 05:59 16.12.2019
6096 Fog 7 1026 100 600 3.6 210 05:40 16.12.2019
6097 Fog 7 1026 100 600 3.6 210 05:22 16.12.2019
6098 Mist 6 1026 93 7000 1.5 350 02:59 16.12.2019
6099 Clear 7 1026 93 7000 0.5 350 01:46 16.12.2019
6100 Clear 7 1025 100 7000 1 340 00:57 16.12.2019
6101 Clear 7 1025 100 7000 1 340 00:38 16.12.2019
6102 Clear 7 1025 100 7000 1 0 00:19 16.12.2019
6103 Clear 7 1025 93 7000 1 0 23:43 15.12.2019
6104 Clear 7 1025 93 7000 1 0 23:25 15.12.2019
6105 Clear 8 1025 93 7000 1.5 360 22:57 15.12.2019
6106 Clear 8 1025 93 7000 1.5 360 22:38 15.12.2019
6107 Clear 8 1025 93 7000 1.5 360 22:38 15.12.2019
6108 Clear 8 1025 93 7000 1 0 22:19 15.12.2019
6109 Clear 8 1025 93 8000 2.1 350 21:58 15.12.2019
6110 Clear 8 1025 93 8000 2.1 350 21:38 15.12.2019
6111 Clear 8 1025 93 8000 1.5 340 21:20 15.12.2019
6112 Clear 8 1025 93 8000 1.5 340 20:58 15.12.2019
6113 Clear 8 1024 93 8000 1.5 350 20:40 15.12.2019
6114 Clouds 9 1024 87 10000 1.05 80 20:21 15.12.2019
6115 Clouds 9 1024 87 10000 1.05 80 20:21 15.12.2019
6116 Clouds 9 1024 87 10000 1.05 80 20:21 15.12.2019
6117 Clouds 9 1024 87 10000 0.5 360 19:58 15.12.2019
6118 Clear 9 1024 87 10000 0.5 360 19:40 15.12.2019
6119 Clear 9 1024 87 10000 1.08 47 19:20 15.12.2019
6120 Clear 9 1024 87 10000 1.08 47 19:20 15.12.2019
6121 Clear 9 1024 87 10000 1 50 18:58 15.12.2019
6122 Clouds 9 1023 87 10000 1.5 30 18:39 15.12.2019
6123 Clear 10 1023 87 10000 1.5 30 18:19 15.12.2019
6124 Clear 10 1023 76 10000 1 330 17:57 15.12.2019
6125 Clear 10 1023 76 10000 1 330 17:38 15.12.2019
6126 Clear 10 1023 71 10000 2.1 40 17:38 15.12.2019
6127 Clear 10 1023 81 10000 0.5 0 17:19 15.12.2019
6128 Clouds 11 1023 81 10000 2.1 350 16:59 15.12.2019
6129 Clouds 11 1023 81 10000 2.1 350 16:41 15.12.2019
6130 Clear 11 1022 71 10000 2.1 20 16:21 15.12.2019
6131 Clouds 12 1022 62 10000 2.6 20 15:56 15.12.2019
6132 Clouds 12 1022 62 10000 2.6 20 15:38 15.12.2019
6133 Clear 13 1021 54 10000 4.1 10 15:19 15.12.2019
6134 Clear 13 1021 58 10000 4.1 360 14:56 15.12.2019
6135 Clouds 13 1021 58 10000 4.1 360 14:37 15.12.2019
6136 Rain 13 1021 71 10000 2.1 340 14:18 15.12.2019
6137 Rain 13 1021 71 10000 2.1 340 13:58 15.12.2019
6138 Rain 13 1021 71 10000 2.1 360 13:37 15.12.2019
6139 Rain 13 1021 71 10000 2.1 360 13:37 15.12.2019
6140 Rain 13 1020 76 10000 1 0 13:19 15.12.2019
6141 Clouds 12 1020 81 10000 1.5 330 12:56 15.12.2019
6142 Clouds 12 1020 81 10000 1.5 330 12:38 15.12.2019
6143 Clouds 13 1020 81 10000 1.5 10 12:20 15.12.2019
6144 Rain 13 1020 81 10000 2.1 20 11:55 15.12.2019
6145 Rain 12 1020 81 10000 2.1 20 11:36 15.12.2019
6146 Rain 12 1020 87 10000 4.1 10 11:18 15.12.2019
6147 Clouds 13 1019 81 10000 1 0 10:55 15.12.2019
6148 Rain 13 1019 76 10000 6.7 360 10:36 15.12.2019
6149 Clouds 13 1019 71 10000 5.7 360 10:18 15.12.2019
6150 Clouds 13 1018 71 10000 4.6 350 09:39 15.12.2019
6151 Clouds 13 1017 76 10000 3.6 360 09:20 15.12.2019
6152 Clouds 13 1017 76 10000 3.6 360 09:20 15.12.2019
6153 Clouds 13 1017 76 10000 3.6 10 08:57 15.12.2019
6154 Clouds 13 1017 76 10000 3.6 10 08:39 15.12.2019
6155 Clouds 13 1016 87 10000 4.1 10 08:20 15.12.2019
6156 Clouds 13 1016 82 10000 4.6 10 07:55 15.12.2019
6157 Clouds 13 1016 82 10000 4.6 10 07:34 15.12.2019
6158 Clouds 12 1015 76 10000 3.6 350 06:39 15.12.2019
6159 Clouds 12 1014 81 10000 1 220 06:19 15.12.2019
6160 Clouds 13 1013 67 10000 1.5 260 05:25 15.12.2019
6161 Clouds 11 1012 81 10000 1.5 280 04:24 15.12.2019
6162 Clouds 11 1011 81 10000 2.1 330 03:22 15.12.2019
6163 Clouds 11 1010 81 10000 2.1 350 02:33 15.12.2019
6164 Clouds 11 1010 81 8000 1 350 01:44 15.12.2019
6165 Clouds 11 1009 81 10000 1.5 350 01:25 15.12.2019
6166 Clouds 11 1009 76 10000 1.29 163 00:54 15.12.2019
6167 Clouds 11 1009 76 10000 1.29 163 00:35 15.12.2019
6168 Clouds 10 1008 81 8000 2.1 360 23:58 14.12.2019
6169 Clouds 11 1008 81 8000 3.1 350 23:38 14.12.2019
6170 Clouds 11 1008 81 8000 3.1 350 23:18 14.12.2019
6171 Clouds 11 1007 81 10000 2.1 20 22:56 14.12.2019
6172 Clouds 11 1007 81 10000 2.1 20 22:37 14.12.2019
6173 Clouds 12 1007 81 10000 2.6 360 22:19 14.12.2019
6174 Clouds 12 1006 76 10000 2.6 350 21:55 14.12.2019
6175 Clouds 11 1006 76 10000 2.6 350 21:37 14.12.2019
6176 Clouds 11 1006 76 10000 2.6 10 21:18 14.12.2019
6177 Clouds 13 1006 66 10000 2.6 30 20:43 14.12.2019
6178 Clouds 13 1005 62 10000 2.1 30 20:21 14.12.2019
6179 Clouds 13 1005 58 10000 2.6 40 19:59 14.12.2019
6180 Clouds 13 1005 58 10000 2.6 40 19:39 14.12.2019
6181 Clouds 14 1005 51 10000 3.6 50 19:21 14.12.2019
6182 Clouds 14 1004 48 10000 3.6 50 18:57 14.12.2019
6183 Clouds 14 1004 48 10000 3.6 50 18:39 14.12.2019
6184 Clouds 14 1004 48 10000 3.6 60 18:21 14.12.2019
6185 Clouds 15 1004 48 10000 2.6 60 17:57 14.12.2019
6186 Clouds 15 1004 48 10000 2.6 60 17:38 14.12.2019
6187 Clear 15 1003 48 10000 3.6 50 17:20 14.12.2019
6188 Clear 15 1003 51 10000 2.6 90 16:41 14.12.2019
6189 Clear 15 1003 51 10000 2.6 90 16:19 14.12.2019
6190 Clear 16 1003 51 10000 3.1 90 15:55 14.12.2019
6191 Clear 16 1003 51 10000 3.1 90 15:37 14.12.2019
6192 Clear 17 1003 51 10000 3.1 80 15:19 14.12.2019
6193 Clear 17 1002 55 10000 3.1 80 14:54 14.12.2019
6194 Clear 18 1002 55 10000 3.1 80 14:36 14.12.2019
6195 Clear 18 1002 55 10000 4.1 90 14:18 14.12.2019
6196 Clear 18 1002 51 10000 4.1 90 13:42 14.12.2019
6197 Clear 18 1002 48 10000 3.1 90 13:19 14.12.2019
6198 Clear 18 1002 51 10000 4.1 100 12:57 14.12.2019
6199 Clear 17 1002 51 10000 4.1 100 12:38 14.12.2019
6200 Clear 17 1002 51 10000 4.1 100 12:38 14.12.2019
6201 Clear 17 1002 51 10000 4.1 110 12:20 14.12.2019
6202 Clear 17 1002 51 10000 5.1 120 11:56 14.12.2019
6203 Clear 17 1002 51 10000 5.1 120 11:38 14.12.2019
6204 Clear 17 1002 55 10000 4.6 110 11:19 14.12.2019
6205 Clear 16 1003 55 10000 4.6 120 10:56 14.12.2019
6206 Clear 16 1003 55 10000 4.6 120 10:38 14.12.2019
6207 Clear 16 1003 63 10000 4.6 130 10:19 14.12.2019
6208 Clear 15 1003 62 10000 4.6 120 09:43 14.12.2019
6209 Clear 14 1003 67 10000 4.6 120 09:23 14.12.2019
6210 Clear 14 1003 67 10000 3.6 120 08:57 14.12.2019
6211 Clear 14 1003 67 10000 3.6 120 08:57 14.12.2019
6212 Clear 13 1003 67 10000 3.6 120 08:38 14.12.2019
6213 Clear 13 1003 67 10000 3.6 120 08:38 14.12.2019
6214 Clouds 13 1003 71 10000 4.1 120 08:19 14.12.2019
6215 Clear 11 1003 76 10000 3.6 120 07:40 14.12.2019
6216 Clouds 11 1003 76 10000 2.6 110 07:21 14.12.2019
6217 Clear 11 1002 71 10000 5.1 170 06:55 14.12.2019
6218 Clear 11 1002 71 10000 5.1 170 06:36 14.12.2019
6219 Clouds 11 1002 81 10000 1.5 170 05:50 14.12.2019
6220 Clouds 11 1002 82 10000 4.6 190 03:44 14.12.2019
6221 Clouds 11 1002 87 10000 3.6 190 02:24 14.12.2019
6222 Clouds 11 1002 87 10000 4.6 190 01:44 14.12.2019
6223 Clouds 11 1002 87 10000 4.1 200 01:20 14.12.2019
6224 Clouds 11 1002 87 10000 5.1 190 00:43 14.12.2019
6225 Clouds 11 1002 82 10000 5.1 190 00:20 14.12.2019
6226 Clouds 11 1002 87 10000 5.7 180 23:41 13.12.2019
6227 Rain 12 1002 82 10000 6.7 180 23:20 13.12.2019
6228 Rain 12 1003 82 10000 8.7 180 22:57 13.12.2019
6229 Rain 12 1003 82 10000 8.7 180 22:38 13.12.2019
6230 Clouds 12 1003 87 10000 4.6 170 22:18 13.12.2019
6231 Clouds 12 1003 87 10000 3.1 170 21:44 13.12.2019
6232 Clouds 12 1003 87 10000 3.6 170 21:22 13.12.2019
6233 Clouds 12 1003 87 10000 3.6 170 20:59 13.12.2019
6234 Clouds 12 1003 87 10000 3.6 170 20:40 13.12.2019
6235 Rain 13 1003 87 10000 6.2 190 20:20 13.12.2019
6236 Rain 13 1003 87 10000 6.2 190 19:57 13.12.2019
6237 Clouds 13 1003 82 10000 4.1 170 19:39 13.12.2019
6238 Clouds 13 1003 82 10000 4.1 170 19:20 13.12.2019
6239 Clouds 13 1003 76 10000 4.1 160 18:55 13.12.2019
6240 Rain 13 1003 76 10000 2.6 150 18:36 13.12.2019
6241 Rain 13 1003 76 10000 2.6 150 18:18 13.12.2019
6242 Rain 13 1003 76 10000 1.5 140 17:40 13.12.2019
6243 Rain 13 1003 76 10000 1.5 140 17:40 13.12.2019
6244 Rain 13 1003 76 10000 1.5 140 17:19 13.12.2019
6245 Clouds 13 1003 82 10000 2.1 120 16:57 13.12.2019
6246 Clouds 13 1003 82 10000 2.1 120 16:57 13.12.2019
6247 Clouds 14 1003 71 10000 2.1 120 16:38 13.12.2019
6248 Clouds 14 1003 71 10000 2.1 120 16:20 13.12.2019
6249 Clouds 14 1003 71 10000 2.1 140 15:43 13.12.2019
6250 Clouds 14 1003 71 10000 2.1 140 15:22 13.12.2019
6251 Clouds 15 1003 71 10000 2.1 150 14:57 13.12.2019
6252 Clouds 15 1003 67 10000 2.1 180 14:39 13.12.2019
6253 Clouds 15 1003 67 10000 2.1 180 14:19 13.12.2019
6254 Clouds 16 1003 67 10000 2.1 150 13:44 13.12.2019
6255 Clouds 16 1003 67 10000 2.1 150 13:26 13.12.2019
6256 Clouds 15 1004 67 10000 2.1 160 12:59 13.12.2019
6257 Clouds 15 1004 76 10000 2.6 130 12:40 13.12.2019
6258 Clouds 15 1004 76 10000 2.6 130 12:19 13.12.2019
6259 Clouds 14 1004 76 10000 2.1 140 11:45 13.12.2019
6260 Clouds 14 1004 76 10000 2.1 140 11:45 13.12.2019
6261 Clouds 14 1005 76 10000 2.6 0 11:26 13.12.2019
6262 Clouds 13 1005 71 10000 2.6 160 10:58 13.12.2019
6263 Clouds 14 1005 82 10000 2.6 150 10:40 13.12.2019
6264 Clouds 14 1005 82 10000 2.6 150 10:21 13.12.2019
6265 Clouds 12 1006 87 10000 3.1 200 09:43 13.12.2019
6266 Clouds 12 1006 87 10000 3.1 200 09:22 13.12.2019
6267 Clouds 12 1006 87 10000 3.1 200 08:55 13.12.2019
6268 Clouds 12 1005 87 6000 3.1 190 08:36 13.12.2019
6269 Clouds 12 1005 87 6000 3.1 190 08:18 13.12.2019
6270 Clouds 11 1005 93 6000 3.1 190 07:42 13.12.2019
6271 Clouds 11 1005 93 6000 3.1 210 07:19 13.12.2019
6272 Clouds 11 1005 93 6000 3.6 190 06:45 13.12.2019
6273 Clouds 11 1005 87 10000 2.1 200 06:25 13.12.2019
6274 Clouds 11 1005 87 10000 4.1 200 05:38 13.12.2019
6275 Clouds 11 1005 87 10000 4.1 200 05:20 13.12.2019
6276 Clouds 11 1005 100 10000 0.5 0 04:28 13.12.2019
6277 Clouds 11 1005 100 10000 2.1 350 02:56 13.12.2019
6278 Clouds 11 1005 100 10000 1 330 02:30 13.12.2019
6279 Clouds 11 1005 93 10000 1.5 120 01:34 13.12.2019
6280 Clouds 11 1005 93 10000 2.1 360 00:50 13.12.2019
6281 Clouds 12 1005 93 10000 2.6 360 00:28 13.12.2019
6282 Clouds 12 1006 93 10000 2.6 340 23:43 12.12.2019
6283 Clouds 12 1006 93 10000 2.6 340 23:25 12.12.2019
6284 Clouds 12 1006 93 10000 2.1 330 22:57 12.12.2019
6285 Clouds 12 1006 93 10000 1.5 330 22:39 12.12.2019
6286 Clouds 12 1006 93 10000 1.5 330 22:21 12.12.2019
6287 Clouds 12 1006 93 10000 2.1 330 21:56 12.12.2019
6288 Clouds 12 1006 93 10000 1.5 10 21:37 12.12.2019
6289 Clouds 12 1006 93 10000 1.5 10 21:19 12.12.2019
6290 Clouds 12 1006 87 10000 1.5 60 20:59 12.12.2019
6291 Clouds 12 1006 87 10000 1.5 70 20:40 12.12.2019
6292 Clouds 12 1006 87 10000 1.5 70 20:21 12.12.2019
6293 Clouds 12 1006 87 10000 2.1 30 19:56 12.12.2019
6294 Rain 12 1006 87 10000 3.1 30 19:37 12.12.2019
6295 Rain 12 1006 87 10000 3.1 30 19:18 12.12.2019
6296 Rain 12 1006 87 10000 4.6 10 18:56 12.12.2019
6297 Rain 13 1006 87 10000 4.6 20 18:37 12.12.2019
6298 Rain 13 1006 87 10000 4.6 20 18:37 12.12.2019
6299 Clouds 13 1006 87 10000 4.1 360 18:19 12.12.2019
6300 Clouds 13 1006 87 10000 4.1 360 17:56 12.12.2019
6301 Clouds 13 1006 82 10000 4.1 360 17:38 12.12.2019
6302 Clouds 13 1006 82 10000 4.1 360 17:19 12.12.2019
6303 Clouds 13 1006 82 10000 4.1 360 16:54 12.12.2019
6304 Clouds 13 1006 76 10000 4.1 10 16:36 12.12.2019
6305 Clouds 13 1006 76 10000 4.1 10 16:18 12.12.2019
6306 Clouds 14 1006 76 10000 4.1 20 15:42 12.12.2019
6307 Clouds 14 1006 76 10000 4.1 20 15:20 12.12.2019
6308 Clouds 14 1006 67 10000 5.1 20 14:57 12.12.2019
6309 Clouds 14 1006 72 10000 4.6 20 14:37 12.12.2019
6310 Clouds 14 1006 72 10000 4.6 20 14:19 12.12.2019
6311 Clouds 14 1006 67 10000 3.1 360 13:55 12.12.2019
6312 Clouds 14 1006 67 10000 2.6 10 13:37 12.12.2019
6313 Clouds 14 1006 67 10000 2.6 10 13:37 12.12.2019
6314 Clouds 14 1006 67 10000 2.6 10 13:19 12.12.2019
6315 Clouds 14 1007 67 10000 2.6 360 12:55 12.12.2019
6316 Clouds 14 1007 63 10000 3.1 30 12:37 12.12.2019
6317 Clouds 14 1007 63 10000 3.1 30 12:18 12.12.2019
6318 Clouds 14 1007 72 10000 4.1 50 11:43 12.12.2019
6319 Clouds 14 1007 72 10000 4.1 50 11:22 12.12.2019
6320 Clouds 13 1007 76 10000 3.6 70 10:59 12.12.2019
6321 Clouds 13 1008 76 10000 4.6 40 10:41 12.12.2019
6322 Clouds 13 1008 76 10000 4.6 40 10:23 12.12.2019
6323 Clouds 13 1008 76 10000 4.1 40 09:58 12.12.2019
6324 Clouds 12 1008 87 10000 4.1 30 09:40 12.12.2019
6325 Clouds 12 1008 87 10000 4.1 30 09:21 12.12.2019
6326 Clouds 11 1008 87 10000 2.6 20 08:54 12.12.2019
6327 Clouds 11 1008 87 10000 3.1 360 08:36 12.12.2019
6328 Clouds 11 1008 87 10000 3.6 20 08:18 12.12.2019
6329 Clouds 11 1008 87 10000 3.6 20 07:41 12.12.2019
6330 Clouds 11 1008 87 10000 3.6 20 07:21 12.12.2019
6331 Clouds 11 1008 93 10000 3.1 20 06:43 12.12.2019
6332 Clouds 11 1008 93 10000 3.1 20 06:23 12.12.2019
6333 Clouds 11 1008 93 10000 4.1 30 05:35 12.12.2019
6334 Clouds 10 1008 87 10000 4.1 20 04:49 12.12.2019
6335 Clouds 10 1009 87 10000 3.1 20 02:44 12.12.2019
6336 Clouds 11 1009 81 10000 4.1 20 02:26 12.12.2019
6337 Clouds 11 1010 81 10000 4.1 20 01:59 12.12.2019
6338 Clouds 11 1010 81 10000 3.6 10 01:36 12.12.2019
6339 Clouds 11 1010 76 10000 3.1 20 00:58 12.12.2019
6340 Clouds 11 1010 76 10000 3.1 20 00:38 12.12.2019
6341 Clouds 11 1010 76 10000 3.1 20 00:18 12.12.2019
6342 Clouds 12 1011 76 10000 3.1 20 23:40 11.12.2019
6343 Clouds 12 1011 76 10000 3.1 20 23:19 11.12.2019
6344 Clouds 12 1011 76 10000 3.6 30 22:57 11.12.2019
6345 Clouds 12 1011 71 10000 4.1 30 22:38 11.12.2019
6346 Clouds 12 1011 71 10000 4.1 30 22:19 11.12.2019
6347 Clouds 11 1011 71 10000 4.1 40 21:55 11.12.2019
6348 Clouds 11 1011 71 10000 4.1 40 21:55 11.12.2019
6349 Clouds 11 1012 71 10000 4.1 30 21:37 11.12.2019
6350 Clouds 11 1012 71 10000 4.1 30 21:19 11.12.2019
6351 Clouds 11 1012 71 10000 4.1 50 20:55 11.12.2019
6352 Clouds 11 1012 71 10000 5.1 50 20:37 11.12.2019
6353 Clouds 11 1012 71 10000 5.1 50 20:18 11.12.2019
6354 Clouds 12 1012 71 10000 5.1 50 19:55 11.12.2019
6355 Clouds 12 1012 71 10000 5.1 50 19:36 11.12.2019
6356 Clouds 12 1012 71 10000 5.1 50 19:18 11.12.2019
6357 Clouds 12 1012 71 10000 6.2 50 18:40 11.12.2019
6358 Clouds 12 1012 71 10000 6.2 50 18:21 11.12.2019
6359 Clouds 12 1012 76 10000 4.1 30 17:57 11.12.2019
6360 Clouds 12 1012 76 10000 5.1 60 17:38 11.12.2019
6361 Clouds 12 1012 71 10000 5.1 50 17:18 11.12.2019
6362 Clouds 12 1012 71 10000 5.1 50 16:56 11.12.2019
6363 Clouds 12 1013 76 10000 6.2 70 16:37 11.12.2019
6364 Clouds 12 1013 76 10000 6.2 70 16:19 11.12.2019
6365 Rain 12 1012 71 8000 4.6 40 15:57 11.12.2019
6366 Rain 12 1012 71 8000 4.6 40 15:57 11.12.2019
6367 Rain 12 1012 71 8000 3.6 40 15:37 11.12.2019
6368 Rain 12 1012 71 8000 3.6 40 15:19 11.12.2019
6369 Rain 13 1012 62 10000 3.6 40 14:55 11.12.2019
6370 Rain 13 1012 58 10000 4.1 40 14:37 11.12.2019
6371 Rain 13 1012 58 10000 4.1 40 14:18 11.12.2019
6372 Clouds 13 1012 54 10000 5.1 40 13:44 11.12.2019
6373 Clouds 13 1012 54 10000 5.1 40 13:24 11.12.2019
6374 Clouds 13 1012 54 10000 6.2 50 12:59 11.12.2019
6375 Clouds 13 1013 54 10000 4.6 50 12:40 11.12.2019
6376 Clouds 13 1013 54 10000 4.6 50 12:22 11.12.2019
6377 Clouds 13 1013 54 10000 6.2 50 11:58 11.12.2019
6378 Clouds 13 1012 54 10000 6.2 50 11:39 11.12.2019
6379 Clouds 12 1012 54 10000 6.2 50 11:19 11.12.2019
6380 Clouds 12 1013 50 10000 7.2 70 10:59 11.12.2019
6381 Clouds 12 1014 43 10000 6.2 60 10:40 11.12.2019
6382 Clouds 12 1014 43 10000 6.2 60 10:21 11.12.2019
6383 Clouds 12 1014 43 10000 6.2 60 10:21 11.12.2019
6384 Clouds 12 1014 50 10000 5.7 60 09:57 11.12.2019
6385 Clouds 11 1015 50 10000 4.6 60 09:38 11.12.2019
6386 Clouds 11 1015 50 10000 4.6 60 09:19 11.12.2019
6387 Clouds 11 1014 53 10000 5.1 50 08:55 11.12.2019
6388 Clouds 10 1014 61 10000 5.1 40 08:36 11.12.2019
6389 Clear 10 1014 61 10000 5.1 40 08:18 11.12.2019
6390 Clear 9 1014 66 10000 3.6 30 07:43 11.12.2019
6391 Clear 9 1015 66 10000 3.6 50 07:24 11.12.2019
6392 Clear 9 1015 66 10000 3.6 50 07:24 11.12.2019
6393 Clear 8 1015 70 10000 4.1 20 06:46 11.12.2019
6394 Clear 8 1014 70 10000 3.6 20 06:25 11.12.2019
6395 Clear 8 1014 70 10000 3.6 20 05:55 11.12.2019
6396 Clear 8 1014 75 10000 2.6 30 05:35 11.12.2019
6397 Clear 8 1014 70 10000 3.1 30 04:51 11.12.2019
6398 Clear 7 1014 81 10000 3.6 10 03:29 11.12.2019
6399 Clear 6 1014 86 10000 3.1 360 02:35 11.12.2019
6400 Clear 7 1014 87 10000 2.6 20 01:22 11.12.2019
6401 Clear 7 1014 81 10000 3.1 20 00:43 11.12.2019
6402 Clear 7 1014 87 10000 2.6 20 00:19 11.12.2019
6403 Clear 7 1014 81 10000 2.6 0 23:45 10.12.2019
6404 Clear 8 1014 75 10000 2.1 30 23:26 10.12.2019
6405 Clear 8 1015 76 10000 2.6 30 22:56 10.12.2019
6406 Clear 8 1014 75 10000 3.1 30 22:38 10.12.2019
6407 Clear 8 1014 75 10000 3.1 30 22:20 10.12.2019
6408 Clear 7 1014 81 10000 2.6 20 21:54 10.12.2019
6409 Clear 9 1014 66 10000 2.6 40 21:36 10.12.2019
6410 Clear 9 1014 66 10000 2.6 40 21:18 10.12.2019
6411 Clear 9 1014 66 10000 2.6 40 20:55 10.12.2019
6412 Clear 9 1014 62 10000 3.1 50 20:36 10.12.2019
6413 Clear 10 1014 62 10000 3.1 50 20:18 10.12.2019
6414 Clear 10 1014 66 10000 2.1 40 19:44 10.12.2019
6415 Clear 10 1014 66 10000 2.1 40 19:25 10.12.2019
6416 Clear 10 1014 62 10000 3.1 20 18:57 10.12.2019
6417 Clear 11 1014 66 10000 3.1 20 18:39 10.12.2019
6418 Clear 11 1014 66 10000 3.1 20 18:19 10.12.2019
6419 Clear 10 1014 66 10000 3.1 20 17:55 10.12.2019
6420 Clear 11 1013 58 10000 2.6 30 17:36 10.12.2019
6421 Clear 11 1013 58 10000 2.6 30 17:18 10.12.2019
6422 Clear 11 1013 54 10000 2.1 50 16:42 10.12.2019
6423 Clear 12 1013 54 10000 2.1 50 16:20 10.12.2019
6424 Clear 12 1013 54 10000 2.1 50 16:20 10.12.2019
6425 Clear 12 1013 54 10000 2.1 90 15:54 10.12.2019
6426 Clear 13 1013 54 10000 2.6 90 15:36 10.12.2019
6427 Clear 13 1013 54 10000 2.6 90 15:18 10.12.2019
6428 Clear 13 1013 54 10000 2.6 90 15:18 10.12.2019
6429 Clear 13 1013 47 10000 2.6 120 14:42 10.12.2019
6430 Clear 13 1013 50 10000 2.6 110 14:24 10.12.2019
6431 Clear 13 1013 47 10000 3.6 100 13:59 10.12.2019
6432 Clear 13 1013 54 10000 4.1 120 13:40 10.12.2019
6433 Clear 13 1013 54 10000 4.1 120 13:20 10.12.2019
6434 Clear 13 1013 54 10000 4.6 110 12:57 10.12.2019
6435 Clear 13 1013 54 10000 5.1 120 12:38 10.12.2019
6436 Clear 13 1013 54 10000 5.1 120 12:20 10.12.2019
6437 Clear 13 1013 54 10000 5.1 110 11:41 10.12.2019
6438 Clear 13 1013 54 10000 5.7 110 11:41 10.12.2019
6439 Clear 13 1013 54 10000 5.1 110 11:23 10.12.2019
6440 Clear 13 1013 54 10000 5.7 110 10:55 10.12.2019
6441 Clouds 12 1014 54 10000 5.1 100 10:37 10.12.2019
6442 Clouds 12 1014 54 10000 5.1 100 10:19 10.12.2019
6443 Clouds 12 1014 62 10000 3.6 90 09:54 10.12.2019
6444 Clear 11 1014 66 10000 1.5 320 09:36 10.12.2019
6445 Clear 11 1014 66 10000 1.5 320 09:18 10.12.2019
6446 Clear 10 1014 71 10000 1 0 08:41 10.12.2019
6447 Clear 9 1014 71 10000 1 0 08:22 10.12.2019
6448 Clear 8 1014 76 10000 1 0 07:57 10.12.2019
6449 Clear 7 1014 71 10000 2.1 80 07:39 10.12.2019
6450 Clear 7 1014 71 10000 2.1 80 07:21 10.12.2019
6451 Clear 7 1014 66 10000 3.1 130 06:46 10.12.2019
6452 Clear 7 1013 66 10000 4.6 110 06:19 10.12.2019
6453 Clear 6 1013 66 10000 5.7 110 05:52 10.12.2019
6454 Clear 6 1013 93 6000 1.5 360 04:51 10.12.2019
6455 Clear 5 1013 93 8000 2.6 320 03:36 10.12.2019
6456 Clear 5 1013 93 10000 3.1 350 02:44 10.12.2019
6457 Clear 6 1014 87 10000 2.6 320 01:44 10.12.2019
6458 Clear 6 1014 93 10000 2.1 300 01:20 10.12.2019
6459 Clear 6 1014 87 10000 2.46 138 00:41 10.12.2019
6460 Clear 6 1014 87 10000 2.46 138 00:20 10.12.2019
6461 Clear 7 1014 76 10000 1 110 23:41 09.12.2019
6462 Clear 7 1014 76 10000 1 110 23:22 09.12.2019
6463 Clear 8 1014 66 10000 3.1 120 22:58 09.12.2019
6464 Clear 9 1014 62 10000 5.1 130 22:39 09.12.2019
6465 Clear 9 1014 62 10000 5.1 130 22:19 09.12.2019
6466 Clear 8 1014 66 10000 4.1 140 21:56 09.12.2019
6467 Clear 8 1014 62 10000 5.7 140 21:38 09.12.2019
6468 Clear 8 1014 62 10000 5.7 140 21:18 09.12.2019
6469 Clear 8 1014 66 10000 4.1 130 20:56 09.12.2019
6470 Clear 8 1015 87 10000 1.5 40 20:38 09.12.2019
6471 Clear 8 1015 87 10000 1.5 40 20:20 09.12.2019
6472 Clear 8 1015 87 10000 1.5 10 19:55 09.12.2019
6473 Clear 8 1015 86 10000 1.5 340 19:37 09.12.2019
6474 Clear 8 1015 86 10000 1.5 340 19:19 09.12.2019
6475 Clear 8 1015 81 10000 1 350 18:56 09.12.2019
6476 Clear 8 1015 81 10000 1 340 18:37 09.12.2019
6477 Clear 9 1015 81 10000 1 340 18:19 09.12.2019
6478 -273 0 0 0 0 0 17:57 09.12.2019
6479 Clear 9 1015 75 10000 1.79 67 17:38 09.12.2019
6480 Clear 9 1015 75 10000 1.43 125 17:20 09.12.2019
6481 Clear 10 1015 66 10000 1 230 16:56 09.12.2019
6482 Clear 11 1015 66 10000 0.5 230 16:37 09.12.2019
6483 Clear 11 1015 66 10000 0.5 230 16:18 09.12.2019
6484 Clear 11 1015 62 10000 1 0 15:55 09.12.2019
6485 Clear 12 1015 66 10000 2.1 130 15:37 09.12.2019
6486 Clear 12 1015 66 10000 2.1 130 15:18 09.12.2019
6487 Clear 13 1015 62 10000 2.1 160 14:42 09.12.2019
6488 Clear 13 1015 62 10000 2.1 160 14:19 09.12.2019
6489 Clear 13 1016 58 10000 2.6 170 13:58 09.12.2019
6490 Clear 13 1016 66 10000 2.6 170 13:38 09.12.2019
6491 Clouds 12 1016 66 10000 2.6 170 13:19 09.12.2019
6492 Clouds 13 1016 66 10000 2.6 160 12:57 09.12.2019
6493 Clouds 13 1016 66 10000 2.1 130 12:38 09.12.2019
6494 Clouds 13 1016 66 10000 2.1 130 12:19 09.12.2019
6495 Clouds 13 1017 62 10000 2.1 110 11:58 09.12.2019
6496 Clouds 13 1017 71 10000 2.6 110 11:39 09.12.2019
6497 Clear 12 1017 71 10000 2.6 110 11:21 09.12.2019
6498 Clouds 12 1018 76 10000 2.1 90 10:54 09.12.2019
6499 Clouds 12 1018 76 10000 2.1 100 10:36 09.12.2019
6500 Clouds 12 1018 76 10000 2.1 100 10:18 09.12.2019
6501 Clouds 11 1018 81 10000 2.1 100 09:41 09.12.2019
6502 Clouds 10 1018 81 10000 2.1 100 09:21 09.12.2019
6503 Clouds 9 1018 93 10000 1 0 08:54 09.12.2019
6504 Clouds 8 1018 100 10000 1 0 08:36 09.12.2019
6505 Clouds 7 1018 100 10000 1.5 360 08:18 09.12.2019
6506 Clouds 7 1018 100 10000 1.5 360 07:42 09.12.2019
6507 Clouds 6 1018 100 10000 0.5 0 07:24 09.12.2019
6508 Clouds 6 1018 100 10000 1.72 86 06:49 09.12.2019
6509 Clouds 6 1018 93 10000 1.5 10 06:26 09.12.2019
6510 Clear 5 1018 93 10000 2.1 350 05:29 09.12.2019
6511 Clear 6 1018 93 10000 2.1 360 04:49 09.12.2019
6512 Clear 6 1018 93 10000 2.1 350 03:45 09.12.2019
6513 Clear 6 1019 93 10000 1 30 02:27 09.12.2019
6514 Clear 6 1019 93 10000 2.6 360 01:44 09.12.2019
6515 Clear 6 1019 93 10000 3.1 350 00:53 09.12.2019
6516 Clear 6 1019 87 10000 2.6 360 00:32 09.12.2019
6517 Clear 7 1019 93 10000 3.1 350 23:44 08.12.2019
6518 Clouds 7 1019 93 10000 3.1 350 23:24 08.12.2019
6519 Clouds 7 1019 93 10000 2.6 350 22:58 08.12.2019
6520 Clouds 8 1019 87 10000 2.1 350 22:39 08.12.2019
6521 Clouds 7 1019 87 10000 2.1 350 22:20 08.12.2019
6522 Clouds 8 1019 87 10000 1.5 40 21:59 08.12.2019
6523 Clouds 8 1019 87 10000 1.5 40 21:40 08.12.2019
6524 Clouds 8 1019 81 10000 1.74 62 21:22 08.12.2019
6525 Clouds 8 1020 71 10000 1 200 20:57 08.12.2019
6526 Clouds 9 1020 81 10000 0.5 0 20:38 08.12.2019
6527 Clouds 9 1020 81 10000 0.5 0 20:20 08.12.2019
6528 Clouds 9 1020 81 10000 1 340 19:59 08.12.2019
6529 Clouds 9 1020 81 10000 1 340 19:41 08.12.2019
6530 Clouds 10 1020 76 10000 1 300 19:23 08.12.2019
6531 Clouds 10 1020 71 10000 1.5 300 18:55 08.12.2019
6532 Clouds 10 1020 71 10000 1.5 300 18:55 08.12.2019
6533 Clouds 10 1020 76 10000 2.1 330 18:37 08.12.2019
6534 Clouds 10 1020 76 10000 2.1 330 18:19 08.12.2019
6535 Clouds 10 1019 76 10000 2.1 340 17:57 08.12.2019
6536 Clouds 10 1019 71 10000 2.1 350 17:38 08.12.2019
6537 Clouds 10 1019 71 10000 2.1 350 17:20 08.12.2019
6538 Clouds 10 1019 71 10000 2.1 350 17:20 08.12.2019
6539 Clouds 10 1019 71 10000 2.1 350 17:20 08.12.2019
6540 Clouds 10 1019 71 10000 2.1 350 17:20 08.12.2019
6541 Clouds 11 1019 71 10000 3.6 350 16:57 08.12.2019
6542 Clouds 11 1019 71 10000 4.1 350 16:39 08.12.2019
6543 Clouds 11 1019 71 10000 4.1 350 16:20 08.12.2019
6544 Clouds 11 1019 71 10000 4.1 350 15:55 08.12.2019
6545 Clouds 12 1018 62 10000 4.1 350 15:36 08.12.2019
6546 Clouds 12 1018 62 10000 4.1 350 15:18 08.12.2019
6547 Clouds 12 1018 62 10000 4.1 320 14:44 08.12.2019
6548 Clouds 12 1018 62 10000 4.1 320 14:24 08.12.2019
6549 Clouds 12 1018 62 10000 4.1 320 14:24 08.12.2019
6550 Clouds 12 1018 58 10000 4.6 350 13:59 08.12.2019
6551 Clouds 12 1018 62 10000 4.6 340 13:40 08.12.2019
6552 Clouds 12 1018 62 10000 4.6 340 13:21 08.12.2019
6553 Clouds 12 1018 62 10000 4.6 340 13:21 08.12.2019
6554 Clouds 12 1018 66 10000 5.1 320 12:57 08.12.2019
6555 Clouds 12 1018 62 10000 3.1 330 12:38 08.12.2019
6556 Clouds 12 1018 62 10000 3.1 330 12:18 08.12.2019
6557 Clouds 12 1018 66 10000 2.6 320 11:57 08.12.2019
6558 Rain 12 1017 81 10000 2.6 170 11:37 08.12.2019
6559 Rain 12 1017 81 10000 2.6 170 11:19 08.12.2019
6560 Rain 12 1017 81 10000 2.6 170 11:19 08.12.2019
6561 Clouds 12 1018 81 10000 3.1 240 11:19 08.12.2019
6562 Clouds 12 1018 76 10000 3.6 250 10:40 08.12.2019
6563 Clouds 12 1018 76 10000 3.6 250 10:21 08.12.2019
6564 Clouds 12 1018 81 10000 3.1 270 09:58 08.12.2019
6565 Clouds 11 1018 87 10000 5.1 230 09:39 08.12.2019
6566 Clouds 11 1018 87 10000 5.1 230 09:20 08.12.2019
6567 Clouds 10 1018 81 10000 5.1 220 08:59 08.12.2019
6568 Clouds 10 1018 81 10000 4.6 220 08:39 08.12.2019
6569 Clouds 10 1018 81 10000 4.6 220 08:21 08.12.2019
6570 Clouds 10 1018 81 10000 4.6 220 08:21 08.12.2019
6571 Clouds 9 1017 87 10000 4.6 210 07:45 08.12.2019
6572 Clouds 9 1017 87 10000 4.6 210 07:20 08.12.2019
6573 Clouds 9 1017 81 10000 4.6 210 06:52 08.12.2019
6574 Clouds 9 1017 75 10000 1 0 06:23 08.12.2019
6575 Clouds 9 1017 87 10000 5.7 210 05:52 08.12.2019
6576 Clouds 9 1017 87 10000 5.7 210 05:20 08.12.2019
6577 Clouds 9 1017 87 10000 5.7 200 03:55 08.12.2019
6578 Clouds 9 1017 81 10000 5.7 200 03:37 08.12.2019
6579 Clouds 10 1017 76 10000 5.7 220 02:40 08.12.2019
6580 Clouds 10 1017 71 10000 5.7 210 01:56 08.12.2019
6581 Clouds 10 1017 71 10000 5.1 220 01:33 08.12.2019
6582 Clouds 10 1017 71 10000 4.1 220 00:43 08.12.2019
6583 Clouds 10 1017 71 10000 4.1 220 00:21 08.12.2019
6584 Clouds 10 1017 71 10000 4.1 220 23:55 07.12.2019
6585 Clouds 10 1017 71 10000 5.1 210 23:36 07.12.2019
6586 Clouds 10 1017 71 10000 5.1 210 23:18 07.12.2019
6587 Clouds 10 1017 66 10000 5.1 210 22:54 07.12.2019
6588 Clouds 10 1017 66 10000 5.1 210 22:54 07.12.2019
6589 Clouds 10 1017 66 10000 3.1 200 22:36 07.12.2019
6590 Clouds 10 1017 66 10000 3.1 200 22:18 07.12.2019
6591 Clouds 10 1018 71 10000 4.1 200 21:54 07.12.2019
6592 Clouds 9 1018 76 10000 3.1 210 21:36 07.12.2019
6593 Clouds 9 1018 76 10000 3.1 210 21:18 07.12.2019
6594 Rain 9 1018 66 10000 4.1 200 20:37 07.12.2019
6595 Rain 9 1018 66 10000 4.1 200 20:19 07.12.2019
6596 Rain 9 1018 66 10000 4.1 200 20:19 07.12.2019
6597 Rain 9 1018 81 10000 4.6 230 19:57 07.12.2019
6598 Rain 9 1018 81 10000 4.6 230 19:38 07.12.2019
6599 Rain 9 1018 81 10000 4.6 230 19:20 07.12.2019
6600 Clouds 9 1018 76 10000 4.6 230 18:57 07.12.2019
6601 Clouds 10 1018 71 10000 4.1 230 18:38 07.12.2019
6602 Clouds 10 1018 71 10000 3.6 230 18:18 07.12.2019
6603 Clouds 10 1018 71 10000 3.6 230 17:55 07.12.2019
6604 Rain 10 1018 66 10000 4.1 210 17:36 07.12.2019
6605 Rain 10 1018 66 10000 4.1 210 17:18 07.12.2019
6606 Clouds 10 1018 61 10000 4.1 210 16:54 07.12.2019
6607 Clouds 10 1018 66 10000 3.6 220 16:36 07.12.2019
6608 Clouds 10 1018 66 10000 3.6 220 16:18 07.12.2019
6609 Clouds 10 1018 66 10000 4.1 240 15:40 07.12.2019
6610 Clouds 10 1018 66 10000 4.1 240 15:22 07.12.2019
6611 Clouds 10 1018 57 10000 4.1 240 14:43 07.12.2019
6612 Clouds 11 1018 57 10000 4.1 240 14:19 07.12.2019
6613 Clouds 11 1018 61 10000 3.6 220 13:59 07.12.2019
6614 Clouds 11 1018 53 10000 4.6 220 13:39 07.12.2019
6615 Clouds 11 1018 53 10000 4.6 220 13:39 07.12.2019
6616 Clouds 11 1018 53 10000 4.6 220 13:19 07.12.2019
6617 Clouds 12 1018 53 10000 5.1 220 12:54 07.12.2019
6618 Clouds 12 1019 53 10000 5.1 210 12:36 07.12.2019
6619 Clouds 12 1019 57 10000 5.7 220 12:18 07.12.2019
6620 Clouds 11 1019 57 10000 6.2 210 11:41 07.12.2019
6621 Clear 11 1019 57 10000 6.2 210 11:23 07.12.2019
6622 Clear 11 1020 57 10000 5.7 220 10:54 07.12.2019
6623 Clear 11 1020 53 10000 6.2 210 10:36 07.12.2019
6624 Clear 10 1021 50 10000 6.2 210 10:18 07.12.2019
6625 Clear 9 1021 57 10000 6.2 210 09:39 07.12.2019
6626 Clear 9 1021 57 10000 6.2 210 09:20 07.12.2019
6627 Clear 8 1021 61 10000 5.7 210 08:45 07.12.2019
6628 Clouds 8 1021 57 10000 6.7 210 08:24 07.12.2019
6629 Clouds 7 1021 61 10000 5.1 210 07:49 07.12.2019
6630 Clouds 6 1021 65 10000 4.1 0 07:28 07.12.2019
6631 Clouds 4 1021 93 10000 2.6 340 06:52 07.12.2019
6632 Clouds 5 1021 93 10000 2.1 340 06:26 07.12.2019
6633 Clouds 4 1021 86 10000 1.5 330 05:47 07.12.2019
6634 Clouds 4 1021 86 10000 2.6 340 04:43 07.12.2019
6635 Clouds 4 1021 86 10000 3.1 330 03:50 07.12.2019
6636 Clear 4 1022 80 10000 2.6 30 02:22 07.12.2019
6637 Clear 6 1023 65 10000 2.6 90 01:42 07.12.2019
6638 Clear 6 1023 65 10000 2.6 90 01:24 07.12.2019
6639 Clear 5 1023 86 10000 2.1 10 00:22 07.12.2019
6640 Clear 5 1023 86 10000 2.1 20 23:59 06.12.2019
6641 Clear 5 1023 86 10000 2.1 340 23:40 06.12.2019
6642 Clear 6 1023 86 10000 2.1 340 23:20 06.12.2019
6643 Clear 5 1024 86 10000 1 0 22:39 06.12.2019
6644 Clear 6 1024 86 10000 1 0 22:21 06.12.2019
6645 Clear 6 1024 86 10000 2.1 340 21:59 06.12.2019
6646 Clear 5 1024 86 10000 2.1 340 21:41 06.12.2019
6647 Clear 5 1024 86 10000 2.1 360 21:20 06.12.2019
6648 Clear 6 1024 86 10000 1.5 350 20:56 06.12.2019
6649 Clear 7 1024 81 10000 1.5 340 20:38 06.12.2019
6650 Clear 7 1025 75 10000 1.5 20 20:19 06.12.2019
6651 Clear 7 1025 70 10000 1.5 20 19:41 06.12.2019
6652 Clear 7 1025 70 10000 1.5 20 19:22 06.12.2019
6653 Clear 8 1025 66 10000 2.6 30 18:59 06.12.2019
6654 Clear 8 1025 66 10000 2.6 40 18:40 06.12.2019
6655 Clear 9 1025 66 10000 2.6 40 18:21 06.12.2019
6656 Clear 9 1025 66 10000 2.6 40 18:21 06.12.2019
6657 Clear 9 1025 66 10000 2.6 50 17:58 06.12.2019
6658 Clear 9 1025 66 10000 3.1 50 17:40 06.12.2019
6659 Clear 9 1025 66 10000 3.1 50 17:21 06.12.2019
6660 Clear 10 1025 66 10000 3.6 40 16:56 06.12.2019
6661 Clear 10 1025 66 10000 1.5 40 16:37 06.12.2019
6662 Clear 10 1025 66 10000 1.5 40 16:18 06.12.2019
6663 Clouds 11 1025 57 10000 0.5 270 15:41 06.12.2019
6664 Clouds 11 1025 57 10000 0.5 270 15:41 06.12.2019
6665 Clouds 11 1025 62 10000 1.5 120 15:22 06.12.2019
6666 Clouds 11 1025 54 10000 2.1 120 14:57 06.12.2019
6667 Clouds 12 1025 54 10000 3.1 130 14:39 06.12.2019
6668 Clouds 12 1025 54 10000 3.1 130 14:19 06.12.2019
6669 Clouds 12 1025 54 10000 3.1 130 13:45 06.12.2019
6670 Clouds 12 1025 57 10000 3.1 130 13:45 06.12.2019
6671 Clouds 12 1025 57 10000 3.1 130 13:26 06.12.2019
6672 Clouds 12 1026 53 10000 3.1 130 12:56 06.12.2019
6673 Clouds 12 1026 53 10000 2.1 130 12:38 06.12.2019
6674 Clouds 12 1026 53 10000 2.1 130 12:20 06.12.2019
6675 Clear 12 1027 53 10000 3.6 110 11:42 06.12.2019
6676 Clear 11 1027 53 10000 3.6 110 11:23 06.12.2019
6677 Clear 12 1027 57 10000 3.1 110 10:55 06.12.2019
6678 Clear 11 1028 61 10000 3.1 110 10:37 06.12.2019
6679 Clear 11 1028 61 10000 3.1 110 10:18 06.12.2019
6680 Clear 11 1028 61 10000 3.1 90 09:54 06.12.2019
6681 Clear 10 1028 61 10000 3.1 110 09:36 06.12.2019
6682 Clear 10 1028 61 10000 3.1 110 09:18 06.12.2019
6683 Clear 9 1028 70 10000 2.6 60 08:40 06.12.2019
6684 Clear 9 1028 70 10000 2.6 60 08:21 06.12.2019
6685 Clear 7 1028 75 10000 2.1 30 07:38 06.12.2019
6686 Clear 7 1028 75 10000 3.1 50 07:20 06.12.2019
6687 Clear 7 1028 75 10000 3.1 50 06:48 06.12.2019
6688 Clear 7 1028 75 10000 3.1 50 06:24 06.12.2019
6689 Clear 7 1028 75 10000 3.1 50 05:46 06.12.2019
6690 Clouds 7 1029 70 10000 3.1 50 02:20 06.12.2019
6691 Clear 7 1028 70 10000 3.6 40 01:43 06.12.2019
6692 Clear 7 1029 70 10000 4.1 40 00:49 06.12.2019
6693 Clear 8 1029 70 10000 3.6 40 00:22 06.12.2019
6694 Clear 8 1029 70 10000 3.6 50 23:51 05.12.2019
6695 Clear 8 1029 70 10000 3.1 60 23:20 05.12.2019
6696 Clouds 8 1029 70 10000 4.1 50 22:58 05.12.2019
6697 Clouds 8 1029 70 10000 3.1 50 22:38 05.12.2019
6698 Clouds 8 1029 70 10000 3.1 50 22:19 05.12.2019
6699 Clouds 9 1029 70 10000 3.6 70 21:55 05.12.2019
6700 Clouds 9 1029 76 10000 4.6 50 21:37 05.12.2019
6701 Clouds 9 1029 76 10000 4.6 50 21:19 05.12.2019
6702 Clouds 9 1029 76 10000 3.6 60 20:55 05.12.2019
6703 Clouds 9 1029 76 10000 3.6 60 20:36 05.12.2019
6704 Clouds 9 1029 76 10000 3.6 60 20:36 05.12.2019